<?xml version="1.0" encoding="UTF-8" standalone="no" ?>
<gpx xmlns="http://www.topografix.com/GPX/1/1" xmlns:xsi="http://www.w3.org/2001/XMLSchema-instance" xsi:schemaLocation="http://www.topografix.com/GPX/1/1 http://www.topografix.com/GPX/1/1/gpx.xsd" version="1.1" creator="VisuGPX - https://www.visugpx.com">
  <metadata>
    <name>048SG78-7274839</name>
    <desc><![CDATA[03]]></desc>
  </metadata>
  <trk>
    <name><![CDATA[048SG78-7274839]]></name>
    <trkseg>
      <trkpt lat="46.69855" lon="-1.93409">
        <ele>5</ele>
        <time>2018-03-24T22:25:03Z</time>
      </trkpt>
      <trkpt lat="46.69825" lon="-1.93419">
        <ele>5</ele>
        <time>2018-03-24T22:26:03Z</time>
      </trkpt>
      <trkpt lat="46.69812" lon="-1.93424">
        <ele>5</ele>
        <time>2018-03-24T22:27:03Z</time>
      </trkpt>
      <trkpt lat="46.69805" lon="-1.93425">
        <ele>5</ele>
        <time>2018-03-24T22:28:03Z</time>
      </trkpt>
      <trkpt lat="46.69798" lon="-1.93426">
        <ele>5</ele>
        <time>2018-03-24T22:29:03Z</time>
      </trkpt>
      <trkpt lat="46.69792" lon="-1.93425">
        <ele>5</ele>
        <time>2018-03-24T22:30:03Z</time>
      </trkpt>
      <trkpt lat="46.69792" lon="-1.93425">
        <ele>5</ele>
        <time>2018-03-24T22:31:03Z</time>
      </trkpt>
      <trkpt lat="46.69792" lon="-1.93426">
        <ele>5</ele>
        <time>2018-03-24T22:32:03Z</time>
      </trkpt>
      <trkpt lat="46.69791" lon="-1.93426">
        <ele>5</ele>
        <time>2018-03-24T22:33:03Z</time>
      </trkpt>
      <trkpt lat="46.69791" lon="-1.93427">
        <ele>5</ele>
        <time>2018-03-24T22:34:03Z</time>
      </trkpt>
      <trkpt lat="46.6979" lon="-1.93427">
        <ele>5</ele>
        <time>2018-03-24T22:35:03Z</time>
      </trkpt>
      <trkpt lat="46.6979" lon="-1.93428">
        <ele>5</ele>
        <time>2018-03-24T22:36:03Z</time>
      </trkpt>
      <trkpt lat="46.69789" lon="-1.93428">
        <ele>5</ele>
        <time>2018-03-24T22:37:03Z</time>
      </trkpt>
      <trkpt lat="46.69788" lon="-1.93428">
        <ele>5</ele>
        <time>2018-03-24T22:38:03Z</time>
      </trkpt>
      <trkpt lat="46.69788" lon="-1.93427">
        <ele>5</ele>
        <time>2018-03-24T22:39:03Z</time>
      </trkpt>
      <trkpt lat="46.69787" lon="-1.93427">
        <ele>5</ele>
        <time>2018-03-24T22:40:03Z</time>
      </trkpt>
      <trkpt lat="46.69787" lon="-1.93426">
        <ele>5</ele>
        <time>2018-03-24T22:41:03Z</time>
      </trkpt>
      <trkpt lat="46.69786" lon="-1.93426">
        <ele>5</ele>
        <time>2018-03-24T22:42:03Z</time>
      </trkpt>
      <trkpt lat="46.69786" lon="-1.93425">
        <ele>5</ele>
        <time>2018-03-24T22:43:03Z</time>
      </trkpt>
      <trkpt lat="46.69786" lon="-1.93424">
        <ele>5</ele>
        <time>2018-03-24T22:44:03Z</time>
      </trkpt>
      <trkpt lat="46.69785" lon="-1.93424">
        <ele>5</ele>
        <time>2018-03-24T22:45:03Z</time>
      </trkpt>
      <trkpt lat="46.69785" lon="-1.93423">
        <ele>5</ele>
        <time>2018-03-24T22:46:03Z</time>
      </trkpt>
      <trkpt lat="46.69785" lon="-1.93422">
        <ele>5</ele>
        <time>2018-03-24T22:47:03Z</time>
      </trkpt>
      <trkpt lat="46.69785" lon="-1.93421">
        <ele>5</ele>
        <time>2018-03-24T22:48:03Z</time>
      </trkpt>
      <trkpt lat="46.69786" lon="-1.93421">
        <ele>5</ele>
        <time>2018-03-24T22:49:03Z</time>
      </trkpt>
      <trkpt lat="46.69786" lon="-1.9342">
        <ele>5</ele>
        <time>2018-03-24T22:50:03Z</time>
      </trkpt>
      <trkpt lat="46.69786" lon="-1.93419">
        <ele>5</ele>
        <time>2018-03-24T22:51:03Z</time>
      </trkpt>
      <trkpt lat="46.69786" lon="-1.93418">
        <ele>5</ele>
        <time>2018-03-24T22:52:03Z</time>
      </trkpt>
      <trkpt lat="46.69787" lon="-1.93418">
        <ele>5</ele>
        <time>2018-03-24T22:53:03Z</time>
      </trkpt>
      <trkpt lat="46.69787" lon="-1.93417">
        <ele>5</ele>
        <time>2018-03-24T22:54:03Z</time>
      </trkpt>
      <trkpt lat="46.69788" lon="-1.93417">
        <ele>5</ele>
        <time>2018-03-24T22:55:03Z</time>
      </trkpt>
      <trkpt lat="46.69789" lon="-1.93417">
        <ele>5</ele>
        <time>2018-03-24T22:56:03Z</time>
      </trkpt>
      <trkpt lat="46.6979" lon="-1.93417">
        <ele>5</ele>
        <time>2018-03-24T22:57:03Z</time>
      </trkpt>
      <trkpt lat="46.69791" lon="-1.93417">
        <ele>5</ele>
        <time>2018-03-24T22:58:03Z</time>
      </trkpt>
      <trkpt lat="46.69791" lon="-1.93418">
        <ele>5</ele>
        <time>2018-03-24T22:59:03Z</time>
      </trkpt>
      <trkpt lat="46.69792" lon="-1.93418">
        <ele>5</ele>
        <time>2018-03-24T23:00:03Z</time>
      </trkpt>
      <trkpt lat="46.69792" lon="-1.93419">
        <ele>5</ele>
        <time>2018-03-24T23:01:03Z</time>
      </trkpt>
      <trkpt lat="46.69792" lon="-1.9342">
        <ele>5</ele>
        <time>2018-03-24T23:02:03Z</time>
      </trkpt>
      <trkpt lat="46.69793" lon="-1.9342">
        <ele>5</ele>
        <time>2018-03-24T23:03:03Z</time>
      </trkpt>
      <trkpt lat="46.69797" lon="-1.93421">
        <ele>5</ele>
        <time>2018-03-24T23:04:03Z</time>
      </trkpt>
      <trkpt lat="46.69798" lon="-1.93421">
        <ele>5</ele>
        <time>2018-03-24T23:05:03Z</time>
      </trkpt>
      <trkpt lat="46.69806" lon="-1.93419">
        <ele>5</ele>
        <time>2018-03-24T23:06:03Z</time>
      </trkpt>
      <trkpt lat="46.69824" lon="-1.93411">
        <ele>5</ele>
        <time>2018-03-24T23:07:03Z</time>
      </trkpt>
      <trkpt lat="46.69892" lon="-1.93385">
        <ele>5</ele>
        <time>2018-03-24T23:08:03Z</time>
      </trkpt>
      <trkpt lat="46.69898" lon="-1.93383">
        <ele>5</ele>
        <time>2018-03-24T23:09:03Z</time>
      </trkpt>
      <trkpt lat="46.69901" lon="-1.93383">
        <ele>5</ele>
        <time>2018-03-24T23:10:03Z</time>
      </trkpt>
      <trkpt lat="46.69908" lon="-1.93383">
        <ele>4</ele>
        <time>2018-03-24T23:11:03Z</time>
      </trkpt>
      <trkpt lat="46.69907" lon="-1.93379">
        <ele>5</ele>
        <time>2018-03-24T23:12:03Z</time>
      </trkpt>
      <trkpt lat="46.69908" lon="-1.93377">
        <ele>5</ele>
        <time>2018-03-24T23:13:03Z</time>
      </trkpt>
      <trkpt lat="46.69908" lon="-1.93376">
        <ele>5</ele>
        <time>2018-03-24T23:14:03Z</time>
      </trkpt>
      <trkpt lat="46.69909" lon="-1.93375">
        <ele>5</ele>
        <time>2018-03-24T23:15:03Z</time>
      </trkpt>
      <trkpt lat="46.69911" lon="-1.93375">
        <ele>5</ele>
        <time>2018-03-24T23:16:03Z</time>
      </trkpt>
      <trkpt lat="46.69912" lon="-1.93375">
        <ele>5</ele>
        <time>2018-03-24T23:17:03Z</time>
      </trkpt>
      <trkpt lat="46.69914" lon="-1.93375">
        <ele>5</ele>
        <time>2018-03-24T23:18:03Z</time>
      </trkpt>
      <trkpt lat="46.69915" lon="-1.93376">
        <ele>5</ele>
        <time>2018-03-24T23:19:03Z</time>
      </trkpt>
      <trkpt lat="46.69915" lon="-1.93377">
        <ele>4</ele>
        <time>2018-03-24T23:20:03Z</time>
      </trkpt>
      <trkpt lat="46.69916" lon="-1.93379">
        <ele>4</ele>
        <time>2018-03-24T23:21:03Z</time>
      </trkpt>
      <trkpt lat="46.69916" lon="-1.93382">
        <ele>4</ele>
        <time>2018-03-24T23:22:03Z</time>
      </trkpt>
      <trkpt lat="46.69915" lon="-1.93383">
        <ele>4</ele>
        <time>2018-03-24T23:23:03Z</time>
      </trkpt>
      <trkpt lat="46.69922" lon="-1.93383">
        <ele>4</ele>
        <time>2018-03-24T23:24:03Z</time>
      </trkpt>
      <trkpt lat="46.69925" lon="-1.93383">
        <ele>4</ele>
        <time>2018-03-24T23:25:03Z</time>
      </trkpt>
      <trkpt lat="46.69935" lon="-1.93382">
        <ele>4</ele>
        <time>2018-03-24T23:26:03Z</time>
      </trkpt>
      <trkpt lat="46.69944" lon="-1.93381">
        <ele>4</ele>
        <time>2018-03-24T23:27:03Z</time>
      </trkpt>
      <trkpt lat="46.69949" lon="-1.93379">
        <ele>4</ele>
        <time>2018-03-24T23:28:03Z</time>
      </trkpt>
      <trkpt lat="46.69953" lon="-1.93377">
        <ele>4</ele>
        <time>2018-03-24T23:29:03Z</time>
      </trkpt>
      <trkpt lat="46.69958" lon="-1.93375">
        <ele>4</ele>
        <time>2018-03-24T23:30:03Z</time>
      </trkpt>
      <trkpt lat="46.69963" lon="-1.93373">
        <ele>4</ele>
        <time>2018-03-24T23:31:03Z</time>
      </trkpt>
      <trkpt lat="46.69969" lon="-1.9337">
        <ele>4</ele>
        <time>2018-03-24T23:32:03Z</time>
      </trkpt>
      <trkpt lat="46.69973" lon="-1.93367">
        <ele>4</ele>
        <time>2018-03-24T23:33:03Z</time>
      </trkpt>
      <trkpt lat="46.69976" lon="-1.93367">
        <ele>4</ele>
        <time>2018-03-24T23:34:03Z</time>
      </trkpt>
      <trkpt lat="46.69978" lon="-1.93366">
        <ele>3</ele>
        <time>2018-03-24T23:35:03Z</time>
      </trkpt>
      <trkpt lat="46.69979" lon="-1.93366">
        <ele>3</ele>
        <time>2018-03-24T23:36:03Z</time>
      </trkpt>
      <trkpt lat="46.69982" lon="-1.93367">
        <ele>3</ele>
        <time>2018-03-24T23:37:03Z</time>
      </trkpt>
      <trkpt lat="46.69987" lon="-1.93369">
        <ele>3</ele>
        <time>2018-03-24T23:38:03Z</time>
      </trkpt>
      <trkpt lat="46.70002" lon="-1.93375">
        <ele>3</ele>
        <time>2018-03-24T23:39:03Z</time>
      </trkpt>
      <trkpt lat="46.70015" lon="-1.9338">
        <ele>3</ele>
        <time>2018-03-24T23:40:03Z</time>
      </trkpt>
      <trkpt lat="46.7002" lon="-1.93382">
        <ele>3</ele>
        <time>2018-03-24T23:41:03Z</time>
      </trkpt>
      <trkpt lat="46.70023" lon="-1.93384">
        <ele>3</ele>
        <time>2018-03-24T23:42:03Z</time>
      </trkpt>
      <trkpt lat="46.70025" lon="-1.93386">
        <ele>3</ele>
        <time>2018-03-24T23:43:03Z</time>
      </trkpt>
      <trkpt lat="46.70028" lon="-1.93388">
        <ele>3</ele>
        <time>2018-03-24T23:44:03Z</time>
      </trkpt>
      <trkpt lat="46.7003" lon="-1.93391">
        <ele>3</ele>
        <time>2018-03-24T23:45:03Z</time>
      </trkpt>
      <trkpt lat="46.70033" lon="-1.93394">
        <ele>2</ele>
        <time>2018-03-24T23:46:03Z</time>
      </trkpt>
      <trkpt lat="46.70036" lon="-1.93397">
        <ele>2</ele>
        <time>2018-03-24T23:47:03Z</time>
      </trkpt>
      <trkpt lat="46.70038" lon="-1.93398">
        <ele>2</ele>
        <time>2018-03-24T23:48:03Z</time>
      </trkpt>
      <trkpt lat="46.70041" lon="-1.934">
        <ele>2</ele>
        <time>2018-03-24T23:49:03Z</time>
      </trkpt>
      <trkpt lat="46.70043" lon="-1.93401">
        <ele>2</ele>
        <time>2018-03-24T23:50:03Z</time>
      </trkpt>
      <trkpt lat="46.70046" lon="-1.93402">
        <ele>2</ele>
        <time>2018-03-24T23:51:03Z</time>
      </trkpt>
      <trkpt lat="46.70052" lon="-1.93405">
        <ele>2</ele>
        <time>2018-03-24T23:52:03Z</time>
      </trkpt>
      <trkpt lat="46.70052" lon="-1.93404">
        <ele>2</ele>
        <time>2018-03-24T23:53:03Z</time>
      </trkpt>
      <trkpt lat="46.70052" lon="-1.93403">
        <ele>2</ele>
        <time>2018-03-24T23:54:03Z</time>
      </trkpt>
      <trkpt lat="46.70052" lon="-1.93402">
        <ele>2</ele>
        <time>2018-03-24T23:55:03Z</time>
      </trkpt>
      <trkpt lat="46.70052" lon="-1.93401">
        <ele>2</ele>
        <time>2018-03-24T23:56:03Z</time>
      </trkpt>
      <trkpt lat="46.70053" lon="-1.93401">
        <ele>2</ele>
        <time>2018-03-24T23:57:03Z</time>
      </trkpt>
      <trkpt lat="46.70053" lon="-1.934">
        <ele>2</ele>
        <time>2018-03-24T23:58:03Z</time>
      </trkpt>
      <trkpt lat="46.70053" lon="-1.93399">
        <ele>2</ele>
        <time>2018-03-24T23:59:03Z</time>
      </trkpt>
      <trkpt lat="46.70054" lon="-1.93399">
        <ele>2</ele>
        <time>2018-03-25T00:00:03Z</time>
      </trkpt>
      <trkpt lat="46.70054" lon="-1.93398">
        <ele>2</ele>
        <time>2018-03-25T00:01:03Z</time>
      </trkpt>
      <trkpt lat="46.70055" lon="-1.93398">
        <ele>2</ele>
        <time>2018-03-25T00:02:03Z</time>
      </trkpt>
      <trkpt lat="46.70056" lon="-1.93398">
        <ele>2</ele>
        <time>2018-03-25T00:03:03Z</time>
      </trkpt>
      <trkpt lat="46.70056" lon="-1.93397">
        <ele>2</ele>
        <time>2018-03-25T00:04:03Z</time>
      </trkpt>
      <trkpt lat="46.70057" lon="-1.93397">
        <ele>2</ele>
        <time>2018-03-25T00:05:03Z</time>
      </trkpt>
      <trkpt lat="46.70058" lon="-1.93397">
        <ele>2</ele>
        <time>2018-03-25T00:06:03Z</time>
      </trkpt>
      <trkpt lat="46.70059" lon="-1.93398">
        <ele>2</ele>
        <time>2018-03-25T00:07:03Z</time>
      </trkpt>
      <trkpt lat="46.7006" lon="-1.93398">
        <ele>2</ele>
        <time>2018-03-25T00:08:03Z</time>
      </trkpt>
      <trkpt lat="46.7006" lon="-1.93399">
        <ele>2</ele>
        <time>2018-03-25T00:09:03Z</time>
      </trkpt>
      <trkpt lat="46.70061" lon="-1.93399">
        <ele>2</ele>
        <time>2018-03-25T00:10:03Z</time>
      </trkpt>
      <trkpt lat="46.70061" lon="-1.934">
        <ele>2</ele>
        <time>2018-03-25T00:11:03Z</time>
      </trkpt>
      <trkpt lat="46.70061" lon="-1.93401">
        <ele>2</ele>
        <time>2018-03-25T00:12:03Z</time>
      </trkpt>
      <trkpt lat="46.70062" lon="-1.93401">
        <ele>2</ele>
        <time>2018-03-25T00:13:03Z</time>
      </trkpt>
      <trkpt lat="46.70062" lon="-1.93402">
        <ele>2</ele>
        <time>2018-03-25T00:14:03Z</time>
      </trkpt>
      <trkpt lat="46.70062" lon="-1.93403">
        <ele>2</ele>
        <time>2018-03-25T00:15:03Z</time>
      </trkpt>
      <trkpt lat="46.70062" lon="-1.93404">
        <ele>2</ele>
        <time>2018-03-25T00:16:03Z</time>
      </trkpt>
      <trkpt lat="46.70062" lon="-1.93405">
        <ele>2</ele>
        <time>2018-03-25T00:17:03Z</time>
      </trkpt>
      <trkpt lat="46.70083" lon="-1.93405">
        <ele>2</ele>
        <time>2018-03-25T00:18:03Z</time>
      </trkpt>
      <trkpt lat="46.70093" lon="-1.934">
        <ele>2</ele>
        <time>2018-03-25T00:19:03Z</time>
      </trkpt>
      <trkpt lat="46.70098" lon="-1.93397">
        <ele>2</ele>
        <time>2018-03-25T00:20:03Z</time>
      </trkpt>
      <trkpt lat="46.70102" lon="-1.93395">
        <ele>2</ele>
        <time>2018-03-25T00:21:03Z</time>
      </trkpt>
      <trkpt lat="46.70107" lon="-1.93391">
        <ele>2</ele>
        <time>2018-03-25T00:22:03Z</time>
      </trkpt>
      <trkpt lat="46.70111" lon="-1.93388">
        <ele>2</ele>
        <time>2018-03-25T00:23:03Z</time>
      </trkpt>
      <trkpt lat="46.70114" lon="-1.93384">
        <ele>2</ele>
        <time>2018-03-25T00:24:03Z</time>
      </trkpt>
      <trkpt lat="46.70114" lon="-1.93384">
        <ele>2</ele>
        <time>2018-03-25T00:25:03Z</time>
      </trkpt>
      <trkpt lat="46.70115" lon="-1.93383">
        <ele>2</ele>
        <time>2018-03-25T00:26:03Z</time>
      </trkpt>
      <trkpt lat="46.70115" lon="-1.93382">
        <ele>2</ele>
        <time>2018-03-25T00:27:03Z</time>
      </trkpt>
      <trkpt lat="46.70115" lon="-1.93381">
        <ele>2</ele>
        <time>2018-03-25T00:28:03Z</time>
      </trkpt>
      <trkpt lat="46.70116" lon="-1.9338">
        <ele>2</ele>
        <time>2018-03-25T00:29:03Z</time>
      </trkpt>
      <trkpt lat="46.70116" lon="-1.93378">
        <ele>2</ele>
        <time>2018-03-25T00:30:03Z</time>
      </trkpt>
      <trkpt lat="46.70116" lon="-1.93377">
        <ele>2</ele>
        <time>2018-03-25T00:31:03Z</time>
      </trkpt>
      <trkpt lat="46.70117" lon="-1.93376">
        <ele>2</ele>
        <time>2018-03-25T00:32:03Z</time>
      </trkpt>
      <trkpt lat="46.70117" lon="-1.93375">
        <ele>2</ele>
        <time>2018-03-25T00:33:03Z</time>
      </trkpt>
      <trkpt lat="46.70118" lon="-1.93374">
        <ele>1</ele>
        <time>2018-03-25T00:34:03Z</time>
      </trkpt>
      <trkpt lat="46.70119" lon="-1.93373">
        <ele>1</ele>
        <time>2018-03-25T00:35:03Z</time>
      </trkpt>
      <trkpt lat="46.70119" lon="-1.93372">
        <ele>1</ele>
        <time>2018-03-25T00:36:03Z</time>
      </trkpt>
      <trkpt lat="46.7012" lon="-1.93372">
        <ele>1</ele>
        <time>2018-03-25T00:37:03Z</time>
      </trkpt>
      <trkpt lat="46.70121" lon="-1.93371">
        <ele>1</ele>
        <time>2018-03-25T00:38:03Z</time>
      </trkpt>
      <trkpt lat="46.70122" lon="-1.9337">
        <ele>1</ele>
        <time>2018-03-25T00:39:03Z</time>
      </trkpt>
      <trkpt lat="46.70123" lon="-1.93369">
        <ele>1</ele>
        <time>2018-03-25T00:40:03Z</time>
      </trkpt>
      <trkpt lat="46.70124" lon="-1.93369">
        <ele>1</ele>
        <time>2018-03-25T00:41:03Z</time>
      </trkpt>
      <trkpt lat="46.70125" lon="-1.93368">
        <ele>2</ele>
        <time>2018-03-25T00:42:03Z</time>
      </trkpt>
      <trkpt lat="46.70126" lon="-1.93368">
        <ele>2</ele>
        <time>2018-03-25T00:43:03Z</time>
      </trkpt>
      <trkpt lat="46.70127" lon="-1.93368">
        <ele>2</ele>
        <time>2018-03-25T00:44:03Z</time>
      </trkpt>
      <trkpt lat="46.70128" lon="-1.93368">
        <ele>2</ele>
        <time>2018-03-25T00:45:03Z</time>
      </trkpt>
      <trkpt lat="46.70129" lon="-1.93368">
        <ele>2</ele>
        <time>2018-03-25T00:46:03Z</time>
      </trkpt>
      <trkpt lat="46.7013" lon="-1.93368">
        <ele>2</ele>
        <time>2018-03-25T00:47:03Z</time>
      </trkpt>
      <trkpt lat="46.70131" lon="-1.93369">
        <ele>2</ele>
        <time>2018-03-25T00:48:03Z</time>
      </trkpt>
      <trkpt lat="46.70132" lon="-1.93369">
        <ele>2</ele>
        <time>2018-03-25T00:49:03Z</time>
      </trkpt>
      <trkpt lat="46.70132" lon="-1.9337">
        <ele>2</ele>
        <time>2018-03-25T00:50:03Z</time>
      </trkpt>
      <trkpt lat="46.70133" lon="-1.9337">
        <ele>2</ele>
        <time>2018-03-25T00:51:03Z</time>
      </trkpt>
      <trkpt lat="46.70134" lon="-1.93371">
        <ele>2</ele>
        <time>2018-03-25T00:52:03Z</time>
      </trkpt>
      <trkpt lat="46.70135" lon="-1.93372">
        <ele>2</ele>
        <time>2018-03-25T00:53:03Z</time>
      </trkpt>
      <trkpt lat="46.70136" lon="-1.93373">
        <ele>2</ele>
        <time>2018-03-25T00:54:03Z</time>
      </trkpt>
      <trkpt lat="46.70136" lon="-1.93374">
        <ele>2</ele>
        <time>2018-03-25T00:55:03Z</time>
      </trkpt>
      <trkpt lat="46.70137" lon="-1.93374">
        <ele>2</ele>
        <time>2018-03-25T00:56:03Z</time>
      </trkpt>
      <trkpt lat="46.70137" lon="-1.93375">
        <ele>1</ele>
        <time>2018-03-25T00:57:03Z</time>
      </trkpt>
      <trkpt lat="46.70138" lon="-1.93376">
        <ele>1</ele>
        <time>2018-03-25T00:58:03Z</time>
      </trkpt>
      <trkpt lat="46.70138" lon="-1.93377">
        <ele>1</ele>
        <time>2018-03-25T00:59:03Z</time>
      </trkpt>
      <trkpt lat="46.70138" lon="-1.93378">
        <ele>1</ele>
        <time>2018-03-25T01:00:03Z</time>
      </trkpt>
      <trkpt lat="46.70165" lon="-1.93375">
        <ele>1</ele>
        <time>2018-03-25T01:01:03Z</time>
      </trkpt>
      <trkpt lat="46.7017" lon="-1.93374">
        <ele>1</ele>
        <time>2018-03-25T01:02:03Z</time>
      </trkpt>
      <trkpt lat="46.70173" lon="-1.93372">
        <ele>1</ele>
        <time>2018-03-25T01:03:03Z</time>
      </trkpt>
      <trkpt lat="46.70181" lon="-1.93366">
        <ele>2</ele>
        <time>2018-03-25T01:04:03Z</time>
      </trkpt>
      <trkpt lat="46.70194" lon="-1.93356">
        <ele>1</ele>
        <time>2018-03-25T01:05:03Z</time>
      </trkpt>
      <trkpt lat="46.70205" lon="-1.93347">
        <ele>1</ele>
        <time>2018-03-25T01:06:03Z</time>
      </trkpt>
      <trkpt lat="46.70211" lon="-1.9334">
        <ele>1</ele>
        <time>2018-03-25T01:07:03Z</time>
      </trkpt>
      <trkpt lat="46.70216" lon="-1.93332">
        <ele>1</ele>
        <time>2018-03-25T01:08:03Z</time>
      </trkpt>
      <trkpt lat="46.70224" lon="-1.9332">
        <ele>1</ele>
        <time>2018-03-25T01:09:03Z</time>
      </trkpt>
      <trkpt lat="46.70239" lon="-1.93295">
        <ele>2</ele>
        <time>2018-03-25T01:10:03Z</time>
      </trkpt>
      <trkpt lat="46.70251" lon="-1.9328">
        <ele>2</ele>
        <time>2018-03-25T01:11:03Z</time>
      </trkpt>
      <trkpt lat="46.70263" lon="-1.93271">
        <ele>2</ele>
        <time>2018-03-25T01:12:03Z</time>
      </trkpt>
      <trkpt lat="46.70276" lon="-1.93263">
        <ele>2</ele>
        <time>2018-03-25T01:13:03Z</time>
      </trkpt>
      <trkpt lat="46.7028" lon="-1.9326">
        <ele>2</ele>
        <time>2018-03-25T01:14:03Z</time>
      </trkpt>
      <trkpt lat="46.70288" lon="-1.93253">
        <ele>2</ele>
        <time>2018-03-25T01:15:03Z</time>
      </trkpt>
      <trkpt lat="46.70295" lon="-1.93245">
        <ele>2</ele>
        <time>2018-03-25T01:16:03Z</time>
      </trkpt>
      <trkpt lat="46.70304" lon="-1.9323">
        <ele>2</ele>
        <time>2018-03-25T01:17:03Z</time>
      </trkpt>
      <trkpt lat="46.70304" lon="-1.9323">
        <ele>2</ele>
        <time>2018-03-25T01:18:03Z</time>
      </trkpt>
      <trkpt lat="46.70328" lon="-1.93232">
        <ele>2</ele>
        <time>2018-03-25T01:19:03Z</time>
      </trkpt>
      <trkpt lat="46.70362" lon="-1.9324">
        <ele>2</ele>
        <time>2018-03-25T01:20:03Z</time>
      </trkpt>
      <trkpt lat="46.70398" lon="-1.93249">
        <ele>3</ele>
        <time>2018-03-25T01:21:03Z</time>
      </trkpt>
      <trkpt lat="46.70419" lon="-1.93258">
        <ele>3</ele>
        <time>2018-03-25T01:22:03Z</time>
      </trkpt>
      <trkpt lat="46.70429" lon="-1.93262">
        <ele>3</ele>
        <time>2018-03-25T01:23:03Z</time>
      </trkpt>
      <trkpt lat="46.70439" lon="-1.93265">
        <ele>3</ele>
        <time>2018-03-25T01:24:03Z</time>
      </trkpt>
      <trkpt lat="46.70449" lon="-1.93267">
        <ele>3</ele>
        <time>2018-03-25T01:25:03Z</time>
      </trkpt>
      <trkpt lat="46.70458" lon="-1.93268">
        <ele>3</ele>
        <time>2018-03-25T01:26:03Z</time>
      </trkpt>
      <trkpt lat="46.70465" lon="-1.93267">
        <ele>3</ele>
        <time>2018-03-25T01:27:03Z</time>
      </trkpt>
      <trkpt lat="46.70472" lon="-1.93265">
        <ele>3</ele>
        <time>2018-03-25T01:28:03Z</time>
      </trkpt>
      <trkpt lat="46.7048" lon="-1.9326">
        <ele>4</ele>
        <time>2018-03-25T01:29:03Z</time>
      </trkpt>
      <trkpt lat="46.70489" lon="-1.93253">
        <ele>4</ele>
        <time>2018-03-25T01:30:03Z</time>
      </trkpt>
      <trkpt lat="46.70503" lon="-1.93244">
        <ele>4</ele>
        <time>2018-03-25T01:31:03Z</time>
      </trkpt>
      <trkpt lat="46.7052" lon="-1.93232">
        <ele>5</ele>
        <time>2018-03-25T01:32:03Z</time>
      </trkpt>
      <trkpt lat="46.70533" lon="-1.93223">
        <ele>5</ele>
        <time>2018-03-25T01:33:03Z</time>
      </trkpt>
      <trkpt lat="46.70548" lon="-1.93216">
        <ele>5</ele>
        <time>2018-03-25T01:34:03Z</time>
      </trkpt>
      <trkpt lat="46.70566" lon="-1.93211">
        <ele>6</ele>
        <time>2018-03-25T01:35:03Z</time>
      </trkpt>
      <trkpt lat="46.70588" lon="-1.93206">
        <ele>6</ele>
        <time>2018-03-25T01:36:03Z</time>
      </trkpt>
      <trkpt lat="46.7061" lon="-1.93202">
        <ele>7</ele>
        <time>2018-03-25T01:37:03Z</time>
      </trkpt>
      <trkpt lat="46.7063" lon="-1.93198">
        <ele>7</ele>
        <time>2018-03-25T01:38:03Z</time>
      </trkpt>
      <trkpt lat="46.70648" lon="-1.93197">
        <ele>8</ele>
        <time>2018-03-25T01:39:03Z</time>
      </trkpt>
      <trkpt lat="46.70659" lon="-1.93197">
        <ele>8</ele>
        <time>2018-03-25T01:40:03Z</time>
      </trkpt>
      <trkpt lat="46.70671" lon="-1.932">
        <ele>8</ele>
        <time>2018-03-25T01:41:03Z</time>
      </trkpt>
      <trkpt lat="46.70691" lon="-1.93205">
        <ele>8</ele>
        <time>2018-03-25T01:42:03Z</time>
      </trkpt>
      <trkpt lat="46.7071" lon="-1.93211">
        <ele>8</ele>
        <time>2018-03-25T01:43:03Z</time>
      </trkpt>
      <trkpt lat="46.70712" lon="-1.93212">
        <ele>8</ele>
        <time>2018-03-25T01:44:03Z</time>
      </trkpt>
      <trkpt lat="46.70729" lon="-1.93213">
        <ele>8</ele>
        <time>2018-03-25T01:45:03Z</time>
      </trkpt>
      <trkpt lat="46.70745" lon="-1.93212">
        <ele>8</ele>
        <time>2018-03-25T01:46:03Z</time>
      </trkpt>
      <trkpt lat="46.70752" lon="-1.9321">
        <ele>8</ele>
        <time>2018-03-25T01:47:03Z</time>
      </trkpt>
      <trkpt lat="46.70758" lon="-1.93207">
        <ele>8</ele>
        <time>2018-03-25T01:48:03Z</time>
      </trkpt>
      <trkpt lat="46.70766" lon="-1.93202">
        <ele>8</ele>
        <time>2018-03-25T01:49:03Z</time>
      </trkpt>
      <trkpt lat="46.70772" lon="-1.93197">
        <ele>8</ele>
        <time>2018-03-25T01:50:03Z</time>
      </trkpt>
      <trkpt lat="46.70785" lon="-1.93186">
        <ele>9</ele>
        <time>2018-03-25T01:51:03Z</time>
      </trkpt>
      <trkpt lat="46.70795" lon="-1.93179">
        <ele>9</ele>
        <time>2018-03-25T01:52:03Z</time>
      </trkpt>
      <trkpt lat="46.70804" lon="-1.93173">
        <ele>9</ele>
        <time>2018-03-25T01:53:03Z</time>
      </trkpt>
      <trkpt lat="46.70813" lon="-1.9317">
        <ele>9</ele>
        <time>2018-03-25T01:54:03Z</time>
      </trkpt>
      <trkpt lat="46.70821" lon="-1.93168">
        <ele>9</ele>
        <time>2018-03-25T01:55:03Z</time>
      </trkpt>
      <trkpt lat="46.70829" lon="-1.93167">
        <ele>9</ele>
        <time>2018-03-25T01:56:03Z</time>
      </trkpt>
      <trkpt lat="46.70835" lon="-1.93168">
        <ele>9</ele>
        <time>2018-03-25T01:57:03Z</time>
      </trkpt>
      <trkpt lat="46.70844" lon="-1.93169">
        <ele>9</ele>
        <time>2018-03-25T01:58:03Z</time>
      </trkpt>
      <trkpt lat="46.70877" lon="-1.93174">
        <ele>8</ele>
        <time>2018-03-25T01:59:03Z</time>
      </trkpt>
      <trkpt lat="46.70916" lon="-1.93179">
        <ele>7</ele>
        <time>2018-03-25T03:00:03Z</time>
      </trkpt>
      <trkpt lat="46.70936" lon="-1.93181">
        <ele>7</ele>
        <time>2018-03-25T03:01:03Z</time>
      </trkpt>
      <trkpt lat="46.70956" lon="-1.93184">
        <ele>7</ele>
        <time>2018-03-25T03:02:03Z</time>
      </trkpt>
      <trkpt lat="46.70974" lon="-1.93184">
        <ele>7</ele>
        <time>2018-03-25T03:03:03Z</time>
      </trkpt>
      <trkpt lat="46.71007" lon="-1.9318">
        <ele>7</ele>
        <time>2018-03-25T03:04:03Z</time>
      </trkpt>
      <trkpt lat="46.71025" lon="-1.93175">
        <ele>7</ele>
        <time>2018-03-25T03:05:03Z</time>
      </trkpt>
      <trkpt lat="46.71038" lon="-1.93168">
        <ele>7</ele>
        <time>2018-03-25T03:06:03Z</time>
      </trkpt>
      <trkpt lat="46.71048" lon="-1.93158">
        <ele>7</ele>
        <time>2018-03-25T03:07:03Z</time>
      </trkpt>
      <trkpt lat="46.71062" lon="-1.93143">
        <ele>7</ele>
        <time>2018-03-25T03:08:03Z</time>
      </trkpt>
      <trkpt lat="46.7109" lon="-1.93111">
        <ele>7</ele>
        <time>2018-03-25T03:09:03Z</time>
      </trkpt>
      <trkpt lat="46.71123" lon="-1.93073">
        <ele>7</ele>
        <time>2018-03-25T03:10:03Z</time>
      </trkpt>
      <trkpt lat="46.71124" lon="-1.93072">
        <ele>7</ele>
        <time>2018-03-25T03:11:03Z</time>
      </trkpt>
      <trkpt lat="46.71141" lon="-1.93051">
        <ele>7</ele>
        <time>2018-03-25T03:12:03Z</time>
      </trkpt>
      <trkpt lat="46.7115" lon="-1.93042">
        <ele>7</ele>
        <time>2018-03-25T03:13:03Z</time>
      </trkpt>
      <trkpt lat="46.71159" lon="-1.93035">
        <ele>8</ele>
        <time>2018-03-25T03:14:03Z</time>
      </trkpt>
      <trkpt lat="46.71167" lon="-1.93032">
        <ele>8</ele>
        <time>2018-03-25T03:15:03Z</time>
      </trkpt>
      <trkpt lat="46.71178" lon="-1.9303">
        <ele>7</ele>
        <time>2018-03-25T03:16:03Z</time>
      </trkpt>
      <trkpt lat="46.71195" lon="-1.93028">
        <ele>7</ele>
        <time>2018-03-25T03:17:03Z</time>
      </trkpt>
      <trkpt lat="46.71215" lon="-1.93028">
        <ele>6</ele>
        <time>2018-03-25T03:18:03Z</time>
      </trkpt>
      <trkpt lat="46.71225" lon="-1.93026">
        <ele>6</ele>
        <time>2018-03-25T03:19:03Z</time>
      </trkpt>
      <trkpt lat="46.71236" lon="-1.93024">
        <ele>5</ele>
        <time>2018-03-25T03:20:03Z</time>
      </trkpt>
      <trkpt lat="46.71243" lon="-1.93018">
        <ele>5</ele>
        <time>2018-03-25T03:21:03Z</time>
      </trkpt>
      <trkpt lat="46.71246" lon="-1.93012">
        <ele>5</ele>
        <time>2018-03-25T03:22:03Z</time>
      </trkpt>
      <trkpt lat="46.71249" lon="-1.93002">
        <ele>5</ele>
        <time>2018-03-25T03:23:03Z</time>
      </trkpt>
      <trkpt lat="46.71252" lon="-1.92988">
        <ele>5</ele>
        <time>2018-03-25T03:24:03Z</time>
      </trkpt>
      <trkpt lat="46.71256" lon="-1.92969">
        <ele>5</ele>
        <time>2018-03-25T03:25:03Z</time>
      </trkpt>
      <trkpt lat="46.71259" lon="-1.92949">
        <ele>5</ele>
        <time>2018-03-25T03:26:03Z</time>
      </trkpt>
      <trkpt lat="46.71259" lon="-1.92949">
        <ele>5</ele>
        <time>2018-03-25T03:27:03Z</time>
      </trkpt>
      <trkpt lat="46.71261" lon="-1.92937">
        <ele>4</ele>
        <time>2018-03-25T03:28:03Z</time>
      </trkpt>
      <trkpt lat="46.71265" lon="-1.92901">
        <ele>3</ele>
        <time>2018-03-25T03:29:03Z</time>
      </trkpt>
      <trkpt lat="46.71269" lon="-1.9287">
        <ele>3</ele>
        <time>2018-03-25T03:30:03Z</time>
      </trkpt>
      <trkpt lat="46.71269" lon="-1.92869">
        <ele>3</ele>
        <time>2018-03-25T03:31:03Z</time>
      </trkpt>
      <trkpt lat="46.71274" lon="-1.92841">
        <ele>3</ele>
        <time>2018-03-25T03:32:03Z</time>
      </trkpt>
      <trkpt lat="46.71281" lon="-1.92808">
        <ele>4</ele>
        <time>2018-03-25T03:33:03Z</time>
      </trkpt>
      <trkpt lat="46.71289" lon="-1.92771">
        <ele>4</ele>
        <time>2018-03-25T03:34:03Z</time>
      </trkpt>
      <trkpt lat="46.71299" lon="-1.92726">
        <ele>5</ele>
        <time>2018-03-25T03:35:03Z</time>
      </trkpt>
      <trkpt lat="46.71299" lon="-1.92723">
        <ele>5</ele>
        <time>2018-03-25T03:36:03Z</time>
      </trkpt>
      <trkpt lat="46.71306" lon="-1.927">
        <ele>6</ele>
        <time>2018-03-25T03:37:03Z</time>
      </trkpt>
      <trkpt lat="46.71306" lon="-1.92696">
        <ele>6</ele>
        <time>2018-03-25T03:38:03Z</time>
      </trkpt>
      <trkpt lat="46.71307" lon="-1.92691">
        <ele>6</ele>
        <time>2018-03-25T03:39:03Z</time>
      </trkpt>
      <trkpt lat="46.71308" lon="-1.92684">
        <ele>6</ele>
        <time>2018-03-25T03:40:03Z</time>
      </trkpt>
      <trkpt lat="46.71308" lon="-1.92681">
        <ele>7</ele>
        <time>2018-03-25T03:41:03Z</time>
      </trkpt>
      <trkpt lat="46.71307" lon="-1.92661">
        <ele>7</ele>
        <time>2018-03-25T03:42:03Z</time>
      </trkpt>
      <trkpt lat="46.71305" lon="-1.92644">
        <ele>8</ele>
        <time>2018-03-25T03:43:03Z</time>
      </trkpt>
      <trkpt lat="46.71305" lon="-1.9264">
        <ele>8</ele>
        <time>2018-03-25T03:44:03Z</time>
      </trkpt>
      <trkpt lat="46.71305" lon="-1.92636">
        <ele>8</ele>
        <time>2018-03-25T03:45:03Z</time>
      </trkpt>
      <trkpt lat="46.71305" lon="-1.92629">
        <ele>8</ele>
        <time>2018-03-25T03:46:03Z</time>
      </trkpt>
      <trkpt lat="46.71306" lon="-1.92623">
        <ele>8</ele>
        <time>2018-03-25T03:47:03Z</time>
      </trkpt>
      <trkpt lat="46.71307" lon="-1.92618">
        <ele>8</ele>
        <time>2018-03-25T03:48:03Z</time>
      </trkpt>
      <trkpt lat="46.71311" lon="-1.92597">
        <ele>8</ele>
        <time>2018-03-25T03:49:03Z</time>
      </trkpt>
      <trkpt lat="46.71325" lon="-1.92544">
        <ele>8</ele>
        <time>2018-03-25T03:50:03Z</time>
      </trkpt>
      <trkpt lat="46.7133" lon="-1.92521">
        <ele>8</ele>
        <time>2018-03-25T03:51:03Z</time>
      </trkpt>
      <trkpt lat="46.71331" lon="-1.92518">
        <ele>8</ele>
        <time>2018-03-25T03:52:03Z</time>
      </trkpt>
      <trkpt lat="46.71332" lon="-1.92515">
        <ele>8</ele>
        <time>2018-03-25T03:53:03Z</time>
      </trkpt>
      <trkpt lat="46.71333" lon="-1.92509">
        <ele>8</ele>
        <time>2018-03-25T03:54:03Z</time>
      </trkpt>
      <trkpt lat="46.71333" lon="-1.92502">
        <ele>8</ele>
        <time>2018-03-25T03:55:03Z</time>
      </trkpt>
      <trkpt lat="46.71332" lon="-1.92476">
        <ele>8</ele>
        <time>2018-03-25T03:56:03Z</time>
      </trkpt>
      <trkpt lat="46.7133" lon="-1.92445">
        <ele>9</ele>
        <time>2018-03-25T03:57:03Z</time>
      </trkpt>
      <trkpt lat="46.71327" lon="-1.92413">
        <ele>9</ele>
        <time>2018-03-25T03:58:03Z</time>
      </trkpt>
      <trkpt lat="46.71326" lon="-1.92402">
        <ele>9</ele>
        <time>2018-03-25T03:59:03Z</time>
      </trkpt>
      <trkpt lat="46.71323" lon="-1.92389">
        <ele>9</ele>
        <time>2018-03-25T04:00:03Z</time>
      </trkpt>
      <trkpt lat="46.71322" lon="-1.92385">
        <ele>9</ele>
        <time>2018-03-25T04:01:03Z</time>
      </trkpt>
      <trkpt lat="46.71321" lon="-1.9238">
        <ele>9</ele>
        <time>2018-03-25T04:02:03Z</time>
      </trkpt>
      <trkpt lat="46.71318" lon="-1.9237">
        <ele>9</ele>
        <time>2018-03-25T04:03:03Z</time>
      </trkpt>
      <trkpt lat="46.71315" lon="-1.92363">
        <ele>9</ele>
        <time>2018-03-25T04:04:03Z</time>
      </trkpt>
      <trkpt lat="46.71311" lon="-1.92355">
        <ele>9</ele>
        <time>2018-03-25T04:05:03Z</time>
      </trkpt>
      <trkpt lat="46.71306" lon="-1.92347">
        <ele>9</ele>
        <time>2018-03-25T04:06:03Z</time>
      </trkpt>
      <trkpt lat="46.71306" lon="-1.92347">
        <ele>9</ele>
        <time>2018-03-25T04:07:03Z</time>
      </trkpt>
      <trkpt lat="46.71322" lon="-1.92344">
        <ele>8</ele>
        <time>2018-03-25T04:08:03Z</time>
      </trkpt>
      <trkpt lat="46.71334" lon="-1.9234">
        <ele>8</ele>
        <time>2018-03-25T04:09:03Z</time>
      </trkpt>
      <trkpt lat="46.71352" lon="-1.92336">
        <ele>7</ele>
        <time>2018-03-25T04:10:03Z</time>
      </trkpt>
      <trkpt lat="46.71383" lon="-1.92327">
        <ele>6</ele>
        <time>2018-03-25T04:11:03Z</time>
      </trkpt>
      <trkpt lat="46.71414" lon="-1.92316">
        <ele>5</ele>
        <time>2018-03-25T04:12:03Z</time>
      </trkpt>
      <trkpt lat="46.71418" lon="-1.92313">
        <ele>5</ele>
        <time>2018-03-25T04:13:03Z</time>
      </trkpt>
      <trkpt lat="46.71421" lon="-1.92311">
        <ele>5</ele>
        <time>2018-03-25T04:14:03Z</time>
      </trkpt>
      <trkpt lat="46.71423" lon="-1.92308">
        <ele>5</ele>
        <time>2018-03-25T04:15:03Z</time>
      </trkpt>
      <trkpt lat="46.71426" lon="-1.92303">
        <ele>5</ele>
        <time>2018-03-25T04:16:03Z</time>
      </trkpt>
      <trkpt lat="46.71429" lon="-1.92297">
        <ele>5</ele>
        <time>2018-03-25T04:17:03Z</time>
      </trkpt>
      <trkpt lat="46.71432" lon="-1.92285">
        <ele>5</ele>
        <time>2018-03-25T04:18:03Z</time>
      </trkpt>
      <trkpt lat="46.71432" lon="-1.92282">
        <ele>5</ele>
        <time>2018-03-25T04:19:03Z</time>
      </trkpt>
      <trkpt lat="46.7144" lon="-1.92252">
        <ele>6</ele>
        <time>2018-03-25T04:20:03Z</time>
      </trkpt>
      <trkpt lat="46.71448" lon="-1.92225">
        <ele>6</ele>
        <time>2018-03-25T04:21:03Z</time>
      </trkpt>
      <trkpt lat="46.71456" lon="-1.92198">
        <ele>6</ele>
        <time>2018-03-25T04:22:03Z</time>
      </trkpt>
      <trkpt lat="46.71459" lon="-1.92185">
        <ele>6</ele>
        <time>2018-03-25T04:23:03Z</time>
      </trkpt>
      <trkpt lat="46.7146" lon="-1.92183">
        <ele>6</ele>
        <time>2018-03-25T04:24:03Z</time>
      </trkpt>
      <trkpt lat="46.71466" lon="-1.92164">
        <ele>6</ele>
        <time>2018-03-25T04:25:03Z</time>
      </trkpt>
      <trkpt lat="46.71469" lon="-1.9215">
        <ele>6</ele>
        <time>2018-03-25T04:26:03Z</time>
      </trkpt>
      <trkpt lat="46.71474" lon="-1.92129">
        <ele>6</ele>
        <time>2018-03-25T04:27:03Z</time>
      </trkpt>
      <trkpt lat="46.7148" lon="-1.92105">
        <ele>6</ele>
        <time>2018-03-25T04:28:03Z</time>
      </trkpt>
      <trkpt lat="46.71484" lon="-1.92081">
        <ele>5</ele>
        <time>2018-03-25T04:29:03Z</time>
      </trkpt>
      <trkpt lat="46.71491" lon="-1.9204">
        <ele>6</ele>
        <time>2018-03-25T04:30:03Z</time>
      </trkpt>
      <trkpt lat="46.71492" lon="-1.92037">
        <ele>6</ele>
        <time>2018-03-25T04:31:03Z</time>
      </trkpt>
      <trkpt lat="46.715" lon="-1.91985">
        <ele>7</ele>
        <time>2018-03-25T04:32:03Z</time>
      </trkpt>
      <trkpt lat="46.71504" lon="-1.91966">
        <ele>7</ele>
        <time>2018-03-25T04:33:03Z</time>
      </trkpt>
      <trkpt lat="46.71508" lon="-1.9194">
        <ele>7</ele>
        <time>2018-03-25T04:34:03Z</time>
      </trkpt>
      <trkpt lat="46.71511" lon="-1.91921">
        <ele>7</ele>
        <time>2018-03-25T04:35:03Z</time>
      </trkpt>
      <trkpt lat="46.71515" lon="-1.91902">
        <ele>7</ele>
        <time>2018-03-25T04:36:03Z</time>
      </trkpt>
      <trkpt lat="46.71518" lon="-1.91883">
        <ele>8</ele>
        <time>2018-03-25T04:37:03Z</time>
      </trkpt>
      <trkpt lat="46.71523" lon="-1.91865">
        <ele>8</ele>
        <time>2018-03-25T04:38:03Z</time>
      </trkpt>
      <trkpt lat="46.71528" lon="-1.91847">
        <ele>8</ele>
        <time>2018-03-25T04:39:03Z</time>
      </trkpt>
      <trkpt lat="46.71534" lon="-1.91828">
        <ele>8</ele>
        <time>2018-03-25T04:40:03Z</time>
      </trkpt>
      <trkpt lat="46.71548" lon="-1.91786">
        <ele>7</ele>
        <time>2018-03-25T04:41:03Z</time>
      </trkpt>
      <trkpt lat="46.71559" lon="-1.91759">
        <ele>7</ele>
        <time>2018-03-25T04:42:03Z</time>
      </trkpt>
      <trkpt lat="46.71565" lon="-1.91742">
        <ele>7</ele>
        <time>2018-03-25T04:43:03Z</time>
      </trkpt>
      <trkpt lat="46.71573" lon="-1.91722">
        <ele>7</ele>
        <time>2018-03-25T04:44:03Z</time>
      </trkpt>
      <trkpt lat="46.71589" lon="-1.91683">
        <ele>7</ele>
        <time>2018-03-25T04:45:03Z</time>
      </trkpt>
      <trkpt lat="46.71614" lon="-1.91622">
        <ele>5</ele>
        <time>2018-03-25T04:46:03Z</time>
      </trkpt>
      <trkpt lat="46.71624" lon="-1.91596">
        <ele>5</ele>
        <time>2018-03-25T04:47:03Z</time>
      </trkpt>
      <trkpt lat="46.71632" lon="-1.9158">
        <ele>4</ele>
        <time>2018-03-25T04:48:03Z</time>
      </trkpt>
      <trkpt lat="46.71641" lon="-1.9157">
        <ele>4</ele>
        <time>2018-03-25T04:49:03Z</time>
      </trkpt>
      <trkpt lat="46.71648" lon="-1.91565">
        <ele>4</ele>
        <time>2018-03-25T04:50:03Z</time>
      </trkpt>
      <trkpt lat="46.71664" lon="-1.91556">
        <ele>3</ele>
        <time>2018-03-25T04:51:03Z</time>
      </trkpt>
      <trkpt lat="46.71674" lon="-1.91552">
        <ele>3</ele>
        <time>2018-03-25T04:52:03Z</time>
      </trkpt>
      <trkpt lat="46.71699" lon="-1.9154">
        <ele>2</ele>
        <time>2018-03-25T04:53:03Z</time>
      </trkpt>
      <trkpt lat="46.71723" lon="-1.91529">
        <ele>2</ele>
        <time>2018-03-25T04:54:03Z</time>
      </trkpt>
      <trkpt lat="46.7174" lon="-1.91519">
        <ele>2</ele>
        <time>2018-03-25T04:55:03Z</time>
      </trkpt>
      <trkpt lat="46.7175" lon="-1.91512">
        <ele>2</ele>
        <time>2018-03-25T04:56:03Z</time>
      </trkpt>
      <trkpt lat="46.7176" lon="-1.91502">
        <ele>2</ele>
        <time>2018-03-25T04:57:03Z</time>
      </trkpt>
      <trkpt lat="46.71765" lon="-1.91492">
        <ele>2</ele>
        <time>2018-03-25T04:58:03Z</time>
      </trkpt>
      <trkpt lat="46.71768" lon="-1.91484">
        <ele>2</ele>
        <time>2018-03-25T04:59:03Z</time>
      </trkpt>
      <trkpt lat="46.7177" lon="-1.91473">
        <ele>2</ele>
        <time>2018-03-25T05:00:03Z</time>
      </trkpt>
      <trkpt lat="46.71777" lon="-1.91414">
        <ele>1</ele>
        <time>2018-03-25T05:01:03Z</time>
      </trkpt>
      <trkpt lat="46.7178" lon="-1.91384">
        <ele>1</ele>
        <time>2018-03-25T05:02:03Z</time>
      </trkpt>
      <trkpt lat="46.71785" lon="-1.91362">
        <ele>1</ele>
        <time>2018-03-25T05:03:03Z</time>
      </trkpt>
      <trkpt lat="46.71792" lon="-1.91336">
        <ele>1</ele>
        <time>2018-03-25T05:04:03Z</time>
      </trkpt>
      <trkpt lat="46.71809" lon="-1.91278">
        <ele>2</ele>
        <time>2018-03-25T05:05:03Z</time>
      </trkpt>
      <trkpt lat="46.71822" lon="-1.91229">
        <ele>3</ele>
        <time>2018-03-25T05:06:03Z</time>
      </trkpt>
      <trkpt lat="46.71834" lon="-1.91176">
        <ele>3</ele>
        <time>2018-03-25T05:07:03Z</time>
      </trkpt>
      <trkpt lat="46.71839" lon="-1.91152">
        <ele>3</ele>
        <time>2018-03-25T05:08:03Z</time>
      </trkpt>
      <trkpt lat="46.71847" lon="-1.91107">
        <ele>2</ele>
        <time>2018-03-25T05:09:03Z</time>
      </trkpt>
      <trkpt lat="46.71851" lon="-1.91083">
        <ele>2</ele>
        <time>2018-03-25T05:10:03Z</time>
      </trkpt>
      <trkpt lat="46.71852" lon="-1.91064">
        <ele>2</ele>
        <time>2018-03-25T05:11:03Z</time>
      </trkpt>
      <trkpt lat="46.71852" lon="-1.91047">
        <ele>2</ele>
        <time>2018-03-25T05:12:03Z</time>
      </trkpt>
      <trkpt lat="46.71851" lon="-1.9102">
        <ele>3</ele>
        <time>2018-03-25T05:13:03Z</time>
      </trkpt>
      <trkpt lat="46.71846" lon="-1.90978">
        <ele>3</ele>
        <time>2018-03-25T05:14:03Z</time>
      </trkpt>
      <trkpt lat="46.71837" lon="-1.90885">
        <ele>5</ele>
        <time>2018-03-25T05:15:03Z</time>
      </trkpt>
      <trkpt lat="46.71832" lon="-1.90833">
        <ele>6</ele>
        <time>2018-03-25T05:16:03Z</time>
      </trkpt>
      <trkpt lat="46.71827" lon="-1.90802">
        <ele>6</ele>
        <time>2018-03-25T05:17:03Z</time>
      </trkpt>
      <trkpt lat="46.71821" lon="-1.90766">
        <ele>6</ele>
        <time>2018-03-25T05:18:03Z</time>
      </trkpt>
      <trkpt lat="46.7182" lon="-1.90764">
        <ele>6</ele>
        <time>2018-03-25T05:19:03Z</time>
      </trkpt>
      <trkpt lat="46.71811" lon="-1.90722">
        <ele>6</ele>
        <time>2018-03-25T05:20:03Z</time>
      </trkpt>
      <trkpt lat="46.71801" lon="-1.90668">
        <ele>5</ele>
        <time>2018-03-25T05:21:03Z</time>
      </trkpt>
      <trkpt lat="46.71797" lon="-1.90646">
        <ele>5</ele>
        <time>2018-03-25T05:22:03Z</time>
      </trkpt>
      <trkpt lat="46.71795" lon="-1.90616">
        <ele>6</ele>
        <time>2018-03-25T05:23:03Z</time>
      </trkpt>
      <trkpt lat="46.71795" lon="-1.90597">
        <ele>7</ele>
        <time>2018-03-25T05:24:03Z</time>
      </trkpt>
      <trkpt lat="46.71795" lon="-1.90578">
        <ele>7</ele>
        <time>2018-03-25T05:25:03Z</time>
      </trkpt>
      <trkpt lat="46.71798" lon="-1.90553">
        <ele>7</ele>
        <time>2018-03-25T05:26:03Z</time>
      </trkpt>
      <trkpt lat="46.71806" lon="-1.90529">
        <ele>7</ele>
        <time>2018-03-25T05:27:03Z</time>
      </trkpt>
      <trkpt lat="46.71818" lon="-1.90502">
        <ele>6</ele>
        <time>2018-03-25T05:28:03Z</time>
      </trkpt>
      <trkpt lat="46.71819" lon="-1.90499">
        <ele>6</ele>
        <time>2018-03-25T05:29:03Z</time>
      </trkpt>
      <trkpt lat="46.7183" lon="-1.90473">
        <ele>5</ele>
        <time>2018-03-25T05:30:03Z</time>
      </trkpt>
      <trkpt lat="46.71842" lon="-1.90449">
        <ele>5</ele>
        <time>2018-03-25T05:31:03Z</time>
      </trkpt>
      <trkpt lat="46.71845" lon="-1.90439">
        <ele>4</ele>
        <time>2018-03-25T05:32:03Z</time>
      </trkpt>
      <trkpt lat="46.71846" lon="-1.90435">
        <ele>4</ele>
        <time>2018-03-25T05:33:03Z</time>
      </trkpt>
      <trkpt lat="46.71847" lon="-1.90431">
        <ele>4</ele>
        <time>2018-03-25T05:34:03Z</time>
      </trkpt>
      <trkpt lat="46.71848" lon="-1.90421">
        <ele>4</ele>
        <time>2018-03-25T05:35:03Z</time>
      </trkpt>
      <trkpt lat="46.71851" lon="-1.90389">
        <ele>5</ele>
        <time>2018-03-25T05:36:03Z</time>
      </trkpt>
      <trkpt lat="46.71852" lon="-1.90384">
        <ele>5</ele>
        <time>2018-03-25T05:37:03Z</time>
      </trkpt>
      <trkpt lat="46.71852" lon="-1.9038">
        <ele>5</ele>
        <time>2018-03-25T05:38:03Z</time>
      </trkpt>
      <trkpt lat="46.71851" lon="-1.90377">
        <ele>5</ele>
        <time>2018-03-25T05:39:03Z</time>
      </trkpt>
      <trkpt lat="46.71851" lon="-1.90375">
        <ele>5</ele>
        <time>2018-03-25T05:40:03Z</time>
      </trkpt>
      <trkpt lat="46.7185" lon="-1.90372">
        <ele>5</ele>
        <time>2018-03-25T05:41:03Z</time>
      </trkpt>
      <trkpt lat="46.7185" lon="-1.9037">
        <ele>5</ele>
        <time>2018-03-25T05:42:03Z</time>
      </trkpt>
      <trkpt lat="46.71848" lon="-1.90366">
        <ele>5</ele>
        <time>2018-03-25T05:43:03Z</time>
      </trkpt>
      <trkpt lat="46.71844" lon="-1.90358">
        <ele>6</ele>
        <time>2018-03-25T05:44:03Z</time>
      </trkpt>
      <trkpt lat="46.71839" lon="-1.90349">
        <ele>6</ele>
        <time>2018-03-25T05:45:03Z</time>
      </trkpt>
      <trkpt lat="46.71839" lon="-1.90349">
        <ele>6</ele>
        <time>2018-03-25T05:46:03Z</time>
      </trkpt>
      <trkpt lat="46.71865" lon="-1.90316">
        <ele>6</ele>
        <time>2018-03-25T05:47:03Z</time>
      </trkpt>
      <trkpt lat="46.71869" lon="-1.90308">
        <ele>6</ele>
        <time>2018-03-25T05:48:03Z</time>
      </trkpt>
      <trkpt lat="46.71872" lon="-1.90301">
        <ele>6</ele>
        <time>2018-03-25T05:49:03Z</time>
      </trkpt>
      <trkpt lat="46.71876" lon="-1.90283">
        <ele>7</ele>
        <time>2018-03-25T05:50:03Z</time>
      </trkpt>
      <trkpt lat="46.71879" lon="-1.90274">
        <ele>7</ele>
        <time>2018-03-25T05:51:03Z</time>
      </trkpt>
      <trkpt lat="46.71883" lon="-1.90267">
        <ele>7</ele>
        <time>2018-03-25T05:52:03Z</time>
      </trkpt>
      <trkpt lat="46.71886" lon="-1.90263">
        <ele>7</ele>
        <time>2018-03-25T05:53:03Z</time>
      </trkpt>
      <trkpt lat="46.71886" lon="-1.90263">
        <ele>7</ele>
        <time>2018-03-25T05:54:03Z</time>
      </trkpt>
      <trkpt lat="46.71885" lon="-1.9025">
        <ele>7</ele>
        <time>2018-03-25T05:55:03Z</time>
      </trkpt>
      <trkpt lat="46.71886" lon="-1.90226">
        <ele>8</ele>
        <time>2018-03-25T05:56:03Z</time>
      </trkpt>
      <trkpt lat="46.71888" lon="-1.9021">
        <ele>8</ele>
        <time>2018-03-25T05:57:03Z</time>
      </trkpt>
      <trkpt lat="46.71892" lon="-1.90193">
        <ele>8</ele>
        <time>2018-03-25T05:58:03Z</time>
      </trkpt>
      <trkpt lat="46.71895" lon="-1.90177">
        <ele>8</ele>
        <time>2018-03-25T05:59:03Z</time>
      </trkpt>
      <trkpt lat="46.71895" lon="-1.90177">
        <ele>8</ele>
        <time>2018-03-25T06:00:03Z</time>
      </trkpt>
      <trkpt lat="46.71887" lon="-1.90172">
        <ele>9</ele>
        <time>2018-03-25T06:01:03Z</time>
      </trkpt>
      <trkpt lat="46.7184" lon="-1.9014">
        <ele>10</ele>
        <time>2018-03-25T06:02:03Z</time>
      </trkpt>
      <trkpt lat="46.71808" lon="-1.90116">
        <ele>10</ele>
        <time>2018-03-25T06:03:03Z</time>
      </trkpt>
      <trkpt lat="46.71756" lon="-1.90071">
        <ele>11</ele>
        <time>2018-03-25T06:04:03Z</time>
      </trkpt>
      <trkpt lat="46.71734" lon="-1.90048">
        <ele>11</ele>
        <time>2018-03-25T06:05:03Z</time>
      </trkpt>
      <trkpt lat="46.71724" lon="-1.90037">
        <ele>11</ele>
        <time>2018-03-25T06:06:03Z</time>
      </trkpt>
      <trkpt lat="46.71683" lon="-1.90002">
        <ele>12</ele>
        <time>2018-03-25T06:07:03Z</time>
      </trkpt>
      <trkpt lat="46.7164" lon="-1.89962">
        <ele>12</ele>
        <time>2018-03-25T06:08:03Z</time>
      </trkpt>
      <trkpt lat="46.71623" lon="-1.89948">
        <ele>12</ele>
        <time>2018-03-25T06:09:03Z</time>
      </trkpt>
      <trkpt lat="46.71609" lon="-1.89936">
        <ele>13</ele>
        <time>2018-03-25T06:10:03Z</time>
      </trkpt>
      <trkpt lat="46.71593" lon="-1.89926">
        <ele>13</ele>
        <time>2018-03-25T06:11:03Z</time>
      </trkpt>
      <trkpt lat="46.7158" lon="-1.8992">
        <ele>13</ele>
        <time>2018-03-25T06:12:03Z</time>
      </trkpt>
      <trkpt lat="46.71566" lon="-1.89914">
        <ele>13</ele>
        <time>2018-03-25T06:13:03Z</time>
      </trkpt>
      <trkpt lat="46.71547" lon="-1.89897">
        <ele>13</ele>
        <time>2018-03-25T06:14:03Z</time>
      </trkpt>
      <trkpt lat="46.7153" lon="-1.8988">
        <ele>13</ele>
        <time>2018-03-25T06:15:03Z</time>
      </trkpt>
      <trkpt lat="46.7151" lon="-1.89856">
        <ele>13</ele>
        <time>2018-03-25T06:16:03Z</time>
      </trkpt>
      <trkpt lat="46.71509" lon="-1.89855">
        <ele>13</ele>
        <time>2018-03-25T06:17:03Z</time>
      </trkpt>
      <trkpt lat="46.71493" lon="-1.89832">
        <ele>13</ele>
        <time>2018-03-25T06:18:03Z</time>
      </trkpt>
      <trkpt lat="46.71479" lon="-1.8981">
        <ele>13</ele>
        <time>2018-03-25T06:19:03Z</time>
      </trkpt>
      <trkpt lat="46.71455" lon="-1.89769">
        <ele>13</ele>
        <time>2018-03-25T06:20:03Z</time>
      </trkpt>
      <trkpt lat="46.71433" lon="-1.89732">
        <ele>13</ele>
        <time>2018-03-25T06:21:03Z</time>
      </trkpt>
      <trkpt lat="46.71427" lon="-1.89723">
        <ele>13</ele>
        <time>2018-03-25T06:22:03Z</time>
      </trkpt>
      <trkpt lat="46.71409" lon="-1.89695">
        <ele>14</ele>
        <time>2018-03-25T06:23:03Z</time>
      </trkpt>
      <trkpt lat="46.71394" lon="-1.89671">
        <ele>14</ele>
        <time>2018-03-25T06:24:03Z</time>
      </trkpt>
      <trkpt lat="46.71378" lon="-1.8964">
        <ele>14</ele>
        <time>2018-03-25T06:25:03Z</time>
      </trkpt>
      <trkpt lat="46.71364" lon="-1.89606">
        <ele>14</ele>
        <time>2018-03-25T06:26:03Z</time>
      </trkpt>
      <trkpt lat="46.71354" lon="-1.89586">
        <ele>14</ele>
        <time>2018-03-25T06:27:03Z</time>
      </trkpt>
      <trkpt lat="46.71353" lon="-1.89584">
        <ele>14</ele>
        <time>2018-03-25T06:28:03Z</time>
      </trkpt>
      <trkpt lat="46.71348" lon="-1.8957">
        <ele>14</ele>
        <time>2018-03-25T06:29:03Z</time>
      </trkpt>
      <trkpt lat="46.71348" lon="-1.8957">
        <ele>14</ele>
        <time>2018-03-25T06:30:03Z</time>
      </trkpt>
      <trkpt lat="46.71372" lon="-1.89549">
        <ele>14</ele>
        <time>2018-03-25T06:31:03Z</time>
      </trkpt>
      <trkpt lat="46.71402" lon="-1.89528">
        <ele>15</ele>
        <time>2018-03-25T06:32:03Z</time>
      </trkpt>
      <trkpt lat="46.7143" lon="-1.89517">
        <ele>15</ele>
        <time>2018-03-25T06:33:03Z</time>
      </trkpt>
      <trkpt lat="46.71436" lon="-1.89515">
        <ele>15</ele>
        <time>2018-03-25T06:34:03Z</time>
      </trkpt>
      <trkpt lat="46.7145" lon="-1.89514">
        <ele>15</ele>
        <time>2018-03-25T06:35:03Z</time>
      </trkpt>
      <trkpt lat="46.71467" lon="-1.89512">
        <ele>15</ele>
        <time>2018-03-25T06:36:03Z</time>
      </trkpt>
      <trkpt lat="46.71474" lon="-1.89503">
        <ele>15</ele>
        <time>2018-03-25T06:37:03Z</time>
      </trkpt>
      <trkpt lat="46.7148" lon="-1.89498">
        <ele>15</ele>
        <time>2018-03-25T06:38:03Z</time>
      </trkpt>
      <trkpt lat="46.7148" lon="-1.89498">
        <ele>15</ele>
        <time>2018-03-25T06:39:03Z</time>
      </trkpt>
      <trkpt lat="46.71482" lon="-1.89492">
        <ele>15</ele>
        <time>2018-03-25T06:40:03Z</time>
      </trkpt>
      <trkpt lat="46.71484" lon="-1.89488">
        <ele>15</ele>
        <time>2018-03-25T06:41:03Z</time>
      </trkpt>
      <trkpt lat="46.71486" lon="-1.89487">
        <ele>15</ele>
        <time>2018-03-25T06:42:03Z</time>
      </trkpt>
      <trkpt lat="46.71487" lon="-1.89473">
        <ele>15</ele>
        <time>2018-03-25T06:43:03Z</time>
      </trkpt>
      <trkpt lat="46.71488" lon="-1.89464">
        <ele>15</ele>
        <time>2018-03-25T06:44:03Z</time>
      </trkpt>
      <trkpt lat="46.71488" lon="-1.89458">
        <ele>16</ele>
        <time>2018-03-25T06:45:03Z</time>
      </trkpt>
      <trkpt lat="46.71484" lon="-1.89431">
        <ele>16</ele>
        <time>2018-03-25T06:46:03Z</time>
      </trkpt>
      <trkpt lat="46.71474" lon="-1.89392">
        <ele>16</ele>
        <time>2018-03-25T06:47:03Z</time>
      </trkpt>
      <trkpt lat="46.71463" lon="-1.89348">
        <ele>16</ele>
        <time>2018-03-25T06:48:03Z</time>
      </trkpt>
      <trkpt lat="46.71462" lon="-1.89346">
        <ele>16</ele>
        <time>2018-03-25T06:49:03Z</time>
      </trkpt>
      <trkpt lat="46.71457" lon="-1.89326">
        <ele>17</ele>
        <time>2018-03-25T06:50:03Z</time>
      </trkpt>
      <trkpt lat="46.71452" lon="-1.89312">
        <ele>17</ele>
        <time>2018-03-25T06:51:03Z</time>
      </trkpt>
      <trkpt lat="46.71443" lon="-1.89287">
        <ele>17</ele>
        <time>2018-03-25T06:52:03Z</time>
      </trkpt>
      <trkpt lat="46.71426" lon="-1.89239">
        <ele>17</ele>
        <time>2018-03-25T06:53:03Z</time>
      </trkpt>
      <trkpt lat="46.71425" lon="-1.89236">
        <ele>17</ele>
        <time>2018-03-25T06:54:03Z</time>
      </trkpt>
      <trkpt lat="46.71417" lon="-1.89216">
        <ele>17</ele>
        <time>2018-03-25T06:55:03Z</time>
      </trkpt>
      <trkpt lat="46.71413" lon="-1.89205">
        <ele>17</ele>
        <time>2018-03-25T06:56:03Z</time>
      </trkpt>
      <trkpt lat="46.71404" lon="-1.89181">
        <ele>18</ele>
        <time>2018-03-25T06:57:03Z</time>
      </trkpt>
      <trkpt lat="46.71396" lon="-1.89163">
        <ele>18</ele>
        <time>2018-03-25T06:58:03Z</time>
      </trkpt>
      <trkpt lat="46.7139" lon="-1.89146">
        <ele>18</ele>
        <time>2018-03-25T06:59:03Z</time>
      </trkpt>
      <trkpt lat="46.7137" lon="-1.89101">
        <ele>18</ele>
        <time>2018-03-25T07:00:03Z</time>
      </trkpt>
      <trkpt lat="46.71357" lon="-1.89072">
        <ele>18</ele>
        <time>2018-03-25T07:01:03Z</time>
      </trkpt>
      <trkpt lat="46.71354" lon="-1.89064">
        <ele>18</ele>
        <time>2018-03-25T07:02:03Z</time>
      </trkpt>
      <trkpt lat="46.71346" lon="-1.89045">
        <ele>19</ele>
        <time>2018-03-25T07:03:03Z</time>
      </trkpt>
      <trkpt lat="46.71333" lon="-1.89015">
        <ele>20</ele>
        <time>2018-03-25T07:04:03Z</time>
      </trkpt>
      <trkpt lat="46.71311" lon="-1.88967">
        <ele>20</ele>
        <time>2018-03-25T07:05:03Z</time>
      </trkpt>
      <trkpt lat="46.71306" lon="-1.88954">
        <ele>20</ele>
        <time>2018-03-25T07:06:03Z</time>
      </trkpt>
      <trkpt lat="46.7129" lon="-1.88921">
        <ele>20</ele>
        <time>2018-03-25T07:07:03Z</time>
      </trkpt>
      <trkpt lat="46.71282" lon="-1.88901">
        <ele>21</ele>
        <time>2018-03-25T07:08:03Z</time>
      </trkpt>
      <trkpt lat="46.71275" lon="-1.88885">
        <ele>21</ele>
        <time>2018-03-25T07:09:03Z</time>
      </trkpt>
      <trkpt lat="46.71274" lon="-1.88884">
        <ele>21</ele>
        <time>2018-03-25T07:10:03Z</time>
      </trkpt>
      <trkpt lat="46.71272" lon="-1.88877">
        <ele>21</ele>
        <time>2018-03-25T07:11:03Z</time>
      </trkpt>
      <trkpt lat="46.71261" lon="-1.88853">
        <ele>21</ele>
        <time>2018-03-25T07:12:03Z</time>
      </trkpt>
      <trkpt lat="46.71259" lon="-1.88848">
        <ele>22</ele>
        <time>2018-03-25T07:13:03Z</time>
      </trkpt>
      <trkpt lat="46.71243" lon="-1.8881">
        <ele>22</ele>
        <time>2018-03-25T07:14:03Z</time>
      </trkpt>
      <trkpt lat="46.71233" lon="-1.88781">
        <ele>22</ele>
        <time>2018-03-25T07:15:03Z</time>
      </trkpt>
      <trkpt lat="46.71218" lon="-1.8874">
        <ele>23</ele>
        <time>2018-03-25T07:16:03Z</time>
      </trkpt>
      <trkpt lat="46.71204" lon="-1.88698">
        <ele>23</ele>
        <time>2018-03-25T07:17:03Z</time>
      </trkpt>
      <trkpt lat="46.71189" lon="-1.8865">
        <ele>23</ele>
        <time>2018-03-25T07:18:03Z</time>
      </trkpt>
      <trkpt lat="46.71187" lon="-1.88643">
        <ele>23</ele>
        <time>2018-03-25T07:19:03Z</time>
      </trkpt>
      <trkpt lat="46.71178" lon="-1.88612">
        <ele>24</ele>
        <time>2018-03-25T07:20:03Z</time>
      </trkpt>
      <trkpt lat="46.71177" lon="-1.8861">
        <ele>24</ele>
        <time>2018-03-25T07:21:03Z</time>
      </trkpt>
      <trkpt lat="46.71174" lon="-1.88598">
        <ele>24</ele>
        <time>2018-03-25T07:22:03Z</time>
      </trkpt>
      <trkpt lat="46.71168" lon="-1.88573">
        <ele>24</ele>
        <time>2018-03-25T07:23:03Z</time>
      </trkpt>
      <trkpt lat="46.71161" lon="-1.88541">
        <ele>24</ele>
        <time>2018-03-25T07:24:03Z</time>
      </trkpt>
      <trkpt lat="46.71151" lon="-1.88495">
        <ele>25</ele>
        <time>2018-03-25T07:25:03Z</time>
      </trkpt>
      <trkpt lat="46.71143" lon="-1.88462">
        <ele>24</ele>
        <time>2018-03-25T07:26:03Z</time>
      </trkpt>
      <trkpt lat="46.71132" lon="-1.88414">
        <ele>24</ele>
        <time>2018-03-25T07:27:03Z</time>
      </trkpt>
      <trkpt lat="46.71127" lon="-1.8838">
        <ele>24</ele>
        <time>2018-03-25T07:28:03Z</time>
      </trkpt>
      <trkpt lat="46.71126" lon="-1.88355">
        <ele>25</ele>
        <time>2018-03-25T07:29:03Z</time>
      </trkpt>
      <trkpt lat="46.71125" lon="-1.8833">
        <ele>25</ele>
        <time>2018-03-25T07:30:03Z</time>
      </trkpt>
      <trkpt lat="46.71127" lon="-1.88303">
        <ele>25</ele>
        <time>2018-03-25T07:31:03Z</time>
      </trkpt>
      <trkpt lat="46.71128" lon="-1.88269">
        <ele>26</ele>
        <time>2018-03-25T07:32:03Z</time>
      </trkpt>
      <trkpt lat="46.71128" lon="-1.88215">
        <ele>26</ele>
        <time>2018-03-25T07:33:03Z</time>
      </trkpt>
      <trkpt lat="46.71127" lon="-1.88197">
        <ele>26</ele>
        <time>2018-03-25T07:34:03Z</time>
      </trkpt>
      <trkpt lat="46.71121" lon="-1.88156">
        <ele>26</ele>
        <time>2018-03-25T07:35:03Z</time>
      </trkpt>
      <trkpt lat="46.71112" lon="-1.88118">
        <ele>26</ele>
        <time>2018-03-25T07:36:03Z</time>
      </trkpt>
      <trkpt lat="46.71104" lon="-1.88089">
        <ele>27</ele>
        <time>2018-03-25T07:37:03Z</time>
      </trkpt>
      <trkpt lat="46.71098" lon="-1.88067">
        <ele>27</ele>
        <time>2018-03-25T07:38:03Z</time>
      </trkpt>
      <trkpt lat="46.71081" lon="-1.88022">
        <ele>27</ele>
        <time>2018-03-25T07:39:03Z</time>
      </trkpt>
      <trkpt lat="46.7106" lon="-1.87965">
        <ele>28</ele>
        <time>2018-03-25T07:40:03Z</time>
      </trkpt>
      <trkpt lat="46.71041" lon="-1.87914">
        <ele>28</ele>
        <time>2018-03-25T07:41:03Z</time>
      </trkpt>
      <trkpt lat="46.71033" lon="-1.87893">
        <ele>28</ele>
        <time>2018-03-25T07:42:03Z</time>
      </trkpt>
      <trkpt lat="46.71022" lon="-1.87863">
        <ele>28</ele>
        <time>2018-03-25T07:43:03Z</time>
      </trkpt>
      <trkpt lat="46.71012" lon="-1.87837">
        <ele>29</ele>
        <time>2018-03-25T07:44:03Z</time>
      </trkpt>
      <trkpt lat="46.71003" lon="-1.87814">
        <ele>29</ele>
        <time>2018-03-25T07:45:03Z</time>
      </trkpt>
      <trkpt lat="46.70997" lon="-1.87797">
        <ele>29</ele>
        <time>2018-03-25T07:46:03Z</time>
      </trkpt>
      <trkpt lat="46.70963" lon="-1.87708">
        <ele>29</ele>
        <time>2018-03-25T07:47:03Z</time>
      </trkpt>
      <trkpt lat="46.70946" lon="-1.87665">
        <ele>29</ele>
        <time>2018-03-25T07:48:03Z</time>
      </trkpt>
      <trkpt lat="46.70927" lon="-1.87614">
        <ele>30</ele>
        <time>2018-03-25T07:49:03Z</time>
      </trkpt>
      <trkpt lat="46.70919" lon="-1.87593">
        <ele>31</ele>
        <time>2018-03-25T07:50:03Z</time>
      </trkpt>
      <trkpt lat="46.7091" lon="-1.87574">
        <ele>31</ele>
        <time>2018-03-25T07:51:03Z</time>
      </trkpt>
      <trkpt lat="46.70897" lon="-1.87545">
        <ele>30</ele>
        <time>2018-03-25T07:52:03Z</time>
      </trkpt>
      <trkpt lat="46.70858" lon="-1.87473">
        <ele>29</ele>
        <time>2018-03-25T07:53:03Z</time>
      </trkpt>
      <trkpt lat="46.70825" lon="-1.87411">
        <ele>28</ele>
        <time>2018-03-25T07:54:03Z</time>
      </trkpt>
      <trkpt lat="46.70785" lon="-1.87338">
        <ele>28</ele>
        <time>2018-03-25T07:55:03Z</time>
      </trkpt>
      <trkpt lat="46.70762" lon="-1.8729">
        <ele>29</ele>
        <time>2018-03-25T07:56:03Z</time>
      </trkpt>
      <trkpt lat="46.70761" lon="-1.87289">
        <ele>29</ele>
        <time>2018-03-25T07:57:03Z</time>
      </trkpt>
      <trkpt lat="46.70745" lon="-1.87253">
        <ele>29</ele>
        <time>2018-03-25T07:58:03Z</time>
      </trkpt>
      <trkpt lat="46.70739" lon="-1.8724">
        <ele>29</ele>
        <time>2018-03-25T07:59:03Z</time>
      </trkpt>
      <trkpt lat="46.70719" lon="-1.87197">
        <ele>29</ele>
        <time>2018-03-25T08:00:03Z</time>
      </trkpt>
      <trkpt lat="46.70705" lon="-1.87168">
        <ele>29</ele>
        <time>2018-03-25T08:01:03Z</time>
      </trkpt>
      <trkpt lat="46.7069" lon="-1.87145">
        <ele>29</ele>
        <time>2018-03-25T08:02:03Z</time>
      </trkpt>
      <trkpt lat="46.70675" lon="-1.87122">
        <ele>29</ele>
        <time>2018-03-25T08:03:03Z</time>
      </trkpt>
      <trkpt lat="46.70665" lon="-1.87107">
        <ele>29</ele>
        <time>2018-03-25T08:04:03Z</time>
      </trkpt>
      <trkpt lat="46.70647" lon="-1.87082">
        <ele>29</ele>
        <time>2018-03-25T08:05:03Z</time>
      </trkpt>
      <trkpt lat="46.70633" lon="-1.8706">
        <ele>30</ele>
        <time>2018-03-25T08:06:03Z</time>
      </trkpt>
      <trkpt lat="46.70623" lon="-1.87043">
        <ele>31</ele>
        <time>2018-03-25T08:07:03Z</time>
      </trkpt>
      <trkpt lat="46.70613" lon="-1.87027">
        <ele>31</ele>
        <time>2018-03-25T08:08:03Z</time>
      </trkpt>
      <trkpt lat="46.706" lon="-1.87006">
        <ele>31</ele>
        <time>2018-03-25T08:09:03Z</time>
      </trkpt>
      <trkpt lat="46.70586" lon="-1.86981">
        <ele>31</ele>
        <time>2018-03-25T08:10:03Z</time>
      </trkpt>
      <trkpt lat="46.7058" lon="-1.86972">
        <ele>31</ele>
        <time>2018-03-25T08:11:03Z</time>
      </trkpt>
      <trkpt lat="46.70569" lon="-1.86957">
        <ele>30</ele>
        <time>2018-03-25T08:12:03Z</time>
      </trkpt>
      <trkpt lat="46.70556" lon="-1.8694">
        <ele>30</ele>
        <time>2018-03-25T08:13:03Z</time>
      </trkpt>
      <trkpt lat="46.70533" lon="-1.8691">
        <ele>29</ele>
        <time>2018-03-25T08:14:03Z</time>
      </trkpt>
      <trkpt lat="46.70506" lon="-1.86879">
        <ele>29</ele>
        <time>2018-03-25T08:15:03Z</time>
      </trkpt>
      <trkpt lat="46.70484" lon="-1.86853">
        <ele>28</ele>
        <time>2018-03-25T08:16:03Z</time>
      </trkpt>
      <trkpt lat="46.70474" lon="-1.86836">
        <ele>28</ele>
        <time>2018-03-25T08:17:03Z</time>
      </trkpt>
      <trkpt lat="46.7047" lon="-1.86824">
        <ele>28</ele>
        <time>2018-03-25T08:18:03Z</time>
      </trkpt>
      <trkpt lat="46.7047" lon="-1.86824">
        <ele>28</ele>
        <time>2018-03-25T08:19:03Z</time>
      </trkpt>
      <trkpt lat="46.70468" lon="-1.86815">
        <ele>28</ele>
        <time>2018-03-25T08:20:03Z</time>
      </trkpt>
      <trkpt lat="46.70467" lon="-1.86803">
        <ele>29</ele>
        <time>2018-03-25T08:21:03Z</time>
      </trkpt>
      <trkpt lat="46.70469" lon="-1.86787">
        <ele>29</ele>
        <time>2018-03-25T08:22:03Z</time>
      </trkpt>
      <trkpt lat="46.7047" lon="-1.86777">
        <ele>29</ele>
        <time>2018-03-25T08:23:03Z</time>
      </trkpt>
      <trkpt lat="46.70478" lon="-1.86722">
        <ele>30</ele>
        <time>2018-03-25T08:24:03Z</time>
      </trkpt>
      <trkpt lat="46.7049" lon="-1.86648">
        <ele>30</ele>
        <time>2018-03-25T08:25:03Z</time>
      </trkpt>
      <trkpt lat="46.70502" lon="-1.86575">
        <ele>30</ele>
        <time>2018-03-25T08:26:03Z</time>
      </trkpt>
      <trkpt lat="46.70511" lon="-1.86524">
        <ele>31</ele>
        <time>2018-03-25T08:27:03Z</time>
      </trkpt>
      <trkpt lat="46.70519" lon="-1.86477">
        <ele>30</ele>
        <time>2018-03-25T08:28:03Z</time>
      </trkpt>
      <trkpt lat="46.70525" lon="-1.86434">
        <ele>30</ele>
        <time>2018-03-25T08:29:03Z</time>
      </trkpt>
      <trkpt lat="46.70531" lon="-1.86396">
        <ele>29</ele>
        <time>2018-03-25T08:30:03Z</time>
      </trkpt>
      <trkpt lat="46.70533" lon="-1.8638">
        <ele>29</ele>
        <time>2018-03-25T08:31:03Z</time>
      </trkpt>
      <trkpt lat="46.70535" lon="-1.8637">
        <ele>29</ele>
        <time>2018-03-25T08:32:03Z</time>
      </trkpt>
      <trkpt lat="46.70535" lon="-1.86356">
        <ele>29</ele>
        <time>2018-03-25T08:33:03Z</time>
      </trkpt>
      <trkpt lat="46.70535" lon="-1.86328">
        <ele>28</ele>
        <time>2018-03-25T08:34:03Z</time>
      </trkpt>
      <trkpt lat="46.70533" lon="-1.86295">
        <ele>29</ele>
        <time>2018-03-25T08:35:03Z</time>
      </trkpt>
      <trkpt lat="46.70532" lon="-1.86266">
        <ele>29</ele>
        <time>2018-03-25T08:36:03Z</time>
      </trkpt>
      <trkpt lat="46.70527" lon="-1.86226">
        <ele>29</ele>
        <time>2018-03-25T08:37:03Z</time>
      </trkpt>
      <trkpt lat="46.70524" lon="-1.86177">
        <ele>29</ele>
        <time>2018-03-25T08:38:03Z</time>
      </trkpt>
      <trkpt lat="46.70521" lon="-1.8613">
        <ele>29</ele>
        <time>2018-03-25T08:39:03Z</time>
      </trkpt>
      <trkpt lat="46.7052" lon="-1.86097">
        <ele>29</ele>
        <time>2018-03-25T08:40:03Z</time>
      </trkpt>
      <trkpt lat="46.7052" lon="-1.86063">
        <ele>29</ele>
        <time>2018-03-25T08:41:03Z</time>
      </trkpt>
      <trkpt lat="46.7052" lon="-1.86033">
        <ele>29</ele>
        <time>2018-03-25T08:42:03Z</time>
      </trkpt>
      <trkpt lat="46.70519" lon="-1.86015">
        <ele>29</ele>
        <time>2018-03-25T08:43:03Z</time>
      </trkpt>
      <trkpt lat="46.70519" lon="-1.85999">
        <ele>29</ele>
        <time>2018-03-25T08:44:03Z</time>
      </trkpt>
      <trkpt lat="46.70518" lon="-1.8598">
        <ele>29</ele>
        <time>2018-03-25T08:45:03Z</time>
      </trkpt>
      <trkpt lat="46.70518" lon="-1.85964">
        <ele>29</ele>
        <time>2018-03-25T08:46:03Z</time>
      </trkpt>
      <trkpt lat="46.70517" lon="-1.85938">
        <ele>28</ele>
        <time>2018-03-25T08:47:03Z</time>
      </trkpt>
      <trkpt lat="46.70516" lon="-1.85918">
        <ele>28</ele>
        <time>2018-03-25T08:48:03Z</time>
      </trkpt>
      <trkpt lat="46.70516" lon="-1.85898">
        <ele>28</ele>
        <time>2018-03-25T08:49:03Z</time>
      </trkpt>
      <trkpt lat="46.70514" lon="-1.85879">
        <ele>28</ele>
        <time>2018-03-25T08:50:03Z</time>
      </trkpt>
      <trkpt lat="46.70513" lon="-1.85858">
        <ele>27</ele>
        <time>2018-03-25T08:51:03Z</time>
      </trkpt>
      <trkpt lat="46.70511" lon="-1.85837">
        <ele>27</ele>
        <time>2018-03-25T08:52:03Z</time>
      </trkpt>
      <trkpt lat="46.70509" lon="-1.85817">
        <ele>27</ele>
        <time>2018-03-25T08:53:03Z</time>
      </trkpt>
      <trkpt lat="46.70502" lon="-1.85763">
        <ele>27</ele>
        <time>2018-03-25T08:54:03Z</time>
      </trkpt>
      <trkpt lat="46.705" lon="-1.85741">
        <ele>27</ele>
        <time>2018-03-25T08:55:03Z</time>
      </trkpt>
      <trkpt lat="46.70499" lon="-1.8573">
        <ele>27</ele>
        <time>2018-03-25T08:56:03Z</time>
      </trkpt>
      <trkpt lat="46.70498" lon="-1.85719">
        <ele>27</ele>
        <time>2018-03-25T08:57:03Z</time>
      </trkpt>
      <trkpt lat="46.70498" lon="-1.85708">
        <ele>27</ele>
        <time>2018-03-25T08:58:03Z</time>
      </trkpt>
      <trkpt lat="46.70498" lon="-1.85697">
        <ele>28</ele>
        <time>2018-03-25T08:59:03Z</time>
      </trkpt>
      <trkpt lat="46.70498" lon="-1.85686">
        <ele>28</ele>
        <time>2018-03-25T09:00:03Z</time>
      </trkpt>
      <trkpt lat="46.70499" lon="-1.85674">
        <ele>28</ele>
        <time>2018-03-25T09:01:03Z</time>
      </trkpt>
      <trkpt lat="46.705" lon="-1.85664">
        <ele>28</ele>
        <time>2018-03-25T09:02:03Z</time>
      </trkpt>
      <trkpt lat="46.70502" lon="-1.85641">
        <ele>28</ele>
        <time>2018-03-25T09:03:03Z</time>
      </trkpt>
      <trkpt lat="46.70503" lon="-1.85622">
        <ele>27</ele>
        <time>2018-03-25T09:04:03Z</time>
      </trkpt>
      <trkpt lat="46.70505" lon="-1.85607">
        <ele>27</ele>
        <time>2018-03-25T09:05:03Z</time>
      </trkpt>
      <trkpt lat="46.70505" lon="-1.85587">
        <ele>27</ele>
        <time>2018-03-25T09:06:03Z</time>
      </trkpt>
      <trkpt lat="46.70505" lon="-1.85573">
        <ele>27</ele>
        <time>2018-03-25T09:07:03Z</time>
      </trkpt>
      <trkpt lat="46.70504" lon="-1.85557">
        <ele>26</ele>
        <time>2018-03-25T09:08:03Z</time>
      </trkpt>
      <trkpt lat="46.70503" lon="-1.85543">
        <ele>26</ele>
        <time>2018-03-25T09:09:03Z</time>
      </trkpt>
      <trkpt lat="46.705" lon="-1.8552">
        <ele>25</ele>
        <time>2018-03-25T09:10:03Z</time>
      </trkpt>
      <trkpt lat="46.705" lon="-1.8552">
        <ele>25</ele>
        <time>2018-03-25T09:11:03Z</time>
      </trkpt>
      <trkpt lat="46.70498" lon="-1.85494">
        <ele>25</ele>
        <time>2018-03-25T09:12:03Z</time>
      </trkpt>
      <trkpt lat="46.70496" lon="-1.85469">
        <ele>25</ele>
        <time>2018-03-25T09:13:03Z</time>
      </trkpt>
      <trkpt lat="46.70492" lon="-1.85438">
        <ele>25</ele>
        <time>2018-03-25T09:14:03Z</time>
      </trkpt>
      <trkpt lat="46.70487" lon="-1.8538">
        <ele>25</ele>
        <time>2018-03-25T09:15:03Z</time>
      </trkpt>
      <trkpt lat="46.70483" lon="-1.85346">
        <ele>25</ele>
        <time>2018-03-25T09:16:03Z</time>
      </trkpt>
      <trkpt lat="46.7048" lon="-1.85321">
        <ele>25</ele>
        <time>2018-03-25T09:17:03Z</time>
      </trkpt>
      <trkpt lat="46.70477" lon="-1.85299">
        <ele>25</ele>
        <time>2018-03-25T09:18:03Z</time>
      </trkpt>
      <trkpt lat="46.70473" lon="-1.85276">
        <ele>25</ele>
        <time>2018-03-25T09:19:03Z</time>
      </trkpt>
      <trkpt lat="46.70468" lon="-1.85254">
        <ele>25</ele>
        <time>2018-03-25T09:20:03Z</time>
      </trkpt>
      <trkpt lat="46.70464" lon="-1.85232">
        <ele>25</ele>
        <time>2018-03-25T09:21:03Z</time>
      </trkpt>
      <trkpt lat="46.70462" lon="-1.85222">
        <ele>25</ele>
        <time>2018-03-25T09:22:03Z</time>
      </trkpt>
      <trkpt lat="46.7046" lon="-1.85211">
        <ele>25</ele>
        <time>2018-03-25T09:23:03Z</time>
      </trkpt>
      <trkpt lat="46.70459" lon="-1.85201">
        <ele>24</ele>
        <time>2018-03-25T09:24:03Z</time>
      </trkpt>
      <trkpt lat="46.70457" lon="-1.8519">
        <ele>24</ele>
        <time>2018-03-25T09:25:03Z</time>
      </trkpt>
      <trkpt lat="46.70457" lon="-1.85178">
        <ele>24</ele>
        <time>2018-03-25T09:26:03Z</time>
      </trkpt>
      <trkpt lat="46.70457" lon="-1.85167">
        <ele>24</ele>
        <time>2018-03-25T09:27:03Z</time>
      </trkpt>
      <trkpt lat="46.70457" lon="-1.85156">
        <ele>24</ele>
        <time>2018-03-25T09:28:03Z</time>
      </trkpt>
      <trkpt lat="46.70458" lon="-1.85143">
        <ele>24</ele>
        <time>2018-03-25T09:29:03Z</time>
      </trkpt>
      <trkpt lat="46.70459" lon="-1.85124">
        <ele>25</ele>
        <time>2018-03-25T09:30:03Z</time>
      </trkpt>
      <trkpt lat="46.70461" lon="-1.85103">
        <ele>25</ele>
        <time>2018-03-25T09:31:03Z</time>
      </trkpt>
      <trkpt lat="46.70463" lon="-1.85071">
        <ele>25</ele>
        <time>2018-03-25T09:32:03Z</time>
      </trkpt>
      <trkpt lat="46.70465" lon="-1.8505">
        <ele>25</ele>
        <time>2018-03-25T09:33:03Z</time>
      </trkpt>
      <trkpt lat="46.70466" lon="-1.8503">
        <ele>25</ele>
        <time>2018-03-25T09:34:03Z</time>
      </trkpt>
      <trkpt lat="46.70467" lon="-1.8501">
        <ele>25</ele>
        <time>2018-03-25T09:35:03Z</time>
      </trkpt>
      <trkpt lat="46.70468" lon="-1.8499">
        <ele>25</ele>
        <time>2018-03-25T09:36:03Z</time>
      </trkpt>
      <trkpt lat="46.70468" lon="-1.84981">
        <ele>25</ele>
        <time>2018-03-25T09:37:03Z</time>
      </trkpt>
      <trkpt lat="46.70467" lon="-1.84972">
        <ele>25</ele>
        <time>2018-03-25T09:38:03Z</time>
      </trkpt>
      <trkpt lat="46.70466" lon="-1.84963">
        <ele>25</ele>
        <time>2018-03-25T09:39:03Z</time>
      </trkpt>
      <trkpt lat="46.70465" lon="-1.84952">
        <ele>24</ele>
        <time>2018-03-25T09:40:03Z</time>
      </trkpt>
      <trkpt lat="46.70462" lon="-1.84939">
        <ele>24</ele>
        <time>2018-03-25T09:41:03Z</time>
      </trkpt>
      <trkpt lat="46.70458" lon="-1.84928">
        <ele>24</ele>
        <time>2018-03-25T09:42:03Z</time>
      </trkpt>
      <trkpt lat="46.70458" lon="-1.84928">
        <ele>24</ele>
        <time>2018-03-25T09:43:03Z</time>
      </trkpt>
      <trkpt lat="46.70452" lon="-1.84911">
        <ele>23</ele>
        <time>2018-03-25T09:44:03Z</time>
      </trkpt>
      <trkpt lat="46.70446" lon="-1.84893">
        <ele>23</ele>
        <time>2018-03-25T09:45:03Z</time>
      </trkpt>
      <trkpt lat="46.70439" lon="-1.84875">
        <ele>23</ele>
        <time>2018-03-25T09:46:03Z</time>
      </trkpt>
      <trkpt lat="46.70432" lon="-1.84855">
        <ele>22</ele>
        <time>2018-03-25T09:47:03Z</time>
      </trkpt>
      <trkpt lat="46.70426" lon="-1.84829">
        <ele>22</ele>
        <time>2018-03-25T09:48:03Z</time>
      </trkpt>
      <trkpt lat="46.70422" lon="-1.84808">
        <ele>22</ele>
        <time>2018-03-25T09:49:03Z</time>
      </trkpt>
      <trkpt lat="46.70417" lon="-1.84785">
        <ele>21</ele>
        <time>2018-03-25T09:50:03Z</time>
      </trkpt>
      <trkpt lat="46.70412" lon="-1.84763">
        <ele>20</ele>
        <time>2018-03-25T09:51:03Z</time>
      </trkpt>
      <trkpt lat="46.70409" lon="-1.8475">
        <ele>20</ele>
        <time>2018-03-25T09:52:03Z</time>
      </trkpt>
      <trkpt lat="46.70404" lon="-1.84735">
        <ele>20</ele>
        <time>2018-03-25T09:53:03Z</time>
      </trkpt>
      <trkpt lat="46.70396" lon="-1.84716">
        <ele>20</ele>
        <time>2018-03-25T09:54:03Z</time>
      </trkpt>
      <trkpt lat="46.70386" lon="-1.8469">
        <ele>20</ele>
        <time>2018-03-25T09:55:03Z</time>
      </trkpt>
      <trkpt lat="46.70374" lon="-1.8466">
        <ele>19</ele>
        <time>2018-03-25T09:56:03Z</time>
      </trkpt>
      <trkpt lat="46.70361" lon="-1.84622">
        <ele>19</ele>
        <time>2018-03-25T09:57:03Z</time>
      </trkpt>
      <trkpt lat="46.7035" lon="-1.84584">
        <ele>20</ele>
        <time>2018-03-25T09:58:03Z</time>
      </trkpt>
      <trkpt lat="46.70344" lon="-1.84563">
        <ele>19</ele>
        <time>2018-03-25T09:59:03Z</time>
      </trkpt>
      <trkpt lat="46.70334" lon="-1.8453">
        <ele>19</ele>
        <time>2018-03-25T10:00:03Z</time>
      </trkpt>
      <trkpt lat="46.70317" lon="-1.84477">
        <ele>19</ele>
        <time>2018-03-25T10:01:03Z</time>
      </trkpt>
      <trkpt lat="46.7031" lon="-1.84451">
        <ele>19</ele>
        <time>2018-03-25T10:02:03Z</time>
      </trkpt>
      <trkpt lat="46.70305" lon="-1.84434">
        <ele>19</ele>
        <time>2018-03-25T10:03:03Z</time>
      </trkpt>
      <trkpt lat="46.70302" lon="-1.84417">
        <ele>19</ele>
        <time>2018-03-25T10:04:03Z</time>
      </trkpt>
      <trkpt lat="46.70299" lon="-1.84401">
        <ele>20</ele>
        <time>2018-03-25T10:05:03Z</time>
      </trkpt>
      <trkpt lat="46.70299" lon="-1.84401">
        <ele>20</ele>
        <time>2018-03-25T10:06:03Z</time>
      </trkpt>
      <trkpt lat="46.70298" lon="-1.84387">
        <ele>20</ele>
        <time>2018-03-25T10:07:03Z</time>
      </trkpt>
      <trkpt lat="46.70296" lon="-1.84357">
        <ele>20</ele>
        <time>2018-03-25T10:08:03Z</time>
      </trkpt>
      <trkpt lat="46.70292" lon="-1.84314">
        <ele>21</ele>
        <time>2018-03-25T10:09:03Z</time>
      </trkpt>
      <trkpt lat="46.7029" lon="-1.84278">
        <ele>21</ele>
        <time>2018-03-25T10:10:03Z</time>
      </trkpt>
      <trkpt lat="46.70285" lon="-1.84234">
        <ele>21</ele>
        <time>2018-03-25T10:11:03Z</time>
      </trkpt>
      <trkpt lat="46.70281" lon="-1.84202">
        <ele>21</ele>
        <time>2018-03-25T10:12:03Z</time>
      </trkpt>
      <trkpt lat="46.70275" lon="-1.8416">
        <ele>22</ele>
        <time>2018-03-25T10:13:03Z</time>
      </trkpt>
      <trkpt lat="46.7027" lon="-1.84122">
        <ele>22</ele>
        <time>2018-03-25T10:14:03Z</time>
      </trkpt>
      <trkpt lat="46.70261" lon="-1.84056">
        <ele>22</ele>
        <time>2018-03-25T10:15:03Z</time>
      </trkpt>
      <trkpt lat="46.70257" lon="-1.84037">
        <ele>22</ele>
        <time>2018-03-25T10:16:03Z</time>
      </trkpt>
      <trkpt lat="46.7025" lon="-1.84012">
        <ele>22</ele>
        <time>2018-03-25T10:17:03Z</time>
      </trkpt>
      <trkpt lat="46.70241" lon="-1.83978">
        <ele>22</ele>
        <time>2018-03-25T10:18:03Z</time>
      </trkpt>
      <trkpt lat="46.70237" lon="-1.83967">
        <ele>22</ele>
        <time>2018-03-25T10:19:03Z</time>
      </trkpt>
      <trkpt lat="46.70235" lon="-1.8396">
        <ele>22</ele>
        <time>2018-03-25T10:20:03Z</time>
      </trkpt>
      <trkpt lat="46.70234" lon="-1.83956">
        <ele>22</ele>
        <time>2018-03-25T10:21:03Z</time>
      </trkpt>
      <trkpt lat="46.70228" lon="-1.83942">
        <ele>21</ele>
        <time>2018-03-25T10:22:03Z</time>
      </trkpt>
      <trkpt lat="46.70222" lon="-1.83931">
        <ele>21</ele>
        <time>2018-03-25T10:23:03Z</time>
      </trkpt>
      <trkpt lat="46.70212" lon="-1.83911">
        <ele>21</ele>
        <time>2018-03-25T10:24:03Z</time>
      </trkpt>
      <trkpt lat="46.70212" lon="-1.8391">
        <ele>21</ele>
        <time>2018-03-25T10:25:03Z</time>
      </trkpt>
      <trkpt lat="46.70201" lon="-1.8389">
        <ele>21</ele>
        <time>2018-03-25T10:26:03Z</time>
      </trkpt>
      <trkpt lat="46.70193" lon="-1.83875">
        <ele>21</ele>
        <time>2018-03-25T10:27:03Z</time>
      </trkpt>
      <trkpt lat="46.70181" lon="-1.83852">
        <ele>20</ele>
        <time>2018-03-25T10:28:03Z</time>
      </trkpt>
      <trkpt lat="46.70171" lon="-1.83831">
        <ele>20</ele>
        <time>2018-03-25T10:29:03Z</time>
      </trkpt>
      <trkpt lat="46.70163" lon="-1.83812">
        <ele>20</ele>
        <time>2018-03-25T10:30:03Z</time>
      </trkpt>
      <trkpt lat="46.7015" lon="-1.83781">
        <ele>20</ele>
        <time>2018-03-25T10:31:03Z</time>
      </trkpt>
      <trkpt lat="46.70138" lon="-1.83749">
        <ele>20</ele>
        <time>2018-03-25T10:32:03Z</time>
      </trkpt>
      <trkpt lat="46.70125" lon="-1.83717">
        <ele>19</ele>
        <time>2018-03-25T10:33:03Z</time>
      </trkpt>
      <trkpt lat="46.70103" lon="-1.8366">
        <ele>19</ele>
        <time>2018-03-25T10:34:03Z</time>
      </trkpt>
      <trkpt lat="46.70087" lon="-1.83624">
        <ele>18</ele>
        <time>2018-03-25T10:35:03Z</time>
      </trkpt>
      <trkpt lat="46.70068" lon="-1.83582">
        <ele>17</ele>
        <time>2018-03-25T10:36:03Z</time>
      </trkpt>
      <trkpt lat="46.70054" lon="-1.83555">
        <ele>16</ele>
        <time>2018-03-25T10:37:03Z</time>
      </trkpt>
      <trkpt lat="46.70043" lon="-1.83534">
        <ele>16</ele>
        <time>2018-03-25T10:38:03Z</time>
      </trkpt>
      <trkpt lat="46.70035" lon="-1.83519">
        <ele>16</ele>
        <time>2018-03-25T10:39:03Z</time>
      </trkpt>
      <trkpt lat="46.70028" lon="-1.83503">
        <ele>15</ele>
        <time>2018-03-25T10:40:03Z</time>
      </trkpt>
      <trkpt lat="46.70019" lon="-1.83485">
        <ele>15</ele>
        <time>2018-03-25T10:41:03Z</time>
      </trkpt>
      <trkpt lat="46.70012" lon="-1.8347">
        <ele>14</ele>
        <time>2018-03-25T10:42:03Z</time>
      </trkpt>
      <trkpt lat="46.70006" lon="-1.83454">
        <ele>13</ele>
        <time>2018-03-25T10:43:03Z</time>
      </trkpt>
      <trkpt lat="46.70002" lon="-1.83442">
        <ele>13</ele>
        <time>2018-03-25T10:44:03Z</time>
      </trkpt>
      <trkpt lat="46.7" lon="-1.8343">
        <ele>12</ele>
        <time>2018-03-25T10:45:03Z</time>
      </trkpt>
      <trkpt lat="46.69997" lon="-1.83415">
        <ele>12</ele>
        <time>2018-03-25T10:46:03Z</time>
      </trkpt>
      <trkpt lat="46.69994" lon="-1.83398">
        <ele>11</ele>
        <time>2018-03-25T10:47:03Z</time>
      </trkpt>
      <trkpt lat="46.69993" lon="-1.8338">
        <ele>11</ele>
        <time>2018-03-25T10:48:03Z</time>
      </trkpt>
      <trkpt lat="46.69992" lon="-1.83364">
        <ele>10</ele>
        <time>2018-03-25T10:49:03Z</time>
      </trkpt>
      <trkpt lat="46.69991" lon="-1.83357">
        <ele>10</ele>
        <time>2018-03-25T10:50:03Z</time>
      </trkpt>
      <trkpt lat="46.6999" lon="-1.83349">
        <ele>10</ele>
        <time>2018-03-25T10:51:03Z</time>
      </trkpt>
      <trkpt lat="46.6999" lon="-1.83343">
        <ele>9</ele>
        <time>2018-03-25T10:52:03Z</time>
      </trkpt>
      <trkpt lat="46.69989" lon="-1.83337">
        <ele>9</ele>
        <time>2018-03-25T10:53:03Z</time>
      </trkpt>
      <trkpt lat="46.69987" lon="-1.83327">
        <ele>9</ele>
        <time>2018-03-25T10:54:03Z</time>
      </trkpt>
      <trkpt lat="46.69981" lon="-1.83314">
        <ele>10</ele>
        <time>2018-03-25T10:55:03Z</time>
      </trkpt>
      <trkpt lat="46.69975" lon="-1.83302">
        <ele>10</ele>
        <time>2018-03-25T10:56:03Z</time>
      </trkpt>
      <trkpt lat="46.69972" lon="-1.83295">
        <ele>10</ele>
        <time>2018-03-25T10:57:03Z</time>
      </trkpt>
      <trkpt lat="46.69964" lon="-1.8328">
        <ele>10</ele>
        <time>2018-03-25T10:58:03Z</time>
      </trkpt>
      <trkpt lat="46.6996" lon="-1.83268">
        <ele>11</ele>
        <time>2018-03-25T10:59:03Z</time>
      </trkpt>
      <trkpt lat="46.69959" lon="-1.83262">
        <ele>11</ele>
        <time>2018-03-25T11:00:03Z</time>
      </trkpt>
      <trkpt lat="46.69958" lon="-1.83258">
        <ele>11</ele>
        <time>2018-03-25T11:01:03Z</time>
      </trkpt>
      <trkpt lat="46.69958" lon="-1.83252">
        <ele>11</ele>
        <time>2018-03-25T11:02:03Z</time>
      </trkpt>
      <trkpt lat="46.69958" lon="-1.83243">
        <ele>11</ele>
        <time>2018-03-25T11:03:03Z</time>
      </trkpt>
      <trkpt lat="46.6996" lon="-1.83236">
        <ele>11</ele>
        <time>2018-03-25T11:04:03Z</time>
      </trkpt>
      <trkpt lat="46.69964" lon="-1.8322">
        <ele>11</ele>
        <time>2018-03-25T11:05:03Z</time>
      </trkpt>
      <trkpt lat="46.69967" lon="-1.83211">
        <ele>11</ele>
        <time>2018-03-25T11:06:03Z</time>
      </trkpt>
      <trkpt lat="46.6997" lon="-1.83203">
        <ele>11</ele>
        <time>2018-03-25T11:07:03Z</time>
      </trkpt>
      <trkpt lat="46.69972" lon="-1.83199">
        <ele>11</ele>
        <time>2018-03-25T11:08:03Z</time>
      </trkpt>
      <trkpt lat="46.69975" lon="-1.83195">
        <ele>11</ele>
        <time>2018-03-25T11:09:03Z</time>
      </trkpt>
      <trkpt lat="46.69984" lon="-1.83184">
        <ele>11</ele>
        <time>2018-03-25T11:10:03Z</time>
      </trkpt>
      <trkpt lat="46.69992" lon="-1.83175">
        <ele>11</ele>
        <time>2018-03-25T11:11:03Z</time>
      </trkpt>
      <trkpt lat="46.69998" lon="-1.83169">
        <ele>11</ele>
        <time>2018-03-25T11:12:03Z</time>
      </trkpt>
      <trkpt lat="46.70002" lon="-1.83162">
        <ele>11</ele>
        <time>2018-03-25T11:13:03Z</time>
      </trkpt>
      <trkpt lat="46.70002" lon="-1.83162">
        <ele>11</ele>
        <time>2018-03-25T11:14:03Z</time>
      </trkpt>
      <trkpt lat="46.70009" lon="-1.83167">
        <ele>11</ele>
        <time>2018-03-25T11:15:03Z</time>
      </trkpt>
      <trkpt lat="46.70017" lon="-1.83169">
        <ele>11</ele>
        <time>2018-03-25T11:16:03Z</time>
      </trkpt>
      <trkpt lat="46.70021" lon="-1.8317">
        <ele>11</ele>
        <time>2018-03-25T11:17:03Z</time>
      </trkpt>
      <trkpt lat="46.70025" lon="-1.83169">
        <ele>11</ele>
        <time>2018-03-25T11:18:03Z</time>
      </trkpt>
      <trkpt lat="46.70029" lon="-1.83166">
        <ele>11</ele>
        <time>2018-03-25T11:19:03Z</time>
      </trkpt>
      <trkpt lat="46.70032" lon="-1.83163">
        <ele>11</ele>
        <time>2018-03-25T11:20:03Z</time>
      </trkpt>
      <trkpt lat="46.70043" lon="-1.83152">
        <ele>11</ele>
        <time>2018-03-25T11:21:03Z</time>
      </trkpt>
      <trkpt lat="46.70051" lon="-1.83144">
        <ele>11</ele>
        <time>2018-03-25T11:22:03Z</time>
      </trkpt>
      <trkpt lat="46.70064" lon="-1.8313">
        <ele>11</ele>
        <time>2018-03-25T11:23:03Z</time>
      </trkpt>
      <trkpt lat="46.70073" lon="-1.8312">
        <ele>11</ele>
        <time>2018-03-25T11:24:03Z</time>
      </trkpt>
      <trkpt lat="46.70078" lon="-1.83113">
        <ele>11</ele>
        <time>2018-03-25T11:25:03Z</time>
      </trkpt>
      <trkpt lat="46.7008" lon="-1.83108">
        <ele>11</ele>
        <time>2018-03-25T11:26:03Z</time>
      </trkpt>
      <trkpt lat="46.70081" lon="-1.83101">
        <ele>11</ele>
        <time>2018-03-25T11:27:03Z</time>
      </trkpt>
      <trkpt lat="46.70082" lon="-1.83094">
        <ele>11</ele>
        <time>2018-03-25T11:28:03Z</time>
      </trkpt>
      <trkpt lat="46.70082" lon="-1.83088">
        <ele>11</ele>
        <time>2018-03-25T11:29:03Z</time>
      </trkpt>
      <trkpt lat="46.70069" lon="-1.83058">
        <ele>12</ele>
        <time>2018-03-25T11:30:03Z</time>
      </trkpt>
      <trkpt lat="46.70056" lon="-1.8303">
        <ele>13</ele>
        <time>2018-03-25T11:31:03Z</time>
      </trkpt>
      <trkpt lat="46.70041" lon="-1.82995">
        <ele>14</ele>
        <time>2018-03-25T11:32:03Z</time>
      </trkpt>
      <trkpt lat="46.7002" lon="-1.8295">
        <ele>17</ele>
        <time>2018-03-25T11:33:03Z</time>
      </trkpt>
      <trkpt lat="46.7002" lon="-1.8295">
        <ele>17</ele>
        <time>2018-03-25T11:34:03Z</time>
      </trkpt>
      <trkpt lat="46.70055" lon="-1.82926">
        <ele>18</ele>
        <time>2018-03-25T11:35:03Z</time>
      </trkpt>
      <trkpt lat="46.70074" lon="-1.82913">
        <ele>18</ele>
        <time>2018-03-25T11:36:03Z</time>
      </trkpt>
      <trkpt lat="46.70079" lon="-1.82909">
        <ele>18</ele>
        <time>2018-03-25T11:37:03Z</time>
      </trkpt>
      <trkpt lat="46.70117" lon="-1.82884">
        <ele>17</ele>
        <time>2018-03-25T11:38:03Z</time>
      </trkpt>
      <trkpt lat="46.70133" lon="-1.82873">
        <ele>17</ele>
        <time>2018-03-25T11:39:03Z</time>
      </trkpt>
      <trkpt lat="46.70172" lon="-1.82846">
        <ele>17</ele>
        <time>2018-03-25T11:40:03Z</time>
      </trkpt>
      <trkpt lat="46.70202" lon="-1.82826">
        <ele>18</ele>
        <time>2018-03-25T11:41:03Z</time>
      </trkpt>
      <trkpt lat="46.70246" lon="-1.82796">
        <ele>20</ele>
        <time>2018-03-25T11:42:03Z</time>
      </trkpt>
      <trkpt lat="46.70292" lon="-1.82765">
        <ele>22</ele>
        <time>2018-03-25T11:43:03Z</time>
      </trkpt>
      <trkpt lat="46.70341" lon="-1.82731">
        <ele>23</ele>
        <time>2018-03-25T11:44:03Z</time>
      </trkpt>
      <trkpt lat="46.70373" lon="-1.82709">
        <ele>23</ele>
        <time>2018-03-25T11:45:03Z</time>
      </trkpt>
      <trkpt lat="46.7043" lon="-1.8267">
        <ele>24</ele>
        <time>2018-03-25T11:46:03Z</time>
      </trkpt>
      <trkpt lat="46.70476" lon="-1.82638">
        <ele>23</ele>
        <time>2018-03-25T11:47:03Z</time>
      </trkpt>
      <trkpt lat="46.70511" lon="-1.82615">
        <ele>22</ele>
        <time>2018-03-25T11:48:03Z</time>
      </trkpt>
      <trkpt lat="46.70546" lon="-1.8259">
        <ele>23</ele>
        <time>2018-03-25T11:49:03Z</time>
      </trkpt>
      <trkpt lat="46.70581" lon="-1.82568">
        <ele>23</ele>
        <time>2018-03-25T11:50:03Z</time>
      </trkpt>
      <trkpt lat="46.70593" lon="-1.82559">
        <ele>23</ele>
        <time>2018-03-25T11:51:03Z</time>
      </trkpt>
      <trkpt lat="46.70629" lon="-1.82536">
        <ele>23</ele>
        <time>2018-03-25T11:52:03Z</time>
      </trkpt>
      <trkpt lat="46.70667" lon="-1.82511">
        <ele>23</ele>
        <time>2018-03-25T11:53:03Z</time>
      </trkpt>
      <trkpt lat="46.70692" lon="-1.82493">
        <ele>23</ele>
        <time>2018-03-25T11:54:03Z</time>
      </trkpt>
      <trkpt lat="46.70715" lon="-1.82477">
        <ele>22</ele>
        <time>2018-03-25T11:55:03Z</time>
      </trkpt>
      <trkpt lat="46.70728" lon="-1.82466">
        <ele>23</ele>
        <time>2018-03-25T11:56:03Z</time>
      </trkpt>
      <trkpt lat="46.70742" lon="-1.82451">
        <ele>23</ele>
        <time>2018-03-25T11:57:03Z</time>
      </trkpt>
      <trkpt lat="46.70754" lon="-1.82434">
        <ele>23</ele>
        <time>2018-03-25T11:58:03Z</time>
      </trkpt>
      <trkpt lat="46.70765" lon="-1.82415">
        <ele>23</ele>
        <time>2018-03-25T11:59:03Z</time>
      </trkpt>
      <trkpt lat="46.70782" lon="-1.82385">
        <ele>23</ele>
        <time>2018-03-25T12:00:03Z</time>
      </trkpt>
      <trkpt lat="46.70805" lon="-1.82343">
        <ele>23</ele>
        <time>2018-03-25T12:01:03Z</time>
      </trkpt>
      <trkpt lat="46.70833" lon="-1.8229">
        <ele>23</ele>
        <time>2018-03-25T12:02:03Z</time>
      </trkpt>
      <trkpt lat="46.70843" lon="-1.82268">
        <ele>23</ele>
        <time>2018-03-25T12:03:03Z</time>
      </trkpt>
      <trkpt lat="46.70852" lon="-1.82245">
        <ele>23</ele>
        <time>2018-03-25T12:04:03Z</time>
      </trkpt>
      <trkpt lat="46.70865" lon="-1.8221">
        <ele>24</ele>
        <time>2018-03-25T12:05:03Z</time>
      </trkpt>
      <trkpt lat="46.70876" lon="-1.82175">
        <ele>24</ele>
        <time>2018-03-25T12:06:03Z</time>
      </trkpt>
      <trkpt lat="46.70897" lon="-1.82116">
        <ele>26</ele>
        <time>2018-03-25T12:07:03Z</time>
      </trkpt>
      <trkpt lat="46.70929" lon="-1.82023">
        <ele>26</ele>
        <time>2018-03-25T12:08:03Z</time>
      </trkpt>
      <trkpt lat="46.70948" lon="-1.81963">
        <ele>25</ele>
        <time>2018-03-25T12:09:03Z</time>
      </trkpt>
      <trkpt lat="46.70968" lon="-1.81906">
        <ele>23</ele>
        <time>2018-03-25T12:10:03Z</time>
      </trkpt>
      <trkpt lat="46.70983" lon="-1.81862">
        <ele>22</ele>
        <time>2018-03-25T12:11:03Z</time>
      </trkpt>
      <trkpt lat="46.70998" lon="-1.8182">
        <ele>21</ele>
        <time>2018-03-25T12:12:03Z</time>
      </trkpt>
      <trkpt lat="46.71011" lon="-1.81795">
        <ele>21</ele>
        <time>2018-03-25T12:13:03Z</time>
      </trkpt>
      <trkpt lat="46.71017" lon="-1.81781">
        <ele>21</ele>
        <time>2018-03-25T12:14:03Z</time>
      </trkpt>
      <trkpt lat="46.71027" lon="-1.81764">
        <ele>21</ele>
        <time>2018-03-25T12:15:03Z</time>
      </trkpt>
      <trkpt lat="46.71032" lon="-1.81757">
        <ele>21</ele>
        <time>2018-03-25T12:16:03Z</time>
      </trkpt>
      <trkpt lat="46.71038" lon="-1.81748">
        <ele>21</ele>
        <time>2018-03-25T12:17:03Z</time>
      </trkpt>
      <trkpt lat="46.71046" lon="-1.81738">
        <ele>21</ele>
        <time>2018-03-25T12:18:03Z</time>
      </trkpt>
      <trkpt lat="46.71052" lon="-1.81731">
        <ele>20</ele>
        <time>2018-03-25T12:19:03Z</time>
      </trkpt>
      <trkpt lat="46.71063" lon="-1.8172">
        <ele>20</ele>
        <time>2018-03-25T12:20:03Z</time>
      </trkpt>
      <trkpt lat="46.71072" lon="-1.81712">
        <ele>19</ele>
        <time>2018-03-25T12:21:03Z</time>
      </trkpt>
      <trkpt lat="46.71089" lon="-1.817">
        <ele>19</ele>
        <time>2018-03-25T12:22:03Z</time>
      </trkpt>
      <trkpt lat="46.71103" lon="-1.81693">
        <ele>18</ele>
        <time>2018-03-25T12:23:03Z</time>
      </trkpt>
      <trkpt lat="46.71118" lon="-1.81687">
        <ele>17</ele>
        <time>2018-03-25T12:24:03Z</time>
      </trkpt>
      <trkpt lat="46.71126" lon="-1.81685">
        <ele>17</ele>
        <time>2018-03-25T12:25:03Z</time>
      </trkpt>
      <trkpt lat="46.71134" lon="-1.81685">
        <ele>16</ele>
        <time>2018-03-25T12:26:03Z</time>
      </trkpt>
      <trkpt lat="46.71142" lon="-1.81685">
        <ele>16</ele>
        <time>2018-03-25T12:27:03Z</time>
      </trkpt>
      <trkpt lat="46.7115" lon="-1.81687">
        <ele>16</ele>
        <time>2018-03-25T12:28:03Z</time>
      </trkpt>
      <trkpt lat="46.71165" lon="-1.81692">
        <ele>15</ele>
        <time>2018-03-25T12:29:03Z</time>
      </trkpt>
      <trkpt lat="46.71185" lon="-1.81706">
        <ele>15</ele>
        <time>2018-03-25T12:30:03Z</time>
      </trkpt>
      <trkpt lat="46.71224" lon="-1.81735">
        <ele>14</ele>
        <time>2018-03-25T12:31:03Z</time>
      </trkpt>
      <trkpt lat="46.71247" lon="-1.81752">
        <ele>14</ele>
        <time>2018-03-25T12:32:03Z</time>
      </trkpt>
      <trkpt lat="46.71251" lon="-1.81756">
        <ele>14</ele>
        <time>2018-03-25T12:33:03Z</time>
      </trkpt>
      <trkpt lat="46.71256" lon="-1.8176">
        <ele>14</ele>
        <time>2018-03-25T12:34:03Z</time>
      </trkpt>
      <trkpt lat="46.71295" lon="-1.8179">
        <ele>15</ele>
        <time>2018-03-25T12:35:03Z</time>
      </trkpt>
      <trkpt lat="46.71323" lon="-1.81811">
        <ele>16</ele>
        <time>2018-03-25T12:36:03Z</time>
      </trkpt>
      <trkpt lat="46.71354" lon="-1.81835">
        <ele>17</ele>
        <time>2018-03-25T12:37:03Z</time>
      </trkpt>
      <trkpt lat="46.71373" lon="-1.8185">
        <ele>17</ele>
        <time>2018-03-25T12:38:03Z</time>
      </trkpt>
      <trkpt lat="46.7139" lon="-1.81858">
        <ele>18</ele>
        <time>2018-03-25T12:39:03Z</time>
      </trkpt>
      <trkpt lat="46.71405" lon="-1.81863">
        <ele>19</ele>
        <time>2018-03-25T12:40:03Z</time>
      </trkpt>
      <trkpt lat="46.71419" lon="-1.81865">
        <ele>19</ele>
        <time>2018-03-25T12:41:03Z</time>
      </trkpt>
      <trkpt lat="46.7142" lon="-1.81865">
        <ele>19</ele>
        <time>2018-03-25T12:42:03Z</time>
      </trkpt>
      <trkpt lat="46.71461" lon="-1.81868">
        <ele>20</ele>
        <time>2018-03-25T12:43:03Z</time>
      </trkpt>
      <trkpt lat="46.71511" lon="-1.8187">
        <ele>21</ele>
        <time>2018-03-25T12:44:03Z</time>
      </trkpt>
      <trkpt lat="46.71587" lon="-1.81874">
        <ele>25</ele>
        <time>2018-03-25T12:45:03Z</time>
      </trkpt>
      <trkpt lat="46.71616" lon="-1.81876">
        <ele>25</ele>
        <time>2018-03-25T12:46:03Z</time>
      </trkpt>
      <trkpt lat="46.71665" lon="-1.81879">
        <ele>27</ele>
        <time>2018-03-25T12:47:03Z</time>
      </trkpt>
      <trkpt lat="46.71685" lon="-1.8188">
        <ele>27</ele>
        <time>2018-03-25T12:48:03Z</time>
      </trkpt>
      <trkpt lat="46.71696" lon="-1.81882">
        <ele>27</ele>
        <time>2018-03-25T12:49:03Z</time>
      </trkpt>
      <trkpt lat="46.71712" lon="-1.81885">
        <ele>27</ele>
        <time>2018-03-25T12:50:03Z</time>
      </trkpt>
      <trkpt lat="46.71727" lon="-1.8189">
        <ele>28</ele>
        <time>2018-03-25T12:51:03Z</time>
      </trkpt>
      <trkpt lat="46.71741" lon="-1.81895">
        <ele>28</ele>
        <time>2018-03-25T12:52:03Z</time>
      </trkpt>
      <trkpt lat="46.71752" lon="-1.81901">
        <ele>28</ele>
        <time>2018-03-25T12:53:03Z</time>
      </trkpt>
      <trkpt lat="46.71762" lon="-1.81907">
        <ele>29</ele>
        <time>2018-03-25T12:54:03Z</time>
      </trkpt>
      <trkpt lat="46.71771" lon="-1.81913">
        <ele>29</ele>
        <time>2018-03-25T12:55:03Z</time>
      </trkpt>
      <trkpt lat="46.71782" lon="-1.81921">
        <ele>29</ele>
        <time>2018-03-25T12:56:03Z</time>
      </trkpt>
      <trkpt lat="46.71785" lon="-1.81923">
        <ele>29</ele>
        <time>2018-03-25T12:57:03Z</time>
      </trkpt>
      <trkpt lat="46.71793" lon="-1.81929">
        <ele>29</ele>
        <time>2018-03-25T12:58:03Z</time>
      </trkpt>
      <trkpt lat="46.71824" lon="-1.81955">
        <ele>29</ele>
        <time>2018-03-25T12:59:03Z</time>
      </trkpt>
      <trkpt lat="46.7185" lon="-1.81976">
        <ele>30</ele>
        <time>2018-03-25T13:00:03Z</time>
      </trkpt>
      <trkpt lat="46.71874" lon="-1.81995">
        <ele>30</ele>
        <time>2018-03-25T13:01:03Z</time>
      </trkpt>
      <trkpt lat="46.71884" lon="-1.82003">
        <ele>30</ele>
        <time>2018-03-25T13:02:03Z</time>
      </trkpt>
      <trkpt lat="46.71896" lon="-1.82011">
        <ele>30</ele>
        <time>2018-03-25T13:03:03Z</time>
      </trkpt>
      <trkpt lat="46.71908" lon="-1.82017">
        <ele>30</ele>
        <time>2018-03-25T13:04:03Z</time>
      </trkpt>
      <trkpt lat="46.71922" lon="-1.82023">
        <ele>29</ele>
        <time>2018-03-25T13:05:03Z</time>
      </trkpt>
      <trkpt lat="46.71935" lon="-1.82026">
        <ele>30</ele>
        <time>2018-03-25T13:06:03Z</time>
      </trkpt>
      <trkpt lat="46.71944" lon="-1.82028">
        <ele>30</ele>
        <time>2018-03-25T13:07:03Z</time>
      </trkpt>
      <trkpt lat="46.71966" lon="-1.82029">
        <ele>30</ele>
        <time>2018-03-25T13:08:03Z</time>
      </trkpt>
      <trkpt lat="46.71987" lon="-1.8203">
        <ele>30</ele>
        <time>2018-03-25T13:09:03Z</time>
      </trkpt>
      <trkpt lat="46.72007" lon="-1.8203">
        <ele>30</ele>
        <time>2018-03-25T13:10:03Z</time>
      </trkpt>
      <trkpt lat="46.7204" lon="-1.82031">
        <ele>30</ele>
        <time>2018-03-25T13:11:03Z</time>
      </trkpt>
      <trkpt lat="46.72088" lon="-1.82033">
        <ele>31</ele>
        <time>2018-03-25T13:12:03Z</time>
      </trkpt>
      <trkpt lat="46.72101" lon="-1.82033">
        <ele>31</ele>
        <time>2018-03-25T13:13:03Z</time>
      </trkpt>
      <trkpt lat="46.72114" lon="-1.82034">
        <ele>32</ele>
        <time>2018-03-25T13:14:03Z</time>
      </trkpt>
      <trkpt lat="46.72133" lon="-1.82037">
        <ele>32</ele>
        <time>2018-03-25T13:15:03Z</time>
      </trkpt>
      <trkpt lat="46.72138" lon="-1.82038">
        <ele>32</ele>
        <time>2018-03-25T13:16:03Z</time>
      </trkpt>
      <trkpt lat="46.72161" lon="-1.82042">
        <ele>33</ele>
        <time>2018-03-25T13:17:03Z</time>
      </trkpt>
      <trkpt lat="46.72192" lon="-1.82048">
        <ele>33</ele>
        <time>2018-03-25T13:18:03Z</time>
      </trkpt>
      <trkpt lat="46.7223" lon="-1.82055">
        <ele>32</ele>
        <time>2018-03-25T13:19:03Z</time>
      </trkpt>
      <trkpt lat="46.72265" lon="-1.82062">
        <ele>32</ele>
        <time>2018-03-25T13:20:03Z</time>
      </trkpt>
      <trkpt lat="46.72304" lon="-1.82069">
        <ele>32</ele>
        <time>2018-03-25T13:21:03Z</time>
      </trkpt>
      <trkpt lat="46.72354" lon="-1.82078">
        <ele>31</ele>
        <time>2018-03-25T13:22:03Z</time>
      </trkpt>
      <trkpt lat="46.7241" lon="-1.82088">
        <ele>30</ele>
        <time>2018-03-25T13:23:03Z</time>
      </trkpt>
      <trkpt lat="46.72479" lon="-1.82102">
        <ele>31</ele>
        <time>2018-03-25T13:24:03Z</time>
      </trkpt>
      <trkpt lat="46.72542" lon="-1.82113">
        <ele>30</ele>
        <time>2018-03-25T13:25:03Z</time>
      </trkpt>
      <trkpt lat="46.72591" lon="-1.82123">
        <ele>30</ele>
        <time>2018-03-25T13:26:03Z</time>
      </trkpt>
      <trkpt lat="46.72623" lon="-1.82129">
        <ele>30</ele>
        <time>2018-03-25T13:27:03Z</time>
      </trkpt>
      <trkpt lat="46.72643" lon="-1.82133">
        <ele>30</ele>
        <time>2018-03-25T13:28:03Z</time>
      </trkpt>
      <trkpt lat="46.72656" lon="-1.82138">
        <ele>29</ele>
        <time>2018-03-25T13:29:03Z</time>
      </trkpt>
      <trkpt lat="46.72668" lon="-1.82143">
        <ele>29</ele>
        <time>2018-03-25T13:30:03Z</time>
      </trkpt>
      <trkpt lat="46.72682" lon="-1.82152">
        <ele>29</ele>
        <time>2018-03-25T13:31:03Z</time>
      </trkpt>
      <trkpt lat="46.72697" lon="-1.82165">
        <ele>29</ele>
        <time>2018-03-25T13:32:03Z</time>
      </trkpt>
      <trkpt lat="46.72705" lon="-1.82172">
        <ele>28</ele>
        <time>2018-03-25T13:33:03Z</time>
      </trkpt>
      <trkpt lat="46.72713" lon="-1.82181">
        <ele>28</ele>
        <time>2018-03-25T13:34:03Z</time>
      </trkpt>
      <trkpt lat="46.72735" lon="-1.82205">
        <ele>28</ele>
        <time>2018-03-25T13:35:03Z</time>
      </trkpt>
      <trkpt lat="46.72777" lon="-1.82257">
        <ele>28</ele>
        <time>2018-03-25T13:36:03Z</time>
      </trkpt>
      <trkpt lat="46.72814" lon="-1.82298">
        <ele>28</ele>
        <time>2018-03-25T13:37:03Z</time>
      </trkpt>
      <trkpt lat="46.72829" lon="-1.82314">
        <ele>28</ele>
        <time>2018-03-25T13:38:03Z</time>
      </trkpt>
      <trkpt lat="46.72836" lon="-1.82322">
        <ele>27</ele>
        <time>2018-03-25T13:39:03Z</time>
      </trkpt>
      <trkpt lat="46.72845" lon="-1.82329">
        <ele>27</ele>
        <time>2018-03-25T13:40:03Z</time>
      </trkpt>
      <trkpt lat="46.72861" lon="-1.8234">
        <ele>27</ele>
        <time>2018-03-25T13:41:03Z</time>
      </trkpt>
      <trkpt lat="46.72878" lon="-1.82351">
        <ele>27</ele>
        <time>2018-03-25T13:42:03Z</time>
      </trkpt>
      <trkpt lat="46.72911" lon="-1.82369">
        <ele>27</ele>
        <time>2018-03-25T13:43:03Z</time>
      </trkpt>
      <trkpt lat="46.72941" lon="-1.82385">
        <ele>27</ele>
        <time>2018-03-25T13:44:03Z</time>
      </trkpt>
      <trkpt lat="46.73003" lon="-1.82416">
        <ele>28</ele>
        <time>2018-03-25T13:45:03Z</time>
      </trkpt>
      <trkpt lat="46.7302" lon="-1.82426">
        <ele>28</ele>
        <time>2018-03-25T13:46:03Z</time>
      </trkpt>
      <trkpt lat="46.73038" lon="-1.82434">
        <ele>27</ele>
        <time>2018-03-25T13:47:03Z</time>
      </trkpt>
      <trkpt lat="46.73057" lon="-1.82442">
        <ele>27</ele>
        <time>2018-03-25T13:48:03Z</time>
      </trkpt>
      <trkpt lat="46.7307" lon="-1.82447">
        <ele>27</ele>
        <time>2018-03-25T13:49:03Z</time>
      </trkpt>
      <trkpt lat="46.73082" lon="-1.82451">
        <ele>26</ele>
        <time>2018-03-25T13:50:03Z</time>
      </trkpt>
      <trkpt lat="46.73093" lon="-1.82454">
        <ele>26</ele>
        <time>2018-03-25T13:51:03Z</time>
      </trkpt>
      <trkpt lat="46.73112" lon="-1.82458">
        <ele>26</ele>
        <time>2018-03-25T13:52:03Z</time>
      </trkpt>
      <trkpt lat="46.7313" lon="-1.82459">
        <ele>26</ele>
        <time>2018-03-25T13:53:03Z</time>
      </trkpt>
      <trkpt lat="46.73139" lon="-1.8246">
        <ele>26</ele>
        <time>2018-03-25T13:54:03Z</time>
      </trkpt>
      <trkpt lat="46.7315" lon="-1.8246">
        <ele>26</ele>
        <time>2018-03-25T13:55:03Z</time>
      </trkpt>
      <trkpt lat="46.7316" lon="-1.82458">
        <ele>27</ele>
        <time>2018-03-25T13:56:03Z</time>
      </trkpt>
      <trkpt lat="46.73169" lon="-1.82457">
        <ele>26</ele>
        <time>2018-03-25T13:57:03Z</time>
      </trkpt>
      <trkpt lat="46.73182" lon="-1.82454">
        <ele>26</ele>
        <time>2018-03-25T13:58:03Z</time>
      </trkpt>
      <trkpt lat="46.73197" lon="-1.82451">
        <ele>26</ele>
        <time>2018-03-25T13:59:03Z</time>
      </trkpt>
      <trkpt lat="46.73231" lon="-1.82441">
        <ele>25</ele>
        <time>2018-03-25T14:00:03Z</time>
      </trkpt>
      <trkpt lat="46.73287" lon="-1.82423">
        <ele>25</ele>
        <time>2018-03-25T14:01:03Z</time>
      </trkpt>
      <trkpt lat="46.73327" lon="-1.82412">
        <ele>24</ele>
        <time>2018-03-25T14:02:03Z</time>
      </trkpt>
      <trkpt lat="46.73345" lon="-1.82407">
        <ele>24</ele>
        <time>2018-03-25T14:03:03Z</time>
      </trkpt>
      <trkpt lat="46.7336" lon="-1.82405">
        <ele>23</ele>
        <time>2018-03-25T14:04:03Z</time>
      </trkpt>
      <trkpt lat="46.73371" lon="-1.82403">
        <ele>23</ele>
        <time>2018-03-25T14:05:03Z</time>
      </trkpt>
      <trkpt lat="46.73391" lon="-1.82403">
        <ele>23</ele>
        <time>2018-03-25T14:06:03Z</time>
      </trkpt>
      <trkpt lat="46.73434" lon="-1.82402">
        <ele>21</ele>
        <time>2018-03-25T14:07:03Z</time>
      </trkpt>
      <trkpt lat="46.73484" lon="-1.82399">
        <ele>19</ele>
        <time>2018-03-25T14:08:03Z</time>
      </trkpt>
      <trkpt lat="46.73541" lon="-1.82397">
        <ele>17</ele>
        <time>2018-03-25T14:09:03Z</time>
      </trkpt>
      <trkpt lat="46.73589" lon="-1.82395">
        <ele>16</ele>
        <time>2018-03-25T14:10:03Z</time>
      </trkpt>
      <trkpt lat="46.73629" lon="-1.82395">
        <ele>14</ele>
        <time>2018-03-25T14:11:03Z</time>
      </trkpt>
      <trkpt lat="46.73646" lon="-1.82394">
        <ele>14</ele>
        <time>2018-03-25T14:12:03Z</time>
      </trkpt>
      <trkpt lat="46.73656" lon="-1.82392">
        <ele>14</ele>
        <time>2018-03-25T14:13:03Z</time>
      </trkpt>
      <trkpt lat="46.73662" lon="-1.8239">
        <ele>13</ele>
        <time>2018-03-25T14:14:03Z</time>
      </trkpt>
      <trkpt lat="46.73667" lon="-1.82387">
        <ele>13</ele>
        <time>2018-03-25T14:15:03Z</time>
      </trkpt>
      <trkpt lat="46.73675" lon="-1.82382">
        <ele>13</ele>
        <time>2018-03-25T14:16:03Z</time>
      </trkpt>
      <trkpt lat="46.73715" lon="-1.82352">
        <ele>14</ele>
        <time>2018-03-25T14:17:03Z</time>
      </trkpt>
      <trkpt lat="46.73729" lon="-1.82342">
        <ele>14</ele>
        <time>2018-03-25T14:18:03Z</time>
      </trkpt>
      <trkpt lat="46.73744" lon="-1.8233">
        <ele>14</ele>
        <time>2018-03-25T14:19:03Z</time>
      </trkpt>
      <trkpt lat="46.73775" lon="-1.82309">
        <ele>15</ele>
        <time>2018-03-25T14:20:03Z</time>
      </trkpt>
      <trkpt lat="46.73793" lon="-1.82296">
        <ele>15</ele>
        <time>2018-03-25T14:21:03Z</time>
      </trkpt>
      <trkpt lat="46.73805" lon="-1.8229">
        <ele>16</ele>
        <time>2018-03-25T14:22:03Z</time>
      </trkpt>
      <trkpt lat="46.73812" lon="-1.82287">
        <ele>16</ele>
        <time>2018-03-25T14:23:03Z</time>
      </trkpt>
      <trkpt lat="46.73819" lon="-1.82285">
        <ele>16</ele>
        <time>2018-03-25T14:24:03Z</time>
      </trkpt>
      <trkpt lat="46.73824" lon="-1.82284">
        <ele>16</ele>
        <time>2018-03-25T14:25:03Z</time>
      </trkpt>
      <trkpt lat="46.73829" lon="-1.82284">
        <ele>16</ele>
        <time>2018-03-25T14:26:03Z</time>
      </trkpt>
      <trkpt lat="46.73833" lon="-1.82284">
        <ele>16</ele>
        <time>2018-03-25T14:27:03Z</time>
      </trkpt>
      <trkpt lat="46.73838" lon="-1.82285">
        <ele>16</ele>
        <time>2018-03-25T14:28:03Z</time>
      </trkpt>
      <trkpt lat="46.73842" lon="-1.82287">
        <ele>16</ele>
        <time>2018-03-25T14:29:03Z</time>
      </trkpt>
      <trkpt lat="46.73849" lon="-1.82291">
        <ele>16</ele>
        <time>2018-03-25T14:30:03Z</time>
      </trkpt>
      <trkpt lat="46.73887" lon="-1.8231">
        <ele>14</ele>
        <time>2018-03-25T14:31:03Z</time>
      </trkpt>
      <trkpt lat="46.73926" lon="-1.8233">
        <ele>13</ele>
        <time>2018-03-25T14:32:03Z</time>
      </trkpt>
      <trkpt lat="46.73932" lon="-1.82332">
        <ele>13</ele>
        <time>2018-03-25T14:33:03Z</time>
      </trkpt>
      <trkpt lat="46.73937" lon="-1.82329">
        <ele>14</ele>
        <time>2018-03-25T14:34:03Z</time>
      </trkpt>
      <trkpt lat="46.7394" lon="-1.82327">
        <ele>14</ele>
        <time>2018-03-25T14:35:03Z</time>
      </trkpt>
      <trkpt lat="46.73945" lon="-1.82325">
        <ele>14</ele>
        <time>2018-03-25T14:36:03Z</time>
      </trkpt>
      <trkpt lat="46.73945" lon="-1.82325">
        <ele>14</ele>
        <time>2018-03-25T14:37:03Z</time>
      </trkpt>
      <trkpt lat="46.73946" lon="-1.82322">
        <ele>14</ele>
        <time>2018-03-25T14:38:03Z</time>
      </trkpt>
      <trkpt lat="46.73946" lon="-1.8232">
        <ele>14</ele>
        <time>2018-03-25T14:39:03Z</time>
      </trkpt>
      <trkpt lat="46.73947" lon="-1.82319">
        <ele>14</ele>
        <time>2018-03-25T14:40:03Z</time>
      </trkpt>
      <trkpt lat="46.73949" lon="-1.82318">
        <ele>14</ele>
        <time>2018-03-25T14:41:03Z</time>
      </trkpt>
      <trkpt lat="46.73949" lon="-1.82317">
        <ele>14</ele>
        <time>2018-03-25T14:42:03Z</time>
      </trkpt>
      <trkpt lat="46.73952" lon="-1.82316">
        <ele>14</ele>
        <time>2018-03-25T14:43:03Z</time>
      </trkpt>
      <trkpt lat="46.73954" lon="-1.82315">
        <ele>14</ele>
        <time>2018-03-25T14:44:03Z</time>
      </trkpt>
      <trkpt lat="46.73955" lon="-1.82315">
        <ele>14</ele>
        <time>2018-03-25T14:45:03Z</time>
      </trkpt>
      <trkpt lat="46.73957" lon="-1.82316">
        <ele>14</ele>
        <time>2018-03-25T14:46:03Z</time>
      </trkpt>
      <trkpt lat="46.73959" lon="-1.82317">
        <ele>14</ele>
        <time>2018-03-25T14:47:03Z</time>
      </trkpt>
      <trkpt lat="46.73965" lon="-1.82311">
        <ele>15</ele>
        <time>2018-03-25T14:48:03Z</time>
      </trkpt>
      <trkpt lat="46.73969" lon="-1.82308">
        <ele>15</ele>
        <time>2018-03-25T14:49:03Z</time>
      </trkpt>
      <trkpt lat="46.73971" lon="-1.82307">
        <ele>15</ele>
        <time>2018-03-25T14:50:03Z</time>
      </trkpt>
      <trkpt lat="46.73972" lon="-1.82302">
        <ele>15</ele>
        <time>2018-03-25T14:51:03Z</time>
      </trkpt>
      <trkpt lat="46.73974" lon="-1.82298">
        <ele>15</ele>
        <time>2018-03-25T14:52:03Z</time>
      </trkpt>
      <trkpt lat="46.73978" lon="-1.82285">
        <ele>15</ele>
        <time>2018-03-25T14:53:03Z</time>
      </trkpt>
      <trkpt lat="46.73982" lon="-1.82273">
        <ele>15</ele>
        <time>2018-03-25T14:54:03Z</time>
      </trkpt>
      <trkpt lat="46.73986" lon="-1.82257">
        <ele>16</ele>
        <time>2018-03-25T14:55:03Z</time>
      </trkpt>
      <trkpt lat="46.73997" lon="-1.82214">
        <ele>16</ele>
        <time>2018-03-25T14:56:03Z</time>
      </trkpt>
      <trkpt lat="46.74007" lon="-1.82171">
        <ele>17</ele>
        <time>2018-03-25T14:57:03Z</time>
      </trkpt>
      <trkpt lat="46.74009" lon="-1.82164">
        <ele>17</ele>
        <time>2018-03-25T14:58:03Z</time>
      </trkpt>
      <trkpt lat="46.74012" lon="-1.8216">
        <ele>17</ele>
        <time>2018-03-25T14:59:03Z</time>
      </trkpt>
      <trkpt lat="46.74019" lon="-1.82154">
        <ele>17</ele>
        <time>2018-03-25T15:00:03Z</time>
      </trkpt>
      <trkpt lat="46.74029" lon="-1.82148">
        <ele>17</ele>
        <time>2018-03-25T15:01:03Z</time>
      </trkpt>
      <trkpt lat="46.74033" lon="-1.82145">
        <ele>17</ele>
        <time>2018-03-25T15:02:03Z</time>
      </trkpt>
      <trkpt lat="46.74057" lon="-1.8213">
        <ele>17</ele>
        <time>2018-03-25T15:03:03Z</time>
      </trkpt>
      <trkpt lat="46.74074" lon="-1.82121">
        <ele>17</ele>
        <time>2018-03-25T15:04:03Z</time>
      </trkpt>
      <trkpt lat="46.74078" lon="-1.82118">
        <ele>17</ele>
        <time>2018-03-25T15:05:03Z</time>
      </trkpt>
      <trkpt lat="46.74094" lon="-1.8211">
        <ele>17</ele>
        <time>2018-03-25T15:06:03Z</time>
      </trkpt>
      <trkpt lat="46.74099" lon="-1.82108">
        <ele>17</ele>
        <time>2018-03-25T15:07:03Z</time>
      </trkpt>
      <trkpt lat="46.74104" lon="-1.82105">
        <ele>17</ele>
        <time>2018-03-25T15:08:03Z</time>
      </trkpt>
      <trkpt lat="46.74107" lon="-1.82102">
        <ele>16</ele>
        <time>2018-03-25T15:09:03Z</time>
      </trkpt>
      <trkpt lat="46.74107" lon="-1.82102">
        <ele>16</ele>
        <time>2018-03-25T15:10:03Z</time>
      </trkpt>
      <trkpt lat="46.74107" lon="-1.82099">
        <ele>16</ele>
        <time>2018-03-25T15:11:03Z</time>
      </trkpt>
      <trkpt lat="46.74106" lon="-1.82097">
        <ele>17</ele>
        <time>2018-03-25T15:12:03Z</time>
      </trkpt>
      <trkpt lat="46.74107" lon="-1.82095">
        <ele>16</ele>
        <time>2018-03-25T15:13:03Z</time>
      </trkpt>
      <trkpt lat="46.74107" lon="-1.82093">
        <ele>16</ele>
        <time>2018-03-25T15:14:03Z</time>
      </trkpt>
      <trkpt lat="46.74108" lon="-1.82091">
        <ele>16</ele>
        <time>2018-03-25T15:15:03Z</time>
      </trkpt>
      <trkpt lat="46.74109" lon="-1.8209">
        <ele>16</ele>
        <time>2018-03-25T15:16:03Z</time>
      </trkpt>
      <trkpt lat="46.74111" lon="-1.82089">
        <ele>16</ele>
        <time>2018-03-25T15:17:03Z</time>
      </trkpt>
      <trkpt lat="46.74112" lon="-1.82089">
        <ele>16</ele>
        <time>2018-03-25T15:18:03Z</time>
      </trkpt>
      <trkpt lat="46.74113" lon="-1.82089">
        <ele>16</ele>
        <time>2018-03-25T15:19:03Z</time>
      </trkpt>
      <trkpt lat="46.74114" lon="-1.82089">
        <ele>16</ele>
        <time>2018-03-25T15:20:03Z</time>
      </trkpt>
      <trkpt lat="46.74115" lon="-1.82078">
        <ele>16</ele>
        <time>2018-03-25T15:21:03Z</time>
      </trkpt>
      <trkpt lat="46.74116" lon="-1.82065">
        <ele>16</ele>
        <time>2018-03-25T15:22:03Z</time>
      </trkpt>
      <trkpt lat="46.74115" lon="-1.82049">
        <ele>16</ele>
        <time>2018-03-25T15:23:03Z</time>
      </trkpt>
      <trkpt lat="46.74113" lon="-1.82032">
        <ele>16</ele>
        <time>2018-03-25T15:24:03Z</time>
      </trkpt>
      <trkpt lat="46.74109" lon="-1.8201">
        <ele>16</ele>
        <time>2018-03-25T15:25:03Z</time>
      </trkpt>
      <trkpt lat="46.74099" lon="-1.81956">
        <ele>16</ele>
        <time>2018-03-25T15:26:03Z</time>
      </trkpt>
      <trkpt lat="46.74096" lon="-1.81936">
        <ele>16</ele>
        <time>2018-03-25T15:27:03Z</time>
      </trkpt>
      <trkpt lat="46.74092" lon="-1.81917">
        <ele>16</ele>
        <time>2018-03-25T15:28:03Z</time>
      </trkpt>
      <trkpt lat="46.74089" lon="-1.81896">
        <ele>16</ele>
        <time>2018-03-25T15:29:03Z</time>
      </trkpt>
      <trkpt lat="46.74086" lon="-1.81876">
        <ele>17</ele>
        <time>2018-03-25T15:30:03Z</time>
      </trkpt>
      <trkpt lat="46.74085" lon="-1.81863">
        <ele>17</ele>
        <time>2018-03-25T15:31:03Z</time>
      </trkpt>
      <trkpt lat="46.74084" lon="-1.81849">
        <ele>18</ele>
        <time>2018-03-25T15:32:03Z</time>
      </trkpt>
      <trkpt lat="46.74083" lon="-1.81834">
        <ele>18</ele>
        <time>2018-03-25T15:33:03Z</time>
      </trkpt>
      <trkpt lat="46.74083" lon="-1.81811">
        <ele>18</ele>
        <time>2018-03-25T15:34:03Z</time>
      </trkpt>
      <trkpt lat="46.7408" lon="-1.81702">
        <ele>20</ele>
        <time>2018-03-25T15:35:03Z</time>
      </trkpt>
      <trkpt lat="46.74075" lon="-1.8158">
        <ele>21</ele>
        <time>2018-03-25T15:36:03Z</time>
      </trkpt>
      <trkpt lat="46.74069" lon="-1.81428">
        <ele>22</ele>
        <time>2018-03-25T15:37:03Z</time>
      </trkpt>
      <trkpt lat="46.74068" lon="-1.81396">
        <ele>22</ele>
        <time>2018-03-25T15:38:03Z</time>
      </trkpt>
      <trkpt lat="46.74068" lon="-1.81377">
        <ele>23</ele>
        <time>2018-03-25T15:39:03Z</time>
      </trkpt>
      <trkpt lat="46.74069" lon="-1.81362">
        <ele>23</ele>
        <time>2018-03-25T15:40:03Z</time>
      </trkpt>
      <trkpt lat="46.7407" lon="-1.81348">
        <ele>23</ele>
        <time>2018-03-25T15:41:03Z</time>
      </trkpt>
      <trkpt lat="46.74072" lon="-1.81333">
        <ele>23</ele>
        <time>2018-03-25T15:42:03Z</time>
      </trkpt>
      <trkpt lat="46.74074" lon="-1.8132">
        <ele>23</ele>
        <time>2018-03-25T15:43:03Z</time>
      </trkpt>
      <trkpt lat="46.74078" lon="-1.81305">
        <ele>23</ele>
        <time>2018-03-25T15:44:03Z</time>
      </trkpt>
      <trkpt lat="46.74084" lon="-1.8128">
        <ele>23</ele>
        <time>2018-03-25T15:45:03Z</time>
      </trkpt>
      <trkpt lat="46.7409" lon="-1.81255">
        <ele>23</ele>
        <time>2018-03-25T15:46:03Z</time>
      </trkpt>
      <trkpt lat="46.74099" lon="-1.81217">
        <ele>22</ele>
        <time>2018-03-25T15:47:03Z</time>
      </trkpt>
      <trkpt lat="46.74112" lon="-1.8116">
        <ele>22</ele>
        <time>2018-03-25T15:48:03Z</time>
      </trkpt>
      <trkpt lat="46.74123" lon="-1.8111">
        <ele>22</ele>
        <time>2018-03-25T15:49:03Z</time>
      </trkpt>
      <trkpt lat="46.74133" lon="-1.81068">
        <ele>22</ele>
        <time>2018-03-25T15:50:03Z</time>
      </trkpt>
      <trkpt lat="46.74145" lon="-1.81014">
        <ele>21</ele>
        <time>2018-03-25T15:51:03Z</time>
      </trkpt>
      <trkpt lat="46.74158" lon="-1.8096">
        <ele>21</ele>
        <time>2018-03-25T15:52:03Z</time>
      </trkpt>
      <trkpt lat="46.7417" lon="-1.80911">
        <ele>21</ele>
        <time>2018-03-25T15:53:03Z</time>
      </trkpt>
      <trkpt lat="46.74182" lon="-1.80866">
        <ele>21</ele>
        <time>2018-03-25T15:54:03Z</time>
      </trkpt>
      <trkpt lat="46.74183" lon="-1.8086">
        <ele>21</ele>
        <time>2018-03-25T15:55:03Z</time>
      </trkpt>
      <trkpt lat="46.74185" lon="-1.80851">
        <ele>21</ele>
        <time>2018-03-25T15:56:03Z</time>
      </trkpt>
      <trkpt lat="46.74191" lon="-1.80825">
        <ele>20</ele>
        <time>2018-03-25T15:57:03Z</time>
      </trkpt>
      <trkpt lat="46.74198" lon="-1.80806">
        <ele>20</ele>
        <time>2018-03-25T15:58:03Z</time>
      </trkpt>
      <trkpt lat="46.74204" lon="-1.80789">
        <ele>20</ele>
        <time>2018-03-25T15:59:03Z</time>
      </trkpt>
      <trkpt lat="46.7421" lon="-1.80775">
        <ele>20</ele>
        <time>2018-03-25T16:00:03Z</time>
      </trkpt>
      <trkpt lat="46.74215" lon="-1.80761">
        <ele>19</ele>
        <time>2018-03-25T16:01:03Z</time>
      </trkpt>
      <trkpt lat="46.7422" lon="-1.80751">
        <ele>19</ele>
        <time>2018-03-25T16:02:03Z</time>
      </trkpt>
      <trkpt lat="46.74226" lon="-1.8074">
        <ele>19</ele>
        <time>2018-03-25T16:03:03Z</time>
      </trkpt>
      <trkpt lat="46.74233" lon="-1.80727">
        <ele>19</ele>
        <time>2018-03-25T16:04:03Z</time>
      </trkpt>
      <trkpt lat="46.74254" lon="-1.80694">
        <ele>19</ele>
        <time>2018-03-25T16:05:03Z</time>
      </trkpt>
      <trkpt lat="46.74281" lon="-1.80656">
        <ele>19</ele>
        <time>2018-03-25T16:06:03Z</time>
      </trkpt>
      <trkpt lat="46.74295" lon="-1.80636">
        <ele>19</ele>
        <time>2018-03-25T16:07:03Z</time>
      </trkpt>
      <trkpt lat="46.74303" lon="-1.80624">
        <ele>19</ele>
        <time>2018-03-25T16:08:03Z</time>
      </trkpt>
      <trkpt lat="46.7435" lon="-1.80557">
        <ele>20</ele>
        <time>2018-03-25T16:09:03Z</time>
      </trkpt>
      <trkpt lat="46.74401" lon="-1.80483">
        <ele>20</ele>
        <time>2018-03-25T16:10:03Z</time>
      </trkpt>
      <trkpt lat="46.74446" lon="-1.80418">
        <ele>20</ele>
        <time>2018-03-25T16:11:03Z</time>
      </trkpt>
      <trkpt lat="46.7445" lon="-1.80413">
        <ele>20</ele>
        <time>2018-03-25T16:12:03Z</time>
      </trkpt>
      <trkpt lat="46.7448" lon="-1.80369">
        <ele>19</ele>
        <time>2018-03-25T16:13:03Z</time>
      </trkpt>
      <trkpt lat="46.74508" lon="-1.80327">
        <ele>18</ele>
        <time>2018-03-25T16:14:03Z</time>
      </trkpt>
      <trkpt lat="46.74516" lon="-1.80316">
        <ele>18</ele>
        <time>2018-03-25T16:15:03Z</time>
      </trkpt>
      <trkpt lat="46.7454" lon="-1.80281">
        <ele>18</ele>
        <time>2018-03-25T16:16:03Z</time>
      </trkpt>
      <trkpt lat="46.74557" lon="-1.80255">
        <ele>18</ele>
        <time>2018-03-25T16:17:03Z</time>
      </trkpt>
      <trkpt lat="46.74569" lon="-1.80237">
        <ele>18</ele>
        <time>2018-03-25T16:18:03Z</time>
      </trkpt>
      <trkpt lat="46.74576" lon="-1.80223">
        <ele>18</ele>
        <time>2018-03-25T16:19:03Z</time>
      </trkpt>
      <trkpt lat="46.74582" lon="-1.80208">
        <ele>18</ele>
        <time>2018-03-25T16:20:03Z</time>
      </trkpt>
      <trkpt lat="46.74587" lon="-1.80197">
        <ele>17</ele>
        <time>2018-03-25T16:21:03Z</time>
      </trkpt>
      <trkpt lat="46.74591" lon="-1.80184">
        <ele>17</ele>
        <time>2018-03-25T16:22:03Z</time>
      </trkpt>
      <trkpt lat="46.74594" lon="-1.8017">
        <ele>17</ele>
        <time>2018-03-25T16:23:03Z</time>
      </trkpt>
      <trkpt lat="46.74598" lon="-1.80155">
        <ele>17</ele>
        <time>2018-03-25T16:24:03Z</time>
      </trkpt>
      <trkpt lat="46.74599" lon="-1.80149">
        <ele>17</ele>
        <time>2018-03-25T16:25:03Z</time>
      </trkpt>
      <trkpt lat="46.74601" lon="-1.80134">
        <ele>17</ele>
        <time>2018-03-25T16:26:03Z</time>
      </trkpt>
      <trkpt lat="46.74603" lon="-1.80116">
        <ele>17</ele>
        <time>2018-03-25T16:27:03Z</time>
      </trkpt>
      <trkpt lat="46.74606" lon="-1.80097">
        <ele>17</ele>
        <time>2018-03-25T16:28:03Z</time>
      </trkpt>
      <trkpt lat="46.74608" lon="-1.80068">
        <ele>17</ele>
        <time>2018-03-25T16:29:03Z</time>
      </trkpt>
      <trkpt lat="46.74613" lon="-1.80001">
        <ele>16</ele>
        <time>2018-03-25T16:30:03Z</time>
      </trkpt>
      <trkpt lat="46.74618" lon="-1.79939">
        <ele>15</ele>
        <time>2018-03-25T16:31:03Z</time>
      </trkpt>
      <trkpt lat="46.74621" lon="-1.79889">
        <ele>15</ele>
        <time>2018-03-25T16:32:03Z</time>
      </trkpt>
      <trkpt lat="46.74621" lon="-1.79869">
        <ele>15</ele>
        <time>2018-03-25T16:33:03Z</time>
      </trkpt>
      <trkpt lat="46.74621" lon="-1.79856">
        <ele>15</ele>
        <time>2018-03-25T16:34:03Z</time>
      </trkpt>
      <trkpt lat="46.74621" lon="-1.79854">
        <ele>15</ele>
        <time>2018-03-25T16:35:03Z</time>
      </trkpt>
      <trkpt lat="46.74619" lon="-1.79836">
        <ele>15</ele>
        <time>2018-03-25T16:36:03Z</time>
      </trkpt>
      <trkpt lat="46.74612" lon="-1.79796">
        <ele>15</ele>
        <time>2018-03-25T16:37:03Z</time>
      </trkpt>
      <trkpt lat="46.74607" lon="-1.79767">
        <ele>15</ele>
        <time>2018-03-25T16:38:03Z</time>
      </trkpt>
      <trkpt lat="46.74603" lon="-1.79744">
        <ele>15</ele>
        <time>2018-03-25T16:39:03Z</time>
      </trkpt>
      <trkpt lat="46.74595" lon="-1.79697">
        <ele>16</ele>
        <time>2018-03-25T16:40:03Z</time>
      </trkpt>
      <trkpt lat="46.74587" lon="-1.79644">
        <ele>16</ele>
        <time>2018-03-25T16:41:03Z</time>
      </trkpt>
      <trkpt lat="46.74582" lon="-1.79617">
        <ele>15</ele>
        <time>2018-03-25T16:42:03Z</time>
      </trkpt>
      <trkpt lat="46.7458" lon="-1.79609">
        <ele>15</ele>
        <time>2018-03-25T16:43:03Z</time>
      </trkpt>
      <trkpt lat="46.74577" lon="-1.79599">
        <ele>15</ele>
        <time>2018-03-25T16:44:03Z</time>
      </trkpt>
      <trkpt lat="46.74574" lon="-1.79591">
        <ele>15</ele>
        <time>2018-03-25T16:45:03Z</time>
      </trkpt>
      <trkpt lat="46.74571" lon="-1.79584">
        <ele>15</ele>
        <time>2018-03-25T16:46:03Z</time>
      </trkpt>
      <trkpt lat="46.74566" lon="-1.79571">
        <ele>15</ele>
        <time>2018-03-25T16:47:03Z</time>
      </trkpt>
      <trkpt lat="46.74562" lon="-1.79564">
        <ele>15</ele>
        <time>2018-03-25T16:48:03Z</time>
      </trkpt>
      <trkpt lat="46.74561" lon="-1.7956">
        <ele>15</ele>
        <time>2018-03-25T16:49:03Z</time>
      </trkpt>
      <trkpt lat="46.74559" lon="-1.79553">
        <ele>15</ele>
        <time>2018-03-25T16:50:03Z</time>
      </trkpt>
      <trkpt lat="46.74558" lon="-1.79546">
        <ele>15</ele>
        <time>2018-03-25T16:51:03Z</time>
      </trkpt>
      <trkpt lat="46.74555" lon="-1.79536">
        <ele>15</ele>
        <time>2018-03-25T16:52:03Z</time>
      </trkpt>
      <trkpt lat="46.74553" lon="-1.79525">
        <ele>15</ele>
        <time>2018-03-25T16:53:03Z</time>
      </trkpt>
      <trkpt lat="46.74552" lon="-1.7951">
        <ele>15</ele>
        <time>2018-03-25T16:54:03Z</time>
      </trkpt>
      <trkpt lat="46.74552" lon="-1.7951">
        <ele>15</ele>
        <time>2018-03-25T16:55:03Z</time>
      </trkpt>
      <trkpt lat="46.74548" lon="-1.79503">
        <ele>15</ele>
        <time>2018-03-25T16:56:03Z</time>
      </trkpt>
      <trkpt lat="46.74528" lon="-1.79473">
        <ele>16</ele>
        <time>2018-03-25T16:57:03Z</time>
      </trkpt>
      <trkpt lat="46.7449" lon="-1.79409">
        <ele>17</ele>
        <time>2018-03-25T16:58:03Z</time>
      </trkpt>
      <trkpt lat="46.74469" lon="-1.79377">
        <ele>17</ele>
        <time>2018-03-25T16:59:03Z</time>
      </trkpt>
      <trkpt lat="46.74452" lon="-1.79353">
        <ele>18</ele>
        <time>2018-03-25T17:00:03Z</time>
      </trkpt>
      <trkpt lat="46.74439" lon="-1.79337">
        <ele>18</ele>
        <time>2018-03-25T17:01:03Z</time>
      </trkpt>
      <trkpt lat="46.74426" lon="-1.79323">
        <ele>18</ele>
        <time>2018-03-25T17:02:03Z</time>
      </trkpt>
      <trkpt lat="46.74423" lon="-1.7932">
        <ele>18</ele>
        <time>2018-03-25T17:03:03Z</time>
      </trkpt>
      <trkpt lat="46.7442" lon="-1.79317">
        <ele>19</ele>
        <time>2018-03-25T17:04:03Z</time>
      </trkpt>
      <trkpt lat="46.74416" lon="-1.79313">
        <ele>19</ele>
        <time>2018-03-25T17:05:03Z</time>
      </trkpt>
      <trkpt lat="46.74405" lon="-1.79304">
        <ele>19</ele>
        <time>2018-03-25T17:06:03Z</time>
      </trkpt>
      <trkpt lat="46.74396" lon="-1.79299">
        <ele>19</ele>
        <time>2018-03-25T17:07:03Z</time>
      </trkpt>
      <trkpt lat="46.74387" lon="-1.79294">
        <ele>19</ele>
        <time>2018-03-25T17:08:03Z</time>
      </trkpt>
      <trkpt lat="46.74378" lon="-1.79289">
        <ele>19</ele>
        <time>2018-03-25T17:09:03Z</time>
      </trkpt>
      <trkpt lat="46.74367" lon="-1.79285">
        <ele>20</ele>
        <time>2018-03-25T17:10:03Z</time>
      </trkpt>
      <trkpt lat="46.74356" lon="-1.79281">
        <ele>20</ele>
        <time>2018-03-25T17:11:03Z</time>
      </trkpt>
      <trkpt lat="46.7434" lon="-1.79276">
        <ele>21</ele>
        <time>2018-03-25T17:12:03Z</time>
      </trkpt>
      <trkpt lat="46.74283" lon="-1.79259">
        <ele>22</ele>
        <time>2018-03-25T17:13:03Z</time>
      </trkpt>
      <trkpt lat="46.74255" lon="-1.79251">
        <ele>23</ele>
        <time>2018-03-25T17:14:03Z</time>
      </trkpt>
      <trkpt lat="46.74221" lon="-1.79241">
        <ele>24</ele>
        <time>2018-03-25T17:15:03Z</time>
      </trkpt>
      <trkpt lat="46.74168" lon="-1.79223">
        <ele>24</ele>
        <time>2018-03-25T17:16:03Z</time>
      </trkpt>
      <trkpt lat="46.74136" lon="-1.79214">
        <ele>24</ele>
        <time>2018-03-25T17:17:03Z</time>
      </trkpt>
      <trkpt lat="46.74113" lon="-1.79206">
        <ele>24</ele>
        <time>2018-03-25T17:18:03Z</time>
      </trkpt>
      <trkpt lat="46.74063" lon="-1.7919">
        <ele>23</ele>
        <time>2018-03-25T17:19:03Z</time>
      </trkpt>
      <trkpt lat="46.74042" lon="-1.79183">
        <ele>23</ele>
        <time>2018-03-25T17:20:03Z</time>
      </trkpt>
      <trkpt lat="46.74035" lon="-1.79181">
        <ele>23</ele>
        <time>2018-03-25T17:21:03Z</time>
      </trkpt>
      <trkpt lat="46.74025" lon="-1.79178">
        <ele>23</ele>
        <time>2018-03-25T17:22:03Z</time>
      </trkpt>
      <trkpt lat="46.74023" lon="-1.79177">
        <ele>23</ele>
        <time>2018-03-25T17:23:03Z</time>
      </trkpt>
      <trkpt lat="46.74021" lon="-1.79176">
        <ele>23</ele>
        <time>2018-03-25T17:24:03Z</time>
      </trkpt>
      <trkpt lat="46.74021" lon="-1.79176">
        <ele>23</ele>
        <time>2018-03-25T17:25:03Z</time>
      </trkpt>
      <trkpt lat="46.74022" lon="-1.79166">
        <ele>23</ele>
        <time>2018-03-25T17:26:03Z</time>
      </trkpt>
      <trkpt lat="46.74023" lon="-1.79161">
        <ele>23</ele>
        <time>2018-03-25T17:27:03Z</time>
      </trkpt>
      <trkpt lat="46.74024" lon="-1.79156">
        <ele>23</ele>
        <time>2018-03-25T17:28:03Z</time>
      </trkpt>
      <trkpt lat="46.74026" lon="-1.79136">
        <ele>23</ele>
        <time>2018-03-25T17:29:03Z</time>
      </trkpt>
      <trkpt lat="46.74026" lon="-1.79105">
        <ele>23</ele>
        <time>2018-03-25T17:30:03Z</time>
      </trkpt>
      <trkpt lat="46.74029" lon="-1.7905">
        <ele>23</ele>
        <time>2018-03-25T17:31:03Z</time>
      </trkpt>
      <trkpt lat="46.74029" lon="-1.79017">
        <ele>22</ele>
        <time>2018-03-25T17:32:03Z</time>
      </trkpt>
      <trkpt lat="46.7403" lon="-1.78986">
        <ele>22</ele>
        <time>2018-03-25T17:33:03Z</time>
      </trkpt>
      <trkpt lat="46.74029" lon="-1.78974">
        <ele>22</ele>
        <time>2018-03-25T17:34:03Z</time>
      </trkpt>
      <trkpt lat="46.74029" lon="-1.78959">
        <ele>22</ele>
        <time>2018-03-25T17:35:03Z</time>
      </trkpt>
      <trkpt lat="46.74027" lon="-1.78946">
        <ele>21</ele>
        <time>2018-03-25T17:36:03Z</time>
      </trkpt>
      <trkpt lat="46.74022" lon="-1.78919">
        <ele>21</ele>
        <time>2018-03-25T17:37:03Z</time>
      </trkpt>
      <trkpt lat="46.7401" lon="-1.78872">
        <ele>19</ele>
        <time>2018-03-25T17:38:03Z</time>
      </trkpt>
      <trkpt lat="46.73998" lon="-1.78838">
        <ele>18</ele>
        <time>2018-03-25T17:39:03Z</time>
      </trkpt>
      <trkpt lat="46.73986" lon="-1.78812">
        <ele>17</ele>
        <time>2018-03-25T17:40:03Z</time>
      </trkpt>
      <trkpt lat="46.73985" lon="-1.78809">
        <ele>17</ele>
        <time>2018-03-25T17:41:03Z</time>
      </trkpt>
      <trkpt lat="46.7397" lon="-1.78781">
        <ele>16</ele>
        <time>2018-03-25T17:42:03Z</time>
      </trkpt>
      <trkpt lat="46.73965" lon="-1.7877">
        <ele>16</ele>
        <time>2018-03-25T17:43:03Z</time>
      </trkpt>
      <trkpt lat="46.73959" lon="-1.78761">
        <ele>16</ele>
        <time>2018-03-25T17:44:03Z</time>
      </trkpt>
      <trkpt lat="46.73955" lon="-1.78753">
        <ele>15</ele>
        <time>2018-03-25T17:45:03Z</time>
      </trkpt>
      <trkpt lat="46.73951" lon="-1.78746">
        <ele>15</ele>
        <time>2018-03-25T17:46:03Z</time>
      </trkpt>
      <trkpt lat="46.73949" lon="-1.78739">
        <ele>15</ele>
        <time>2018-03-25T17:47:03Z</time>
      </trkpt>
      <trkpt lat="46.73946" lon="-1.78733">
        <ele>15</ele>
        <time>2018-03-25T17:48:03Z</time>
      </trkpt>
      <trkpt lat="46.73944" lon="-1.78725">
        <ele>15</ele>
        <time>2018-03-25T17:49:03Z</time>
      </trkpt>
      <trkpt lat="46.73943" lon="-1.78717">
        <ele>15</ele>
        <time>2018-03-25T17:50:03Z</time>
      </trkpt>
      <trkpt lat="46.73942" lon="-1.78713">
        <ele>15</ele>
        <time>2018-03-25T17:51:03Z</time>
      </trkpt>
      <trkpt lat="46.73941" lon="-1.78708">
        <ele>15</ele>
        <time>2018-03-25T17:52:03Z</time>
      </trkpt>
      <trkpt lat="46.7394" lon="-1.787">
        <ele>15</ele>
        <time>2018-03-25T17:53:03Z</time>
      </trkpt>
      <trkpt lat="46.73937" lon="-1.7869">
        <ele>15</ele>
        <time>2018-03-25T17:54:03Z</time>
      </trkpt>
      <trkpt lat="46.73933" lon="-1.78681">
        <ele>15</ele>
        <time>2018-03-25T17:55:03Z</time>
      </trkpt>
      <trkpt lat="46.73922" lon="-1.78659">
        <ele>15</ele>
        <time>2018-03-25T17:56:03Z</time>
      </trkpt>
      <trkpt lat="46.73911" lon="-1.78638">
        <ele>15</ele>
        <time>2018-03-25T17:57:03Z</time>
      </trkpt>
      <trkpt lat="46.73901" lon="-1.78617">
        <ele>15</ele>
        <time>2018-03-25T17:58:03Z</time>
      </trkpt>
      <trkpt lat="46.73898" lon="-1.7861">
        <ele>15</ele>
        <time>2018-03-25T17:59:03Z</time>
      </trkpt>
      <trkpt lat="46.73895" lon="-1.78603">
        <ele>15</ele>
        <time>2018-03-25T18:00:03Z</time>
      </trkpt>
      <trkpt lat="46.7389" lon="-1.78591">
        <ele>15</ele>
        <time>2018-03-25T18:01:03Z</time>
      </trkpt>
      <trkpt lat="46.73886" lon="-1.78579">
        <ele>15</ele>
        <time>2018-03-25T18:02:03Z</time>
      </trkpt>
      <trkpt lat="46.73884" lon="-1.78572">
        <ele>15</ele>
        <time>2018-03-25T18:03:03Z</time>
      </trkpt>
      <trkpt lat="46.73879" lon="-1.78557">
        <ele>15</ele>
        <time>2018-03-25T18:04:03Z</time>
      </trkpt>
      <trkpt lat="46.73875" lon="-1.7854">
        <ele>15</ele>
        <time>2018-03-25T18:05:03Z</time>
      </trkpt>
      <trkpt lat="46.73872" lon="-1.78526">
        <ele>15</ele>
        <time>2018-03-25T18:06:03Z</time>
      </trkpt>
      <trkpt lat="46.7387" lon="-1.78512">
        <ele>14</ele>
        <time>2018-03-25T18:07:03Z</time>
      </trkpt>
      <trkpt lat="46.73868" lon="-1.78503">
        <ele>14</ele>
        <time>2018-03-25T18:08:03Z</time>
      </trkpt>
      <trkpt lat="46.73868" lon="-1.78495">
        <ele>14</ele>
        <time>2018-03-25T18:09:03Z</time>
      </trkpt>
      <trkpt lat="46.73866" lon="-1.78483">
        <ele>15</ele>
        <time>2018-03-25T18:10:03Z</time>
      </trkpt>
      <trkpt lat="46.73866" lon="-1.7848">
        <ele>15</ele>
        <time>2018-03-25T18:11:03Z</time>
      </trkpt>
      <trkpt lat="46.73866" lon="-1.78465">
        <ele>15</ele>
        <time>2018-03-25T18:12:03Z</time>
      </trkpt>
      <trkpt lat="46.73866" lon="-1.7845">
        <ele>16</ele>
        <time>2018-03-25T18:13:03Z</time>
      </trkpt>
      <trkpt lat="46.73867" lon="-1.78435">
        <ele>16</ele>
        <time>2018-03-25T18:14:03Z</time>
      </trkpt>
      <trkpt lat="46.73868" lon="-1.78423">
        <ele>16</ele>
        <time>2018-03-25T18:15:03Z</time>
      </trkpt>
      <trkpt lat="46.73869" lon="-1.78415">
        <ele>17</ele>
        <time>2018-03-25T18:16:03Z</time>
      </trkpt>
      <trkpt lat="46.73871" lon="-1.78402">
        <ele>17</ele>
        <time>2018-03-25T18:17:03Z</time>
      </trkpt>
      <trkpt lat="46.73877" lon="-1.78375">
        <ele>19</ele>
        <time>2018-03-25T18:18:03Z</time>
      </trkpt>
      <trkpt lat="46.73881" lon="-1.78357">
        <ele>19</ele>
        <time>2018-03-25T18:19:03Z</time>
      </trkpt>
      <trkpt lat="46.73881" lon="-1.78357">
        <ele>19</ele>
        <time>2018-03-25T18:20:03Z</time>
      </trkpt>
      <trkpt lat="46.73884" lon="-1.78341">
        <ele>20</ele>
        <time>2018-03-25T18:21:03Z</time>
      </trkpt>
      <trkpt lat="46.73892" lon="-1.78308">
        <ele>20</ele>
        <time>2018-03-25T18:22:03Z</time>
      </trkpt>
      <trkpt lat="46.73893" lon="-1.78302">
        <ele>20</ele>
        <time>2018-03-25T18:23:03Z</time>
      </trkpt>
      <trkpt lat="46.73895" lon="-1.78298">
        <ele>20</ele>
        <time>2018-03-25T18:24:03Z</time>
      </trkpt>
      <trkpt lat="46.73905" lon="-1.78253">
        <ele>20</ele>
        <time>2018-03-25T18:25:03Z</time>
      </trkpt>
      <trkpt lat="46.73921" lon="-1.78185">
        <ele>20</ele>
        <time>2018-03-25T18:26:03Z</time>
      </trkpt>
      <trkpt lat="46.73925" lon="-1.78164">
        <ele>20</ele>
        <time>2018-03-25T18:27:03Z</time>
      </trkpt>
      <trkpt lat="46.73928" lon="-1.78144">
        <ele>20</ele>
        <time>2018-03-25T18:28:03Z</time>
      </trkpt>
      <trkpt lat="46.73932" lon="-1.78123">
        <ele>20</ele>
        <time>2018-03-25T18:29:03Z</time>
      </trkpt>
      <trkpt lat="46.73933" lon="-1.78105">
        <ele>20</ele>
        <time>2018-03-25T18:30:03Z</time>
      </trkpt>
      <trkpt lat="46.73934" lon="-1.78092">
        <ele>20</ele>
        <time>2018-03-25T18:31:03Z</time>
      </trkpt>
      <trkpt lat="46.73938" lon="-1.78043">
        <ele>20</ele>
        <time>2018-03-25T18:32:03Z</time>
      </trkpt>
      <trkpt lat="46.73939" lon="-1.78038">
        <ele>20</ele>
        <time>2018-03-25T18:33:03Z</time>
      </trkpt>
      <trkpt lat="46.73944" lon="-1.77959">
        <ele>20</ele>
        <time>2018-03-25T18:34:03Z</time>
      </trkpt>
      <trkpt lat="46.7395" lon="-1.77883">
        <ele>19</ele>
        <time>2018-03-25T18:35:03Z</time>
      </trkpt>
      <trkpt lat="46.73954" lon="-1.77822">
        <ele>17</ele>
        <time>2018-03-25T18:36:03Z</time>
      </trkpt>
      <trkpt lat="46.73959" lon="-1.77764">
        <ele>16</ele>
        <time>2018-03-25T18:37:03Z</time>
      </trkpt>
      <trkpt lat="46.73961" lon="-1.77735">
        <ele>16</ele>
        <time>2018-03-25T18:38:03Z</time>
      </trkpt>
      <trkpt lat="46.73965" lon="-1.77681">
        <ele>16</ele>
        <time>2018-03-25T18:39:03Z</time>
      </trkpt>
      <trkpt lat="46.73967" lon="-1.77662">
        <ele>16</ele>
        <time>2018-03-25T18:40:03Z</time>
      </trkpt>
      <trkpt lat="46.73975" lon="-1.77559">
        <ele>16</ele>
        <time>2018-03-25T18:41:03Z</time>
      </trkpt>
      <trkpt lat="46.73977" lon="-1.77528">
        <ele>17</ele>
        <time>2018-03-25T18:42:03Z</time>
      </trkpt>
      <trkpt lat="46.7398" lon="-1.77497">
        <ele>17</ele>
        <time>2018-03-25T18:43:03Z</time>
      </trkpt>
      <trkpt lat="46.73982" lon="-1.7748">
        <ele>17</ele>
        <time>2018-03-25T18:44:03Z</time>
      </trkpt>
      <trkpt lat="46.73986" lon="-1.77462">
        <ele>16</ele>
        <time>2018-03-25T18:45:03Z</time>
      </trkpt>
      <trkpt lat="46.7399" lon="-1.77443">
        <ele>16</ele>
        <time>2018-03-25T18:46:03Z</time>
      </trkpt>
      <trkpt lat="46.73998" lon="-1.77414">
        <ele>16</ele>
        <time>2018-03-25T18:47:03Z</time>
      </trkpt>
      <trkpt lat="46.74017" lon="-1.77356">
        <ele>16</ele>
        <time>2018-03-25T18:48:03Z</time>
      </trkpt>
      <trkpt lat="46.74042" lon="-1.77279">
        <ele>16</ele>
        <time>2018-03-25T18:49:03Z</time>
      </trkpt>
      <trkpt lat="46.74058" lon="-1.77229">
        <ele>16</ele>
        <time>2018-03-25T18:50:03Z</time>
      </trkpt>
      <trkpt lat="46.74079" lon="-1.77166">
        <ele>15</ele>
        <time>2018-03-25T18:51:03Z</time>
      </trkpt>
      <trkpt lat="46.74097" lon="-1.77112">
        <ele>14</ele>
        <time>2018-03-25T18:52:03Z</time>
      </trkpt>
      <trkpt lat="46.74112" lon="-1.77067">
        <ele>12</ele>
        <time>2018-03-25T18:53:03Z</time>
      </trkpt>
      <trkpt lat="46.74122" lon="-1.77035">
        <ele>11</ele>
        <time>2018-03-25T18:54:03Z</time>
      </trkpt>
      <trkpt lat="46.74129" lon="-1.77007">
        <ele>10</ele>
        <time>2018-03-25T18:55:03Z</time>
      </trkpt>
      <trkpt lat="46.74132" lon="-1.76994">
        <ele>10</ele>
        <time>2018-03-25T18:56:03Z</time>
      </trkpt>
      <trkpt lat="46.74135" lon="-1.76981">
        <ele>10</ele>
        <time>2018-03-25T18:57:03Z</time>
      </trkpt>
      <trkpt lat="46.74136" lon="-1.76968">
        <ele>10</ele>
        <time>2018-03-25T18:58:03Z</time>
      </trkpt>
      <trkpt lat="46.74138" lon="-1.76955">
        <ele>10</ele>
        <time>2018-03-25T18:59:03Z</time>
      </trkpt>
      <trkpt lat="46.74139" lon="-1.76937">
        <ele>11</ele>
        <time>2018-03-25T19:00:03Z</time>
      </trkpt>
      <trkpt lat="46.7414" lon="-1.76915">
        <ele>11</ele>
        <time>2018-03-25T19:01:03Z</time>
      </trkpt>
      <trkpt lat="46.7414" lon="-1.76889">
        <ele>11</ele>
        <time>2018-03-25T19:02:03Z</time>
      </trkpt>
      <trkpt lat="46.74139" lon="-1.76781">
        <ele>11</ele>
        <time>2018-03-25T19:03:03Z</time>
      </trkpt>
      <trkpt lat="46.74139" lon="-1.76776">
        <ele>11</ele>
        <time>2018-03-25T19:04:03Z</time>
      </trkpt>
      <trkpt lat="46.74139" lon="-1.76768">
        <ele>10</ele>
        <time>2018-03-25T19:05:03Z</time>
      </trkpt>
      <trkpt lat="46.74139" lon="-1.76723">
        <ele>11</ele>
        <time>2018-03-25T19:06:03Z</time>
      </trkpt>
      <trkpt lat="46.74139" lon="-1.76638">
        <ele>14</ele>
        <time>2018-03-25T19:07:03Z</time>
      </trkpt>
      <trkpt lat="46.74138" lon="-1.76554">
        <ele>16</ele>
        <time>2018-03-25T19:08:03Z</time>
      </trkpt>
      <trkpt lat="46.74139" lon="-1.76446">
        <ele>19</ele>
        <time>2018-03-25T19:09:03Z</time>
      </trkpt>
      <trkpt lat="46.7414" lon="-1.76389">
        <ele>20</ele>
        <time>2018-03-25T19:10:03Z</time>
      </trkpt>
      <trkpt lat="46.74141" lon="-1.7637">
        <ele>21</ele>
        <time>2018-03-25T19:11:03Z</time>
      </trkpt>
      <trkpt lat="46.74141" lon="-1.76353">
        <ele>21</ele>
        <time>2018-03-25T19:12:03Z</time>
      </trkpt>
      <trkpt lat="46.74143" lon="-1.76338">
        <ele>21</ele>
        <time>2018-03-25T19:13:03Z</time>
      </trkpt>
      <trkpt lat="46.74145" lon="-1.76325">
        <ele>22</ele>
        <time>2018-03-25T19:14:03Z</time>
      </trkpt>
      <trkpt lat="46.74146" lon="-1.7631">
        <ele>22</ele>
        <time>2018-03-25T19:15:03Z</time>
      </trkpt>
      <trkpt lat="46.74149" lon="-1.76298">
        <ele>23</ele>
        <time>2018-03-25T19:16:03Z</time>
      </trkpt>
      <trkpt lat="46.74152" lon="-1.76284">
        <ele>23</ele>
        <time>2018-03-25T19:17:03Z</time>
      </trkpt>
      <trkpt lat="46.74156" lon="-1.76271">
        <ele>23</ele>
        <time>2018-03-25T19:18:03Z</time>
      </trkpt>
      <trkpt lat="46.7416" lon="-1.76258">
        <ele>24</ele>
        <time>2018-03-25T19:19:03Z</time>
      </trkpt>
      <trkpt lat="46.74165" lon="-1.76245">
        <ele>24</ele>
        <time>2018-03-25T19:20:03Z</time>
      </trkpt>
      <trkpt lat="46.74169" lon="-1.76234">
        <ele>24</ele>
        <time>2018-03-25T19:21:03Z</time>
      </trkpt>
      <trkpt lat="46.7418" lon="-1.76211">
        <ele>23</ele>
        <time>2018-03-25T19:22:03Z</time>
      </trkpt>
      <trkpt lat="46.74198" lon="-1.76178">
        <ele>22</ele>
        <time>2018-03-25T19:23:03Z</time>
      </trkpt>
      <trkpt lat="46.74218" lon="-1.76144">
        <ele>21</ele>
        <time>2018-03-25T19:24:03Z</time>
      </trkpt>
      <trkpt lat="46.74237" lon="-1.7611">
        <ele>21</ele>
        <time>2018-03-25T19:25:03Z</time>
      </trkpt>
      <trkpt lat="46.7425" lon="-1.76087">
        <ele>21</ele>
        <time>2018-03-25T19:26:03Z</time>
      </trkpt>
      <trkpt lat="46.74262" lon="-1.76064">
        <ele>21</ele>
        <time>2018-03-25T19:27:03Z</time>
      </trkpt>
      <trkpt lat="46.74273" lon="-1.7604">
        <ele>20</ele>
        <time>2018-03-25T19:28:03Z</time>
      </trkpt>
      <trkpt lat="46.74284" lon="-1.76017">
        <ele>20</ele>
        <time>2018-03-25T19:29:03Z</time>
      </trkpt>
      <trkpt lat="46.74294" lon="-1.75991">
        <ele>21</ele>
        <time>2018-03-25T19:30:03Z</time>
      </trkpt>
      <trkpt lat="46.74316" lon="-1.7594">
        <ele>20</ele>
        <time>2018-03-25T19:31:03Z</time>
      </trkpt>
      <trkpt lat="46.74359" lon="-1.75834">
        <ele>20</ele>
        <time>2018-03-25T19:32:03Z</time>
      </trkpt>
      <trkpt lat="46.74383" lon="-1.75777">
        <ele>20</ele>
        <time>2018-03-25T19:33:03Z</time>
      </trkpt>
      <trkpt lat="46.74404" lon="-1.75728">
        <ele>20</ele>
        <time>2018-03-25T19:34:03Z</time>
      </trkpt>
      <trkpt lat="46.74421" lon="-1.75687">
        <ele>20</ele>
        <time>2018-03-25T19:35:03Z</time>
      </trkpt>
      <trkpt lat="46.74438" lon="-1.75646">
        <ele>21</ele>
        <time>2018-03-25T19:36:03Z</time>
      </trkpt>
      <trkpt lat="46.74458" lon="-1.756">
        <ele>20</ele>
        <time>2018-03-25T19:37:03Z</time>
      </trkpt>
      <trkpt lat="46.74503" lon="-1.75493">
        <ele>23</ele>
        <time>2018-03-25T19:38:03Z</time>
      </trkpt>
      <trkpt lat="46.74531" lon="-1.75427">
        <ele>23</ele>
        <time>2018-03-25T19:39:03Z</time>
      </trkpt>
      <trkpt lat="46.74557" lon="-1.75364">
        <ele>24</ele>
        <time>2018-03-25T19:40:03Z</time>
      </trkpt>
      <trkpt lat="46.74569" lon="-1.75336">
        <ele>24</ele>
        <time>2018-03-25T19:41:03Z</time>
      </trkpt>
      <trkpt lat="46.74578" lon="-1.75313">
        <ele>24</ele>
        <time>2018-03-25T19:42:03Z</time>
      </trkpt>
      <trkpt lat="46.74585" lon="-1.75294">
        <ele>24</ele>
        <time>2018-03-25T19:43:03Z</time>
      </trkpt>
      <trkpt lat="46.7459" lon="-1.75279">
        <ele>24</ele>
        <time>2018-03-25T19:44:03Z</time>
      </trkpt>
      <trkpt lat="46.74594" lon="-1.75262">
        <ele>24</ele>
        <time>2018-03-25T19:45:03Z</time>
      </trkpt>
      <trkpt lat="46.74601" lon="-1.75236">
        <ele>24</ele>
        <time>2018-03-25T19:46:03Z</time>
      </trkpt>
      <trkpt lat="46.74608" lon="-1.75205">
        <ele>25</ele>
        <time>2018-03-25T19:47:03Z</time>
      </trkpt>
      <trkpt lat="46.74618" lon="-1.75155">
        <ele>26</ele>
        <time>2018-03-25T19:48:03Z</time>
      </trkpt>
      <trkpt lat="46.74628" lon="-1.751">
        <ele>26</ele>
        <time>2018-03-25T19:49:03Z</time>
      </trkpt>
      <trkpt lat="46.74635" lon="-1.75056">
        <ele>25</ele>
        <time>2018-03-25T19:50:03Z</time>
      </trkpt>
      <trkpt lat="46.7464" lon="-1.75028">
        <ele>24</ele>
        <time>2018-03-25T19:51:03Z</time>
      </trkpt>
      <trkpt lat="46.74643" lon="-1.75013">
        <ele>23</ele>
        <time>2018-03-25T19:52:03Z</time>
      </trkpt>
      <trkpt lat="46.74645" lon="-1.74999">
        <ele>23</ele>
        <time>2018-03-25T19:53:03Z</time>
      </trkpt>
      <trkpt lat="46.74647" lon="-1.74984">
        <ele>23</ele>
        <time>2018-03-25T19:54:03Z</time>
      </trkpt>
      <trkpt lat="46.74648" lon="-1.7497">
        <ele>23</ele>
        <time>2018-03-25T19:55:03Z</time>
      </trkpt>
      <trkpt lat="46.74649" lon="-1.74956">
        <ele>23</ele>
        <time>2018-03-25T19:56:03Z</time>
      </trkpt>
      <trkpt lat="46.7465" lon="-1.74942">
        <ele>22</ele>
        <time>2018-03-25T19:57:03Z</time>
      </trkpt>
      <trkpt lat="46.74651" lon="-1.74928">
        <ele>22</ele>
        <time>2018-03-25T19:58:03Z</time>
      </trkpt>
      <trkpt lat="46.74651" lon="-1.74914">
        <ele>22</ele>
        <time>2018-03-25T19:59:03Z</time>
      </trkpt>
      <trkpt lat="46.7465" lon="-1.749">
        <ele>23</ele>
        <time>2018-03-25T20:00:03Z</time>
      </trkpt>
      <trkpt lat="46.7465" lon="-1.74887">
        <ele>23</ele>
        <time>2018-03-25T20:01:03Z</time>
      </trkpt>
      <trkpt lat="46.74649" lon="-1.74874">
        <ele>23</ele>
        <time>2018-03-25T20:02:03Z</time>
      </trkpt>
      <trkpt lat="46.74647" lon="-1.74852">
        <ele>24</ele>
        <time>2018-03-25T20:03:03Z</time>
      </trkpt>
      <trkpt lat="46.74642" lon="-1.74826">
        <ele>25</ele>
        <time>2018-03-25T20:04:03Z</time>
      </trkpt>
      <trkpt lat="46.74637" lon="-1.74797">
        <ele>25</ele>
        <time>2018-03-25T20:05:03Z</time>
      </trkpt>
      <trkpt lat="46.74631" lon="-1.74766">
        <ele>25</ele>
        <time>2018-03-25T20:06:03Z</time>
      </trkpt>
      <trkpt lat="46.74622" lon="-1.74719">
        <ele>25</ele>
        <time>2018-03-25T20:07:03Z</time>
      </trkpt>
      <trkpt lat="46.74617" lon="-1.74692">
        <ele>25</ele>
        <time>2018-03-25T20:08:03Z</time>
      </trkpt>
      <trkpt lat="46.74611" lon="-1.74666">
        <ele>25</ele>
        <time>2018-03-25T20:09:03Z</time>
      </trkpt>
      <trkpt lat="46.74607" lon="-1.74642">
        <ele>25</ele>
        <time>2018-03-25T20:10:03Z</time>
      </trkpt>
      <trkpt lat="46.74603" lon="-1.74617">
        <ele>24</ele>
        <time>2018-03-25T20:11:03Z</time>
      </trkpt>
      <trkpt lat="46.746" lon="-1.74603">
        <ele>24</ele>
        <time>2018-03-25T20:12:03Z</time>
      </trkpt>
      <trkpt lat="46.74599" lon="-1.74596">
        <ele>24</ele>
        <time>2018-03-25T20:13:03Z</time>
      </trkpt>
      <trkpt lat="46.74597" lon="-1.74586">
        <ele>24</ele>
        <time>2018-03-25T20:14:03Z</time>
      </trkpt>
      <trkpt lat="46.74597" lon="-1.74586">
        <ele>24</ele>
        <time>2018-03-25T20:15:03Z</time>
      </trkpt>
      <trkpt lat="46.74603" lon="-1.74581">
        <ele>24</ele>
        <time>2018-03-25T20:16:03Z</time>
      </trkpt>
      <trkpt lat="46.74606" lon="-1.74576">
        <ele>23</ele>
        <time>2018-03-25T20:17:03Z</time>
      </trkpt>
      <trkpt lat="46.74617" lon="-1.74563">
        <ele>22</ele>
        <time>2018-03-25T20:18:03Z</time>
      </trkpt>
      <trkpt lat="46.74631" lon="-1.74544">
        <ele>21</ele>
        <time>2018-03-25T20:19:03Z</time>
      </trkpt>
      <trkpt lat="46.74667" lon="-1.74493">
        <ele>20</ele>
        <time>2018-03-25T20:20:03Z</time>
      </trkpt>
      <trkpt lat="46.74688" lon="-1.74462">
        <ele>19</ele>
        <time>2018-03-25T20:21:03Z</time>
      </trkpt>
      <trkpt lat="46.74699" lon="-1.74442">
        <ele>18</ele>
        <time>2018-03-25T20:22:03Z</time>
      </trkpt>
      <trkpt lat="46.74707" lon="-1.74428">
        <ele>18</ele>
        <time>2018-03-25T20:23:03Z</time>
      </trkpt>
      <trkpt lat="46.74715" lon="-1.74412">
        <ele>17</ele>
        <time>2018-03-25T20:24:03Z</time>
      </trkpt>
      <trkpt lat="46.74719" lon="-1.74402">
        <ele>17</ele>
        <time>2018-03-25T20:25:03Z</time>
      </trkpt>
      <trkpt lat="46.74719" lon="-1.74402">
        <ele>17</ele>
        <time>2018-03-25T20:26:03Z</time>
      </trkpt>
      <trkpt lat="46.74708" lon="-1.74382">
        <ele>17</ele>
        <time>2018-03-25T20:27:03Z</time>
      </trkpt>
      <trkpt lat="46.74701" lon="-1.7437">
        <ele>16</ele>
        <time>2018-03-25T20:28:03Z</time>
      </trkpt>
      <trkpt lat="46.74694" lon="-1.74357">
        <ele>16</ele>
        <time>2018-03-25T20:29:03Z</time>
      </trkpt>
      <trkpt lat="46.74646" lon="-1.74294">
        <ele>19</ele>
        <time>2018-03-25T20:30:03Z</time>
      </trkpt>
      <trkpt lat="46.74645" lon="-1.74291">
        <ele>19</ele>
        <time>2018-03-25T20:31:03Z</time>
      </trkpt>
      <trkpt lat="46.74643" lon="-1.74288">
        <ele>19</ele>
        <time>2018-03-25T20:32:03Z</time>
      </trkpt>
      <trkpt lat="46.74643" lon="-1.74284">
        <ele>19</ele>
        <time>2018-03-25T20:33:03Z</time>
      </trkpt>
      <trkpt lat="46.74643" lon="-1.74281">
        <ele>19</ele>
        <time>2018-03-25T20:34:03Z</time>
      </trkpt>
      <trkpt lat="46.74643" lon="-1.74277">
        <ele>19</ele>
        <time>2018-03-25T20:35:03Z</time>
      </trkpt>
      <trkpt lat="46.74661" lon="-1.74235">
        <ele>19</ele>
        <time>2018-03-25T20:36:03Z</time>
      </trkpt>
      <trkpt lat="46.74667" lon="-1.74219">
        <ele>19</ele>
        <time>2018-03-25T20:37:03Z</time>
      </trkpt>
      <trkpt lat="46.7467" lon="-1.7421">
        <ele>18</ele>
        <time>2018-03-25T20:38:03Z</time>
      </trkpt>
      <trkpt lat="46.74673" lon="-1.74199">
        <ele>18</ele>
        <time>2018-03-25T20:39:03Z</time>
      </trkpt>
      <trkpt lat="46.74673" lon="-1.74199">
        <ele>18</ele>
        <time>2018-03-25T20:40:03Z</time>
      </trkpt>
      <trkpt lat="46.74659" lon="-1.74197">
        <ele>19</ele>
        <time>2018-03-25T20:41:03Z</time>
      </trkpt>
      <trkpt lat="46.7464" lon="-1.74193">
        <ele>20</ele>
        <time>2018-03-25T20:42:03Z</time>
      </trkpt>
      <trkpt lat="46.7463" lon="-1.7419">
        <ele>21</ele>
        <time>2018-03-25T20:43:03Z</time>
      </trkpt>
      <trkpt lat="46.74618" lon="-1.74186">
        <ele>22</ele>
        <time>2018-03-25T20:44:03Z</time>
      </trkpt>
      <trkpt lat="46.74599" lon="-1.74178">
        <ele>23</ele>
        <time>2018-03-25T20:45:03Z</time>
      </trkpt>
      <trkpt lat="46.74583" lon="-1.74173">
        <ele>25</ele>
        <time>2018-03-25T20:46:03Z</time>
      </trkpt>
      <trkpt lat="46.74571" lon="-1.7417">
        <ele>25</ele>
        <time>2018-03-25T20:47:03Z</time>
      </trkpt>
      <trkpt lat="46.74566" lon="-1.74168">
        <ele>26</ele>
        <time>2018-03-25T20:48:03Z</time>
      </trkpt>
      <trkpt lat="46.7456" lon="-1.74165">
        <ele>26</ele>
        <time>2018-03-25T20:49:03Z</time>
      </trkpt>
      <trkpt lat="46.74554" lon="-1.74161">
        <ele>26</ele>
        <time>2018-03-25T20:50:03Z</time>
      </trkpt>
      <trkpt lat="46.7454" lon="-1.74152">
        <ele>27</ele>
        <time>2018-03-25T20:51:03Z</time>
      </trkpt>
      <trkpt lat="46.7453" lon="-1.74145">
        <ele>28</ele>
        <time>2018-03-25T20:52:03Z</time>
      </trkpt>
      <trkpt lat="46.7449" lon="-1.74118">
        <ele>30</ele>
        <time>2018-03-25T20:53:03Z</time>
      </trkpt>
      <trkpt lat="46.74474" lon="-1.74106">
        <ele>31</ele>
        <time>2018-03-25T20:54:03Z</time>
      </trkpt>
      <trkpt lat="46.74437" lon="-1.74078">
        <ele>32</ele>
        <time>2018-03-25T20:55:03Z</time>
      </trkpt>
      <trkpt lat="46.74437" lon="-1.74078">
        <ele>32</ele>
        <time>2018-03-25T20:56:03Z</time>
      </trkpt>
      <trkpt lat="46.74399" lon="-1.7405">
        <ele>33</ele>
        <time>2018-03-25T20:57:03Z</time>
      </trkpt>
      <trkpt lat="46.74373" lon="-1.74031">
        <ele>33</ele>
        <time>2018-03-25T20:58:03Z</time>
      </trkpt>
      <trkpt lat="46.7434" lon="-1.74009">
        <ele>34</ele>
        <time>2018-03-25T20:59:03Z</time>
      </trkpt>
      <trkpt lat="46.74316" lon="-1.73994">
        <ele>34</ele>
        <time>2018-03-25T21:00:03Z</time>
      </trkpt>
      <trkpt lat="46.74293" lon="-1.73979">
        <ele>35</ele>
        <time>2018-03-25T21:01:03Z</time>
      </trkpt>
      <trkpt lat="46.74285" lon="-1.73974">
        <ele>35</ele>
        <time>2018-03-25T21:02:03Z</time>
      </trkpt>
      <trkpt lat="46.74278" lon="-1.73968">
        <ele>35</ele>
        <time>2018-03-25T21:03:03Z</time>
      </trkpt>
      <trkpt lat="46.7427" lon="-1.73961">
        <ele>35</ele>
        <time>2018-03-25T21:04:03Z</time>
      </trkpt>
      <trkpt lat="46.7426" lon="-1.73952">
        <ele>35</ele>
        <time>2018-03-25T21:05:03Z</time>
      </trkpt>
      <trkpt lat="46.74251" lon="-1.73942">
        <ele>36</ele>
        <time>2018-03-25T21:06:03Z</time>
      </trkpt>
      <trkpt lat="46.74239" lon="-1.7393">
        <ele>36</ele>
        <time>2018-03-25T21:07:03Z</time>
      </trkpt>
      <trkpt lat="46.74229" lon="-1.73918">
        <ele>36</ele>
        <time>2018-03-25T21:08:03Z</time>
      </trkpt>
      <trkpt lat="46.74209" lon="-1.73891">
        <ele>36</ele>
        <time>2018-03-25T21:09:03Z</time>
      </trkpt>
      <trkpt lat="46.74198" lon="-1.73873">
        <ele>37</ele>
        <time>2018-03-25T21:10:03Z</time>
      </trkpt>
      <trkpt lat="46.74191" lon="-1.73859">
        <ele>37</ele>
        <time>2018-03-25T21:11:03Z</time>
      </trkpt>
      <trkpt lat="46.74185" lon="-1.73845">
        <ele>37</ele>
        <time>2018-03-25T21:12:03Z</time>
      </trkpt>
      <trkpt lat="46.74181" lon="-1.73833">
        <ele>37</ele>
        <time>2018-03-25T21:13:03Z</time>
      </trkpt>
      <trkpt lat="46.74177" lon="-1.7382">
        <ele>37</ele>
        <time>2018-03-25T21:14:03Z</time>
      </trkpt>
      <trkpt lat="46.74168" lon="-1.73788">
        <ele>38</ele>
        <time>2018-03-25T21:15:03Z</time>
      </trkpt>
      <trkpt lat="46.74151" lon="-1.73718">
        <ele>39</ele>
        <time>2018-03-25T21:16:03Z</time>
      </trkpt>
      <trkpt lat="46.74129" lon="-1.73637">
        <ele>39</ele>
        <time>2018-03-25T21:17:03Z</time>
      </trkpt>
      <trkpt lat="46.74116" lon="-1.73586">
        <ele>39</ele>
        <time>2018-03-25T21:18:03Z</time>
      </trkpt>
      <trkpt lat="46.74107" lon="-1.73554">
        <ele>39</ele>
        <time>2018-03-25T21:19:03Z</time>
      </trkpt>
      <trkpt lat="46.74101" lon="-1.73526">
        <ele>39</ele>
        <time>2018-03-25T21:20:03Z</time>
      </trkpt>
      <trkpt lat="46.74097" lon="-1.73508">
        <ele>39</ele>
        <time>2018-03-25T21:21:03Z</time>
      </trkpt>
      <trkpt lat="46.74093" lon="-1.73481">
        <ele>39</ele>
        <time>2018-03-25T21:22:03Z</time>
      </trkpt>
      <trkpt lat="46.74089" lon="-1.73446">
        <ele>39</ele>
        <time>2018-03-25T21:23:03Z</time>
      </trkpt>
      <trkpt lat="46.74087" lon="-1.73428">
        <ele>39</ele>
        <time>2018-03-25T21:24:03Z</time>
      </trkpt>
      <trkpt lat="46.74087" lon="-1.73412">
        <ele>39</ele>
        <time>2018-03-25T21:25:03Z</time>
      </trkpt>
      <trkpt lat="46.74086" lon="-1.73379">
        <ele>39</ele>
        <time>2018-03-25T21:26:03Z</time>
      </trkpt>
      <trkpt lat="46.74087" lon="-1.73355">
        <ele>39</ele>
        <time>2018-03-25T21:27:03Z</time>
      </trkpt>
      <trkpt lat="46.74089" lon="-1.73318">
        <ele>39</ele>
        <time>2018-03-25T21:28:03Z</time>
      </trkpt>
      <trkpt lat="46.74093" lon="-1.73264">
        <ele>40</ele>
        <time>2018-03-25T21:29:03Z</time>
      </trkpt>
      <trkpt lat="46.74098" lon="-1.73199">
        <ele>41</ele>
        <time>2018-03-25T21:30:03Z</time>
      </trkpt>
      <trkpt lat="46.74101" lon="-1.73174">
        <ele>41</ele>
        <time>2018-03-25T21:31:03Z</time>
      </trkpt>
      <trkpt lat="46.74109" lon="-1.73066">
        <ele>40</ele>
        <time>2018-03-25T21:32:03Z</time>
      </trkpt>
      <trkpt lat="46.74113" lon="-1.7302">
        <ele>40</ele>
        <time>2018-03-25T21:33:03Z</time>
      </trkpt>
      <trkpt lat="46.74119" lon="-1.72943">
        <ele>39</ele>
        <time>2018-03-25T21:34:03Z</time>
      </trkpt>
      <trkpt lat="46.74124" lon="-1.72883">
        <ele>39</ele>
        <time>2018-03-25T21:35:03Z</time>
      </trkpt>
      <trkpt lat="46.74125" lon="-1.72864">
        <ele>39</ele>
        <time>2018-03-25T21:36:03Z</time>
      </trkpt>
      <trkpt lat="46.74125" lon="-1.72849">
        <ele>39</ele>
        <time>2018-03-25T21:37:03Z</time>
      </trkpt>
      <trkpt lat="46.74126" lon="-1.72832">
        <ele>38</ele>
        <time>2018-03-25T21:38:03Z</time>
      </trkpt>
      <trkpt lat="46.74125" lon="-1.72818">
        <ele>39</ele>
        <time>2018-03-25T21:39:03Z</time>
      </trkpt>
      <trkpt lat="46.74124" lon="-1.72802">
        <ele>39</ele>
        <time>2018-03-25T21:40:03Z</time>
      </trkpt>
      <trkpt lat="46.74123" lon="-1.72786">
        <ele>40</ele>
        <time>2018-03-25T21:41:03Z</time>
      </trkpt>
      <trkpt lat="46.74121" lon="-1.72772">
        <ele>40</ele>
        <time>2018-03-25T21:42:03Z</time>
      </trkpt>
      <trkpt lat="46.74119" lon="-1.72759">
        <ele>40</ele>
        <time>2018-03-25T21:43:03Z</time>
      </trkpt>
      <trkpt lat="46.74116" lon="-1.72745">
        <ele>41</ele>
        <time>2018-03-25T21:44:03Z</time>
      </trkpt>
      <trkpt lat="46.74113" lon="-1.72731">
        <ele>40</ele>
        <time>2018-03-25T21:45:03Z</time>
      </trkpt>
      <trkpt lat="46.74108" lon="-1.72711">
        <ele>40</ele>
        <time>2018-03-25T21:46:03Z</time>
      </trkpt>
      <trkpt lat="46.74099" lon="-1.72675">
        <ele>39</ele>
        <time>2018-03-25T21:47:03Z</time>
      </trkpt>
      <trkpt lat="46.7409" lon="-1.72644">
        <ele>39</ele>
        <time>2018-03-25T21:48:03Z</time>
      </trkpt>
      <trkpt lat="46.74086" lon="-1.72627">
        <ele>38</ele>
        <time>2018-03-25T21:49:03Z</time>
      </trkpt>
      <trkpt lat="46.74083" lon="-1.72611">
        <ele>38</ele>
        <time>2018-03-25T21:50:03Z</time>
      </trkpt>
      <trkpt lat="46.74081" lon="-1.72597">
        <ele>38</ele>
        <time>2018-03-25T21:51:03Z</time>
      </trkpt>
      <trkpt lat="46.74079" lon="-1.72583">
        <ele>38</ele>
        <time>2018-03-25T21:52:03Z</time>
      </trkpt>
      <trkpt lat="46.74077" lon="-1.72569">
        <ele>38</ele>
        <time>2018-03-25T21:53:03Z</time>
      </trkpt>
      <trkpt lat="46.74076" lon="-1.72556">
        <ele>38</ele>
        <time>2018-03-25T21:54:03Z</time>
      </trkpt>
      <trkpt lat="46.74076" lon="-1.72548">
        <ele>38</ele>
        <time>2018-03-25T21:55:03Z</time>
      </trkpt>
      <trkpt lat="46.74078" lon="-1.72488">
        <ele>38</ele>
        <time>2018-03-25T21:56:03Z</time>
      </trkpt>
      <trkpt lat="46.74079" lon="-1.72454">
        <ele>37</ele>
        <time>2018-03-25T21:57:03Z</time>
      </trkpt>
      <trkpt lat="46.74083" lon="-1.724">
        <ele>36</ele>
        <time>2018-03-25T21:58:03Z</time>
      </trkpt>
      <trkpt lat="46.74084" lon="-1.72385">
        <ele>36</ele>
        <time>2018-03-25T21:59:03Z</time>
      </trkpt>
      <trkpt lat="46.74087" lon="-1.72323">
        <ele>37</ele>
        <time>2018-03-25T22:00:03Z</time>
      </trkpt>
      <trkpt lat="46.74091" lon="-1.72258">
        <ele>40</ele>
        <time>2018-03-25T22:01:03Z</time>
      </trkpt>
      <trkpt lat="46.74093" lon="-1.72235">
        <ele>40</ele>
        <time>2018-03-25T22:02:03Z</time>
      </trkpt>
      <trkpt lat="46.74095" lon="-1.72215">
        <ele>40</ele>
        <time>2018-03-25T22:03:03Z</time>
      </trkpt>
      <trkpt lat="46.74098" lon="-1.72192">
        <ele>40</ele>
        <time>2018-03-25T22:04:03Z</time>
      </trkpt>
      <trkpt lat="46.74099" lon="-1.72182">
        <ele>40</ele>
        <time>2018-03-25T22:05:03Z</time>
      </trkpt>
      <trkpt lat="46.74103" lon="-1.72152">
        <ele>40</ele>
        <time>2018-03-25T22:06:03Z</time>
      </trkpt>
      <trkpt lat="46.74108" lon="-1.72108">
        <ele>40</ele>
        <time>2018-03-25T22:07:03Z</time>
      </trkpt>
      <trkpt lat="46.74111" lon="-1.72076">
        <ele>40</ele>
        <time>2018-03-25T22:08:03Z</time>
      </trkpt>
      <trkpt lat="46.74115" lon="-1.72035">
        <ele>40</ele>
        <time>2018-03-25T22:09:03Z</time>
      </trkpt>
      <trkpt lat="46.74119" lon="-1.72002">
        <ele>41</ele>
        <time>2018-03-25T22:10:03Z</time>
      </trkpt>
      <trkpt lat="46.74123" lon="-1.71958">
        <ele>41</ele>
        <time>2018-03-25T22:11:03Z</time>
      </trkpt>
      <trkpt lat="46.74124" lon="-1.71945">
        <ele>41</ele>
        <time>2018-03-25T22:12:03Z</time>
      </trkpt>
      <trkpt lat="46.74124" lon="-1.71905">
        <ele>42</ele>
        <time>2018-03-25T22:13:03Z</time>
      </trkpt>
      <trkpt lat="46.74123" lon="-1.71854">
        <ele>43</ele>
        <time>2018-03-25T22:14:03Z</time>
      </trkpt>
      <trkpt lat="46.74123" lon="-1.71812">
        <ele>44</ele>
        <time>2018-03-25T22:15:03Z</time>
      </trkpt>
      <trkpt lat="46.74125" lon="-1.7179">
        <ele>44</ele>
        <time>2018-03-25T22:16:03Z</time>
      </trkpt>
      <trkpt lat="46.74125" lon="-1.71775">
        <ele>44</ele>
        <time>2018-03-25T22:17:03Z</time>
      </trkpt>
      <trkpt lat="46.74127" lon="-1.71753">
        <ele>44</ele>
        <time>2018-03-25T22:18:03Z</time>
      </trkpt>
      <trkpt lat="46.7413" lon="-1.71732">
        <ele>44</ele>
        <time>2018-03-25T22:19:03Z</time>
      </trkpt>
      <trkpt lat="46.74133" lon="-1.71713">
        <ele>44</ele>
        <time>2018-03-25T22:20:03Z</time>
      </trkpt>
      <trkpt lat="46.74141" lon="-1.71678">
        <ele>43</ele>
        <time>2018-03-25T22:21:03Z</time>
      </trkpt>
      <trkpt lat="46.74149" lon="-1.71642">
        <ele>42</ele>
        <time>2018-03-25T22:22:03Z</time>
      </trkpt>
      <trkpt lat="46.74165" lon="-1.71586">
        <ele>41</ele>
        <time>2018-03-25T22:23:03Z</time>
      </trkpt>
      <trkpt lat="46.74177" lon="-1.71544">
        <ele>40</ele>
        <time>2018-03-25T22:24:03Z</time>
      </trkpt>
      <trkpt lat="46.74181" lon="-1.71522">
        <ele>39</ele>
        <time>2018-03-25T22:25:03Z</time>
      </trkpt>
      <trkpt lat="46.74184" lon="-1.7151">
        <ele>38</ele>
        <time>2018-03-25T22:26:03Z</time>
      </trkpt>
      <trkpt lat="46.74185" lon="-1.715">
        <ele>38</ele>
        <time>2018-03-25T22:27:03Z</time>
      </trkpt>
      <trkpt lat="46.74187" lon="-1.71476">
        <ele>38</ele>
        <time>2018-03-25T22:28:03Z</time>
      </trkpt>
      <trkpt lat="46.7419" lon="-1.71446">
        <ele>38</ele>
        <time>2018-03-25T22:29:03Z</time>
      </trkpt>
      <trkpt lat="46.74192" lon="-1.71407">
        <ele>38</ele>
        <time>2018-03-25T22:30:03Z</time>
      </trkpt>
      <trkpt lat="46.74192" lon="-1.71395">
        <ele>38</ele>
        <time>2018-03-25T22:31:03Z</time>
      </trkpt>
      <trkpt lat="46.74193" lon="-1.71383">
        <ele>37</ele>
        <time>2018-03-25T22:32:03Z</time>
      </trkpt>
      <trkpt lat="46.74193" lon="-1.7137">
        <ele>37</ele>
        <time>2018-03-25T22:33:03Z</time>
      </trkpt>
      <trkpt lat="46.74193" lon="-1.71358">
        <ele>37</ele>
        <time>2018-03-25T22:34:03Z</time>
      </trkpt>
      <trkpt lat="46.74192" lon="-1.71335">
        <ele>36</ele>
        <time>2018-03-25T22:35:03Z</time>
      </trkpt>
      <trkpt lat="46.74191" lon="-1.71323">
        <ele>36</ele>
        <time>2018-03-25T22:36:03Z</time>
      </trkpt>
      <trkpt lat="46.74188" lon="-1.713">
        <ele>36</ele>
        <time>2018-03-25T22:37:03Z</time>
      </trkpt>
      <trkpt lat="46.74186" lon="-1.71288">
        <ele>36</ele>
        <time>2018-03-25T22:38:03Z</time>
      </trkpt>
      <trkpt lat="46.74182" lon="-1.71262">
        <ele>36</ele>
        <time>2018-03-25T22:39:03Z</time>
      </trkpt>
      <trkpt lat="46.74178" lon="-1.71238">
        <ele>37</ele>
        <time>2018-03-25T22:40:03Z</time>
      </trkpt>
      <trkpt lat="46.74176" lon="-1.71225">
        <ele>37</ele>
        <time>2018-03-25T22:41:03Z</time>
      </trkpt>
      <trkpt lat="46.74171" lon="-1.71186">
        <ele>38</ele>
        <time>2018-03-25T22:42:03Z</time>
      </trkpt>
      <trkpt lat="46.7417" lon="-1.71173">
        <ele>39</ele>
        <time>2018-03-25T22:43:03Z</time>
      </trkpt>
      <trkpt lat="46.74163" lon="-1.71076">
        <ele>42</ele>
        <time>2018-03-25T22:44:03Z</time>
      </trkpt>
      <trkpt lat="46.74159" lon="-1.71008">
        <ele>43</ele>
        <time>2018-03-25T22:45:03Z</time>
      </trkpt>
      <trkpt lat="46.74159" lon="-1.70975">
        <ele>43</ele>
        <time>2018-03-25T22:46:03Z</time>
      </trkpt>
      <trkpt lat="46.74159" lon="-1.70964">
        <ele>43</ele>
        <time>2018-03-25T22:47:03Z</time>
      </trkpt>
      <trkpt lat="46.74161" lon="-1.70952">
        <ele>43</ele>
        <time>2018-03-25T22:48:03Z</time>
      </trkpt>
      <trkpt lat="46.74162" lon="-1.70942">
        <ele>42</ele>
        <time>2018-03-25T22:49:03Z</time>
      </trkpt>
      <trkpt lat="46.74164" lon="-1.70931">
        <ele>42</ele>
        <time>2018-03-25T22:50:03Z</time>
      </trkpt>
      <trkpt lat="46.74168" lon="-1.70909">
        <ele>42</ele>
        <time>2018-03-25T22:51:03Z</time>
      </trkpt>
      <trkpt lat="46.74191" lon="-1.70816">
        <ele>40</ele>
        <time>2018-03-25T22:52:03Z</time>
      </trkpt>
      <trkpt lat="46.74195" lon="-1.70796">
        <ele>40</ele>
        <time>2018-03-25T22:53:03Z</time>
      </trkpt>
      <trkpt lat="46.74199" lon="-1.70776">
        <ele>39</ele>
        <time>2018-03-25T22:54:03Z</time>
      </trkpt>
      <trkpt lat="46.74201" lon="-1.70755">
        <ele>39</ele>
        <time>2018-03-25T22:55:03Z</time>
      </trkpt>
      <trkpt lat="46.74202" lon="-1.70725">
        <ele>38</ele>
        <time>2018-03-25T22:56:03Z</time>
      </trkpt>
      <trkpt lat="46.74202" lon="-1.70714">
        <ele>37</ele>
        <time>2018-03-25T22:57:03Z</time>
      </trkpt>
      <trkpt lat="46.74202" lon="-1.70705">
        <ele>37</ele>
        <time>2018-03-25T22:58:03Z</time>
      </trkpt>
      <trkpt lat="46.74201" lon="-1.70694">
        <ele>37</ele>
        <time>2018-03-25T22:59:03Z</time>
      </trkpt>
      <trkpt lat="46.742" lon="-1.70686">
        <ele>37</ele>
        <time>2018-03-25T23:00:03Z</time>
      </trkpt>
      <trkpt lat="46.74198" lon="-1.70677">
        <ele>36</ele>
        <time>2018-03-25T23:01:03Z</time>
      </trkpt>
      <trkpt lat="46.74196" lon="-1.70668">
        <ele>36</ele>
        <time>2018-03-25T23:02:03Z</time>
      </trkpt>
      <trkpt lat="46.74193" lon="-1.70659">
        <ele>36</ele>
        <time>2018-03-25T23:03:03Z</time>
      </trkpt>
      <trkpt lat="46.74188" lon="-1.70642">
        <ele>35</ele>
        <time>2018-03-25T23:04:03Z</time>
      </trkpt>
      <trkpt lat="46.74184" lon="-1.70622">
        <ele>34</ele>
        <time>2018-03-25T23:05:03Z</time>
      </trkpt>
      <trkpt lat="46.74182" lon="-1.70613">
        <ele>34</ele>
        <time>2018-03-25T23:06:03Z</time>
      </trkpt>
      <trkpt lat="46.7418" lon="-1.70603">
        <ele>34</ele>
        <time>2018-03-25T23:07:03Z</time>
      </trkpt>
      <trkpt lat="46.74179" lon="-1.70593">
        <ele>33</ele>
        <time>2018-03-25T23:08:03Z</time>
      </trkpt>
      <trkpt lat="46.74179" lon="-1.70583">
        <ele>33</ele>
        <time>2018-03-25T23:09:03Z</time>
      </trkpt>
      <trkpt lat="46.74179" lon="-1.70566">
        <ele>32</ele>
        <time>2018-03-25T23:10:03Z</time>
      </trkpt>
      <trkpt lat="46.7418" lon="-1.70554">
        <ele>32</ele>
        <time>2018-03-25T23:11:03Z</time>
      </trkpt>
      <trkpt lat="46.74181" lon="-1.70541">
        <ele>32</ele>
        <time>2018-03-25T23:12:03Z</time>
      </trkpt>
      <trkpt lat="46.74185" lon="-1.70519">
        <ele>31</ele>
        <time>2018-03-25T23:13:03Z</time>
      </trkpt>
      <trkpt lat="46.74193" lon="-1.70488">
        <ele>30</ele>
        <time>2018-03-25T23:14:03Z</time>
      </trkpt>
      <trkpt lat="46.74203" lon="-1.70449">
        <ele>29</ele>
        <time>2018-03-25T23:15:03Z</time>
      </trkpt>
      <trkpt lat="46.74205" lon="-1.70439">
        <ele>29</ele>
        <time>2018-03-25T23:16:03Z</time>
      </trkpt>
      <trkpt lat="46.74207" lon="-1.70428">
        <ele>29</ele>
        <time>2018-03-25T23:17:03Z</time>
      </trkpt>
      <trkpt lat="46.74208" lon="-1.70416">
        <ele>29</ele>
        <time>2018-03-25T23:18:03Z</time>
      </trkpt>
      <trkpt lat="46.74208" lon="-1.70405">
        <ele>29</ele>
        <time>2018-03-25T23:19:03Z</time>
      </trkpt>
      <trkpt lat="46.74208" lon="-1.70394">
        <ele>29</ele>
        <time>2018-03-25T23:20:03Z</time>
      </trkpt>
      <trkpt lat="46.74208" lon="-1.70383">
        <ele>30</ele>
        <time>2018-03-25T23:21:03Z</time>
      </trkpt>
      <trkpt lat="46.74207" lon="-1.70348">
        <ele>31</ele>
        <time>2018-03-25T23:22:03Z</time>
      </trkpt>
      <trkpt lat="46.74206" lon="-1.70322">
        <ele>31</ele>
        <time>2018-03-25T23:23:03Z</time>
      </trkpt>
      <trkpt lat="46.74206" lon="-1.70316">
        <ele>31</ele>
        <time>2018-03-25T23:24:03Z</time>
      </trkpt>
      <trkpt lat="46.74205" lon="-1.7031">
        <ele>31</ele>
        <time>2018-03-25T23:25:03Z</time>
      </trkpt>
      <trkpt lat="46.74205" lon="-1.70297">
        <ele>31</ele>
        <time>2018-03-25T23:26:03Z</time>
      </trkpt>
      <trkpt lat="46.74205" lon="-1.70269">
        <ele>32</ele>
        <time>2018-03-25T23:27:03Z</time>
      </trkpt>
      <trkpt lat="46.74205" lon="-1.70265">
        <ele>32</ele>
        <time>2018-03-25T23:28:03Z</time>
      </trkpt>
      <trkpt lat="46.74205" lon="-1.70265">
        <ele>32</ele>
        <time>2018-03-25T23:29:03Z</time>
      </trkpt>
      <trkpt lat="46.74206" lon="-1.70229">
        <ele>32</ele>
        <time>2018-03-25T23:30:03Z</time>
      </trkpt>
      <trkpt lat="46.74209" lon="-1.70185">
        <ele>32</ele>
        <time>2018-03-25T23:31:03Z</time>
      </trkpt>
      <trkpt lat="46.74212" lon="-1.70137">
        <ele>33</ele>
        <time>2018-03-25T23:32:03Z</time>
      </trkpt>
      <trkpt lat="46.74219" lon="-1.70041">
        <ele>36</ele>
        <time>2018-03-25T23:33:03Z</time>
      </trkpt>
      <trkpt lat="46.74227" lon="-1.69962">
        <ele>37</ele>
        <time>2018-03-25T23:34:03Z</time>
      </trkpt>
      <trkpt lat="46.7423" lon="-1.69927">
        <ele>37</ele>
        <time>2018-03-25T23:35:03Z</time>
      </trkpt>
      <trkpt lat="46.74235" lon="-1.69891">
        <ele>37</ele>
        <time>2018-03-25T23:36:03Z</time>
      </trkpt>
      <trkpt lat="46.74239" lon="-1.69864">
        <ele>36</ele>
        <time>2018-03-25T23:37:03Z</time>
      </trkpt>
      <trkpt lat="46.74246" lon="-1.69819">
        <ele>36</ele>
        <time>2018-03-25T23:38:03Z</time>
      </trkpt>
      <trkpt lat="46.74248" lon="-1.69799">
        <ele>36</ele>
        <time>2018-03-25T23:39:03Z</time>
      </trkpt>
      <trkpt lat="46.7425" lon="-1.69777">
        <ele>37</ele>
        <time>2018-03-25T23:40:03Z</time>
      </trkpt>
      <trkpt lat="46.74252" lon="-1.69752">
        <ele>37</ele>
        <time>2018-03-25T23:41:03Z</time>
      </trkpt>
      <trkpt lat="46.74253" lon="-1.69713">
        <ele>37</ele>
        <time>2018-03-25T23:42:03Z</time>
      </trkpt>
      <trkpt lat="46.74254" lon="-1.69654">
        <ele>37</ele>
        <time>2018-03-25T23:43:03Z</time>
      </trkpt>
      <trkpt lat="46.74255" lon="-1.69593">
        <ele>39</ele>
        <time>2018-03-25T23:44:03Z</time>
      </trkpt>
      <trkpt lat="46.74256" lon="-1.69543">
        <ele>40</ele>
        <time>2018-03-25T23:45:03Z</time>
      </trkpt>
      <trkpt lat="46.74257" lon="-1.69514">
        <ele>41</ele>
        <time>2018-03-25T23:46:03Z</time>
      </trkpt>
      <trkpt lat="46.74259" lon="-1.6946">
        <ele>40</ele>
        <time>2018-03-25T23:47:03Z</time>
      </trkpt>
      <trkpt lat="46.7426" lon="-1.69426">
        <ele>39</ele>
        <time>2018-03-25T23:48:03Z</time>
      </trkpt>
      <trkpt lat="46.74261" lon="-1.6936">
        <ele>38</ele>
        <time>2018-03-25T23:49:03Z</time>
      </trkpt>
      <trkpt lat="46.74263" lon="-1.69297">
        <ele>37</ele>
        <time>2018-03-25T23:50:03Z</time>
      </trkpt>
      <trkpt lat="46.74264" lon="-1.6927">
        <ele>37</ele>
        <time>2018-03-25T23:51:03Z</time>
      </trkpt>
      <trkpt lat="46.74265" lon="-1.69263">
        <ele>37</ele>
        <time>2018-03-25T23:52:03Z</time>
      </trkpt>
      <trkpt lat="46.74266" lon="-1.69257">
        <ele>37</ele>
        <time>2018-03-25T23:53:03Z</time>
      </trkpt>
      <trkpt lat="46.74267" lon="-1.69252">
        <ele>36</ele>
        <time>2018-03-25T23:54:03Z</time>
      </trkpt>
      <trkpt lat="46.74269" lon="-1.69248">
        <ele>36</ele>
        <time>2018-03-25T23:55:03Z</time>
      </trkpt>
      <trkpt lat="46.74302" lon="-1.69186">
        <ele>33</ele>
        <time>2018-03-25T23:56:03Z</time>
      </trkpt>
      <trkpt lat="46.7433" lon="-1.69134">
        <ele>30</ele>
        <time>2018-03-25T23:57:03Z</time>
      </trkpt>
      <trkpt lat="46.74355" lon="-1.69087">
        <ele>29</ele>
        <time>2018-03-25T23:58:03Z</time>
      </trkpt>
      <trkpt lat="46.7437" lon="-1.69058">
        <ele>28</ele>
        <time>2018-03-25T23:59:03Z</time>
      </trkpt>
      <trkpt lat="46.74375" lon="-1.69048">
        <ele>28</ele>
        <time>2018-03-26T00:00:03Z</time>
      </trkpt>
      <trkpt lat="46.74381" lon="-1.69035">
        <ele>28</ele>
        <time>2018-03-26T00:01:03Z</time>
      </trkpt>
      <trkpt lat="46.74386" lon="-1.69021">
        <ele>27</ele>
        <time>2018-03-26T00:02:03Z</time>
      </trkpt>
      <trkpt lat="46.74392" lon="-1.69004">
        <ele>27</ele>
        <time>2018-03-26T00:03:03Z</time>
      </trkpt>
      <trkpt lat="46.744" lon="-1.68974">
        <ele>26</ele>
        <time>2018-03-26T00:04:03Z</time>
      </trkpt>
      <trkpt lat="46.74414" lon="-1.68916">
        <ele>24</ele>
        <time>2018-03-26T00:05:03Z</time>
      </trkpt>
      <trkpt lat="46.74421" lon="-1.68884">
        <ele>23</ele>
        <time>2018-03-26T00:06:03Z</time>
      </trkpt>
      <trkpt lat="46.74423" lon="-1.68872">
        <ele>23</ele>
        <time>2018-03-26T00:07:03Z</time>
      </trkpt>
      <trkpt lat="46.74426" lon="-1.68862">
        <ele>22</ele>
        <time>2018-03-26T00:08:03Z</time>
      </trkpt>
      <trkpt lat="46.74431" lon="-1.68852">
        <ele>22</ele>
        <time>2018-03-26T00:09:03Z</time>
      </trkpt>
      <trkpt lat="46.7444" lon="-1.68838">
        <ele>22</ele>
        <time>2018-03-26T00:10:03Z</time>
      </trkpt>
      <trkpt lat="46.74449" lon="-1.68824">
        <ele>22</ele>
        <time>2018-03-26T00:11:03Z</time>
      </trkpt>
      <trkpt lat="46.7446" lon="-1.68809">
        <ele>23</ele>
        <time>2018-03-26T00:12:03Z</time>
      </trkpt>
      <trkpt lat="46.74479" lon="-1.6878">
        <ele>22</ele>
        <time>2018-03-26T00:13:03Z</time>
      </trkpt>
      <trkpt lat="46.74495" lon="-1.68755">
        <ele>21</ele>
        <time>2018-03-26T00:14:03Z</time>
      </trkpt>
      <trkpt lat="46.74518" lon="-1.68722">
        <ele>22</ele>
        <time>2018-03-26T00:15:03Z</time>
      </trkpt>
      <trkpt lat="46.74529" lon="-1.6871">
        <ele>22</ele>
        <time>2018-03-26T00:16:03Z</time>
      </trkpt>
      <trkpt lat="46.74543" lon="-1.68704">
        <ele>22</ele>
        <time>2018-03-26T00:17:03Z</time>
      </trkpt>
      <trkpt lat="46.74562" lon="-1.68699">
        <ele>22</ele>
        <time>2018-03-26T00:18:03Z</time>
      </trkpt>
      <trkpt lat="46.74582" lon="-1.68692">
        <ele>22</ele>
        <time>2018-03-26T00:19:03Z</time>
      </trkpt>
      <trkpt lat="46.74592" lon="-1.68688">
        <ele>22</ele>
        <time>2018-03-26T00:20:03Z</time>
      </trkpt>
      <trkpt lat="46.74603" lon="-1.6868">
        <ele>22</ele>
        <time>2018-03-26T00:21:03Z</time>
      </trkpt>
      <trkpt lat="46.74612" lon="-1.68672">
        <ele>23</ele>
        <time>2018-03-26T00:22:03Z</time>
      </trkpt>
      <trkpt lat="46.74621" lon="-1.6866">
        <ele>23</ele>
        <time>2018-03-26T00:23:03Z</time>
      </trkpt>
      <trkpt lat="46.74628" lon="-1.68649">
        <ele>23</ele>
        <time>2018-03-26T00:24:03Z</time>
      </trkpt>
      <trkpt lat="46.74632" lon="-1.68639">
        <ele>23</ele>
        <time>2018-03-26T00:25:03Z</time>
      </trkpt>
      <trkpt lat="46.74637" lon="-1.68625">
        <ele>24</ele>
        <time>2018-03-26T00:26:03Z</time>
      </trkpt>
      <trkpt lat="46.7464" lon="-1.6861">
        <ele>24</ele>
        <time>2018-03-26T00:27:03Z</time>
      </trkpt>
      <trkpt lat="46.74643" lon="-1.68594">
        <ele>25</ele>
        <time>2018-03-26T00:28:03Z</time>
      </trkpt>
      <trkpt lat="46.74644" lon="-1.68579">
        <ele>25</ele>
        <time>2018-03-26T00:29:03Z</time>
      </trkpt>
      <trkpt lat="46.74645" lon="-1.68565">
        <ele>25</ele>
        <time>2018-03-26T00:30:03Z</time>
      </trkpt>
      <trkpt lat="46.74645" lon="-1.68548">
        <ele>25</ele>
        <time>2018-03-26T00:31:03Z</time>
      </trkpt>
      <trkpt lat="46.74644" lon="-1.68508">
        <ele>25</ele>
        <time>2018-03-26T00:32:03Z</time>
      </trkpt>
      <trkpt lat="46.74641" lon="-1.68463">
        <ele>25</ele>
        <time>2018-03-26T00:33:03Z</time>
      </trkpt>
      <trkpt lat="46.74639" lon="-1.68428">
        <ele>24</ele>
        <time>2018-03-26T00:34:03Z</time>
      </trkpt>
      <trkpt lat="46.7464" lon="-1.68406">
        <ele>24</ele>
        <time>2018-03-26T00:35:03Z</time>
      </trkpt>
      <trkpt lat="46.7464" lon="-1.6839">
        <ele>24</ele>
        <time>2018-03-26T00:36:03Z</time>
      </trkpt>
      <trkpt lat="46.74642" lon="-1.68376">
        <ele>24</ele>
        <time>2018-03-26T00:37:03Z</time>
      </trkpt>
      <trkpt lat="46.74645" lon="-1.68364">
        <ele>24</ele>
        <time>2018-03-26T00:38:03Z</time>
      </trkpt>
      <trkpt lat="46.7465" lon="-1.68348">
        <ele>24</ele>
        <time>2018-03-26T00:39:03Z</time>
      </trkpt>
      <trkpt lat="46.74657" lon="-1.6833">
        <ele>23</ele>
        <time>2018-03-26T00:40:03Z</time>
      </trkpt>
      <trkpt lat="46.74673" lon="-1.68296">
        <ele>23</ele>
        <time>2018-03-26T00:41:03Z</time>
      </trkpt>
      <trkpt lat="46.74678" lon="-1.68283">
        <ele>23</ele>
        <time>2018-03-26T00:42:03Z</time>
      </trkpt>
      <trkpt lat="46.74678" lon="-1.68283">
        <ele>23</ele>
        <time>2018-03-26T00:43:03Z</time>
      </trkpt>
      <trkpt lat="46.7468" lon="-1.68276">
        <ele>23</ele>
        <time>2018-03-26T00:44:03Z</time>
      </trkpt>
      <trkpt lat="46.74685" lon="-1.68262">
        <ele>24</ele>
        <time>2018-03-26T00:45:03Z</time>
      </trkpt>
      <trkpt lat="46.7469" lon="-1.6824">
        <ele>24</ele>
        <time>2018-03-26T00:46:03Z</time>
      </trkpt>
      <trkpt lat="46.74696" lon="-1.68217">
        <ele>24</ele>
        <time>2018-03-26T00:47:03Z</time>
      </trkpt>
      <trkpt lat="46.74697" lon="-1.68212">
        <ele>24</ele>
        <time>2018-03-26T00:48:03Z</time>
      </trkpt>
      <trkpt lat="46.74708" lon="-1.68154">
        <ele>24</ele>
        <time>2018-03-26T00:49:03Z</time>
      </trkpt>
      <trkpt lat="46.74719" lon="-1.68107">
        <ele>23</ele>
        <time>2018-03-26T00:50:03Z</time>
      </trkpt>
      <trkpt lat="46.74725" lon="-1.6807">
        <ele>23</ele>
        <time>2018-03-26T00:51:03Z</time>
      </trkpt>
      <trkpt lat="46.74728" lon="-1.68057">
        <ele>23</ele>
        <time>2018-03-26T00:52:03Z</time>
      </trkpt>
      <trkpt lat="46.74729" lon="-1.68043">
        <ele>23</ele>
        <time>2018-03-26T00:53:03Z</time>
      </trkpt>
      <trkpt lat="46.74731" lon="-1.68019">
        <ele>24</ele>
        <time>2018-03-26T00:54:03Z</time>
      </trkpt>
      <trkpt lat="46.74737" lon="-1.67947">
        <ele>24</ele>
        <time>2018-03-26T00:55:03Z</time>
      </trkpt>
      <trkpt lat="46.74742" lon="-1.67869">
        <ele>26</ele>
        <time>2018-03-26T00:56:03Z</time>
      </trkpt>
      <trkpt lat="46.74749" lon="-1.67753">
        <ele>25</ele>
        <time>2018-03-26T00:57:03Z</time>
      </trkpt>
      <trkpt lat="46.74754" lon="-1.67679">
        <ele>21</ele>
        <time>2018-03-26T00:58:03Z</time>
      </trkpt>
      <trkpt lat="46.74758" lon="-1.67619">
        <ele>20</ele>
        <time>2018-03-26T00:59:03Z</time>
      </trkpt>
      <trkpt lat="46.7476" lon="-1.67596">
        <ele>19</ele>
        <time>2018-03-26T01:00:03Z</time>
      </trkpt>
      <trkpt lat="46.7476" lon="-1.67596">
        <ele>19</ele>
        <time>2018-03-26T01:01:03Z</time>
      </trkpt>
      <trkpt lat="46.74789" lon="-1.67577">
        <ele>18</ele>
        <time>2018-03-26T01:02:03Z</time>
      </trkpt>
      <trkpt lat="46.74809" lon="-1.67564">
        <ele>17</ele>
        <time>2018-03-26T01:03:03Z</time>
      </trkpt>
      <trkpt lat="46.74832" lon="-1.67548">
        <ele>16</ele>
        <time>2018-03-26T01:04:03Z</time>
      </trkpt>
      <trkpt lat="46.74866" lon="-1.67527">
        <ele>18</ele>
        <time>2018-03-26T01:05:03Z</time>
      </trkpt>
      <trkpt lat="46.74868" lon="-1.67525">
        <ele>18</ele>
        <time>2018-03-26T01:06:03Z</time>
      </trkpt>
      <trkpt lat="46.7487" lon="-1.67524">
        <ele>18</ele>
        <time>2018-03-26T01:07:03Z</time>
      </trkpt>
      <trkpt lat="46.7489" lon="-1.67511">
        <ele>19</ele>
        <time>2018-03-26T01:08:03Z</time>
      </trkpt>
      <trkpt lat="46.74936" lon="-1.6748">
        <ele>20</ele>
        <time>2018-03-26T01:09:03Z</time>
      </trkpt>
      <trkpt lat="46.74987" lon="-1.67446">
        <ele>21</ele>
        <time>2018-03-26T01:10:03Z</time>
      </trkpt>
      <trkpt lat="46.75041" lon="-1.6741">
        <ele>23</ele>
        <time>2018-03-26T01:11:03Z</time>
      </trkpt>
      <trkpt lat="46.75086" lon="-1.6738">
        <ele>23</ele>
        <time>2018-03-26T01:12:03Z</time>
      </trkpt>
      <trkpt lat="46.75094" lon="-1.67376">
        <ele>23</ele>
        <time>2018-03-26T01:13:03Z</time>
      </trkpt>
      <trkpt lat="46.751" lon="-1.67373">
        <ele>24</ele>
        <time>2018-03-26T01:14:03Z</time>
      </trkpt>
      <trkpt lat="46.75106" lon="-1.6737">
        <ele>24</ele>
        <time>2018-03-26T01:15:03Z</time>
      </trkpt>
      <trkpt lat="46.75114" lon="-1.67369">
        <ele>24</ele>
        <time>2018-03-26T01:16:03Z</time>
      </trkpt>
      <trkpt lat="46.75122" lon="-1.67368">
        <ele>24</ele>
        <time>2018-03-26T01:17:03Z</time>
      </trkpt>
      <trkpt lat="46.75132" lon="-1.67367">
        <ele>24</ele>
        <time>2018-03-26T01:18:03Z</time>
      </trkpt>
      <trkpt lat="46.75142" lon="-1.67368">
        <ele>24</ele>
        <time>2018-03-26T01:19:03Z</time>
      </trkpt>
      <trkpt lat="46.75152" lon="-1.6737">
        <ele>24</ele>
        <time>2018-03-26T01:20:03Z</time>
      </trkpt>
      <trkpt lat="46.75163" lon="-1.67374">
        <ele>24</ele>
        <time>2018-03-26T01:21:03Z</time>
      </trkpt>
      <trkpt lat="46.75173" lon="-1.6738">
        <ele>23</ele>
        <time>2018-03-26T01:22:03Z</time>
      </trkpt>
      <trkpt lat="46.75185" lon="-1.67387">
        <ele>23</ele>
        <time>2018-03-26T01:23:03Z</time>
      </trkpt>
      <trkpt lat="46.75192" lon="-1.67393">
        <ele>23</ele>
        <time>2018-03-26T01:24:03Z</time>
      </trkpt>
      <trkpt lat="46.75202" lon="-1.67403">
        <ele>22</ele>
        <time>2018-03-26T01:25:03Z</time>
      </trkpt>
      <trkpt lat="46.75215" lon="-1.6742">
        <ele>22</ele>
        <time>2018-03-26T01:26:03Z</time>
      </trkpt>
      <trkpt lat="46.75228" lon="-1.67441">
        <ele>20</ele>
        <time>2018-03-26T01:27:03Z</time>
      </trkpt>
      <trkpt lat="46.75237" lon="-1.67456">
        <ele>19</ele>
        <time>2018-03-26T01:28:03Z</time>
      </trkpt>
      <trkpt lat="46.75254" lon="-1.67489">
        <ele>16</ele>
        <time>2018-03-26T01:29:03Z</time>
      </trkpt>
      <trkpt lat="46.75261" lon="-1.67501">
        <ele>14</ele>
        <time>2018-03-26T01:30:03Z</time>
      </trkpt>
      <trkpt lat="46.75265" lon="-1.67509">
        <ele>14</ele>
        <time>2018-03-26T01:31:03Z</time>
      </trkpt>
      <trkpt lat="46.75277" lon="-1.6753">
        <ele>12</ele>
        <time>2018-03-26T01:32:03Z</time>
      </trkpt>
      <trkpt lat="46.7528" lon="-1.67536">
        <ele>12</ele>
        <time>2018-03-26T01:33:03Z</time>
      </trkpt>
      <trkpt lat="46.75288" lon="-1.6755">
        <ele>11</ele>
        <time>2018-03-26T01:34:03Z</time>
      </trkpt>
      <trkpt lat="46.75295" lon="-1.67562">
        <ele>11</ele>
        <time>2018-03-26T01:35:03Z</time>
      </trkpt>
      <trkpt lat="46.75297" lon="-1.67566">
        <ele>11</ele>
        <time>2018-03-26T01:36:03Z</time>
      </trkpt>
      <trkpt lat="46.75302" lon="-1.67575">
        <ele>10</ele>
        <time>2018-03-26T01:37:03Z</time>
      </trkpt>
      <trkpt lat="46.75308" lon="-1.67585">
        <ele>10</ele>
        <time>2018-03-26T01:38:03Z</time>
      </trkpt>
      <trkpt lat="46.7531" lon="-1.67589">
        <ele>10</ele>
        <time>2018-03-26T01:39:03Z</time>
      </trkpt>
      <trkpt lat="46.75326" lon="-1.67619">
        <ele>10</ele>
        <time>2018-03-26T01:40:03Z</time>
      </trkpt>
      <trkpt lat="46.75346" lon="-1.67654">
        <ele>11</ele>
        <time>2018-03-26T01:41:03Z</time>
      </trkpt>
      <trkpt lat="46.75358" lon="-1.67678">
        <ele>13</ele>
        <time>2018-03-26T01:42:03Z</time>
      </trkpt>
      <trkpt lat="46.75364" lon="-1.67692">
        <ele>14</ele>
        <time>2018-03-26T01:43:03Z</time>
      </trkpt>
      <trkpt lat="46.75365" lon="-1.67695">
        <ele>14</ele>
        <time>2018-03-26T01:44:03Z</time>
      </trkpt>
      <trkpt lat="46.75374" lon="-1.67717">
        <ele>16</ele>
        <time>2018-03-26T01:45:03Z</time>
      </trkpt>
      <trkpt lat="46.75384" lon="-1.67745">
        <ele>18</ele>
        <time>2018-03-26T01:46:03Z</time>
      </trkpt>
      <trkpt lat="46.75391" lon="-1.67772">
        <ele>19</ele>
        <time>2018-03-26T01:47:03Z</time>
      </trkpt>
      <trkpt lat="46.75396" lon="-1.67797">
        <ele>21</ele>
        <time>2018-03-26T01:48:03Z</time>
      </trkpt>
      <trkpt lat="46.75398" lon="-1.67808">
        <ele>21</ele>
        <time>2018-03-26T01:49:03Z</time>
      </trkpt>
      <trkpt lat="46.75404" lon="-1.67846">
        <ele>23</ele>
        <time>2018-03-26T01:50:03Z</time>
      </trkpt>
      <trkpt lat="46.75411" lon="-1.67909">
        <ele>26</ele>
        <time>2018-03-26T01:51:03Z</time>
      </trkpt>
      <trkpt lat="46.7542" lon="-1.67975">
        <ele>28</ele>
        <time>2018-03-26T01:52:03Z</time>
      </trkpt>
      <trkpt lat="46.75433" lon="-1.68059">
        <ele>29</ele>
        <time>2018-03-26T01:53:03Z</time>
      </trkpt>
      <trkpt lat="46.75436" lon="-1.68087">
        <ele>30</ele>
        <time>2018-03-26T01:54:03Z</time>
      </trkpt>
      <trkpt lat="46.7544" lon="-1.68116">
        <ele>30</ele>
        <time>2018-03-26T01:55:03Z</time>
      </trkpt>
      <trkpt lat="46.75444" lon="-1.68144">
        <ele>31</ele>
        <time>2018-03-26T01:56:03Z</time>
      </trkpt>
      <trkpt lat="46.7545" lon="-1.68188">
        <ele>33</ele>
        <time>2018-03-26T01:57:03Z</time>
      </trkpt>
      <trkpt lat="46.75459" lon="-1.6825">
        <ele>36</ele>
        <time>2018-03-26T01:58:03Z</time>
      </trkpt>
      <trkpt lat="46.7546" lon="-1.68262">
        <ele>36</ele>
        <time>2018-03-26T01:59:03Z</time>
      </trkpt>
      <trkpt lat="46.75468" lon="-1.68322">
        <ele>37</ele>
        <time>2018-03-26T02:00:03Z</time>
      </trkpt>
      <trkpt lat="46.75476" lon="-1.68381">
        <ele>38</ele>
        <time>2018-03-26T02:01:03Z</time>
      </trkpt>
      <trkpt lat="46.75481" lon="-1.6842">
        <ele>39</ele>
        <time>2018-03-26T02:02:03Z</time>
      </trkpt>
      <trkpt lat="46.75489" lon="-1.68483">
        <ele>41</ele>
        <time>2018-03-26T02:03:03Z</time>
      </trkpt>
      <trkpt lat="46.75496" lon="-1.68539">
        <ele>42</ele>
        <time>2018-03-26T02:04:03Z</time>
      </trkpt>
      <trkpt lat="46.75501" lon="-1.68572">
        <ele>42</ele>
        <time>2018-03-26T02:05:03Z</time>
      </trkpt>
      <trkpt lat="46.75501" lon="-1.68572">
        <ele>42</ele>
        <time>2018-03-26T02:06:03Z</time>
      </trkpt>
      <trkpt lat="46.75518" lon="-1.68575">
        <ele>42</ele>
        <time>2018-03-26T02:07:03Z</time>
      </trkpt>
      <trkpt lat="46.75531" lon="-1.68577">
        <ele>41</ele>
        <time>2018-03-26T02:08:03Z</time>
      </trkpt>
      <trkpt lat="46.75538" lon="-1.68577">
        <ele>41</ele>
        <time>2018-03-26T02:09:03Z</time>
      </trkpt>
      <trkpt lat="46.75542" lon="-1.68576">
        <ele>41</ele>
        <time>2018-03-26T02:10:03Z</time>
      </trkpt>
      <trkpt lat="46.75547" lon="-1.68573">
        <ele>41</ele>
        <time>2018-03-26T02:11:03Z</time>
      </trkpt>
      <trkpt lat="46.75553" lon="-1.68568">
        <ele>41</ele>
        <time>2018-03-26T02:12:03Z</time>
      </trkpt>
      <trkpt lat="46.7556" lon="-1.68561">
        <ele>40</ele>
        <time>2018-03-26T02:13:03Z</time>
      </trkpt>
      <trkpt lat="46.7557" lon="-1.68552">
        <ele>40</ele>
        <time>2018-03-26T02:14:03Z</time>
      </trkpt>
      <trkpt lat="46.7558" lon="-1.68545">
        <ele>40</ele>
        <time>2018-03-26T02:15:03Z</time>
      </trkpt>
      <trkpt lat="46.75585" lon="-1.68541">
        <ele>39</ele>
        <time>2018-03-26T02:16:03Z</time>
      </trkpt>
      <trkpt lat="46.75602" lon="-1.68526">
        <ele>38</ele>
        <time>2018-03-26T02:17:03Z</time>
      </trkpt>
      <trkpt lat="46.75608" lon="-1.68518">
        <ele>38</ele>
        <time>2018-03-26T02:18:03Z</time>
      </trkpt>
      <trkpt lat="46.75615" lon="-1.68506">
        <ele>37</ele>
        <time>2018-03-26T02:19:03Z</time>
      </trkpt>
      <trkpt lat="46.7562" lon="-1.68495">
        <ele>37</ele>
        <time>2018-03-26T02:20:03Z</time>
      </trkpt>
      <trkpt lat="46.75625" lon="-1.68481">
        <ele>36</ele>
        <time>2018-03-26T02:21:03Z</time>
      </trkpt>
      <trkpt lat="46.75634" lon="-1.68458">
        <ele>35</ele>
        <time>2018-03-26T02:22:03Z</time>
      </trkpt>
      <trkpt lat="46.75645" lon="-1.6843">
        <ele>34</ele>
        <time>2018-03-26T02:23:03Z</time>
      </trkpt>
      <trkpt lat="46.75656" lon="-1.68404">
        <ele>33</ele>
        <time>2018-03-26T02:24:03Z</time>
      </trkpt>
      <trkpt lat="46.75664" lon="-1.68389">
        <ele>33</ele>
        <time>2018-03-26T02:25:03Z</time>
      </trkpt>
      <trkpt lat="46.75672" lon="-1.68375">
        <ele>32</ele>
        <time>2018-03-26T02:26:03Z</time>
      </trkpt>
      <trkpt lat="46.75681" lon="-1.68362">
        <ele>32</ele>
        <time>2018-03-26T02:27:03Z</time>
      </trkpt>
      <trkpt lat="46.75691" lon="-1.6835">
        <ele>32</ele>
        <time>2018-03-26T02:28:03Z</time>
      </trkpt>
      <trkpt lat="46.75696" lon="-1.68342">
        <ele>31</ele>
        <time>2018-03-26T02:29:03Z</time>
      </trkpt>
      <trkpt lat="46.75701" lon="-1.68335">
        <ele>31</ele>
        <time>2018-03-26T02:30:03Z</time>
      </trkpt>
      <trkpt lat="46.75714" lon="-1.68321">
        <ele>31</ele>
        <time>2018-03-26T02:31:03Z</time>
      </trkpt>
      <trkpt lat="46.75727" lon="-1.68306">
        <ele>30</ele>
        <time>2018-03-26T02:32:03Z</time>
      </trkpt>
      <trkpt lat="46.75741" lon="-1.68289">
        <ele>29</ele>
        <time>2018-03-26T02:33:03Z</time>
      </trkpt>
      <trkpt lat="46.75759" lon="-1.68268">
        <ele>29</ele>
        <time>2018-03-26T02:34:03Z</time>
      </trkpt>
      <trkpt lat="46.75772" lon="-1.68252">
        <ele>28</ele>
        <time>2018-03-26T02:35:03Z</time>
      </trkpt>
      <trkpt lat="46.75777" lon="-1.68247">
        <ele>28</ele>
        <time>2018-03-26T02:36:03Z</time>
      </trkpt>
      <trkpt lat="46.75799" lon="-1.68221">
        <ele>28</ele>
        <time>2018-03-26T02:37:03Z</time>
      </trkpt>
      <trkpt lat="46.75829" lon="-1.68185">
        <ele>27</ele>
        <time>2018-03-26T02:38:03Z</time>
      </trkpt>
      <trkpt lat="46.75854" lon="-1.68156">
        <ele>27</ele>
        <time>2018-03-26T02:39:03Z</time>
      </trkpt>
      <trkpt lat="46.75872" lon="-1.68133">
        <ele>27</ele>
        <time>2018-03-26T02:40:03Z</time>
      </trkpt>
      <trkpt lat="46.759" lon="-1.681">
        <ele>26</ele>
        <time>2018-03-26T02:41:03Z</time>
      </trkpt>
      <trkpt lat="46.75923" lon="-1.68075">
        <ele>25</ele>
        <time>2018-03-26T02:42:03Z</time>
      </trkpt>
      <trkpt lat="46.75931" lon="-1.68069">
        <ele>25</ele>
        <time>2018-03-26T02:43:03Z</time>
      </trkpt>
      <trkpt lat="46.75945" lon="-1.68062">
        <ele>24</ele>
        <time>2018-03-26T02:44:03Z</time>
      </trkpt>
      <trkpt lat="46.75959" lon="-1.68052">
        <ele>24</ele>
        <time>2018-03-26T02:45:03Z</time>
      </trkpt>
      <trkpt lat="46.75967" lon="-1.68047">
        <ele>24</ele>
        <time>2018-03-26T02:46:03Z</time>
      </trkpt>
      <trkpt lat="46.75983" lon="-1.68035">
        <ele>24</ele>
        <time>2018-03-26T02:47:03Z</time>
      </trkpt>
      <trkpt lat="46.75998" lon="-1.68023">
        <ele>24</ele>
        <time>2018-03-26T02:48:03Z</time>
      </trkpt>
      <trkpt lat="46.76009" lon="-1.68009">
        <ele>24</ele>
        <time>2018-03-26T02:49:03Z</time>
      </trkpt>
      <trkpt lat="46.76024" lon="-1.67986">
        <ele>23</ele>
        <time>2018-03-26T02:50:03Z</time>
      </trkpt>
      <trkpt lat="46.7604" lon="-1.67954">
        <ele>21</ele>
        <time>2018-03-26T02:51:03Z</time>
      </trkpt>
      <trkpt lat="46.76055" lon="-1.67926">
        <ele>19</ele>
        <time>2018-03-26T02:52:03Z</time>
      </trkpt>
      <trkpt lat="46.76069" lon="-1.67896">
        <ele>18</ele>
        <time>2018-03-26T02:53:03Z</time>
      </trkpt>
      <trkpt lat="46.76072" lon="-1.6789">
        <ele>18</ele>
        <time>2018-03-26T02:54:03Z</time>
      </trkpt>
      <trkpt lat="46.76234" lon="-1.67539">
        <ele>15</ele>
        <time>2018-03-26T02:55:03Z</time>
      </trkpt>
      <trkpt lat="46.76246" lon="-1.67516">
        <ele>14</ele>
        <time>2018-03-26T02:56:03Z</time>
      </trkpt>
      <trkpt lat="46.76256" lon="-1.67498">
        <ele>14</ele>
        <time>2018-03-26T02:57:03Z</time>
      </trkpt>
      <trkpt lat="46.76285" lon="-1.67453">
        <ele>13</ele>
        <time>2018-03-26T02:58:03Z</time>
      </trkpt>
      <trkpt lat="46.763" lon="-1.6743">
        <ele>13</ele>
        <time>2018-03-26T02:59:03Z</time>
      </trkpt>
      <trkpt lat="46.76317" lon="-1.67408">
        <ele>13</ele>
        <time>2018-03-26T03:00:03Z</time>
      </trkpt>
      <trkpt lat="46.76329" lon="-1.67392">
        <ele>13</ele>
        <time>2018-03-26T03:01:03Z</time>
      </trkpt>
      <trkpt lat="46.76353" lon="-1.67363">
        <ele>13</ele>
        <time>2018-03-26T03:02:03Z</time>
      </trkpt>
      <trkpt lat="46.76363" lon="-1.67353">
        <ele>13</ele>
        <time>2018-03-26T03:03:03Z</time>
      </trkpt>
      <trkpt lat="46.76391" lon="-1.67324">
        <ele>12</ele>
        <time>2018-03-26T03:04:03Z</time>
      </trkpt>
      <trkpt lat="46.76413" lon="-1.67305">
        <ele>12</ele>
        <time>2018-03-26T03:05:03Z</time>
      </trkpt>
      <trkpt lat="46.76423" lon="-1.67296">
        <ele>12</ele>
        <time>2018-03-26T03:06:03Z</time>
      </trkpt>
      <trkpt lat="46.76434" lon="-1.67288">
        <ele>13</ele>
        <time>2018-03-26T03:07:03Z</time>
      </trkpt>
      <trkpt lat="46.76441" lon="-1.67283">
        <ele>13</ele>
        <time>2018-03-26T03:08:03Z</time>
      </trkpt>
      <trkpt lat="46.76458" lon="-1.67273">
        <ele>13</ele>
        <time>2018-03-26T03:09:03Z</time>
      </trkpt>
      <trkpt lat="46.76481" lon="-1.67259">
        <ele>13</ele>
        <time>2018-03-26T03:10:03Z</time>
      </trkpt>
      <trkpt lat="46.76509" lon="-1.67245">
        <ele>13</ele>
        <time>2018-03-26T03:11:03Z</time>
      </trkpt>
      <trkpt lat="46.76538" lon="-1.67231">
        <ele>13</ele>
        <time>2018-03-26T03:12:03Z</time>
      </trkpt>
      <trkpt lat="46.76544" lon="-1.67228">
        <ele>13</ele>
        <time>2018-03-26T03:13:03Z</time>
      </trkpt>
      <trkpt lat="46.76568" lon="-1.67217">
        <ele>13</ele>
        <time>2018-03-26T03:14:03Z</time>
      </trkpt>
      <trkpt lat="46.76608" lon="-1.672">
        <ele>14</ele>
        <time>2018-03-26T03:15:03Z</time>
      </trkpt>
      <trkpt lat="46.76637" lon="-1.67186">
        <ele>14</ele>
        <time>2018-03-26T03:16:03Z</time>
      </trkpt>
      <trkpt lat="46.76666" lon="-1.67172">
        <ele>15</ele>
        <time>2018-03-26T03:17:03Z</time>
      </trkpt>
      <trkpt lat="46.7671" lon="-1.67153">
        <ele>15</ele>
        <time>2018-03-26T03:18:03Z</time>
      </trkpt>
      <trkpt lat="46.76718" lon="-1.67149">
        <ele>15</ele>
        <time>2018-03-26T03:19:03Z</time>
      </trkpt>
      <trkpt lat="46.76726" lon="-1.67146">
        <ele>15</ele>
        <time>2018-03-26T03:20:03Z</time>
      </trkpt>
      <trkpt lat="46.76729" lon="-1.67144">
        <ele>15</ele>
        <time>2018-03-26T03:21:03Z</time>
      </trkpt>
      <trkpt lat="46.76735" lon="-1.67141">
        <ele>15</ele>
        <time>2018-03-26T03:22:03Z</time>
      </trkpt>
      <trkpt lat="46.76774" lon="-1.67123">
        <ele>17</ele>
        <time>2018-03-26T03:23:03Z</time>
      </trkpt>
      <trkpt lat="46.76804" lon="-1.67108">
        <ele>19</ele>
        <time>2018-03-26T03:24:03Z</time>
      </trkpt>
      <trkpt lat="46.76838" lon="-1.67094">
        <ele>20</ele>
        <time>2018-03-26T03:25:03Z</time>
      </trkpt>
      <trkpt lat="46.76862" lon="-1.67082">
        <ele>22</ele>
        <time>2018-03-26T03:26:03Z</time>
      </trkpt>
      <trkpt lat="46.76893" lon="-1.67068">
        <ele>24</ele>
        <time>2018-03-26T03:27:03Z</time>
      </trkpt>
      <trkpt lat="46.76912" lon="-1.6706">
        <ele>25</ele>
        <time>2018-03-26T03:28:03Z</time>
      </trkpt>
      <trkpt lat="46.76923" lon="-1.67057">
        <ele>25</ele>
        <time>2018-03-26T03:29:03Z</time>
      </trkpt>
      <trkpt lat="46.76931" lon="-1.67057">
        <ele>26</ele>
        <time>2018-03-26T03:30:03Z</time>
      </trkpt>
      <trkpt lat="46.76945" lon="-1.67057">
        <ele>27</ele>
        <time>2018-03-26T03:31:03Z</time>
      </trkpt>
      <trkpt lat="46.76954" lon="-1.67059">
        <ele>27</ele>
        <time>2018-03-26T03:32:03Z</time>
      </trkpt>
      <trkpt lat="46.76969" lon="-1.67064">
        <ele>28</ele>
        <time>2018-03-26T03:33:03Z</time>
      </trkpt>
      <trkpt lat="46.76976" lon="-1.67066">
        <ele>28</ele>
        <time>2018-03-26T03:34:03Z</time>
      </trkpt>
      <trkpt lat="46.76992" lon="-1.67072">
        <ele>29</ele>
        <time>2018-03-26T03:35:03Z</time>
      </trkpt>
      <trkpt lat="46.77039" lon="-1.67089">
        <ele>30</ele>
        <time>2018-03-26T03:36:03Z</time>
      </trkpt>
      <trkpt lat="46.7705" lon="-1.67093">
        <ele>31</ele>
        <time>2018-03-26T03:37:03Z</time>
      </trkpt>
      <trkpt lat="46.77063" lon="-1.67101">
        <ele>31</ele>
        <time>2018-03-26T03:38:03Z</time>
      </trkpt>
      <trkpt lat="46.77074" lon="-1.67105">
        <ele>32</ele>
        <time>2018-03-26T03:39:03Z</time>
      </trkpt>
      <trkpt lat="46.77118" lon="-1.67121">
        <ele>32</ele>
        <time>2018-03-26T03:40:03Z</time>
      </trkpt>
      <trkpt lat="46.77121" lon="-1.67122">
        <ele>32</ele>
        <time>2018-03-26T03:41:03Z</time>
      </trkpt>
      <trkpt lat="46.77132" lon="-1.67123">
        <ele>32</ele>
        <time>2018-03-26T03:42:03Z</time>
      </trkpt>
      <trkpt lat="46.7714" lon="-1.67123">
        <ele>32</ele>
        <time>2018-03-26T03:43:03Z</time>
      </trkpt>
      <trkpt lat="46.77145" lon="-1.67123">
        <ele>32</ele>
        <time>2018-03-26T03:44:03Z</time>
      </trkpt>
      <trkpt lat="46.77154" lon="-1.67121">
        <ele>32</ele>
        <time>2018-03-26T03:45:03Z</time>
      </trkpt>
      <trkpt lat="46.77156" lon="-1.67119">
        <ele>32</ele>
        <time>2018-03-26T03:46:03Z</time>
      </trkpt>
      <trkpt lat="46.77157" lon="-1.67118">
        <ele>33</ele>
        <time>2018-03-26T03:47:03Z</time>
      </trkpt>
      <trkpt lat="46.77159" lon="-1.67116">
        <ele>33</ele>
        <time>2018-03-26T03:48:03Z</time>
      </trkpt>
      <trkpt lat="46.7716" lon="-1.67115">
        <ele>33</ele>
        <time>2018-03-26T03:49:03Z</time>
      </trkpt>
      <trkpt lat="46.77162" lon="-1.67113">
        <ele>33</ele>
        <time>2018-03-26T03:50:03Z</time>
      </trkpt>
      <trkpt lat="46.77164" lon="-1.67112">
        <ele>33</ele>
        <time>2018-03-26T03:51:03Z</time>
      </trkpt>
      <trkpt lat="46.77165" lon="-1.67112">
        <ele>33</ele>
        <time>2018-03-26T03:52:03Z</time>
      </trkpt>
      <trkpt lat="46.77167" lon="-1.67111">
        <ele>33</ele>
        <time>2018-03-26T03:53:03Z</time>
      </trkpt>
      <trkpt lat="46.77169" lon="-1.67111">
        <ele>33</ele>
        <time>2018-03-26T03:54:03Z</time>
      </trkpt>
      <trkpt lat="46.77171" lon="-1.67111">
        <ele>33</ele>
        <time>2018-03-26T03:55:03Z</time>
      </trkpt>
      <trkpt lat="46.77173" lon="-1.67111">
        <ele>32</ele>
        <time>2018-03-26T03:56:03Z</time>
      </trkpt>
      <trkpt lat="46.77175" lon="-1.67112">
        <ele>32</ele>
        <time>2018-03-26T03:57:03Z</time>
      </trkpt>
      <trkpt lat="46.77176" lon="-1.67112">
        <ele>32</ele>
        <time>2018-03-26T03:58:03Z</time>
      </trkpt>
      <trkpt lat="46.77178" lon="-1.67113">
        <ele>32</ele>
        <time>2018-03-26T03:59:03Z</time>
      </trkpt>
      <trkpt lat="46.77181" lon="-1.67116">
        <ele>32</ele>
        <time>2018-03-26T04:00:03Z</time>
      </trkpt>
      <trkpt lat="46.77189" lon="-1.6711">
        <ele>32</ele>
        <time>2018-03-26T04:01:03Z</time>
      </trkpt>
      <trkpt lat="46.77197" lon="-1.67104">
        <ele>32</ele>
        <time>2018-03-26T04:02:03Z</time>
      </trkpt>
      <trkpt lat="46.77205" lon="-1.67102">
        <ele>32</ele>
        <time>2018-03-26T04:03:03Z</time>
      </trkpt>
      <trkpt lat="46.77216" lon="-1.6709">
        <ele>31</ele>
        <time>2018-03-26T04:04:03Z</time>
      </trkpt>
      <trkpt lat="46.77233" lon="-1.67071">
        <ele>30</ele>
        <time>2018-03-26T04:05:03Z</time>
      </trkpt>
      <trkpt lat="46.77236" lon="-1.67067">
        <ele>30</ele>
        <time>2018-03-26T04:06:03Z</time>
      </trkpt>
      <trkpt lat="46.77242" lon="-1.67061">
        <ele>30</ele>
        <time>2018-03-26T04:07:03Z</time>
      </trkpt>
      <trkpt lat="46.77245" lon="-1.67058">
        <ele>30</ele>
        <time>2018-03-26T04:08:03Z</time>
      </trkpt>
      <trkpt lat="46.77251" lon="-1.67051">
        <ele>29</ele>
        <time>2018-03-26T04:09:03Z</time>
      </trkpt>
      <trkpt lat="46.7726" lon="-1.67041">
        <ele>29</ele>
        <time>2018-03-26T04:10:03Z</time>
      </trkpt>
      <trkpt lat="46.7727" lon="-1.6703">
        <ele>29</ele>
        <time>2018-03-26T04:11:03Z</time>
      </trkpt>
      <trkpt lat="46.77279" lon="-1.6702">
        <ele>29</ele>
        <time>2018-03-26T04:12:03Z</time>
      </trkpt>
      <trkpt lat="46.77288" lon="-1.6701">
        <ele>29</ele>
        <time>2018-03-26T04:13:03Z</time>
      </trkpt>
      <trkpt lat="46.77295" lon="-1.67002">
        <ele>29</ele>
        <time>2018-03-26T04:14:03Z</time>
      </trkpt>
      <trkpt lat="46.77297" lon="-1.67">
        <ele>29</ele>
        <time>2018-03-26T04:15:03Z</time>
      </trkpt>
      <trkpt lat="46.77302" lon="-1.66996">
        <ele>28</ele>
        <time>2018-03-26T04:16:03Z</time>
      </trkpt>
      <trkpt lat="46.77322" lon="-1.66972">
        <ele>28</ele>
        <time>2018-03-26T04:17:03Z</time>
      </trkpt>
      <trkpt lat="46.7733" lon="-1.66961">
        <ele>28</ele>
        <time>2018-03-26T04:18:03Z</time>
      </trkpt>
      <trkpt lat="46.77337" lon="-1.6695">
        <ele>27</ele>
        <time>2018-03-26T04:19:03Z</time>
      </trkpt>
      <trkpt lat="46.77343" lon="-1.66939">
        <ele>27</ele>
        <time>2018-03-26T04:20:03Z</time>
      </trkpt>
      <trkpt lat="46.7735" lon="-1.66928">
        <ele>27</ele>
        <time>2018-03-26T04:21:03Z</time>
      </trkpt>
      <trkpt lat="46.77356" lon="-1.66916">
        <ele>27</ele>
        <time>2018-03-26T04:22:03Z</time>
      </trkpt>
      <trkpt lat="46.77362" lon="-1.66904">
        <ele>27</ele>
        <time>2018-03-26T04:23:03Z</time>
      </trkpt>
      <trkpt lat="46.77367" lon="-1.66893">
        <ele>27</ele>
        <time>2018-03-26T04:24:03Z</time>
      </trkpt>
      <trkpt lat="46.77372" lon="-1.66881">
        <ele>27</ele>
        <time>2018-03-26T04:25:03Z</time>
      </trkpt>
      <trkpt lat="46.77376" lon="-1.66869">
        <ele>26</ele>
        <time>2018-03-26T04:26:03Z</time>
      </trkpt>
      <trkpt lat="46.7738" lon="-1.66856">
        <ele>26</ele>
        <time>2018-03-26T04:27:03Z</time>
      </trkpt>
      <trkpt lat="46.77385" lon="-1.66842">
        <ele>26</ele>
        <time>2018-03-26T04:28:03Z</time>
      </trkpt>
      <trkpt lat="46.77389" lon="-1.66827">
        <ele>26</ele>
        <time>2018-03-26T04:29:03Z</time>
      </trkpt>
      <trkpt lat="46.77392" lon="-1.66812">
        <ele>25</ele>
        <time>2018-03-26T04:30:03Z</time>
      </trkpt>
      <trkpt lat="46.77395" lon="-1.66802">
        <ele>25</ele>
        <time>2018-03-26T04:31:03Z</time>
      </trkpt>
      <trkpt lat="46.77397" lon="-1.66794">
        <ele>25</ele>
        <time>2018-03-26T04:32:03Z</time>
      </trkpt>
      <trkpt lat="46.77399" lon="-1.66786">
        <ele>25</ele>
        <time>2018-03-26T04:33:03Z</time>
      </trkpt>
      <trkpt lat="46.77403" lon="-1.6677">
        <ele>24</ele>
        <time>2018-03-26T04:34:03Z</time>
      </trkpt>
      <trkpt lat="46.7741" lon="-1.66746">
        <ele>24</ele>
        <time>2018-03-26T04:35:03Z</time>
      </trkpt>
      <trkpt lat="46.77412" lon="-1.66734">
        <ele>25</ele>
        <time>2018-03-26T04:36:03Z</time>
      </trkpt>
      <trkpt lat="46.77415" lon="-1.66714">
        <ele>25</ele>
        <time>2018-03-26T04:37:03Z</time>
      </trkpt>
      <trkpt lat="46.77418" lon="-1.6668">
        <ele>25</ele>
        <time>2018-03-26T04:38:03Z</time>
      </trkpt>
      <trkpt lat="46.77419" lon="-1.66643">
        <ele>24</ele>
        <time>2018-03-26T04:39:03Z</time>
      </trkpt>
      <trkpt lat="46.77422" lon="-1.66602">
        <ele>23</ele>
        <time>2018-03-26T04:40:03Z</time>
      </trkpt>
      <trkpt lat="46.77422" lon="-1.66598">
        <ele>23</ele>
        <time>2018-03-26T04:41:03Z</time>
      </trkpt>
      <trkpt lat="46.77426" lon="-1.66556">
        <ele>21</ele>
        <time>2018-03-26T04:42:03Z</time>
      </trkpt>
      <trkpt lat="46.77429" lon="-1.66511">
        <ele>20</ele>
        <time>2018-03-26T04:43:03Z</time>
      </trkpt>
      <trkpt lat="46.7743" lon="-1.66493">
        <ele>19</ele>
        <time>2018-03-26T04:44:03Z</time>
      </trkpt>
      <trkpt lat="46.77432" lon="-1.66478">
        <ele>18</ele>
        <time>2018-03-26T04:45:03Z</time>
      </trkpt>
      <trkpt lat="46.77435" lon="-1.66437">
        <ele>16</ele>
        <time>2018-03-26T04:46:03Z</time>
      </trkpt>
      <trkpt lat="46.77439" lon="-1.66385">
        <ele>15</ele>
        <time>2018-03-26T04:47:03Z</time>
      </trkpt>
      <trkpt lat="46.77442" lon="-1.66348">
        <ele>15</ele>
        <time>2018-03-26T04:48:03Z</time>
      </trkpt>
      <trkpt lat="46.77444" lon="-1.6632">
        <ele>15</ele>
        <time>2018-03-26T04:49:03Z</time>
      </trkpt>
      <trkpt lat="46.77444" lon="-1.66317">
        <ele>15</ele>
        <time>2018-03-26T04:50:03Z</time>
      </trkpt>
      <trkpt lat="46.77446" lon="-1.66289">
        <ele>16</ele>
        <time>2018-03-26T04:51:03Z</time>
      </trkpt>
      <trkpt lat="46.77446" lon="-1.66288">
        <ele>16</ele>
        <time>2018-03-26T04:52:03Z</time>
      </trkpt>
      <trkpt lat="46.77446" lon="-1.66283">
        <ele>16</ele>
        <time>2018-03-26T04:53:03Z</time>
      </trkpt>
      <trkpt lat="46.77446" lon="-1.6628">
        <ele>16</ele>
        <time>2018-03-26T04:54:03Z</time>
      </trkpt>
      <trkpt lat="46.77447" lon="-1.66278">
        <ele>16</ele>
        <time>2018-03-26T04:55:03Z</time>
      </trkpt>
      <trkpt lat="46.77448" lon="-1.66253">
        <ele>17</ele>
        <time>2018-03-26T04:56:03Z</time>
      </trkpt>
      <trkpt lat="46.77449" lon="-1.66245">
        <ele>17</ele>
        <time>2018-03-26T04:57:03Z</time>
      </trkpt>
      <trkpt lat="46.7745" lon="-1.66226">
        <ele>17</ele>
        <time>2018-03-26T04:58:03Z</time>
      </trkpt>
      <trkpt lat="46.77452" lon="-1.66207">
        <ele>18</ele>
        <time>2018-03-26T04:59:03Z</time>
      </trkpt>
      <trkpt lat="46.77454" lon="-1.6619">
        <ele>18</ele>
        <time>2018-03-26T05:00:03Z</time>
      </trkpt>
      <trkpt lat="46.77457" lon="-1.66178">
        <ele>18</ele>
        <time>2018-03-26T05:01:03Z</time>
      </trkpt>
      <trkpt lat="46.77459" lon="-1.66172">
        <ele>18</ele>
        <time>2018-03-26T05:02:03Z</time>
      </trkpt>
      <trkpt lat="46.77463" lon="-1.66159">
        <ele>19</ele>
        <time>2018-03-26T05:03:03Z</time>
      </trkpt>
      <trkpt lat="46.77469" lon="-1.66142">
        <ele>19</ele>
        <time>2018-03-26T05:04:03Z</time>
      </trkpt>
      <trkpt lat="46.7748" lon="-1.66124">
        <ele>20</ele>
        <time>2018-03-26T05:05:03Z</time>
      </trkpt>
      <trkpt lat="46.77486" lon="-1.66112">
        <ele>20</ele>
        <time>2018-03-26T05:06:03Z</time>
      </trkpt>
      <trkpt lat="46.77507" lon="-1.66087">
        <ele>21</ele>
        <time>2018-03-26T05:07:03Z</time>
      </trkpt>
      <trkpt lat="46.77532" lon="-1.66056">
        <ele>21</ele>
        <time>2018-03-26T05:08:03Z</time>
      </trkpt>
      <trkpt lat="46.77533" lon="-1.66055">
        <ele>21</ele>
        <time>2018-03-26T05:09:03Z</time>
      </trkpt>
      <trkpt lat="46.77562" lon="-1.66019">
        <ele>21</ele>
        <time>2018-03-26T05:10:03Z</time>
      </trkpt>
      <trkpt lat="46.77563" lon="-1.66018">
        <ele>21</ele>
        <time>2018-03-26T05:11:03Z</time>
      </trkpt>
      <trkpt lat="46.77591" lon="-1.6599">
        <ele>21</ele>
        <time>2018-03-26T05:12:03Z</time>
      </trkpt>
      <trkpt lat="46.77606" lon="-1.65972">
        <ele>22</ele>
        <time>2018-03-26T05:13:03Z</time>
      </trkpt>
      <trkpt lat="46.77616" lon="-1.65958">
        <ele>23</ele>
        <time>2018-03-26T05:14:03Z</time>
      </trkpt>
      <trkpt lat="46.77629" lon="-1.65941">
        <ele>23</ele>
        <time>2018-03-26T05:15:03Z</time>
      </trkpt>
      <trkpt lat="46.77651" lon="-1.6591">
        <ele>24</ele>
        <time>2018-03-26T05:16:03Z</time>
      </trkpt>
      <trkpt lat="46.77676" lon="-1.65869">
        <ele>24</ele>
        <time>2018-03-26T05:17:03Z</time>
      </trkpt>
      <trkpt lat="46.77705" lon="-1.65823">
        <ele>24</ele>
        <time>2018-03-26T05:18:03Z</time>
      </trkpt>
      <trkpt lat="46.77727" lon="-1.65788">
        <ele>24</ele>
        <time>2018-03-26T05:19:03Z</time>
      </trkpt>
      <trkpt lat="46.77755" lon="-1.65746">
        <ele>24</ele>
        <time>2018-03-26T05:20:03Z</time>
      </trkpt>
      <trkpt lat="46.77777" lon="-1.65712">
        <ele>24</ele>
        <time>2018-03-26T05:21:03Z</time>
      </trkpt>
      <trkpt lat="46.77794" lon="-1.65683">
        <ele>24</ele>
        <time>2018-03-26T05:22:03Z</time>
      </trkpt>
      <trkpt lat="46.77808" lon="-1.65661">
        <ele>25</ele>
        <time>2018-03-26T05:23:03Z</time>
      </trkpt>
      <trkpt lat="46.77816" lon="-1.65648">
        <ele>25</ele>
        <time>2018-03-26T05:24:03Z</time>
      </trkpt>
      <trkpt lat="46.77823" lon="-1.65641">
        <ele>25</ele>
        <time>2018-03-26T05:25:03Z</time>
      </trkpt>
      <trkpt lat="46.7783" lon="-1.65632">
        <ele>25</ele>
        <time>2018-03-26T05:26:03Z</time>
      </trkpt>
      <trkpt lat="46.77834" lon="-1.65627">
        <ele>25</ele>
        <time>2018-03-26T05:27:03Z</time>
      </trkpt>
      <trkpt lat="46.77836" lon="-1.65616">
        <ele>26</ele>
        <time>2018-03-26T05:28:03Z</time>
      </trkpt>
      <trkpt lat="46.77837" lon="-1.65612">
        <ele>26</ele>
        <time>2018-03-26T05:29:03Z</time>
      </trkpt>
      <trkpt lat="46.77838" lon="-1.65608">
        <ele>26</ele>
        <time>2018-03-26T05:30:03Z</time>
      </trkpt>
      <trkpt lat="46.7784" lon="-1.65604">
        <ele>26</ele>
        <time>2018-03-26T05:31:03Z</time>
      </trkpt>
      <trkpt lat="46.77863" lon="-1.65543">
        <ele>27</ele>
        <time>2018-03-26T05:32:03Z</time>
      </trkpt>
      <trkpt lat="46.77909" lon="-1.65419">
        <ele>26</ele>
        <time>2018-03-26T05:33:03Z</time>
      </trkpt>
      <trkpt lat="46.77931" lon="-1.6536">
        <ele>26</ele>
        <time>2018-03-26T05:34:03Z</time>
      </trkpt>
      <trkpt lat="46.77945" lon="-1.65323">
        <ele>26</ele>
        <time>2018-03-26T05:35:03Z</time>
      </trkpt>
      <trkpt lat="46.77956" lon="-1.65291">
        <ele>25</ele>
        <time>2018-03-26T05:36:03Z</time>
      </trkpt>
      <trkpt lat="46.7797" lon="-1.6525">
        <ele>25</ele>
        <time>2018-03-26T05:37:03Z</time>
      </trkpt>
      <trkpt lat="46.77985" lon="-1.65207">
        <ele>25</ele>
        <time>2018-03-26T05:38:03Z</time>
      </trkpt>
      <trkpt lat="46.78005" lon="-1.65155">
        <ele>26</ele>
        <time>2018-03-26T05:39:03Z</time>
      </trkpt>
      <trkpt lat="46.7801" lon="-1.65141">
        <ele>26</ele>
        <time>2018-03-26T05:40:03Z</time>
      </trkpt>
      <trkpt lat="46.78014" lon="-1.65132">
        <ele>26</ele>
        <time>2018-03-26T05:41:03Z</time>
      </trkpt>
      <trkpt lat="46.78027" lon="-1.65099">
        <ele>26</ele>
        <time>2018-03-26T05:42:03Z</time>
      </trkpt>
      <trkpt lat="46.78041" lon="-1.65064">
        <ele>26</ele>
        <time>2018-03-26T05:43:03Z</time>
      </trkpt>
      <trkpt lat="46.78054" lon="-1.65035">
        <ele>26</ele>
        <time>2018-03-26T05:44:03Z</time>
      </trkpt>
      <trkpt lat="46.78066" lon="-1.65008">
        <ele>27</ele>
        <time>2018-03-26T05:45:03Z</time>
      </trkpt>
      <trkpt lat="46.78082" lon="-1.64973">
        <ele>27</ele>
        <time>2018-03-26T05:46:03Z</time>
      </trkpt>
      <trkpt lat="46.78102" lon="-1.64927">
        <ele>27</ele>
        <time>2018-03-26T05:47:03Z</time>
      </trkpt>
      <trkpt lat="46.78124" lon="-1.64882">
        <ele>27</ele>
        <time>2018-03-26T05:48:03Z</time>
      </trkpt>
      <trkpt lat="46.7815" lon="-1.64832">
        <ele>26</ele>
        <time>2018-03-26T05:49:03Z</time>
      </trkpt>
      <trkpt lat="46.78175" lon="-1.64781">
        <ele>27</ele>
        <time>2018-03-26T05:50:03Z</time>
      </trkpt>
      <trkpt lat="46.78196" lon="-1.64736">
        <ele>29</ele>
        <time>2018-03-26T05:51:03Z</time>
      </trkpt>
      <trkpt lat="46.78214" lon="-1.64697">
        <ele>30</ele>
        <time>2018-03-26T05:52:03Z</time>
      </trkpt>
      <trkpt lat="46.78239" lon="-1.64643">
        <ele>31</ele>
        <time>2018-03-26T05:53:03Z</time>
      </trkpt>
      <trkpt lat="46.7826" lon="-1.64603">
        <ele>32</ele>
        <time>2018-03-26T05:54:03Z</time>
      </trkpt>
      <trkpt lat="46.7828" lon="-1.64567">
        <ele>31</ele>
        <time>2018-03-26T05:55:03Z</time>
      </trkpt>
      <trkpt lat="46.78291" lon="-1.64545">
        <ele>31</ele>
        <time>2018-03-26T05:56:03Z</time>
      </trkpt>
      <trkpt lat="46.78301" lon="-1.64524">
        <ele>31</ele>
        <time>2018-03-26T05:57:03Z</time>
      </trkpt>
      <trkpt lat="46.78307" lon="-1.64511">
        <ele>31</ele>
        <time>2018-03-26T05:58:03Z</time>
      </trkpt>
      <trkpt lat="46.78313" lon="-1.64498">
        <ele>31</ele>
        <time>2018-03-26T05:59:03Z</time>
      </trkpt>
      <trkpt lat="46.78319" lon="-1.64485">
        <ele>31</ele>
        <time>2018-03-26T06:00:03Z</time>
      </trkpt>
      <trkpt lat="46.78324" lon="-1.64472">
        <ele>31</ele>
        <time>2018-03-26T06:01:03Z</time>
      </trkpt>
      <trkpt lat="46.7833" lon="-1.64458">
        <ele>31</ele>
        <time>2018-03-26T06:02:03Z</time>
      </trkpt>
      <trkpt lat="46.78339" lon="-1.64434">
        <ele>32</ele>
        <time>2018-03-26T06:03:03Z</time>
      </trkpt>
      <trkpt lat="46.7836" lon="-1.64383">
        <ele>32</ele>
        <time>2018-03-26T06:04:03Z</time>
      </trkpt>
      <trkpt lat="46.78375" lon="-1.64346">
        <ele>32</ele>
        <time>2018-03-26T06:05:03Z</time>
      </trkpt>
      <trkpt lat="46.78385" lon="-1.64317">
        <ele>32</ele>
        <time>2018-03-26T06:06:03Z</time>
      </trkpt>
      <trkpt lat="46.78394" lon="-1.64296">
        <ele>32</ele>
        <time>2018-03-26T06:07:03Z</time>
      </trkpt>
      <trkpt lat="46.78402" lon="-1.64276">
        <ele>32</ele>
        <time>2018-03-26T06:08:03Z</time>
      </trkpt>
      <trkpt lat="46.78405" lon="-1.64266">
        <ele>33</ele>
        <time>2018-03-26T06:09:03Z</time>
      </trkpt>
      <trkpt lat="46.78428" lon="-1.64197">
        <ele>32</ele>
        <time>2018-03-26T06:10:03Z</time>
      </trkpt>
      <trkpt lat="46.7845" lon="-1.64128">
        <ele>31</ele>
        <time>2018-03-26T06:11:03Z</time>
      </trkpt>
      <trkpt lat="46.78455" lon="-1.6411">
        <ele>31</ele>
        <time>2018-03-26T06:12:03Z</time>
      </trkpt>
      <trkpt lat="46.78465" lon="-1.64079">
        <ele>30</ele>
        <time>2018-03-26T06:13:03Z</time>
      </trkpt>
      <trkpt lat="46.78484" lon="-1.64019">
        <ele>31</ele>
        <time>2018-03-26T06:14:03Z</time>
      </trkpt>
      <trkpt lat="46.78494" lon="-1.6399">
        <ele>31</ele>
        <time>2018-03-26T06:15:03Z</time>
      </trkpt>
      <trkpt lat="46.78499" lon="-1.63973">
        <ele>31</ele>
        <time>2018-03-26T06:16:03Z</time>
      </trkpt>
      <trkpt lat="46.78503" lon="-1.63962">
        <ele>31</ele>
        <time>2018-03-26T06:17:03Z</time>
      </trkpt>
      <trkpt lat="46.78506" lon="-1.6395">
        <ele>31</ele>
        <time>2018-03-26T06:18:03Z</time>
      </trkpt>
      <trkpt lat="46.78509" lon="-1.63938">
        <ele>31</ele>
        <time>2018-03-26T06:19:03Z</time>
      </trkpt>
      <trkpt lat="46.7851" lon="-1.63928">
        <ele>31</ele>
        <time>2018-03-26T06:20:03Z</time>
      </trkpt>
      <trkpt lat="46.78512" lon="-1.63916">
        <ele>31</ele>
        <time>2018-03-26T06:21:03Z</time>
      </trkpt>
      <trkpt lat="46.78515" lon="-1.63883">
        <ele>31</ele>
        <time>2018-03-26T06:22:03Z</time>
      </trkpt>
      <trkpt lat="46.78517" lon="-1.63863">
        <ele>30</ele>
        <time>2018-03-26T06:23:03Z</time>
      </trkpt>
      <trkpt lat="46.78517" lon="-1.63852">
        <ele>30</ele>
        <time>2018-03-26T06:24:03Z</time>
      </trkpt>
      <trkpt lat="46.78517" lon="-1.63835">
        <ele>30</ele>
        <time>2018-03-26T06:25:03Z</time>
      </trkpt>
      <trkpt lat="46.78517" lon="-1.63822">
        <ele>30</ele>
        <time>2018-03-26T06:26:03Z</time>
      </trkpt>
      <trkpt lat="46.78517" lon="-1.63809">
        <ele>30</ele>
        <time>2018-03-26T06:27:03Z</time>
      </trkpt>
      <trkpt lat="46.78515" lon="-1.63794">
        <ele>30</ele>
        <time>2018-03-26T06:28:03Z</time>
      </trkpt>
      <trkpt lat="46.78513" lon="-1.63778">
        <ele>30</ele>
        <time>2018-03-26T06:29:03Z</time>
      </trkpt>
      <trkpt lat="46.78507" lon="-1.63742">
        <ele>30</ele>
        <time>2018-03-26T06:30:03Z</time>
      </trkpt>
      <trkpt lat="46.78503" lon="-1.63719">
        <ele>30</ele>
        <time>2018-03-26T06:31:03Z</time>
      </trkpt>
      <trkpt lat="46.78503" lon="-1.63718">
        <ele>30</ele>
        <time>2018-03-26T06:32:03Z</time>
      </trkpt>
      <trkpt lat="46.78502" lon="-1.63704">
        <ele>31</ele>
        <time>2018-03-26T06:33:03Z</time>
      </trkpt>
      <trkpt lat="46.78502" lon="-1.63688">
        <ele>31</ele>
        <time>2018-03-26T06:34:03Z</time>
      </trkpt>
      <trkpt lat="46.78502" lon="-1.63675">
        <ele>31</ele>
        <time>2018-03-26T06:35:03Z</time>
      </trkpt>
      <trkpt lat="46.78503" lon="-1.63659">
        <ele>31</ele>
        <time>2018-03-26T06:36:03Z</time>
      </trkpt>
      <trkpt lat="46.78507" lon="-1.63623">
        <ele>32</ele>
        <time>2018-03-26T06:37:03Z</time>
      </trkpt>
      <trkpt lat="46.7851" lon="-1.63597">
        <ele>33</ele>
        <time>2018-03-26T06:38:03Z</time>
      </trkpt>
      <trkpt lat="46.7851" lon="-1.63581">
        <ele>33</ele>
        <time>2018-03-26T06:39:03Z</time>
      </trkpt>
      <trkpt lat="46.78511" lon="-1.6357">
        <ele>33</ele>
        <time>2018-03-26T06:40:03Z</time>
      </trkpt>
      <trkpt lat="46.7851" lon="-1.63558">
        <ele>33</ele>
        <time>2018-03-26T06:41:03Z</time>
      </trkpt>
      <trkpt lat="46.7851" lon="-1.63552">
        <ele>33</ele>
        <time>2018-03-26T06:42:03Z</time>
      </trkpt>
      <trkpt lat="46.78507" lon="-1.63528">
        <ele>33</ele>
        <time>2018-03-26T06:43:03Z</time>
      </trkpt>
      <trkpt lat="46.78504" lon="-1.63511">
        <ele>33</ele>
        <time>2018-03-26T06:44:03Z</time>
      </trkpt>
      <trkpt lat="46.78499" lon="-1.63492">
        <ele>33</ele>
        <time>2018-03-26T06:45:03Z</time>
      </trkpt>
      <trkpt lat="46.78494" lon="-1.63476">
        <ele>33</ele>
        <time>2018-03-26T06:46:03Z</time>
      </trkpt>
      <trkpt lat="46.78483" lon="-1.63441">
        <ele>33</ele>
        <time>2018-03-26T06:47:03Z</time>
      </trkpt>
      <trkpt lat="46.78477" lon="-1.63418">
        <ele>32</ele>
        <time>2018-03-26T06:48:03Z</time>
      </trkpt>
      <trkpt lat="46.78473" lon="-1.63399">
        <ele>32</ele>
        <time>2018-03-26T06:49:03Z</time>
      </trkpt>
      <trkpt lat="46.78469" lon="-1.63374">
        <ele>33</ele>
        <time>2018-03-26T06:50:03Z</time>
      </trkpt>
      <trkpt lat="46.78464" lon="-1.6333">
        <ele>33</ele>
        <time>2018-03-26T06:51:03Z</time>
      </trkpt>
      <trkpt lat="46.78459" lon="-1.63287">
        <ele>33</ele>
        <time>2018-03-26T06:52:03Z</time>
      </trkpt>
      <trkpt lat="46.78458" lon="-1.63252">
        <ele>32</ele>
        <time>2018-03-26T06:53:03Z</time>
      </trkpt>
      <trkpt lat="46.78456" lon="-1.63203">
        <ele>33</ele>
        <time>2018-03-26T06:54:03Z</time>
      </trkpt>
      <trkpt lat="46.78455" lon="-1.63166">
        <ele>33</ele>
        <time>2018-03-26T06:55:03Z</time>
      </trkpt>
      <trkpt lat="46.78455" lon="-1.63106">
        <ele>36</ele>
        <time>2018-03-26T06:56:03Z</time>
      </trkpt>
      <trkpt lat="46.78454" lon="-1.63085">
        <ele>36</ele>
        <time>2018-03-26T06:57:03Z</time>
      </trkpt>
      <trkpt lat="46.78453" lon="-1.63072">
        <ele>37</ele>
        <time>2018-03-26T06:58:03Z</time>
      </trkpt>
      <trkpt lat="46.78452" lon="-1.63066">
        <ele>37</ele>
        <time>2018-03-26T06:59:03Z</time>
      </trkpt>
      <trkpt lat="46.78443" lon="-1.63041">
        <ele>38</ele>
        <time>2018-03-26T07:00:03Z</time>
      </trkpt>
      <trkpt lat="46.78423" lon="-1.62999">
        <ele>40</ele>
        <time>2018-03-26T07:01:03Z</time>
      </trkpt>
      <trkpt lat="46.78391" lon="-1.62932">
        <ele>42</ele>
        <time>2018-03-26T07:02:03Z</time>
      </trkpt>
      <trkpt lat="46.7838" lon="-1.62906">
        <ele>43</ele>
        <time>2018-03-26T07:03:03Z</time>
      </trkpt>
      <trkpt lat="46.78379" lon="-1.62902">
        <ele>43</ele>
        <time>2018-03-26T07:04:03Z</time>
      </trkpt>
      <trkpt lat="46.78372" lon="-1.6288">
        <ele>43</ele>
        <time>2018-03-26T07:05:03Z</time>
      </trkpt>
      <trkpt lat="46.78365" lon="-1.62859">
        <ele>44</ele>
        <time>2018-03-26T07:06:03Z</time>
      </trkpt>
      <trkpt lat="46.7835" lon="-1.62802">
        <ele>46</ele>
        <time>2018-03-26T07:07:03Z</time>
      </trkpt>
      <trkpt lat="46.78344" lon="-1.62776">
        <ele>47</ele>
        <time>2018-03-26T07:08:03Z</time>
      </trkpt>
      <trkpt lat="46.78338" lon="-1.6274">
        <ele>48</ele>
        <time>2018-03-26T07:09:03Z</time>
      </trkpt>
      <trkpt lat="46.78332" lon="-1.62695">
        <ele>49</ele>
        <time>2018-03-26T07:10:03Z</time>
      </trkpt>
      <trkpt lat="46.7833" lon="-1.62675">
        <ele>49</ele>
        <time>2018-03-26T07:11:03Z</time>
      </trkpt>
      <trkpt lat="46.78329" lon="-1.62656">
        <ele>48</ele>
        <time>2018-03-26T07:12:03Z</time>
      </trkpt>
      <trkpt lat="46.78329" lon="-1.6264">
        <ele>47</ele>
        <time>2018-03-26T07:13:03Z</time>
      </trkpt>
      <trkpt lat="46.7833" lon="-1.62593">
        <ele>45</ele>
        <time>2018-03-26T07:14:03Z</time>
      </trkpt>
      <trkpt lat="46.78332" lon="-1.62494">
        <ele>44</ele>
        <time>2018-03-26T07:15:03Z</time>
      </trkpt>
      <trkpt lat="46.78333" lon="-1.62429">
        <ele>45</ele>
        <time>2018-03-26T07:16:03Z</time>
      </trkpt>
      <trkpt lat="46.78333" lon="-1.62415">
        <ele>45</ele>
        <time>2018-03-26T07:17:03Z</time>
      </trkpt>
      <trkpt lat="46.78333" lon="-1.62392">
        <ele>45</ele>
        <time>2018-03-26T07:18:03Z</time>
      </trkpt>
      <trkpt lat="46.78333" lon="-1.62376">
        <ele>45</ele>
        <time>2018-03-26T07:19:03Z</time>
      </trkpt>
      <trkpt lat="46.78334" lon="-1.62363">
        <ele>46</ele>
        <time>2018-03-26T07:20:03Z</time>
      </trkpt>
      <trkpt lat="46.78336" lon="-1.62349">
        <ele>46</ele>
        <time>2018-03-26T07:21:03Z</time>
      </trkpt>
      <trkpt lat="46.78339" lon="-1.62341">
        <ele>46</ele>
        <time>2018-03-26T07:22:03Z</time>
      </trkpt>
      <trkpt lat="46.78345" lon="-1.62326">
        <ele>46</ele>
        <time>2018-03-26T07:23:03Z</time>
      </trkpt>
      <trkpt lat="46.7835" lon="-1.62314">
        <ele>47</ele>
        <time>2018-03-26T07:24:03Z</time>
      </trkpt>
      <trkpt lat="46.78357" lon="-1.62306">
        <ele>47</ele>
        <time>2018-03-26T07:25:03Z</time>
      </trkpt>
      <trkpt lat="46.78367" lon="-1.62297">
        <ele>47</ele>
        <time>2018-03-26T07:26:03Z</time>
      </trkpt>
      <trkpt lat="46.78377" lon="-1.62291">
        <ele>47</ele>
        <time>2018-03-26T07:27:03Z</time>
      </trkpt>
      <trkpt lat="46.78389" lon="-1.62281">
        <ele>48</ele>
        <time>2018-03-26T07:28:03Z</time>
      </trkpt>
      <trkpt lat="46.78389" lon="-1.62281">
        <ele>48</ele>
        <time>2018-03-26T07:29:03Z</time>
      </trkpt>
      <trkpt lat="46.7839" lon="-1.62283">
        <ele>48</ele>
        <time>2018-03-26T07:30:03Z</time>
      </trkpt>
      <trkpt lat="46.78391" lon="-1.62285">
        <ele>48</ele>
        <time>2018-03-26T07:31:03Z</time>
      </trkpt>
      <trkpt lat="46.78392" lon="-1.62285">
        <ele>48</ele>
        <time>2018-03-26T07:32:03Z</time>
      </trkpt>
      <trkpt lat="46.78393" lon="-1.62286">
        <ele>48</ele>
        <time>2018-03-26T07:33:03Z</time>
      </trkpt>
      <trkpt lat="46.78395" lon="-1.62286">
        <ele>48</ele>
        <time>2018-03-26T07:34:03Z</time>
      </trkpt>
      <trkpt lat="46.78401" lon="-1.62287">
        <ele>48</ele>
        <time>2018-03-26T07:35:03Z</time>
      </trkpt>
      <trkpt lat="46.78417" lon="-1.62287">
        <ele>48</ele>
        <time>2018-03-26T07:36:03Z</time>
      </trkpt>
      <trkpt lat="46.78444" lon="-1.62289">
        <ele>49</ele>
        <time>2018-03-26T07:37:03Z</time>
      </trkpt>
      <trkpt lat="46.78477" lon="-1.62293">
        <ele>49</ele>
        <time>2018-03-26T07:38:03Z</time>
      </trkpt>
      <trkpt lat="46.78508" lon="-1.62298">
        <ele>49</ele>
        <time>2018-03-26T07:39:03Z</time>
      </trkpt>
      <trkpt lat="46.78559" lon="-1.62304">
        <ele>47</ele>
        <time>2018-03-26T07:40:03Z</time>
      </trkpt>
      <trkpt lat="46.78614" lon="-1.62311">
        <ele>46</ele>
        <time>2018-03-26T07:41:03Z</time>
      </trkpt>
      <trkpt lat="46.78651" lon="-1.62315">
        <ele>46</ele>
        <time>2018-03-26T07:42:03Z</time>
      </trkpt>
      <trkpt lat="46.7868" lon="-1.62319">
        <ele>45</ele>
        <time>2018-03-26T07:43:03Z</time>
      </trkpt>
      <trkpt lat="46.78694" lon="-1.6232">
        <ele>45</ele>
        <time>2018-03-26T07:44:03Z</time>
      </trkpt>
      <trkpt lat="46.78712" lon="-1.62322">
        <ele>45</ele>
        <time>2018-03-26T07:45:03Z</time>
      </trkpt>
      <trkpt lat="46.78736" lon="-1.62325">
        <ele>45</ele>
        <time>2018-03-26T07:46:03Z</time>
      </trkpt>
      <trkpt lat="46.78793" lon="-1.62333">
        <ele>46</ele>
        <time>2018-03-26T07:47:03Z</time>
      </trkpt>
      <trkpt lat="46.78797" lon="-1.62333">
        <ele>46</ele>
        <time>2018-03-26T07:48:03Z</time>
      </trkpt>
      <trkpt lat="46.78836" lon="-1.62337">
        <ele>46</ele>
        <time>2018-03-26T07:49:03Z</time>
      </trkpt>
      <trkpt lat="46.78854" lon="-1.6234">
        <ele>47</ele>
        <time>2018-03-26T07:50:03Z</time>
      </trkpt>
      <trkpt lat="46.78866" lon="-1.62342">
        <ele>47</ele>
        <time>2018-03-26T07:51:03Z</time>
      </trkpt>
      <trkpt lat="46.78906" lon="-1.62347">
        <ele>48</ele>
        <time>2018-03-26T07:52:03Z</time>
      </trkpt>
      <trkpt lat="46.78932" lon="-1.62351">
        <ele>48</ele>
        <time>2018-03-26T07:53:03Z</time>
      </trkpt>
      <trkpt lat="46.78953" lon="-1.62355">
        <ele>47</ele>
        <time>2018-03-26T07:54:03Z</time>
      </trkpt>
      <trkpt lat="46.78981" lon="-1.62359">
        <ele>47</ele>
        <time>2018-03-26T07:55:03Z</time>
      </trkpt>
      <trkpt lat="46.79099" lon="-1.62372">
        <ele>43</ele>
        <time>2018-03-26T07:56:03Z</time>
      </trkpt>
      <trkpt lat="46.79115" lon="-1.62375">
        <ele>43</ele>
        <time>2018-03-26T07:57:03Z</time>
      </trkpt>
      <trkpt lat="46.79135" lon="-1.62376">
        <ele>42</ele>
        <time>2018-03-26T07:58:03Z</time>
      </trkpt>
      <trkpt lat="46.79161" lon="-1.62381">
        <ele>41</ele>
        <time>2018-03-26T07:59:03Z</time>
      </trkpt>
      <trkpt lat="46.79178" lon="-1.62384">
        <ele>41</ele>
        <time>2018-03-26T08:00:03Z</time>
      </trkpt>
      <trkpt lat="46.79235" lon="-1.62388">
        <ele>41</ele>
        <time>2018-03-26T08:01:03Z</time>
      </trkpt>
      <trkpt lat="46.79252" lon="-1.6239">
        <ele>41</ele>
        <time>2018-03-26T08:02:03Z</time>
      </trkpt>
      <trkpt lat="46.79269" lon="-1.62392">
        <ele>41</ele>
        <time>2018-03-26T08:03:03Z</time>
      </trkpt>
      <trkpt lat="46.79287" lon="-1.62394">
        <ele>40</ele>
        <time>2018-03-26T08:04:03Z</time>
      </trkpt>
      <trkpt lat="46.79338" lon="-1.62401">
        <ele>39</ele>
        <time>2018-03-26T08:05:03Z</time>
      </trkpt>
      <trkpt lat="46.79373" lon="-1.62405">
        <ele>39</ele>
        <time>2018-03-26T08:06:03Z</time>
      </trkpt>
      <trkpt lat="46.79398" lon="-1.62409">
        <ele>38</ele>
        <time>2018-03-26T08:07:03Z</time>
      </trkpt>
      <trkpt lat="46.79427" lon="-1.62413">
        <ele>38</ele>
        <time>2018-03-26T08:08:03Z</time>
      </trkpt>
      <trkpt lat="46.79435" lon="-1.62414">
        <ele>38</ele>
        <time>2018-03-26T08:09:03Z</time>
      </trkpt>
      <trkpt lat="46.79451" lon="-1.62417">
        <ele>38</ele>
        <time>2018-03-26T08:10:03Z</time>
      </trkpt>
      <trkpt lat="46.795" lon="-1.62421">
        <ele>38</ele>
        <time>2018-03-26T08:11:03Z</time>
      </trkpt>
      <trkpt lat="46.79567" lon="-1.6243">
        <ele>38</ele>
        <time>2018-03-26T08:12:03Z</time>
      </trkpt>
      <trkpt lat="46.79621" lon="-1.62437">
        <ele>39</ele>
        <time>2018-03-26T08:13:03Z</time>
      </trkpt>
      <trkpt lat="46.79683" lon="-1.62444">
        <ele>39</ele>
        <time>2018-03-26T08:14:03Z</time>
      </trkpt>
      <trkpt lat="46.79742" lon="-1.62451">
        <ele>38</ele>
        <time>2018-03-26T08:15:03Z</time>
      </trkpt>
      <trkpt lat="46.79792" lon="-1.62458">
        <ele>37</ele>
        <time>2018-03-26T08:16:03Z</time>
      </trkpt>
      <trkpt lat="46.79836" lon="-1.62462">
        <ele>35</ele>
        <time>2018-03-26T08:17:03Z</time>
      </trkpt>
      <trkpt lat="46.79883" lon="-1.62468">
        <ele>33</ele>
        <time>2018-03-26T08:18:03Z</time>
      </trkpt>
      <trkpt lat="46.79908" lon="-1.6247">
        <ele>31</ele>
        <time>2018-03-26T08:19:03Z</time>
      </trkpt>
      <trkpt lat="46.79946" lon="-1.62474">
        <ele>30</ele>
        <time>2018-03-26T08:20:03Z</time>
      </trkpt>
      <trkpt lat="46.79968" lon="-1.62475">
        <ele>29</ele>
        <time>2018-03-26T08:21:03Z</time>
      </trkpt>
      <trkpt lat="46.80009" lon="-1.62468">
        <ele>27</ele>
        <time>2018-03-26T08:22:03Z</time>
      </trkpt>
      <trkpt lat="46.8004" lon="-1.62459">
        <ele>27</ele>
        <time>2018-03-26T08:23:03Z</time>
      </trkpt>
      <trkpt lat="46.80133" lon="-1.6243">
        <ele>26</ele>
        <time>2018-03-26T08:24:03Z</time>
      </trkpt>
      <trkpt lat="46.80166" lon="-1.62418">
        <ele>26</ele>
        <time>2018-03-26T08:25:03Z</time>
      </trkpt>
      <trkpt lat="46.80192" lon="-1.62409">
        <ele>26</ele>
        <time>2018-03-26T08:26:03Z</time>
      </trkpt>
      <trkpt lat="46.802" lon="-1.62407">
        <ele>26</ele>
        <time>2018-03-26T08:27:03Z</time>
      </trkpt>
      <trkpt lat="46.80213" lon="-1.62405">
        <ele>26</ele>
        <time>2018-03-26T08:28:03Z</time>
      </trkpt>
      <trkpt lat="46.80224" lon="-1.62406">
        <ele>26</ele>
        <time>2018-03-26T08:29:03Z</time>
      </trkpt>
      <trkpt lat="46.80231" lon="-1.62409">
        <ele>26</ele>
        <time>2018-03-26T08:30:03Z</time>
      </trkpt>
      <trkpt lat="46.80238" lon="-1.62416">
        <ele>26</ele>
        <time>2018-03-26T08:31:03Z</time>
      </trkpt>
      <trkpt lat="46.80244" lon="-1.62424">
        <ele>26</ele>
        <time>2018-03-26T08:32:03Z</time>
      </trkpt>
      <trkpt lat="46.80251" lon="-1.62432">
        <ele>26</ele>
        <time>2018-03-26T08:33:03Z</time>
      </trkpt>
      <trkpt lat="46.80258" lon="-1.62437">
        <ele>26</ele>
        <time>2018-03-26T08:34:03Z</time>
      </trkpt>
      <trkpt lat="46.80271" lon="-1.62441">
        <ele>26</ele>
        <time>2018-03-26T08:35:03Z</time>
      </trkpt>
      <trkpt lat="46.80289" lon="-1.62444">
        <ele>25</ele>
        <time>2018-03-26T08:36:03Z</time>
      </trkpt>
      <trkpt lat="46.80309" lon="-1.62446">
        <ele>25</ele>
        <time>2018-03-26T08:37:03Z</time>
      </trkpt>
      <trkpt lat="46.80315" lon="-1.62447">
        <ele>25</ele>
        <time>2018-03-26T08:38:03Z</time>
      </trkpt>
      <trkpt lat="46.80315" lon="-1.62447">
        <ele>25</ele>
        <time>2018-03-26T08:39:03Z</time>
      </trkpt>
      <trkpt lat="46.80309" lon="-1.62459">
        <ele>25</ele>
        <time>2018-03-26T08:40:03Z</time>
      </trkpt>
      <trkpt lat="46.80302" lon="-1.62478">
        <ele>26</ele>
        <time>2018-03-26T08:41:03Z</time>
      </trkpt>
      <trkpt lat="46.80298" lon="-1.62491">
        <ele>26</ele>
        <time>2018-03-26T08:42:03Z</time>
      </trkpt>
      <trkpt lat="46.80299" lon="-1.62499">
        <ele>26</ele>
        <time>2018-03-26T08:43:03Z</time>
      </trkpt>
      <trkpt lat="46.80305" lon="-1.62515">
        <ele>26</ele>
        <time>2018-03-26T08:44:03Z</time>
      </trkpt>
      <trkpt lat="46.80316" lon="-1.62543">
        <ele>27</ele>
        <time>2018-03-26T08:45:03Z</time>
      </trkpt>
      <trkpt lat="46.80327" lon="-1.62572">
        <ele>27</ele>
        <time>2018-03-26T08:46:03Z</time>
      </trkpt>
      <trkpt lat="46.80334" lon="-1.62591">
        <ele>27</ele>
        <time>2018-03-26T08:47:03Z</time>
      </trkpt>
      <trkpt lat="46.80348" lon="-1.62637">
        <ele>25</ele>
        <time>2018-03-26T08:48:03Z</time>
      </trkpt>
      <trkpt lat="46.80357" lon="-1.62668">
        <ele>24</ele>
        <time>2018-03-26T08:49:03Z</time>
      </trkpt>
      <trkpt lat="46.80368" lon="-1.62704">
        <ele>24</ele>
        <time>2018-03-26T08:50:03Z</time>
      </trkpt>
      <trkpt lat="46.80372" lon="-1.62718">
        <ele>24</ele>
        <time>2018-03-26T08:51:03Z</time>
      </trkpt>
      <trkpt lat="46.80382" lon="-1.62748">
        <ele>23</ele>
        <time>2018-03-26T08:52:03Z</time>
      </trkpt>
      <trkpt lat="46.80402" lon="-1.62814">
        <ele>23</ele>
        <time>2018-03-26T08:53:03Z</time>
      </trkpt>
      <trkpt lat="46.80417" lon="-1.62861">
        <ele>22</ele>
        <time>2018-03-26T08:54:03Z</time>
      </trkpt>
      <trkpt lat="46.80428" lon="-1.62897">
        <ele>21</ele>
        <time>2018-03-26T08:55:03Z</time>
      </trkpt>
      <trkpt lat="46.80429" lon="-1.62899">
        <ele>21</ele>
        <time>2018-03-26T08:56:03Z</time>
      </trkpt>
      <trkpt lat="46.80435" lon="-1.62917">
        <ele>21</ele>
        <time>2018-03-26T08:57:03Z</time>
      </trkpt>
      <trkpt lat="46.80457" lon="-1.62983">
        <ele>20</ele>
        <time>2018-03-26T08:58:03Z</time>
      </trkpt>
      <trkpt lat="46.80459" lon="-1.62988">
        <ele>20</ele>
        <time>2018-03-26T08:59:03Z</time>
      </trkpt>
      <trkpt lat="46.80461" lon="-1.62994">
        <ele>20</ele>
        <time>2018-03-26T09:00:03Z</time>
      </trkpt>
      <trkpt lat="46.80461" lon="-1.62995">
        <ele>20</ele>
        <time>2018-03-26T09:01:03Z</time>
      </trkpt>
      <trkpt lat="46.80465" lon="-1.63004">
        <ele>20</ele>
        <time>2018-03-26T09:02:03Z</time>
      </trkpt>
      <trkpt lat="46.80466" lon="-1.63007">
        <ele>20</ele>
        <time>2018-03-26T09:03:03Z</time>
      </trkpt>
      <trkpt lat="46.80483" lon="-1.63044">
        <ele>20</ele>
        <time>2018-03-26T09:04:03Z</time>
      </trkpt>
      <trkpt lat="46.80488" lon="-1.63056">
        <ele>20</ele>
        <time>2018-03-26T09:05:03Z</time>
      </trkpt>
      <trkpt lat="46.80496" lon="-1.6307">
        <ele>20</ele>
        <time>2018-03-26T09:06:03Z</time>
      </trkpt>
      <trkpt lat="46.80574" lon="-1.63196">
        <ele>21</ele>
        <time>2018-03-26T09:07:03Z</time>
      </trkpt>
      <trkpt lat="46.80582" lon="-1.63212">
        <ele>21</ele>
        <time>2018-03-26T09:08:03Z</time>
      </trkpt>
      <trkpt lat="46.80594" lon="-1.6324">
        <ele>22</ele>
        <time>2018-03-26T09:09:03Z</time>
      </trkpt>
      <trkpt lat="46.806" lon="-1.63258">
        <ele>22</ele>
        <time>2018-03-26T09:10:03Z</time>
      </trkpt>
      <trkpt lat="46.80602" lon="-1.63272">
        <ele>22</ele>
        <time>2018-03-26T09:11:03Z</time>
      </trkpt>
      <trkpt lat="46.80604" lon="-1.63296">
        <ele>22</ele>
        <time>2018-03-26T09:12:03Z</time>
      </trkpt>
      <trkpt lat="46.80606" lon="-1.63339">
        <ele>23</ele>
        <time>2018-03-26T09:13:03Z</time>
      </trkpt>
      <trkpt lat="46.80609" lon="-1.63397">
        <ele>24</ele>
        <time>2018-03-26T09:14:03Z</time>
      </trkpt>
      <trkpt lat="46.80609" lon="-1.63405">
        <ele>24</ele>
        <time>2018-03-26T09:15:03Z</time>
      </trkpt>
      <trkpt lat="46.80609" lon="-1.63409">
        <ele>24</ele>
        <time>2018-03-26T09:16:03Z</time>
      </trkpt>
      <trkpt lat="46.8061" lon="-1.63423">
        <ele>24</ele>
        <time>2018-03-26T09:17:03Z</time>
      </trkpt>
      <trkpt lat="46.8061" lon="-1.6343">
        <ele>24</ele>
        <time>2018-03-26T09:18:03Z</time>
      </trkpt>
      <trkpt lat="46.80614" lon="-1.63494">
        <ele>26</ele>
        <time>2018-03-26T09:19:03Z</time>
      </trkpt>
      <trkpt lat="46.80614" lon="-1.63494">
        <ele>26</ele>
        <time>2018-03-26T09:20:03Z</time>
      </trkpt>
      <trkpt lat="46.80601" lon="-1.63506">
        <ele>26</ele>
        <time>2018-03-26T09:21:03Z</time>
      </trkpt>
      <trkpt lat="46.8058" lon="-1.63526">
        <ele>26</ele>
        <time>2018-03-26T09:22:03Z</time>
      </trkpt>
      <trkpt lat="46.80561" lon="-1.63547">
        <ele>26</ele>
        <time>2018-03-26T09:23:03Z</time>
      </trkpt>
      <trkpt lat="46.80529" lon="-1.6359">
        <ele>26</ele>
        <time>2018-03-26T09:24:03Z</time>
      </trkpt>
      <trkpt lat="46.80505" lon="-1.63623">
        <ele>26</ele>
        <time>2018-03-26T09:25:03Z</time>
      </trkpt>
      <trkpt lat="46.8047" lon="-1.63668">
        <ele>25</ele>
        <time>2018-03-26T09:26:03Z</time>
      </trkpt>
      <trkpt lat="46.80435" lon="-1.63716">
        <ele>22</ele>
        <time>2018-03-26T09:27:03Z</time>
      </trkpt>
      <trkpt lat="46.80404" lon="-1.6376">
        <ele>20</ele>
        <time>2018-03-26T09:28:03Z</time>
      </trkpt>
      <trkpt lat="46.80385" lon="-1.63791">
        <ele>19</ele>
        <time>2018-03-26T09:29:03Z</time>
      </trkpt>
      <trkpt lat="46.8037" lon="-1.63822">
        <ele>18</ele>
        <time>2018-03-26T09:30:03Z</time>
      </trkpt>
      <trkpt lat="46.80345" lon="-1.6387">
        <ele>18</ele>
        <time>2018-03-26T09:31:03Z</time>
      </trkpt>
      <trkpt lat="46.80316" lon="-1.63927">
        <ele>18</ele>
        <time>2018-03-26T09:32:03Z</time>
      </trkpt>
      <trkpt lat="46.80296" lon="-1.63969">
        <ele>19</ele>
        <time>2018-03-26T09:33:03Z</time>
      </trkpt>
      <trkpt lat="46.80279" lon="-1.64022">
        <ele>20</ele>
        <time>2018-03-26T09:34:03Z</time>
      </trkpt>
      <trkpt lat="46.8026" lon="-1.64092">
        <ele>21</ele>
        <time>2018-03-26T09:35:03Z</time>
      </trkpt>
      <trkpt lat="46.80243" lon="-1.64151">
        <ele>23</ele>
        <time>2018-03-26T09:36:03Z</time>
      </trkpt>
      <trkpt lat="46.80234" lon="-1.64179">
        <ele>24</ele>
        <time>2018-03-26T09:37:03Z</time>
      </trkpt>
      <trkpt lat="46.80225" lon="-1.64204">
        <ele>24</ele>
        <time>2018-03-26T09:38:03Z</time>
      </trkpt>
      <trkpt lat="46.80209" lon="-1.64242">
        <ele>25</ele>
        <time>2018-03-26T09:39:03Z</time>
      </trkpt>
      <trkpt lat="46.80188" lon="-1.64287">
        <ele>24</ele>
        <time>2018-03-26T09:40:03Z</time>
      </trkpt>
      <trkpt lat="46.80164" lon="-1.6434">
        <ele>23</ele>
        <time>2018-03-26T09:41:03Z</time>
      </trkpt>
      <trkpt lat="46.8014" lon="-1.64392">
        <ele>23</ele>
        <time>2018-03-26T09:42:03Z</time>
      </trkpt>
      <trkpt lat="46.80097" lon="-1.64484">
        <ele>24</ele>
        <time>2018-03-26T09:43:03Z</time>
      </trkpt>
      <trkpt lat="46.80086" lon="-1.64508">
        <ele>25</ele>
        <time>2018-03-26T09:44:03Z</time>
      </trkpt>
      <trkpt lat="46.80065" lon="-1.64555">
        <ele>26</ele>
        <time>2018-03-26T09:45:03Z</time>
      </trkpt>
      <trkpt lat="46.80037" lon="-1.64615">
        <ele>28</ele>
        <time>2018-03-26T09:46:03Z</time>
      </trkpt>
      <trkpt lat="46.80012" lon="-1.64669">
        <ele>29</ele>
        <time>2018-03-26T09:47:03Z</time>
      </trkpt>
      <trkpt lat="46.79992" lon="-1.64709">
        <ele>28</ele>
        <time>2018-03-26T09:48:03Z</time>
      </trkpt>
      <trkpt lat="46.79978" lon="-1.64742">
        <ele>27</ele>
        <time>2018-03-26T09:49:03Z</time>
      </trkpt>
      <trkpt lat="46.79949" lon="-1.64804">
        <ele>25</ele>
        <time>2018-03-26T09:50:03Z</time>
      </trkpt>
      <trkpt lat="46.79917" lon="-1.64873">
        <ele>25</ele>
        <time>2018-03-26T09:51:03Z</time>
      </trkpt>
      <trkpt lat="46.79915" lon="-1.64877">
        <ele>25</ele>
        <time>2018-03-26T09:52:03Z</time>
      </trkpt>
      <trkpt lat="46.79899" lon="-1.64912">
        <ele>25</ele>
        <time>2018-03-26T09:53:03Z</time>
      </trkpt>
      <trkpt lat="46.79889" lon="-1.64937">
        <ele>25</ele>
        <time>2018-03-26T09:54:03Z</time>
      </trkpt>
      <trkpt lat="46.79863" lon="-1.64992">
        <ele>23</ele>
        <time>2018-03-26T09:55:03Z</time>
      </trkpt>
      <trkpt lat="46.79844" lon="-1.65033">
        <ele>21</ele>
        <time>2018-03-26T09:56:03Z</time>
      </trkpt>
      <trkpt lat="46.7983" lon="-1.65068">
        <ele>20</ele>
        <time>2018-03-26T09:57:03Z</time>
      </trkpt>
      <trkpt lat="46.7983" lon="-1.6507">
        <ele>20</ele>
        <time>2018-03-26T09:58:03Z</time>
      </trkpt>
      <trkpt lat="46.79822" lon="-1.65101">
        <ele>20</ele>
        <time>2018-03-26T09:59:03Z</time>
      </trkpt>
      <trkpt lat="46.7982" lon="-1.65118">
        <ele>20</ele>
        <time>2018-03-26T10:00:03Z</time>
      </trkpt>
      <trkpt lat="46.7982" lon="-1.65121">
        <ele>20</ele>
        <time>2018-03-26T10:01:03Z</time>
      </trkpt>
      <trkpt lat="46.7982" lon="-1.65124">
        <ele>20</ele>
        <time>2018-03-26T10:02:03Z</time>
      </trkpt>
      <trkpt lat="46.7982" lon="-1.65131">
        <ele>20</ele>
        <time>2018-03-26T10:03:03Z</time>
      </trkpt>
      <trkpt lat="46.7982" lon="-1.65174">
        <ele>21</ele>
        <time>2018-03-26T10:04:03Z</time>
      </trkpt>
      <trkpt lat="46.7982" lon="-1.65217">
        <ele>22</ele>
        <time>2018-03-26T10:05:03Z</time>
      </trkpt>
      <trkpt lat="46.79818" lon="-1.65253">
        <ele>22</ele>
        <time>2018-03-26T10:06:03Z</time>
      </trkpt>
      <trkpt lat="46.79813" lon="-1.65282">
        <ele>23</ele>
        <time>2018-03-26T10:07:03Z</time>
      </trkpt>
      <trkpt lat="46.79807" lon="-1.65313">
        <ele>23</ele>
        <time>2018-03-26T10:08:03Z</time>
      </trkpt>
      <trkpt lat="46.79799" lon="-1.65356">
        <ele>23</ele>
        <time>2018-03-26T10:09:03Z</time>
      </trkpt>
      <trkpt lat="46.79789" lon="-1.65403">
        <ele>22</ele>
        <time>2018-03-26T10:10:03Z</time>
      </trkpt>
      <trkpt lat="46.79784" lon="-1.65446">
        <ele>22</ele>
        <time>2018-03-26T10:11:03Z</time>
      </trkpt>
      <trkpt lat="46.79778" lon="-1.65495">
        <ele>23</ele>
        <time>2018-03-26T10:12:03Z</time>
      </trkpt>
      <trkpt lat="46.79773" lon="-1.65537">
        <ele>23</ele>
        <time>2018-03-26T10:13:03Z</time>
      </trkpt>
      <trkpt lat="46.79767" lon="-1.65599">
        <ele>24</ele>
        <time>2018-03-26T10:14:03Z</time>
      </trkpt>
      <trkpt lat="46.79757" lon="-1.65686">
        <ele>27</ele>
        <time>2018-03-26T10:15:03Z</time>
      </trkpt>
      <trkpt lat="46.79751" lon="-1.65751">
        <ele>30</ele>
        <time>2018-03-26T10:16:03Z</time>
      </trkpt>
      <trkpt lat="46.79743" lon="-1.65821">
        <ele>32</ele>
        <time>2018-03-26T10:17:03Z</time>
      </trkpt>
      <trkpt lat="46.7974" lon="-1.65848">
        <ele>33</ele>
        <time>2018-03-26T10:18:03Z</time>
      </trkpt>
      <trkpt lat="46.7974" lon="-1.65848">
        <ele>33</ele>
        <time>2018-03-26T10:19:03Z</time>
      </trkpt>
      <trkpt lat="46.7974" lon="-1.65853">
        <ele>33</ele>
        <time>2018-03-26T10:20:03Z</time>
      </trkpt>
      <trkpt lat="46.7974" lon="-1.65876">
        <ele>34</ele>
        <time>2018-03-26T10:21:03Z</time>
      </trkpt>
      <trkpt lat="46.79744" lon="-1.65898">
        <ele>34</ele>
        <time>2018-03-26T10:22:03Z</time>
      </trkpt>
      <trkpt lat="46.79755" lon="-1.65937">
        <ele>35</ele>
        <time>2018-03-26T10:23:03Z</time>
      </trkpt>
      <trkpt lat="46.79762" lon="-1.65967">
        <ele>36</ele>
        <time>2018-03-26T10:24:03Z</time>
      </trkpt>
      <trkpt lat="46.79766" lon="-1.65981">
        <ele>36</ele>
        <time>2018-03-26T10:25:03Z</time>
      </trkpt>
      <trkpt lat="46.79775" lon="-1.66016">
        <ele>36</ele>
        <time>2018-03-26T10:26:03Z</time>
      </trkpt>
      <trkpt lat="46.79777" lon="-1.66044">
        <ele>37</ele>
        <time>2018-03-26T10:27:03Z</time>
      </trkpt>
      <trkpt lat="46.79778" lon="-1.66059">
        <ele>37</ele>
        <time>2018-03-26T10:28:03Z</time>
      </trkpt>
      <trkpt lat="46.79778" lon="-1.66072">
        <ele>37</ele>
        <time>2018-03-26T10:29:03Z</time>
      </trkpt>
      <trkpt lat="46.79778" lon="-1.66072">
        <ele>37</ele>
        <time>2018-03-26T10:30:03Z</time>
      </trkpt>
      <trkpt lat="46.79744" lon="-1.66085">
        <ele>37</ele>
        <time>2018-03-26T10:31:03Z</time>
      </trkpt>
      <trkpt lat="46.79735" lon="-1.66093">
        <ele>37</ele>
        <time>2018-03-26T10:32:03Z</time>
      </trkpt>
      <trkpt lat="46.79735" lon="-1.66093">
        <ele>37</ele>
        <time>2018-03-26T10:33:03Z</time>
      </trkpt>
      <trkpt lat="46.79737" lon="-1.66098">
        <ele>37</ele>
        <time>2018-03-26T10:34:03Z</time>
      </trkpt>
      <trkpt lat="46.79737" lon="-1.66102">
        <ele>37</ele>
        <time>2018-03-26T10:35:03Z</time>
      </trkpt>
      <trkpt lat="46.79736" lon="-1.66107">
        <ele>38</ele>
        <time>2018-03-26T10:36:03Z</time>
      </trkpt>
      <trkpt lat="46.79734" lon="-1.6611">
        <ele>38</ele>
        <time>2018-03-26T10:37:03Z</time>
      </trkpt>
      <trkpt lat="46.79731" lon="-1.66113">
        <ele>38</ele>
        <time>2018-03-26T10:38:03Z</time>
      </trkpt>
      <trkpt lat="46.79728" lon="-1.66114">
        <ele>38</ele>
        <time>2018-03-26T10:39:03Z</time>
      </trkpt>
      <trkpt lat="46.79725" lon="-1.66113">
        <ele>38</ele>
        <time>2018-03-26T10:40:03Z</time>
      </trkpt>
      <trkpt lat="46.79722" lon="-1.6611">
        <ele>38</ele>
        <time>2018-03-26T10:41:03Z</time>
      </trkpt>
      <trkpt lat="46.7972" lon="-1.66106">
        <ele>38</ele>
        <time>2018-03-26T10:42:03Z</time>
      </trkpt>
      <trkpt lat="46.7972" lon="-1.66102">
        <ele>37</ele>
        <time>2018-03-26T10:43:03Z</time>
      </trkpt>
      <trkpt lat="46.79709" lon="-1.661">
        <ele>37</ele>
        <time>2018-03-26T10:44:03Z</time>
      </trkpt>
      <trkpt lat="46.79691" lon="-1.66105">
        <ele>38</ele>
        <time>2018-03-26T10:45:03Z</time>
      </trkpt>
      <trkpt lat="46.79641" lon="-1.66124">
        <ele>38</ele>
        <time>2018-03-26T10:46:03Z</time>
      </trkpt>
      <trkpt lat="46.79629" lon="-1.66129">
        <ele>38</ele>
        <time>2018-03-26T10:47:03Z</time>
      </trkpt>
      <trkpt lat="46.79583" lon="-1.66146">
        <ele>38</ele>
        <time>2018-03-26T10:48:03Z</time>
      </trkpt>
      <trkpt lat="46.79558" lon="-1.66154">
        <ele>37</ele>
        <time>2018-03-26T10:49:03Z</time>
      </trkpt>
      <trkpt lat="46.79527" lon="-1.66165">
        <ele>37</ele>
        <time>2018-03-26T10:50:03Z</time>
      </trkpt>
      <trkpt lat="46.79498" lon="-1.66174">
        <ele>37</ele>
        <time>2018-03-26T10:51:03Z</time>
      </trkpt>
      <trkpt lat="46.79465" lon="-1.66179">
        <ele>38</ele>
        <time>2018-03-26T10:52:03Z</time>
      </trkpt>
      <trkpt lat="46.79437" lon="-1.66182">
        <ele>38</ele>
        <time>2018-03-26T10:53:03Z</time>
      </trkpt>
      <trkpt lat="46.79397" lon="-1.66187">
        <ele>38</ele>
        <time>2018-03-26T10:54:03Z</time>
      </trkpt>
      <trkpt lat="46.79351" lon="-1.66193">
        <ele>39</ele>
        <time>2018-03-26T10:55:03Z</time>
      </trkpt>
      <trkpt lat="46.79345" lon="-1.66194">
        <ele>39</ele>
        <time>2018-03-26T10:56:03Z</time>
      </trkpt>
      <trkpt lat="46.79331" lon="-1.66198">
        <ele>39</ele>
        <time>2018-03-26T10:57:03Z</time>
      </trkpt>
      <trkpt lat="46.79305" lon="-1.66207">
        <ele>39</ele>
        <time>2018-03-26T10:58:03Z</time>
      </trkpt>
      <trkpt lat="46.79277" lon="-1.66219">
        <ele>40</ele>
        <time>2018-03-26T10:59:03Z</time>
      </trkpt>
      <trkpt lat="46.79255" lon="-1.66229">
        <ele>40</ele>
        <time>2018-03-26T11:00:03Z</time>
      </trkpt>
      <trkpt lat="46.7923" lon="-1.66241">
        <ele>39</ele>
        <time>2018-03-26T11:01:03Z</time>
      </trkpt>
      <trkpt lat="46.79212" lon="-1.6625">
        <ele>39</ele>
        <time>2018-03-26T11:02:03Z</time>
      </trkpt>
      <trkpt lat="46.79192" lon="-1.6626">
        <ele>39</ele>
        <time>2018-03-26T11:03:03Z</time>
      </trkpt>
      <trkpt lat="46.79158" lon="-1.66282">
        <ele>38</ele>
        <time>2018-03-26T11:04:03Z</time>
      </trkpt>
      <trkpt lat="46.79136" lon="-1.66296">
        <ele>38</ele>
        <time>2018-03-26T11:05:03Z</time>
      </trkpt>
      <trkpt lat="46.79121" lon="-1.66307">
        <ele>37</ele>
        <time>2018-03-26T11:06:03Z</time>
      </trkpt>
      <trkpt lat="46.79111" lon="-1.66315">
        <ele>37</ele>
        <time>2018-03-26T11:07:03Z</time>
      </trkpt>
      <trkpt lat="46.791" lon="-1.66321">
        <ele>37</ele>
        <time>2018-03-26T11:08:03Z</time>
      </trkpt>
      <trkpt lat="46.79092" lon="-1.66326">
        <ele>37</ele>
        <time>2018-03-26T11:09:03Z</time>
      </trkpt>
      <trkpt lat="46.79088" lon="-1.66327">
        <ele>37</ele>
        <time>2018-03-26T11:10:03Z</time>
      </trkpt>
      <trkpt lat="46.79083" lon="-1.66329">
        <ele>37</ele>
        <time>2018-03-26T11:11:03Z</time>
      </trkpt>
      <trkpt lat="46.79077" lon="-1.66331">
        <ele>37</ele>
        <time>2018-03-26T11:12:03Z</time>
      </trkpt>
      <trkpt lat="46.79069" lon="-1.66333">
        <ele>37</ele>
        <time>2018-03-26T11:13:03Z</time>
      </trkpt>
      <trkpt lat="46.79065" lon="-1.66333">
        <ele>37</ele>
        <time>2018-03-26T11:14:03Z</time>
      </trkpt>
      <trkpt lat="46.79058" lon="-1.66333">
        <ele>37</ele>
        <time>2018-03-26T11:15:03Z</time>
      </trkpt>
      <trkpt lat="46.7905" lon="-1.66332">
        <ele>37</ele>
        <time>2018-03-26T11:16:03Z</time>
      </trkpt>
      <trkpt lat="46.7904" lon="-1.6633">
        <ele>36</ele>
        <time>2018-03-26T11:17:03Z</time>
      </trkpt>
      <trkpt lat="46.79034" lon="-1.66328">
        <ele>36</ele>
        <time>2018-03-26T11:18:03Z</time>
      </trkpt>
      <trkpt lat="46.79023" lon="-1.66323">
        <ele>36</ele>
        <time>2018-03-26T11:19:03Z</time>
      </trkpt>
      <trkpt lat="46.79007" lon="-1.66314">
        <ele>36</ele>
        <time>2018-03-26T11:20:03Z</time>
      </trkpt>
      <trkpt lat="46.78997" lon="-1.66308">
        <ele>35</ele>
        <time>2018-03-26T11:21:03Z</time>
      </trkpt>
      <trkpt lat="46.78985" lon="-1.66298">
        <ele>35</ele>
        <time>2018-03-26T11:22:03Z</time>
      </trkpt>
      <trkpt lat="46.78969" lon="-1.66284">
        <ele>35</ele>
        <time>2018-03-26T11:23:03Z</time>
      </trkpt>
      <trkpt lat="46.78963" lon="-1.66279">
        <ele>34</ele>
        <time>2018-03-26T11:24:03Z</time>
      </trkpt>
      <trkpt lat="46.78961" lon="-1.66277">
        <ele>34</ele>
        <time>2018-03-26T11:25:03Z</time>
      </trkpt>
      <trkpt lat="46.78954" lon="-1.6627">
        <ele>34</ele>
        <time>2018-03-26T11:26:03Z</time>
      </trkpt>
      <trkpt lat="46.78951" lon="-1.66268">
        <ele>34</ele>
        <time>2018-03-26T11:27:03Z</time>
      </trkpt>
      <trkpt lat="46.78947" lon="-1.66265">
        <ele>34</ele>
        <time>2018-03-26T11:28:03Z</time>
      </trkpt>
      <trkpt lat="46.78933" lon="-1.66255">
        <ele>34</ele>
        <time>2018-03-26T11:29:03Z</time>
      </trkpt>
      <trkpt lat="46.78924" lon="-1.6625">
        <ele>34</ele>
        <time>2018-03-26T11:30:03Z</time>
      </trkpt>
      <trkpt lat="46.789" lon="-1.66235">
        <ele>34</ele>
        <time>2018-03-26T11:31:03Z</time>
      </trkpt>
      <trkpt lat="46.78884" lon="-1.66226">
        <ele>34</ele>
        <time>2018-03-26T11:32:03Z</time>
      </trkpt>
      <trkpt lat="46.78883" lon="-1.66226">
        <ele>34</ele>
        <time>2018-03-26T11:33:03Z</time>
      </trkpt>
      <trkpt lat="46.78866" lon="-1.66216">
        <ele>34</ele>
        <time>2018-03-26T11:34:03Z</time>
      </trkpt>
      <trkpt lat="46.78853" lon="-1.66208">
        <ele>35</ele>
        <time>2018-03-26T11:35:03Z</time>
      </trkpt>
      <trkpt lat="46.78821" lon="-1.66189">
        <ele>35</ele>
        <time>2018-03-26T11:36:03Z</time>
      </trkpt>
      <trkpt lat="46.78792" lon="-1.66172">
        <ele>35</ele>
        <time>2018-03-26T11:37:03Z</time>
      </trkpt>
      <trkpt lat="46.78768" lon="-1.66158">
        <ele>36</ele>
        <time>2018-03-26T11:38:03Z</time>
      </trkpt>
      <trkpt lat="46.78755" lon="-1.66151">
        <ele>37</ele>
        <time>2018-03-26T11:39:03Z</time>
      </trkpt>
      <trkpt lat="46.78742" lon="-1.66144">
        <ele>37</ele>
        <time>2018-03-26T11:40:03Z</time>
      </trkpt>
      <trkpt lat="46.78725" lon="-1.66136">
        <ele>36</ele>
        <time>2018-03-26T11:41:03Z</time>
      </trkpt>
      <trkpt lat="46.78711" lon="-1.66131">
        <ele>36</ele>
        <time>2018-03-26T11:42:03Z</time>
      </trkpt>
      <trkpt lat="46.78706" lon="-1.6613">
        <ele>35</ele>
        <time>2018-03-26T11:43:03Z</time>
      </trkpt>
      <trkpt lat="46.78698" lon="-1.66129">
        <ele>35</ele>
        <time>2018-03-26T11:44:03Z</time>
      </trkpt>
      <trkpt lat="46.78691" lon="-1.66129">
        <ele>35</ele>
        <time>2018-03-26T11:45:03Z</time>
      </trkpt>
      <trkpt lat="46.78683" lon="-1.66131">
        <ele>35</ele>
        <time>2018-03-26T11:46:03Z</time>
      </trkpt>
      <trkpt lat="46.78679" lon="-1.66132">
        <ele>35</ele>
        <time>2018-03-26T11:47:03Z</time>
      </trkpt>
      <trkpt lat="46.78674" lon="-1.66134">
        <ele>34</ele>
        <time>2018-03-26T11:48:03Z</time>
      </trkpt>
      <trkpt lat="46.78668" lon="-1.66136">
        <ele>34</ele>
        <time>2018-03-26T11:49:03Z</time>
      </trkpt>
      <trkpt lat="46.78663" lon="-1.66139">
        <ele>34</ele>
        <time>2018-03-26T11:50:03Z</time>
      </trkpt>
      <trkpt lat="46.78654" lon="-1.66145">
        <ele>33</ele>
        <time>2018-03-26T11:51:03Z</time>
      </trkpt>
      <trkpt lat="46.78636" lon="-1.6616">
        <ele>32</ele>
        <time>2018-03-26T11:52:03Z</time>
      </trkpt>
      <trkpt lat="46.78617" lon="-1.66178">
        <ele>31</ele>
        <time>2018-03-26T11:53:03Z</time>
      </trkpt>
      <trkpt lat="46.78598" lon="-1.66197">
        <ele>30</ele>
        <time>2018-03-26T11:54:03Z</time>
      </trkpt>
      <trkpt lat="46.78584" lon="-1.66209">
        <ele>30</ele>
        <time>2018-03-26T11:55:03Z</time>
      </trkpt>
      <trkpt lat="46.7858" lon="-1.66214">
        <ele>30</ele>
        <time>2018-03-26T11:56:03Z</time>
      </trkpt>
      <trkpt lat="46.78573" lon="-1.66223">
        <ele>30</ele>
        <time>2018-03-26T11:57:03Z</time>
      </trkpt>
      <trkpt lat="46.78552" lon="-1.66251">
        <ele>29</ele>
        <time>2018-03-26T11:58:03Z</time>
      </trkpt>
      <trkpt lat="46.78531" lon="-1.6628">
        <ele>27</ele>
        <time>2018-03-26T11:59:03Z</time>
      </trkpt>
      <trkpt lat="46.7851" lon="-1.66308">
        <ele>24</ele>
        <time>2018-03-26T12:00:03Z</time>
      </trkpt>
      <trkpt lat="46.78494" lon="-1.66329">
        <ele>23</ele>
        <time>2018-03-26T12:01:03Z</time>
      </trkpt>
      <trkpt lat="46.78487" lon="-1.66336">
        <ele>22</ele>
        <time>2018-03-26T12:02:03Z</time>
      </trkpt>
      <trkpt lat="46.78478" lon="-1.66343">
        <ele>22</ele>
        <time>2018-03-26T12:03:03Z</time>
      </trkpt>
      <trkpt lat="46.78468" lon="-1.6635">
        <ele>22</ele>
        <time>2018-03-26T12:04:03Z</time>
      </trkpt>
      <trkpt lat="46.78458" lon="-1.66355">
        <ele>21</ele>
        <time>2018-03-26T12:05:03Z</time>
      </trkpt>
      <trkpt lat="46.78448" lon="-1.66359">
        <ele>21</ele>
        <time>2018-03-26T12:06:03Z</time>
      </trkpt>
      <trkpt lat="46.78447" lon="-1.66359">
        <ele>21</ele>
        <time>2018-03-26T12:07:03Z</time>
      </trkpt>
      <trkpt lat="46.78445" lon="-1.66359">
        <ele>21</ele>
        <time>2018-03-26T12:08:03Z</time>
      </trkpt>
      <trkpt lat="46.78439" lon="-1.6636">
        <ele>21</ele>
        <time>2018-03-26T12:09:03Z</time>
      </trkpt>
      <trkpt lat="46.78432" lon="-1.66361">
        <ele>20</ele>
        <time>2018-03-26T12:10:03Z</time>
      </trkpt>
      <trkpt lat="46.78428" lon="-1.66361">
        <ele>20</ele>
        <time>2018-03-26T12:11:03Z</time>
      </trkpt>
      <trkpt lat="46.78425" lon="-1.66361">
        <ele>20</ele>
        <time>2018-03-26T12:12:03Z</time>
      </trkpt>
      <trkpt lat="46.78417" lon="-1.66361">
        <ele>20</ele>
        <time>2018-03-26T12:13:03Z</time>
      </trkpt>
      <trkpt lat="46.78391" lon="-1.66358">
        <ele>20</ele>
        <time>2018-03-26T12:14:03Z</time>
      </trkpt>
      <trkpt lat="46.7836" lon="-1.66355">
        <ele>20</ele>
        <time>2018-03-26T12:15:03Z</time>
      </trkpt>
      <trkpt lat="46.78326" lon="-1.66351">
        <ele>20</ele>
        <time>2018-03-26T12:16:03Z</time>
      </trkpt>
      <trkpt lat="46.783" lon="-1.66349">
        <ele>21</ele>
        <time>2018-03-26T12:17:03Z</time>
      </trkpt>
      <trkpt lat="46.78292" lon="-1.66348">
        <ele>21</ele>
        <time>2018-03-26T12:18:03Z</time>
      </trkpt>
      <trkpt lat="46.78286" lon="-1.66348">
        <ele>21</ele>
        <time>2018-03-26T12:19:03Z</time>
      </trkpt>
      <trkpt lat="46.78278" lon="-1.66349">
        <ele>21</ele>
        <time>2018-03-26T12:20:03Z</time>
      </trkpt>
      <trkpt lat="46.78263" lon="-1.66351">
        <ele>22</ele>
        <time>2018-03-26T12:21:03Z</time>
      </trkpt>
      <trkpt lat="46.78247" lon="-1.66355">
        <ele>22</ele>
        <time>2018-03-26T12:22:03Z</time>
      </trkpt>
      <trkpt lat="46.78233" lon="-1.6636">
        <ele>22</ele>
        <time>2018-03-26T12:23:03Z</time>
      </trkpt>
      <trkpt lat="46.78223" lon="-1.66365">
        <ele>23</ele>
        <time>2018-03-26T12:24:03Z</time>
      </trkpt>
      <trkpt lat="46.78215" lon="-1.66368">
        <ele>23</ele>
        <time>2018-03-26T12:25:03Z</time>
      </trkpt>
      <trkpt lat="46.78209" lon="-1.66371">
        <ele>23</ele>
        <time>2018-03-26T12:26:03Z</time>
      </trkpt>
      <trkpt lat="46.78199" lon="-1.66377">
        <ele>23</ele>
        <time>2018-03-26T12:27:03Z</time>
      </trkpt>
      <trkpt lat="46.78176" lon="-1.66392">
        <ele>24</ele>
        <time>2018-03-26T12:28:03Z</time>
      </trkpt>
      <trkpt lat="46.78162" lon="-1.66402">
        <ele>24</ele>
        <time>2018-03-26T12:29:03Z</time>
      </trkpt>
      <trkpt lat="46.78152" lon="-1.66411">
        <ele>24</ele>
        <time>2018-03-26T12:30:03Z</time>
      </trkpt>
      <trkpt lat="46.78144" lon="-1.66417">
        <ele>24</ele>
        <time>2018-03-26T12:31:03Z</time>
      </trkpt>
      <trkpt lat="46.78141" lon="-1.6642">
        <ele>24</ele>
        <time>2018-03-26T12:32:03Z</time>
      </trkpt>
      <trkpt lat="46.78134" lon="-1.66426">
        <ele>24</ele>
        <time>2018-03-26T12:33:03Z</time>
      </trkpt>
      <trkpt lat="46.78123" lon="-1.66435">
        <ele>23</ele>
        <time>2018-03-26T12:34:03Z</time>
      </trkpt>
      <trkpt lat="46.78088" lon="-1.66465">
        <ele>22</ele>
        <time>2018-03-26T12:35:03Z</time>
      </trkpt>
      <trkpt lat="46.78078" lon="-1.66473">
        <ele>22</ele>
        <time>2018-03-26T12:36:03Z</time>
      </trkpt>
      <trkpt lat="46.78065" lon="-1.66484">
        <ele>22</ele>
        <time>2018-03-26T12:37:03Z</time>
      </trkpt>
      <trkpt lat="46.78054" lon="-1.66494">
        <ele>21</ele>
        <time>2018-03-26T12:38:03Z</time>
      </trkpt>
      <trkpt lat="46.78039" lon="-1.66507">
        <ele>21</ele>
        <time>2018-03-26T12:39:03Z</time>
      </trkpt>
      <trkpt lat="46.78025" lon="-1.66519">
        <ele>20</ele>
        <time>2018-03-26T12:40:03Z</time>
      </trkpt>
      <trkpt lat="46.78014" lon="-1.66527">
        <ele>20</ele>
        <time>2018-03-26T12:41:03Z</time>
      </trkpt>
      <trkpt lat="46.78007" lon="-1.66533">
        <ele>20</ele>
        <time>2018-03-26T12:42:03Z</time>
      </trkpt>
      <trkpt lat="46.78" lon="-1.66537">
        <ele>19</ele>
        <time>2018-03-26T12:43:03Z</time>
      </trkpt>
      <trkpt lat="46.77992" lon="-1.66541">
        <ele>19</ele>
        <time>2018-03-26T12:44:03Z</time>
      </trkpt>
      <trkpt lat="46.77986" lon="-1.66544">
        <ele>19</ele>
        <time>2018-03-26T12:45:03Z</time>
      </trkpt>
      <trkpt lat="46.77981" lon="-1.66545">
        <ele>19</ele>
        <time>2018-03-26T12:46:03Z</time>
      </trkpt>
      <trkpt lat="46.77976" lon="-1.66547">
        <ele>19</ele>
        <time>2018-03-26T12:47:03Z</time>
      </trkpt>
      <trkpt lat="46.77967" lon="-1.66549">
        <ele>18</ele>
        <time>2018-03-26T12:48:03Z</time>
      </trkpt>
      <trkpt lat="46.77952" lon="-1.66552">
        <ele>18</ele>
        <time>2018-03-26T12:49:03Z</time>
      </trkpt>
      <trkpt lat="46.77923" lon="-1.66557">
        <ele>17</ele>
        <time>2018-03-26T12:50:03Z</time>
      </trkpt>
      <trkpt lat="46.77904" lon="-1.66562">
        <ele>16</ele>
        <time>2018-03-26T12:51:03Z</time>
      </trkpt>
      <trkpt lat="46.77883" lon="-1.66568">
        <ele>16</ele>
        <time>2018-03-26T12:52:03Z</time>
      </trkpt>
      <trkpt lat="46.77865" lon="-1.66574">
        <ele>16</ele>
        <time>2018-03-26T12:53:03Z</time>
      </trkpt>
      <trkpt lat="46.77855" lon="-1.66578">
        <ele>15</ele>
        <time>2018-03-26T12:54:03Z</time>
      </trkpt>
      <trkpt lat="46.77836" lon="-1.66588">
        <ele>15</ele>
        <time>2018-03-26T12:55:03Z</time>
      </trkpt>
      <trkpt lat="46.77818" lon="-1.66598">
        <ele>15</ele>
        <time>2018-03-26T12:56:03Z</time>
      </trkpt>
      <trkpt lat="46.77798" lon="-1.6661">
        <ele>15</ele>
        <time>2018-03-26T12:57:03Z</time>
      </trkpt>
      <trkpt lat="46.77779" lon="-1.66623">
        <ele>15</ele>
        <time>2018-03-26T12:58:03Z</time>
      </trkpt>
      <trkpt lat="46.77766" lon="-1.66632">
        <ele>15</ele>
        <time>2018-03-26T12:59:03Z</time>
      </trkpt>
      <trkpt lat="46.77749" lon="-1.66645">
        <ele>15</ele>
        <time>2018-03-26T13:00:03Z</time>
      </trkpt>
      <trkpt lat="46.7773" lon="-1.66661">
        <ele>16</ele>
        <time>2018-03-26T13:01:03Z</time>
      </trkpt>
      <trkpt lat="46.77714" lon="-1.66676">
        <ele>17</ele>
        <time>2018-03-26T13:02:03Z</time>
      </trkpt>
      <trkpt lat="46.77697" lon="-1.66689">
        <ele>18</ele>
        <time>2018-03-26T13:03:03Z</time>
      </trkpt>
      <trkpt lat="46.77683" lon="-1.66698">
        <ele>18</ele>
        <time>2018-03-26T13:04:03Z</time>
      </trkpt>
      <trkpt lat="46.77678" lon="-1.66701">
        <ele>18</ele>
        <time>2018-03-26T13:05:03Z</time>
      </trkpt>
      <trkpt lat="46.7767" lon="-1.66705">
        <ele>19</ele>
        <time>2018-03-26T13:06:03Z</time>
      </trkpt>
      <trkpt lat="46.77657" lon="-1.66709">
        <ele>20</ele>
        <time>2018-03-26T13:07:03Z</time>
      </trkpt>
      <trkpt lat="46.77646" lon="-1.66711">
        <ele>21</ele>
        <time>2018-03-26T13:08:03Z</time>
      </trkpt>
      <trkpt lat="46.77636" lon="-1.66712">
        <ele>22</ele>
        <time>2018-03-26T13:09:03Z</time>
      </trkpt>
      <trkpt lat="46.77622" lon="-1.66712">
        <ele>24</ele>
        <time>2018-03-26T13:10:03Z</time>
      </trkpt>
      <trkpt lat="46.77608" lon="-1.66711">
        <ele>25</ele>
        <time>2018-03-26T13:11:03Z</time>
      </trkpt>
      <trkpt lat="46.77586" lon="-1.66709">
        <ele>27</ele>
        <time>2018-03-26T13:12:03Z</time>
      </trkpt>
      <trkpt lat="46.77566" lon="-1.66708">
        <ele>28</ele>
        <time>2018-03-26T13:13:03Z</time>
      </trkpt>
      <trkpt lat="46.77551" lon="-1.6671">
        <ele>28</ele>
        <time>2018-03-26T13:14:03Z</time>
      </trkpt>
      <trkpt lat="46.77536" lon="-1.66713">
        <ele>28</ele>
        <time>2018-03-26T13:15:03Z</time>
      </trkpt>
      <trkpt lat="46.77527" lon="-1.66716">
        <ele>28</ele>
        <time>2018-03-26T13:16:03Z</time>
      </trkpt>
      <trkpt lat="46.77518" lon="-1.66719">
        <ele>28</ele>
        <time>2018-03-26T13:17:03Z</time>
      </trkpt>
      <trkpt lat="46.77513" lon="-1.66722">
        <ele>28</ele>
        <time>2018-03-26T13:18:03Z</time>
      </trkpt>
      <trkpt lat="46.77507" lon="-1.66725">
        <ele>28</ele>
        <time>2018-03-26T13:19:03Z</time>
      </trkpt>
      <trkpt lat="46.77503" lon="-1.66728">
        <ele>28</ele>
        <time>2018-03-26T13:20:03Z</time>
      </trkpt>
      <trkpt lat="46.77498" lon="-1.66731">
        <ele>28</ele>
        <time>2018-03-26T13:21:03Z</time>
      </trkpt>
      <trkpt lat="46.77492" lon="-1.66735">
        <ele>28</ele>
        <time>2018-03-26T13:22:03Z</time>
      </trkpt>
      <trkpt lat="46.77485" lon="-1.6674">
        <ele>28</ele>
        <time>2018-03-26T13:23:03Z</time>
      </trkpt>
      <trkpt lat="46.77475" lon="-1.66749">
        <ele>28</ele>
        <time>2018-03-26T13:24:03Z</time>
      </trkpt>
      <trkpt lat="46.77465" lon="-1.66758">
        <ele>27</ele>
        <time>2018-03-26T13:25:03Z</time>
      </trkpt>
      <trkpt lat="46.77446" lon="-1.66774">
        <ele>27</ele>
        <time>2018-03-26T13:26:03Z</time>
      </trkpt>
      <trkpt lat="46.77441" lon="-1.66778">
        <ele>27</ele>
        <time>2018-03-26T13:27:03Z</time>
      </trkpt>
      <trkpt lat="46.77428" lon="-1.66788">
        <ele>26</ele>
        <time>2018-03-26T13:28:03Z</time>
      </trkpt>
      <trkpt lat="46.77417" lon="-1.66793">
        <ele>26</ele>
        <time>2018-03-26T13:29:03Z</time>
      </trkpt>
      <trkpt lat="46.77411" lon="-1.66798">
        <ele>26</ele>
        <time>2018-03-26T13:30:03Z</time>
      </trkpt>
      <trkpt lat="46.77403" lon="-1.66802">
        <ele>26</ele>
        <time>2018-03-26T13:31:03Z</time>
      </trkpt>
      <trkpt lat="46.77395" lon="-1.66802">
        <ele>25</ele>
        <time>2018-03-26T13:32:03Z</time>
      </trkpt>
      <trkpt lat="46.77395" lon="-1.66802">
        <ele>25</ele>
        <time>2018-03-26T13:33:03Z</time>
      </trkpt>
      <trkpt lat="46.77392" lon="-1.66812">
        <ele>25</ele>
        <time>2018-03-26T13:34:03Z</time>
      </trkpt>
      <trkpt lat="46.77389" lon="-1.66827">
        <ele>26</ele>
        <time>2018-03-26T13:35:03Z</time>
      </trkpt>
      <trkpt lat="46.77385" lon="-1.66842">
        <ele>26</ele>
        <time>2018-03-26T13:36:03Z</time>
      </trkpt>
      <trkpt lat="46.7738" lon="-1.66856">
        <ele>26</ele>
        <time>2018-03-26T13:37:03Z</time>
      </trkpt>
      <trkpt lat="46.77376" lon="-1.66869">
        <ele>26</ele>
        <time>2018-03-26T13:38:03Z</time>
      </trkpt>
      <trkpt lat="46.77372" lon="-1.66881">
        <ele>27</ele>
        <time>2018-03-26T13:39:03Z</time>
      </trkpt>
      <trkpt lat="46.77367" lon="-1.66893">
        <ele>27</ele>
        <time>2018-03-26T13:40:03Z</time>
      </trkpt>
      <trkpt lat="46.77362" lon="-1.66904">
        <ele>27</ele>
        <time>2018-03-26T13:41:03Z</time>
      </trkpt>
      <trkpt lat="46.77356" lon="-1.66916">
        <ele>27</ele>
        <time>2018-03-26T13:42:03Z</time>
      </trkpt>
      <trkpt lat="46.7735" lon="-1.66928">
        <ele>27</ele>
        <time>2018-03-26T13:43:03Z</time>
      </trkpt>
      <trkpt lat="46.77343" lon="-1.66939">
        <ele>27</ele>
        <time>2018-03-26T13:44:03Z</time>
      </trkpt>
      <trkpt lat="46.77337" lon="-1.6695">
        <ele>27</ele>
        <time>2018-03-26T13:45:03Z</time>
      </trkpt>
      <trkpt lat="46.7733" lon="-1.66961">
        <ele>28</ele>
        <time>2018-03-26T13:46:03Z</time>
      </trkpt>
      <trkpt lat="46.77322" lon="-1.66972">
        <ele>28</ele>
        <time>2018-03-26T13:47:03Z</time>
      </trkpt>
      <trkpt lat="46.77302" lon="-1.66996">
        <ele>28</ele>
        <time>2018-03-26T13:48:03Z</time>
      </trkpt>
      <trkpt lat="46.77297" lon="-1.67">
        <ele>29</ele>
        <time>2018-03-26T13:49:03Z</time>
      </trkpt>
      <trkpt lat="46.77295" lon="-1.67002">
        <ele>29</ele>
        <time>2018-03-26T13:50:03Z</time>
      </trkpt>
      <trkpt lat="46.77288" lon="-1.6701">
        <ele>29</ele>
        <time>2018-03-26T13:51:03Z</time>
      </trkpt>
      <trkpt lat="46.77279" lon="-1.6702">
        <ele>29</ele>
        <time>2018-03-26T13:52:03Z</time>
      </trkpt>
      <trkpt lat="46.7727" lon="-1.6703">
        <ele>29</ele>
        <time>2018-03-26T13:53:03Z</time>
      </trkpt>
      <trkpt lat="46.7726" lon="-1.67041">
        <ele>29</ele>
        <time>2018-03-26T13:54:03Z</time>
      </trkpt>
      <trkpt lat="46.77251" lon="-1.67051">
        <ele>29</ele>
        <time>2018-03-26T13:55:03Z</time>
      </trkpt>
      <trkpt lat="46.77245" lon="-1.67058">
        <ele>30</ele>
        <time>2018-03-26T13:56:03Z</time>
      </trkpt>
      <trkpt lat="46.77242" lon="-1.67061">
        <ele>30</ele>
        <time>2018-03-26T13:57:03Z</time>
      </trkpt>
      <trkpt lat="46.77236" lon="-1.67067">
        <ele>30</ele>
        <time>2018-03-26T13:58:03Z</time>
      </trkpt>
      <trkpt lat="46.77233" lon="-1.67071">
        <ele>30</ele>
        <time>2018-03-26T13:59:03Z</time>
      </trkpt>
      <trkpt lat="46.77216" lon="-1.6709">
        <ele>31</ele>
        <time>2018-03-26T14:00:03Z</time>
      </trkpt>
      <trkpt lat="46.77205" lon="-1.67102">
        <ele>32</ele>
        <time>2018-03-26T14:01:03Z</time>
      </trkpt>
      <trkpt lat="46.77201" lon="-1.67108">
        <ele>32</ele>
        <time>2018-03-26T14:02:03Z</time>
      </trkpt>
      <trkpt lat="46.77194" lon="-1.67122">
        <ele>32</ele>
        <time>2018-03-26T14:03:03Z</time>
      </trkpt>
      <trkpt lat="46.77189" lon="-1.6713">
        <ele>32</ele>
        <time>2018-03-26T14:04:03Z</time>
      </trkpt>
      <trkpt lat="46.77189" lon="-1.6713">
        <ele>32</ele>
        <time>2018-03-26T14:05:03Z</time>
      </trkpt>
      <trkpt lat="46.77189" lon="-1.67131">
        <ele>32</ele>
        <time>2018-03-26T14:06:03Z</time>
      </trkpt>
      <trkpt lat="46.7719" lon="-1.67132">
        <ele>32</ele>
        <time>2018-03-26T14:07:03Z</time>
      </trkpt>
      <trkpt lat="46.7719" lon="-1.67133">
        <ele>32</ele>
        <time>2018-03-26T14:08:03Z</time>
      </trkpt>
      <trkpt lat="46.7719" lon="-1.67135">
        <ele>32</ele>
        <time>2018-03-26T14:09:03Z</time>
      </trkpt>
      <trkpt lat="46.7719" lon="-1.67136">
        <ele>32</ele>
        <time>2018-03-26T14:10:03Z</time>
      </trkpt>
      <trkpt lat="46.7719" lon="-1.67137">
        <ele>32</ele>
        <time>2018-03-26T14:11:03Z</time>
      </trkpt>
      <trkpt lat="46.7719" lon="-1.67138">
        <ele>32</ele>
        <time>2018-03-26T14:12:03Z</time>
      </trkpt>
      <trkpt lat="46.77191" lon="-1.67139">
        <ele>32</ele>
        <time>2018-03-26T14:13:03Z</time>
      </trkpt>
      <trkpt lat="46.77191" lon="-1.67142">
        <ele>32</ele>
        <time>2018-03-26T14:14:03Z</time>
      </trkpt>
      <trkpt lat="46.7719" lon="-1.67145">
        <ele>32</ele>
        <time>2018-03-26T14:15:03Z</time>
      </trkpt>
      <trkpt lat="46.7719" lon="-1.67147">
        <ele>32</ele>
        <time>2018-03-26T14:16:03Z</time>
      </trkpt>
      <trkpt lat="46.7719" lon="-1.6715">
        <ele>32</ele>
        <time>2018-03-26T14:17:03Z</time>
      </trkpt>
      <trkpt lat="46.77189" lon="-1.67152">
        <ele>32</ele>
        <time>2018-03-26T14:18:03Z</time>
      </trkpt>
      <trkpt lat="46.77188" lon="-1.67155">
        <ele>32</ele>
        <time>2018-03-26T14:19:03Z</time>
      </trkpt>
      <trkpt lat="46.77187" lon="-1.67157">
        <ele>32</ele>
        <time>2018-03-26T14:20:03Z</time>
      </trkpt>
      <trkpt lat="46.77185" lon="-1.67161">
        <ele>32</ele>
        <time>2018-03-26T14:21:03Z</time>
      </trkpt>
      <trkpt lat="46.77184" lon="-1.67163">
        <ele>32</ele>
        <time>2018-03-26T14:22:03Z</time>
      </trkpt>
      <trkpt lat="46.77183" lon="-1.67165">
        <ele>32</ele>
        <time>2018-03-26T14:23:03Z</time>
      </trkpt>
      <trkpt lat="46.77181" lon="-1.67166">
        <ele>32</ele>
        <time>2018-03-26T14:24:03Z</time>
      </trkpt>
      <trkpt lat="46.77179" lon="-1.67167">
        <ele>32</ele>
        <time>2018-03-26T14:25:03Z</time>
      </trkpt>
      <trkpt lat="46.77178" lon="-1.67169">
        <ele>32</ele>
        <time>2018-03-26T14:26:03Z</time>
      </trkpt>
      <trkpt lat="46.77176" lon="-1.6717">
        <ele>32</ele>
        <time>2018-03-26T14:27:03Z</time>
      </trkpt>
      <trkpt lat="46.77174" lon="-1.6717">
        <ele>32</ele>
        <time>2018-03-26T14:28:03Z</time>
      </trkpt>
      <trkpt lat="46.77172" lon="-1.67171">
        <ele>32</ele>
        <time>2018-03-26T14:29:03Z</time>
      </trkpt>
      <trkpt lat="46.7717" lon="-1.67171">
        <ele>32</ele>
        <time>2018-03-26T14:30:03Z</time>
      </trkpt>
      <trkpt lat="46.77169" lon="-1.67171">
        <ele>32</ele>
        <time>2018-03-26T14:31:03Z</time>
      </trkpt>
      <trkpt lat="46.77167" lon="-1.6717">
        <ele>32</ele>
        <time>2018-03-26T14:32:03Z</time>
      </trkpt>
      <trkpt lat="46.77165" lon="-1.6717">
        <ele>32</ele>
        <time>2018-03-26T14:33:03Z</time>
      </trkpt>
      <trkpt lat="46.77163" lon="-1.67169">
        <ele>32</ele>
        <time>2018-03-26T14:34:03Z</time>
      </trkpt>
      <trkpt lat="46.77161" lon="-1.67168">
        <ele>32</ele>
        <time>2018-03-26T14:35:03Z</time>
      </trkpt>
      <trkpt lat="46.7716" lon="-1.67167">
        <ele>32</ele>
        <time>2018-03-26T14:36:03Z</time>
      </trkpt>
      <trkpt lat="46.77158" lon="-1.67165">
        <ele>32</ele>
        <time>2018-03-26T14:37:03Z</time>
      </trkpt>
      <trkpt lat="46.77156" lon="-1.67163">
        <ele>32</ele>
        <time>2018-03-26T14:38:03Z</time>
      </trkpt>
      <trkpt lat="46.77155" lon="-1.67161">
        <ele>32</ele>
        <time>2018-03-26T14:39:03Z</time>
      </trkpt>
      <trkpt lat="46.77154" lon="-1.67159">
        <ele>32</ele>
        <time>2018-03-26T14:40:03Z</time>
      </trkpt>
      <trkpt lat="46.77153" lon="-1.67157">
        <ele>32</ele>
        <time>2018-03-26T14:41:03Z</time>
      </trkpt>
      <trkpt lat="46.77152" lon="-1.67155">
        <ele>32</ele>
        <time>2018-03-26T14:42:03Z</time>
      </trkpt>
      <trkpt lat="46.77151" lon="-1.67152">
        <ele>32</ele>
        <time>2018-03-26T14:43:03Z</time>
      </trkpt>
      <trkpt lat="46.7715" lon="-1.67149">
        <ele>32</ele>
        <time>2018-03-26T14:44:03Z</time>
      </trkpt>
      <trkpt lat="46.7715" lon="-1.67147">
        <ele>32</ele>
        <time>2018-03-26T14:45:03Z</time>
      </trkpt>
      <trkpt lat="46.77149" lon="-1.67143">
        <ele>32</ele>
        <time>2018-03-26T14:46:03Z</time>
      </trkpt>
      <trkpt lat="46.77143" lon="-1.67138">
        <ele>32</ele>
        <time>2018-03-26T14:47:03Z</time>
      </trkpt>
      <trkpt lat="46.77135" lon="-1.67132">
        <ele>32</ele>
        <time>2018-03-26T14:48:03Z</time>
      </trkpt>
      <trkpt lat="46.77127" lon="-1.67126">
        <ele>32</ele>
        <time>2018-03-26T14:49:03Z</time>
      </trkpt>
      <trkpt lat="46.77121" lon="-1.67122">
        <ele>32</ele>
        <time>2018-03-26T14:50:03Z</time>
      </trkpt>
      <trkpt lat="46.77118" lon="-1.67121">
        <ele>32</ele>
        <time>2018-03-26T14:51:03Z</time>
      </trkpt>
      <trkpt lat="46.77074" lon="-1.67105">
        <ele>32</ele>
        <time>2018-03-26T14:52:03Z</time>
      </trkpt>
      <trkpt lat="46.77063" lon="-1.67101">
        <ele>31</ele>
        <time>2018-03-26T14:53:03Z</time>
      </trkpt>
      <trkpt lat="46.77051" lon="-1.67101">
        <ele>31</ele>
        <time>2018-03-26T14:54:03Z</time>
      </trkpt>
      <trkpt lat="46.77039" lon="-1.67097">
        <ele>30</ele>
        <time>2018-03-26T14:55:03Z</time>
      </trkpt>
      <trkpt lat="46.76986" lon="-1.67079">
        <ele>28</ele>
        <time>2018-03-26T14:56:03Z</time>
      </trkpt>
      <trkpt lat="46.76975" lon="-1.67075">
        <ele>28</ele>
        <time>2018-03-26T14:57:03Z</time>
      </trkpt>
      <trkpt lat="46.76966" lon="-1.67071">
        <ele>28</ele>
        <time>2018-03-26T14:58:03Z</time>
      </trkpt>
      <trkpt lat="46.76954" lon="-1.67066">
        <ele>27</ele>
        <time>2018-03-26T14:59:03Z</time>
      </trkpt>
      <trkpt lat="46.76944" lon="-1.67065">
        <ele>26</ele>
        <time>2018-03-26T15:00:03Z</time>
      </trkpt>
      <trkpt lat="46.76929" lon="-1.67063">
        <ele>26</ele>
        <time>2018-03-26T15:01:03Z</time>
      </trkpt>
      <trkpt lat="46.76921" lon="-1.67062">
        <ele>25</ele>
        <time>2018-03-26T15:02:03Z</time>
      </trkpt>
      <trkpt lat="46.76912" lon="-1.6706">
        <ele>25</ele>
        <time>2018-03-26T15:03:03Z</time>
      </trkpt>
      <trkpt lat="46.76893" lon="-1.67068">
        <ele>24</ele>
        <time>2018-03-26T15:04:03Z</time>
      </trkpt>
      <trkpt lat="46.76862" lon="-1.67082">
        <ele>22</ele>
        <time>2018-03-26T15:05:03Z</time>
      </trkpt>
      <trkpt lat="46.76838" lon="-1.67094">
        <ele>20</ele>
        <time>2018-03-26T15:06:03Z</time>
      </trkpt>
      <trkpt lat="46.76804" lon="-1.67108">
        <ele>19</ele>
        <time>2018-03-26T15:07:03Z</time>
      </trkpt>
      <trkpt lat="46.76774" lon="-1.67123">
        <ele>17</ele>
        <time>2018-03-26T15:08:03Z</time>
      </trkpt>
      <trkpt lat="46.76735" lon="-1.67141">
        <ele>15</ele>
        <time>2018-03-26T15:09:03Z</time>
      </trkpt>
      <trkpt lat="46.76729" lon="-1.67144">
        <ele>15</ele>
        <time>2018-03-26T15:10:03Z</time>
      </trkpt>
      <trkpt lat="46.76726" lon="-1.67146">
        <ele>15</ele>
        <time>2018-03-26T15:11:03Z</time>
      </trkpt>
      <trkpt lat="46.76718" lon="-1.67149">
        <ele>15</ele>
        <time>2018-03-26T15:12:03Z</time>
      </trkpt>
      <trkpt lat="46.7671" lon="-1.67153">
        <ele>15</ele>
        <time>2018-03-26T15:13:03Z</time>
      </trkpt>
      <trkpt lat="46.76666" lon="-1.67172">
        <ele>15</ele>
        <time>2018-03-26T15:14:03Z</time>
      </trkpt>
      <trkpt lat="46.76637" lon="-1.67186">
        <ele>14</ele>
        <time>2018-03-26T15:15:03Z</time>
      </trkpt>
      <trkpt lat="46.76608" lon="-1.672">
        <ele>14</ele>
        <time>2018-03-26T15:16:03Z</time>
      </trkpt>
      <trkpt lat="46.76568" lon="-1.67217">
        <ele>13</ele>
        <time>2018-03-26T15:17:03Z</time>
      </trkpt>
      <trkpt lat="46.76544" lon="-1.67228">
        <ele>13</ele>
        <time>2018-03-26T15:18:03Z</time>
      </trkpt>
      <trkpt lat="46.76538" lon="-1.67231">
        <ele>13</ele>
        <time>2018-03-26T15:19:03Z</time>
      </trkpt>
      <trkpt lat="46.76509" lon="-1.67245">
        <ele>13</ele>
        <time>2018-03-26T15:20:03Z</time>
      </trkpt>
      <trkpt lat="46.76481" lon="-1.67259">
        <ele>13</ele>
        <time>2018-03-26T15:21:03Z</time>
      </trkpt>
      <trkpt lat="46.76458" lon="-1.67273">
        <ele>13</ele>
        <time>2018-03-26T15:22:03Z</time>
      </trkpt>
      <trkpt lat="46.76441" lon="-1.67283">
        <ele>13</ele>
        <time>2018-03-26T15:23:03Z</time>
      </trkpt>
      <trkpt lat="46.76434" lon="-1.67288">
        <ele>13</ele>
        <time>2018-03-26T15:24:03Z</time>
      </trkpt>
      <trkpt lat="46.76423" lon="-1.67296">
        <ele>12</ele>
        <time>2018-03-26T15:25:03Z</time>
      </trkpt>
      <trkpt lat="46.76413" lon="-1.67305">
        <ele>12</ele>
        <time>2018-03-26T15:26:03Z</time>
      </trkpt>
      <trkpt lat="46.76391" lon="-1.67324">
        <ele>12</ele>
        <time>2018-03-26T15:27:03Z</time>
      </trkpt>
      <trkpt lat="46.76363" lon="-1.67353">
        <ele>13</ele>
        <time>2018-03-26T15:28:03Z</time>
      </trkpt>
      <trkpt lat="46.76353" lon="-1.67363">
        <ele>13</ele>
        <time>2018-03-26T15:29:03Z</time>
      </trkpt>
      <trkpt lat="46.76329" lon="-1.67392">
        <ele>13</ele>
        <time>2018-03-26T15:30:03Z</time>
      </trkpt>
      <trkpt lat="46.76317" lon="-1.67408">
        <ele>13</ele>
        <time>2018-03-26T15:31:03Z</time>
      </trkpt>
      <trkpt lat="46.763" lon="-1.6743">
        <ele>13</ele>
        <time>2018-03-26T15:32:03Z</time>
      </trkpt>
      <trkpt lat="46.76285" lon="-1.67453">
        <ele>13</ele>
        <time>2018-03-26T15:33:03Z</time>
      </trkpt>
      <trkpt lat="46.76256" lon="-1.67498">
        <ele>14</ele>
        <time>2018-03-26T15:34:03Z</time>
      </trkpt>
      <trkpt lat="46.76246" lon="-1.67516">
        <ele>14</ele>
        <time>2018-03-26T15:35:03Z</time>
      </trkpt>
      <trkpt lat="46.76234" lon="-1.67539">
        <ele>15</ele>
        <time>2018-03-26T15:36:03Z</time>
      </trkpt>
      <trkpt lat="46.76072" lon="-1.6789">
        <ele>18</ele>
        <time>2018-03-26T15:37:03Z</time>
      </trkpt>
      <trkpt lat="46.76069" lon="-1.67896">
        <ele>18</ele>
        <time>2018-03-26T15:38:03Z</time>
      </trkpt>
      <trkpt lat="46.76055" lon="-1.67926">
        <ele>19</ele>
        <time>2018-03-26T15:39:03Z</time>
      </trkpt>
      <trkpt lat="46.7604" lon="-1.67954">
        <ele>21</ele>
        <time>2018-03-26T15:40:03Z</time>
      </trkpt>
      <trkpt lat="46.76024" lon="-1.67986">
        <ele>23</ele>
        <time>2018-03-26T15:41:03Z</time>
      </trkpt>
      <trkpt lat="46.76009" lon="-1.68009">
        <ele>24</ele>
        <time>2018-03-26T15:42:03Z</time>
      </trkpt>
      <trkpt lat="46.75998" lon="-1.68023">
        <ele>24</ele>
        <time>2018-03-26T15:43:03Z</time>
      </trkpt>
      <trkpt lat="46.75983" lon="-1.68035">
        <ele>24</ele>
        <time>2018-03-26T15:44:03Z</time>
      </trkpt>
      <trkpt lat="46.75967" lon="-1.68047">
        <ele>24</ele>
        <time>2018-03-26T15:45:03Z</time>
      </trkpt>
      <trkpt lat="46.75959" lon="-1.68052">
        <ele>24</ele>
        <time>2018-03-26T15:46:03Z</time>
      </trkpt>
      <trkpt lat="46.75945" lon="-1.68062">
        <ele>24</ele>
        <time>2018-03-26T15:47:03Z</time>
      </trkpt>
      <trkpt lat="46.75931" lon="-1.68069">
        <ele>25</ele>
        <time>2018-03-26T15:48:03Z</time>
      </trkpt>
      <trkpt lat="46.75923" lon="-1.68075">
        <ele>25</ele>
        <time>2018-03-26T15:49:03Z</time>
      </trkpt>
      <trkpt lat="46.759" lon="-1.681">
        <ele>26</ele>
        <time>2018-03-26T15:50:03Z</time>
      </trkpt>
      <trkpt lat="46.75872" lon="-1.68133">
        <ele>27</ele>
        <time>2018-03-26T15:51:03Z</time>
      </trkpt>
      <trkpt lat="46.75854" lon="-1.68156">
        <ele>27</ele>
        <time>2018-03-26T15:52:03Z</time>
      </trkpt>
      <trkpt lat="46.75829" lon="-1.68185">
        <ele>27</ele>
        <time>2018-03-26T15:53:03Z</time>
      </trkpt>
      <trkpt lat="46.75799" lon="-1.68221">
        <ele>28</ele>
        <time>2018-03-26T15:54:03Z</time>
      </trkpt>
      <trkpt lat="46.75777" lon="-1.68247">
        <ele>28</ele>
        <time>2018-03-26T15:55:03Z</time>
      </trkpt>
      <trkpt lat="46.75772" lon="-1.68252">
        <ele>28</ele>
        <time>2018-03-26T15:56:03Z</time>
      </trkpt>
      <trkpt lat="46.75759" lon="-1.68268">
        <ele>29</ele>
        <time>2018-03-26T15:57:03Z</time>
      </trkpt>
      <trkpt lat="46.75741" lon="-1.68289">
        <ele>29</ele>
        <time>2018-03-26T15:58:03Z</time>
      </trkpt>
      <trkpt lat="46.75727" lon="-1.68306">
        <ele>30</ele>
        <time>2018-03-26T15:59:03Z</time>
      </trkpt>
      <trkpt lat="46.75727" lon="-1.68306">
        <ele>30</ele>
        <time>2018-03-26T16:00:03Z</time>
      </trkpt>
      <trkpt lat="46.75731" lon="-1.68314">
        <ele>30</ele>
        <time>2018-03-26T16:01:03Z</time>
      </trkpt>
      <trkpt lat="46.75734" lon="-1.68323">
        <ele>30</ele>
        <time>2018-03-26T16:02:03Z</time>
      </trkpt>
      <trkpt lat="46.75735" lon="-1.68332">
        <ele>30</ele>
        <time>2018-03-26T16:03:03Z</time>
      </trkpt>
      <trkpt lat="46.75735" lon="-1.68345">
        <ele>31</ele>
        <time>2018-03-26T16:04:03Z</time>
      </trkpt>
      <trkpt lat="46.75732" lon="-1.68412">
        <ele>32</ele>
        <time>2018-03-26T16:05:03Z</time>
      </trkpt>
      <trkpt lat="46.75728" lon="-1.68473">
        <ele>33</ele>
        <time>2018-03-26T16:06:03Z</time>
      </trkpt>
      <trkpt lat="46.75728" lon="-1.68484">
        <ele>33</ele>
        <time>2018-03-26T16:07:03Z</time>
      </trkpt>
      <trkpt lat="46.75725" lon="-1.68539">
        <ele>34</ele>
        <time>2018-03-26T16:08:03Z</time>
      </trkpt>
      <trkpt lat="46.75725" lon="-1.68545">
        <ele>34</ele>
        <time>2018-03-26T16:09:03Z</time>
      </trkpt>
      <trkpt lat="46.75721" lon="-1.68606">
        <ele>36</ele>
        <time>2018-03-26T16:10:03Z</time>
      </trkpt>
      <trkpt lat="46.75719" lon="-1.68654">
        <ele>38</ele>
        <time>2018-03-26T16:11:03Z</time>
      </trkpt>
      <trkpt lat="46.75717" lon="-1.68689">
        <ele>39</ele>
        <time>2018-03-26T16:12:03Z</time>
      </trkpt>
      <trkpt lat="46.75715" lon="-1.68708">
        <ele>40</ele>
        <time>2018-03-26T16:13:03Z</time>
      </trkpt>
      <trkpt lat="46.75711" lon="-1.68733">
        <ele>40</ele>
        <time>2018-03-26T16:14:03Z</time>
      </trkpt>
      <trkpt lat="46.75708" lon="-1.68745">
        <ele>40</ele>
        <time>2018-03-26T16:15:03Z</time>
      </trkpt>
      <trkpt lat="46.75705" lon="-1.68761">
        <ele>41</ele>
        <time>2018-03-26T16:16:03Z</time>
      </trkpt>
      <trkpt lat="46.757" lon="-1.68775">
        <ele>41</ele>
        <time>2018-03-26T16:17:03Z</time>
      </trkpt>
      <trkpt lat="46.75695" lon="-1.68783">
        <ele>42</ele>
        <time>2018-03-26T16:18:03Z</time>
      </trkpt>
      <trkpt lat="46.75687" lon="-1.68797">
        <ele>42</ele>
        <time>2018-03-26T16:19:03Z</time>
      </trkpt>
      <trkpt lat="46.7568" lon="-1.6881">
        <ele>43</ele>
        <time>2018-03-26T16:20:03Z</time>
      </trkpt>
      <trkpt lat="46.75676" lon="-1.68817">
        <ele>43</ele>
        <time>2018-03-26T16:21:03Z</time>
      </trkpt>
      <trkpt lat="46.75668" lon="-1.6883">
        <ele>44</ele>
        <time>2018-03-26T16:22:03Z</time>
      </trkpt>
      <trkpt lat="46.75661" lon="-1.6884">
        <ele>44</ele>
        <time>2018-03-26T16:23:03Z</time>
      </trkpt>
      <trkpt lat="46.7565" lon="-1.68856">
        <ele>45</ele>
        <time>2018-03-26T16:24:03Z</time>
      </trkpt>
      <trkpt lat="46.7564" lon="-1.68878">
        <ele>45</ele>
        <time>2018-03-26T16:25:03Z</time>
      </trkpt>
      <trkpt lat="46.75628" lon="-1.68907">
        <ele>46</ele>
        <time>2018-03-26T16:26:03Z</time>
      </trkpt>
      <trkpt lat="46.75622" lon="-1.68925">
        <ele>47</ele>
        <time>2018-03-26T16:27:03Z</time>
      </trkpt>
      <trkpt lat="46.75618" lon="-1.68942">
        <ele>47</ele>
        <time>2018-03-26T16:28:03Z</time>
      </trkpt>
      <trkpt lat="46.75616" lon="-1.68954">
        <ele>48</ele>
        <time>2018-03-26T16:29:03Z</time>
      </trkpt>
      <trkpt lat="46.75614" lon="-1.68975">
        <ele>48</ele>
        <time>2018-03-26T16:30:03Z</time>
      </trkpt>
      <trkpt lat="46.75613" lon="-1.68991">
        <ele>49</ele>
        <time>2018-03-26T16:31:03Z</time>
      </trkpt>
      <trkpt lat="46.75613" lon="-1.69008">
        <ele>49</ele>
        <time>2018-03-26T16:32:03Z</time>
      </trkpt>
      <trkpt lat="46.75613" lon="-1.69035">
        <ele>50</ele>
        <time>2018-03-26T16:33:03Z</time>
      </trkpt>
      <trkpt lat="46.75613" lon="-1.6907">
        <ele>50</ele>
        <time>2018-03-26T16:34:03Z</time>
      </trkpt>
      <trkpt lat="46.75612" lon="-1.69102">
        <ele>50</ele>
        <time>2018-03-26T16:35:03Z</time>
      </trkpt>
      <trkpt lat="46.75612" lon="-1.69125">
        <ele>50</ele>
        <time>2018-03-26T16:36:03Z</time>
      </trkpt>
      <trkpt lat="46.75611" lon="-1.69143">
        <ele>51</ele>
        <time>2018-03-26T16:37:03Z</time>
      </trkpt>
      <trkpt lat="46.75609" lon="-1.6916">
        <ele>51</ele>
        <time>2018-03-26T16:38:03Z</time>
      </trkpt>
      <trkpt lat="46.75606" lon="-1.69184">
        <ele>51</ele>
        <time>2018-03-26T16:39:03Z</time>
      </trkpt>
      <trkpt lat="46.75602" lon="-1.69206">
        <ele>51</ele>
        <time>2018-03-26T16:40:03Z</time>
      </trkpt>
      <trkpt lat="46.75579" lon="-1.69309">
        <ele>54</ele>
        <time>2018-03-26T16:41:03Z</time>
      </trkpt>
      <trkpt lat="46.75565" lon="-1.69371">
        <ele>55</ele>
        <time>2018-03-26T16:42:03Z</time>
      </trkpt>
      <trkpt lat="46.75554" lon="-1.69422">
        <ele>55</ele>
        <time>2018-03-26T16:43:03Z</time>
      </trkpt>
      <trkpt lat="46.75548" lon="-1.69452">
        <ele>56</ele>
        <time>2018-03-26T16:44:03Z</time>
      </trkpt>
      <trkpt lat="46.75546" lon="-1.69464">
        <ele>56</ele>
        <time>2018-03-26T16:45:03Z</time>
      </trkpt>
      <trkpt lat="46.75544" lon="-1.69469">
        <ele>56</ele>
        <time>2018-03-26T16:46:03Z</time>
      </trkpt>
      <trkpt lat="46.75542" lon="-1.69475">
        <ele>56</ele>
        <time>2018-03-26T16:47:03Z</time>
      </trkpt>
      <trkpt lat="46.75542" lon="-1.69475">
        <ele>56</ele>
        <time>2018-03-26T16:48:03Z</time>
      </trkpt>
      <trkpt lat="46.75552" lon="-1.69509">
        <ele>57</ele>
        <time>2018-03-26T16:49:03Z</time>
      </trkpt>
      <trkpt lat="46.75556" lon="-1.69526">
        <ele>57</ele>
        <time>2018-03-26T16:50:03Z</time>
      </trkpt>
      <trkpt lat="46.7556" lon="-1.69542">
        <ele>57</ele>
        <time>2018-03-26T16:51:03Z</time>
      </trkpt>
      <trkpt lat="46.75565" lon="-1.69562">
        <ele>58</ele>
        <time>2018-03-26T16:52:03Z</time>
      </trkpt>
      <trkpt lat="46.75568" lon="-1.69577">
        <ele>58</ele>
        <time>2018-03-26T16:53:03Z</time>
      </trkpt>
      <trkpt lat="46.75572" lon="-1.69595">
        <ele>58</ele>
        <time>2018-03-26T16:54:03Z</time>
      </trkpt>
      <trkpt lat="46.75575" lon="-1.69614">
        <ele>58</ele>
        <time>2018-03-26T16:55:03Z</time>
      </trkpt>
      <trkpt lat="46.75579" lon="-1.69642">
        <ele>58</ele>
        <time>2018-03-26T16:56:03Z</time>
      </trkpt>
      <trkpt lat="46.7559" lon="-1.69707">
        <ele>59</ele>
        <time>2018-03-26T16:57:03Z</time>
      </trkpt>
      <trkpt lat="46.75596" lon="-1.69742">
        <ele>59</ele>
        <time>2018-03-26T16:58:03Z</time>
      </trkpt>
      <trkpt lat="46.75596" lon="-1.69746">
        <ele>59</ele>
        <time>2018-03-26T16:59:03Z</time>
      </trkpt>
      <trkpt lat="46.75602" lon="-1.69782">
        <ele>59</ele>
        <time>2018-03-26T17:00:03Z</time>
      </trkpt>
      <trkpt lat="46.75607" lon="-1.69819">
        <ele>59</ele>
        <time>2018-03-26T17:01:03Z</time>
      </trkpt>
      <trkpt lat="46.75611" lon="-1.69841">
        <ele>59</ele>
        <time>2018-03-26T17:02:03Z</time>
      </trkpt>
      <trkpt lat="46.75618" lon="-1.69878">
        <ele>60</ele>
        <time>2018-03-26T17:03:03Z</time>
      </trkpt>
      <trkpt lat="46.75622" lon="-1.69903">
        <ele>60</ele>
        <time>2018-03-26T17:04:03Z</time>
      </trkpt>
      <trkpt lat="46.75627" lon="-1.6992">
        <ele>61</ele>
        <time>2018-03-26T17:05:03Z</time>
      </trkpt>
      <trkpt lat="46.75632" lon="-1.69934">
        <ele>61</ele>
        <time>2018-03-26T17:06:03Z</time>
      </trkpt>
      <trkpt lat="46.75641" lon="-1.69956">
        <ele>61</ele>
        <time>2018-03-26T17:07:03Z</time>
      </trkpt>
      <trkpt lat="46.75645" lon="-1.69967">
        <ele>61</ele>
        <time>2018-03-26T17:08:03Z</time>
      </trkpt>
      <trkpt lat="46.75648" lon="-1.69979">
        <ele>61</ele>
        <time>2018-03-26T17:09:03Z</time>
      </trkpt>
      <trkpt lat="46.75651" lon="-1.69993">
        <ele>62</ele>
        <time>2018-03-26T17:10:03Z</time>
      </trkpt>
      <trkpt lat="46.75653" lon="-1.70008">
        <ele>62</ele>
        <time>2018-03-26T17:11:03Z</time>
      </trkpt>
      <trkpt lat="46.75654" lon="-1.70015">
        <ele>62</ele>
        <time>2018-03-26T17:12:03Z</time>
      </trkpt>
      <trkpt lat="46.75656" lon="-1.70046">
        <ele>61</ele>
        <time>2018-03-26T17:13:03Z</time>
      </trkpt>
      <trkpt lat="46.7566" lon="-1.70095">
        <ele>61</ele>
        <time>2018-03-26T17:14:03Z</time>
      </trkpt>
      <trkpt lat="46.75666" lon="-1.70153">
        <ele>62</ele>
        <time>2018-03-26T17:15:03Z</time>
      </trkpt>
      <trkpt lat="46.7567" lon="-1.70205">
        <ele>61</ele>
        <time>2018-03-26T17:16:03Z</time>
      </trkpt>
      <trkpt lat="46.75671" lon="-1.70227">
        <ele>61</ele>
        <time>2018-03-26T17:17:03Z</time>
      </trkpt>
      <trkpt lat="46.75672" lon="-1.70246">
        <ele>61</ele>
        <time>2018-03-26T17:18:03Z</time>
      </trkpt>
      <trkpt lat="46.75673" lon="-1.70266">
        <ele>61</ele>
        <time>2018-03-26T17:19:03Z</time>
      </trkpt>
      <trkpt lat="46.75673" lon="-1.70286">
        <ele>61</ele>
        <time>2018-03-26T17:20:03Z</time>
      </trkpt>
      <trkpt lat="46.75673" lon="-1.70304">
        <ele>61</ele>
        <time>2018-03-26T17:21:03Z</time>
      </trkpt>
      <trkpt lat="46.75672" lon="-1.70323">
        <ele>61</ele>
        <time>2018-03-26T17:22:03Z</time>
      </trkpt>
      <trkpt lat="46.7567" lon="-1.70352">
        <ele>61</ele>
        <time>2018-03-26T17:23:03Z</time>
      </trkpt>
      <trkpt lat="46.75666" lon="-1.70422">
        <ele>61</ele>
        <time>2018-03-26T17:24:03Z</time>
      </trkpt>
      <trkpt lat="46.75662" lon="-1.70498">
        <ele>60</ele>
        <time>2018-03-26T17:25:03Z</time>
      </trkpt>
      <trkpt lat="46.7566" lon="-1.70572">
        <ele>59</ele>
        <time>2018-03-26T17:26:03Z</time>
      </trkpt>
      <trkpt lat="46.75656" lon="-1.70671">
        <ele>59</ele>
        <time>2018-03-26T17:27:03Z</time>
      </trkpt>
      <trkpt lat="46.75655" lon="-1.70726">
        <ele>60</ele>
        <time>2018-03-26T17:28:03Z</time>
      </trkpt>
      <trkpt lat="46.75654" lon="-1.70751">
        <ele>61</ele>
        <time>2018-03-26T17:29:03Z</time>
      </trkpt>
      <trkpt lat="46.75654" lon="-1.70772">
        <ele>61</ele>
        <time>2018-03-26T17:30:03Z</time>
      </trkpt>
      <trkpt lat="46.75654" lon="-1.7079">
        <ele>61</ele>
        <time>2018-03-26T17:31:03Z</time>
      </trkpt>
      <trkpt lat="46.75655" lon="-1.70806">
        <ele>62</ele>
        <time>2018-03-26T17:32:03Z</time>
      </trkpt>
      <trkpt lat="46.75655" lon="-1.70823">
        <ele>62</ele>
        <time>2018-03-26T17:33:03Z</time>
      </trkpt>
      <trkpt lat="46.75657" lon="-1.70877">
        <ele>61</ele>
        <time>2018-03-26T17:34:03Z</time>
      </trkpt>
      <trkpt lat="46.7566" lon="-1.70953">
        <ele>60</ele>
        <time>2018-03-26T17:35:03Z</time>
      </trkpt>
      <trkpt lat="46.7566" lon="-1.7096">
        <ele>60</ele>
        <time>2018-03-26T17:36:03Z</time>
      </trkpt>
      <trkpt lat="46.75661" lon="-1.71002">
        <ele>59</ele>
        <time>2018-03-26T17:37:03Z</time>
      </trkpt>
      <trkpt lat="46.75662" lon="-1.71047">
        <ele>59</ele>
        <time>2018-03-26T17:38:03Z</time>
      </trkpt>
      <trkpt lat="46.75662" lon="-1.71091">
        <ele>59</ele>
        <time>2018-03-26T17:39:03Z</time>
      </trkpt>
      <trkpt lat="46.75662" lon="-1.71111">
        <ele>59</ele>
        <time>2018-03-26T17:40:03Z</time>
      </trkpt>
      <trkpt lat="46.75662" lon="-1.71132">
        <ele>60</ele>
        <time>2018-03-26T17:41:03Z</time>
      </trkpt>
      <trkpt lat="46.75662" lon="-1.71157">
        <ele>60</ele>
        <time>2018-03-26T17:42:03Z</time>
      </trkpt>
      <trkpt lat="46.75661" lon="-1.7118">
        <ele>60</ele>
        <time>2018-03-26T17:43:03Z</time>
      </trkpt>
      <trkpt lat="46.7566" lon="-1.71199">
        <ele>60</ele>
        <time>2018-03-26T17:44:03Z</time>
      </trkpt>
      <trkpt lat="46.7566" lon="-1.71217">
        <ele>60</ele>
        <time>2018-03-26T17:45:03Z</time>
      </trkpt>
      <trkpt lat="46.75659" lon="-1.71235">
        <ele>60</ele>
        <time>2018-03-26T17:46:03Z</time>
      </trkpt>
      <trkpt lat="46.75659" lon="-1.7126">
        <ele>60</ele>
        <time>2018-03-26T17:47:03Z</time>
      </trkpt>
      <trkpt lat="46.75658" lon="-1.71296">
        <ele>60</ele>
        <time>2018-03-26T17:48:03Z</time>
      </trkpt>
      <trkpt lat="46.75656" lon="-1.71346">
        <ele>60</ele>
        <time>2018-03-26T17:49:03Z</time>
      </trkpt>
      <trkpt lat="46.75649" lon="-1.71449">
        <ele>59</ele>
        <time>2018-03-26T17:50:03Z</time>
      </trkpt>
      <trkpt lat="46.75645" lon="-1.71503">
        <ele>58</ele>
        <time>2018-03-26T17:51:03Z</time>
      </trkpt>
      <trkpt lat="46.75645" lon="-1.71506">
        <ele>58</ele>
        <time>2018-03-26T17:52:03Z</time>
      </trkpt>
      <trkpt lat="46.75639" lon="-1.71584">
        <ele>57</ele>
        <time>2018-03-26T17:53:03Z</time>
      </trkpt>
      <trkpt lat="46.75637" lon="-1.71635">
        <ele>57</ele>
        <time>2018-03-26T17:54:03Z</time>
      </trkpt>
      <trkpt lat="46.75635" lon="-1.71651">
        <ele>57</ele>
        <time>2018-03-26T17:55:03Z</time>
      </trkpt>
      <trkpt lat="46.75634" lon="-1.7168">
        <ele>57</ele>
        <time>2018-03-26T17:56:03Z</time>
      </trkpt>
      <trkpt lat="46.75633" lon="-1.71695">
        <ele>57</ele>
        <time>2018-03-26T17:57:03Z</time>
      </trkpt>
      <trkpt lat="46.75633" lon="-1.71706">
        <ele>57</ele>
        <time>2018-03-26T17:58:03Z</time>
      </trkpt>
      <trkpt lat="46.75632" lon="-1.71721">
        <ele>57</ele>
        <time>2018-03-26T17:59:03Z</time>
      </trkpt>
      <trkpt lat="46.75632" lon="-1.71736">
        <ele>57</ele>
        <time>2018-03-26T18:00:03Z</time>
      </trkpt>
      <trkpt lat="46.75632" lon="-1.71751">
        <ele>57</ele>
        <time>2018-03-26T18:01:03Z</time>
      </trkpt>
      <trkpt lat="46.75631" lon="-1.71767">
        <ele>57</ele>
        <time>2018-03-26T18:02:03Z</time>
      </trkpt>
      <trkpt lat="46.75631" lon="-1.7178">
        <ele>57</ele>
        <time>2018-03-26T18:03:03Z</time>
      </trkpt>
      <trkpt lat="46.75631" lon="-1.71789">
        <ele>57</ele>
        <time>2018-03-26T18:04:03Z</time>
      </trkpt>
      <trkpt lat="46.75631" lon="-1.71802">
        <ele>56</ele>
        <time>2018-03-26T18:05:03Z</time>
      </trkpt>
      <trkpt lat="46.75631" lon="-1.71831">
        <ele>56</ele>
        <time>2018-03-26T18:06:03Z</time>
      </trkpt>
      <trkpt lat="46.75632" lon="-1.71858">
        <ele>56</ele>
        <time>2018-03-26T18:07:03Z</time>
      </trkpt>
      <trkpt lat="46.75632" lon="-1.71874">
        <ele>56</ele>
        <time>2018-03-26T18:08:03Z</time>
      </trkpt>
      <trkpt lat="46.75633" lon="-1.71883">
        <ele>56</ele>
        <time>2018-03-26T18:09:03Z</time>
      </trkpt>
      <trkpt lat="46.75633" lon="-1.71906">
        <ele>56</ele>
        <time>2018-03-26T18:10:03Z</time>
      </trkpt>
      <trkpt lat="46.75646" lon="-1.72036">
        <ele>57</ele>
        <time>2018-03-26T18:11:03Z</time>
      </trkpt>
      <trkpt lat="46.75648" lon="-1.72039">
        <ele>57</ele>
        <time>2018-03-26T18:12:03Z</time>
      </trkpt>
      <trkpt lat="46.75656" lon="-1.72125">
        <ele>58</ele>
        <time>2018-03-26T18:13:03Z</time>
      </trkpt>
      <trkpt lat="46.7566" lon="-1.72169">
        <ele>58</ele>
        <time>2018-03-26T18:14:03Z</time>
      </trkpt>
      <trkpt lat="46.75665" lon="-1.72246">
        <ele>56</ele>
        <time>2018-03-26T18:15:03Z</time>
      </trkpt>
      <trkpt lat="46.75667" lon="-1.7227">
        <ele>56</ele>
        <time>2018-03-26T18:16:03Z</time>
      </trkpt>
      <trkpt lat="46.75667" lon="-1.72335">
        <ele>56</ele>
        <time>2018-03-26T18:17:03Z</time>
      </trkpt>
      <trkpt lat="46.75665" lon="-1.72417">
        <ele>56</ele>
        <time>2018-03-26T18:18:03Z</time>
      </trkpt>
      <trkpt lat="46.75662" lon="-1.72434">
        <ele>56</ele>
        <time>2018-03-26T18:19:03Z</time>
      </trkpt>
      <trkpt lat="46.75657" lon="-1.72476">
        <ele>56</ele>
        <time>2018-03-26T18:20:03Z</time>
      </trkpt>
      <trkpt lat="46.75656" lon="-1.72493">
        <ele>56</ele>
        <time>2018-03-26T18:21:03Z</time>
      </trkpt>
      <trkpt lat="46.7565" lon="-1.72542">
        <ele>56</ele>
        <time>2018-03-26T18:22:03Z</time>
      </trkpt>
      <trkpt lat="46.75643" lon="-1.72615">
        <ele>56</ele>
        <time>2018-03-26T18:23:03Z</time>
      </trkpt>
      <trkpt lat="46.75638" lon="-1.72663">
        <ele>57</ele>
        <time>2018-03-26T18:24:03Z</time>
      </trkpt>
      <trkpt lat="46.75633" lon="-1.72721">
        <ele>58</ele>
        <time>2018-03-26T18:25:03Z</time>
      </trkpt>
      <trkpt lat="46.75628" lon="-1.72787">
        <ele>57</ele>
        <time>2018-03-26T18:26:03Z</time>
      </trkpt>
      <trkpt lat="46.75627" lon="-1.72797">
        <ele>57</ele>
        <time>2018-03-26T18:27:03Z</time>
      </trkpt>
      <trkpt lat="46.75626" lon="-1.72809">
        <ele>57</ele>
        <time>2018-03-26T18:28:03Z</time>
      </trkpt>
      <trkpt lat="46.75626" lon="-1.7282">
        <ele>57</ele>
        <time>2018-03-26T18:29:03Z</time>
      </trkpt>
      <trkpt lat="46.75625" lon="-1.72834">
        <ele>56</ele>
        <time>2018-03-26T18:30:03Z</time>
      </trkpt>
      <trkpt lat="46.75624" lon="-1.72845">
        <ele>56</ele>
        <time>2018-03-26T18:31:03Z</time>
      </trkpt>
      <trkpt lat="46.75624" lon="-1.7287">
        <ele>56</ele>
        <time>2018-03-26T18:32:03Z</time>
      </trkpt>
      <trkpt lat="46.75623" lon="-1.72887">
        <ele>55</ele>
        <time>2018-03-26T18:33:03Z</time>
      </trkpt>
      <trkpt lat="46.75623" lon="-1.72916">
        <ele>55</ele>
        <time>2018-03-26T18:34:03Z</time>
      </trkpt>
      <trkpt lat="46.75623" lon="-1.72992">
        <ele>55</ele>
        <time>2018-03-26T18:35:03Z</time>
      </trkpt>
      <trkpt lat="46.75623" lon="-1.73038">
        <ele>54</ele>
        <time>2018-03-26T18:36:03Z</time>
      </trkpt>
      <trkpt lat="46.75625" lon="-1.73049">
        <ele>54</ele>
        <time>2018-03-26T18:37:03Z</time>
      </trkpt>
      <trkpt lat="46.75625" lon="-1.73065">
        <ele>54</ele>
        <time>2018-03-26T18:38:03Z</time>
      </trkpt>
      <trkpt lat="46.75626" lon="-1.73066">
        <ele>54</ele>
        <time>2018-03-26T18:39:03Z</time>
      </trkpt>
      <trkpt lat="46.75627" lon="-1.73066">
        <ele>54</ele>
        <time>2018-03-26T18:40:03Z</time>
      </trkpt>
      <trkpt lat="46.75628" lon="-1.73067">
        <ele>54</ele>
        <time>2018-03-26T18:41:03Z</time>
      </trkpt>
      <trkpt lat="46.75629" lon="-1.73068">
        <ele>54</ele>
        <time>2018-03-26T18:42:03Z</time>
      </trkpt>
      <trkpt lat="46.75629" lon="-1.73069">
        <ele>54</ele>
        <time>2018-03-26T18:43:03Z</time>
      </trkpt>
      <trkpt lat="46.7563" lon="-1.7307">
        <ele>54</ele>
        <time>2018-03-26T18:44:03Z</time>
      </trkpt>
      <trkpt lat="46.7563" lon="-1.73071">
        <ele>54</ele>
        <time>2018-03-26T18:45:03Z</time>
      </trkpt>
      <trkpt lat="46.75631" lon="-1.73071">
        <ele>54</ele>
        <time>2018-03-26T18:46:03Z</time>
      </trkpt>
      <trkpt lat="46.75631" lon="-1.73072">
        <ele>54</ele>
        <time>2018-03-26T18:47:03Z</time>
      </trkpt>
      <trkpt lat="46.75631" lon="-1.73073">
        <ele>54</ele>
        <time>2018-03-26T18:48:03Z</time>
      </trkpt>
      <trkpt lat="46.75631" lon="-1.73074">
        <ele>54</ele>
        <time>2018-03-26T18:49:03Z</time>
      </trkpt>
      <trkpt lat="46.75631" lon="-1.73075">
        <ele>54</ele>
        <time>2018-03-26T18:50:03Z</time>
      </trkpt>
      <trkpt lat="46.75631" lon="-1.73076">
        <ele>54</ele>
        <time>2018-03-26T18:51:03Z</time>
      </trkpt>
      <trkpt lat="46.75631" lon="-1.73077">
        <ele>54</ele>
        <time>2018-03-26T18:52:03Z</time>
      </trkpt>
      <trkpt lat="46.75631" lon="-1.73078">
        <ele>54</ele>
        <time>2018-03-26T18:53:03Z</time>
      </trkpt>
      <trkpt lat="46.75631" lon="-1.73079">
        <ele>54</ele>
        <time>2018-03-26T18:54:03Z</time>
      </trkpt>
      <trkpt lat="46.75631" lon="-1.7308">
        <ele>54</ele>
        <time>2018-03-26T18:55:03Z</time>
      </trkpt>
      <trkpt lat="46.75631" lon="-1.73081">
        <ele>54</ele>
        <time>2018-03-26T18:56:03Z</time>
      </trkpt>
      <trkpt lat="46.75631" lon="-1.73082">
        <ele>54</ele>
        <time>2018-03-26T18:57:03Z</time>
      </trkpt>
      <trkpt lat="46.7563" lon="-1.73082">
        <ele>54</ele>
        <time>2018-03-26T18:58:03Z</time>
      </trkpt>
      <trkpt lat="46.7563" lon="-1.73083">
        <ele>54</ele>
        <time>2018-03-26T18:59:03Z</time>
      </trkpt>
      <trkpt lat="46.7563" lon="-1.73084">
        <ele>54</ele>
        <time>2018-03-26T19:00:03Z</time>
      </trkpt>
      <trkpt lat="46.75629" lon="-1.73085">
        <ele>54</ele>
        <time>2018-03-26T19:01:03Z</time>
      </trkpt>
      <trkpt lat="46.75629" lon="-1.73086">
        <ele>54</ele>
        <time>2018-03-26T19:02:03Z</time>
      </trkpt>
      <trkpt lat="46.75628" lon="-1.73086">
        <ele>54</ele>
        <time>2018-03-26T19:03:03Z</time>
      </trkpt>
      <trkpt lat="46.75628" lon="-1.73087">
        <ele>54</ele>
        <time>2018-03-26T19:04:03Z</time>
      </trkpt>
      <trkpt lat="46.75627" lon="-1.73088">
        <ele>54</ele>
        <time>2018-03-26T19:05:03Z</time>
      </trkpt>
      <trkpt lat="46.75626" lon="-1.73088">
        <ele>54</ele>
        <time>2018-03-26T19:06:03Z</time>
      </trkpt>
      <trkpt lat="46.75626" lon="-1.73089">
        <ele>54</ele>
        <time>2018-03-26T19:07:03Z</time>
      </trkpt>
      <trkpt lat="46.75625" lon="-1.73089">
        <ele>54</ele>
        <time>2018-03-26T19:08:03Z</time>
      </trkpt>
      <trkpt lat="46.75621" lon="-1.7312">
        <ele>54</ele>
        <time>2018-03-26T19:09:03Z</time>
      </trkpt>
      <trkpt lat="46.75617" lon="-1.73128">
        <ele>54</ele>
        <time>2018-03-26T19:10:03Z</time>
      </trkpt>
      <trkpt lat="46.75612" lon="-1.73156">
        <ele>54</ele>
        <time>2018-03-26T19:11:03Z</time>
      </trkpt>
      <trkpt lat="46.75608" lon="-1.73181">
        <ele>54</ele>
        <time>2018-03-26T19:12:03Z</time>
      </trkpt>
      <trkpt lat="46.75598" lon="-1.73226">
        <ele>55</ele>
        <time>2018-03-26T19:13:03Z</time>
      </trkpt>
      <trkpt lat="46.75589" lon="-1.73274">
        <ele>56</ele>
        <time>2018-03-26T19:14:03Z</time>
      </trkpt>
      <trkpt lat="46.75575" lon="-1.73341">
        <ele>57</ele>
        <time>2018-03-26T19:15:03Z</time>
      </trkpt>
      <trkpt lat="46.75567" lon="-1.73377">
        <ele>56</ele>
        <time>2018-03-26T19:16:03Z</time>
      </trkpt>
      <trkpt lat="46.75564" lon="-1.7339">
        <ele>56</ele>
        <time>2018-03-26T19:17:03Z</time>
      </trkpt>
      <trkpt lat="46.7556" lon="-1.73403">
        <ele>56</ele>
        <time>2018-03-26T19:18:03Z</time>
      </trkpt>
      <trkpt lat="46.75557" lon="-1.73412">
        <ele>56</ele>
        <time>2018-03-26T19:19:03Z</time>
      </trkpt>
      <trkpt lat="46.75555" lon="-1.73418">
        <ele>56</ele>
        <time>2018-03-26T19:20:03Z</time>
      </trkpt>
      <trkpt lat="46.75553" lon="-1.73423">
        <ele>56</ele>
        <time>2018-03-26T19:21:03Z</time>
      </trkpt>
      <trkpt lat="46.75544" lon="-1.73439">
        <ele>56</ele>
        <time>2018-03-26T19:22:03Z</time>
      </trkpt>
      <trkpt lat="46.75541" lon="-1.73445">
        <ele>56</ele>
        <time>2018-03-26T19:23:03Z</time>
      </trkpt>
      <trkpt lat="46.75538" lon="-1.73448">
        <ele>56</ele>
        <time>2018-03-26T19:24:03Z</time>
      </trkpt>
      <trkpt lat="46.75534" lon="-1.73455">
        <ele>56</ele>
        <time>2018-03-26T19:25:03Z</time>
      </trkpt>
      <trkpt lat="46.75534" lon="-1.73455">
        <ele>56</ele>
        <time>2018-03-26T19:26:03Z</time>
      </trkpt>
      <trkpt lat="46.75536" lon="-1.73464">
        <ele>56</ele>
        <time>2018-03-26T19:27:03Z</time>
      </trkpt>
      <trkpt lat="46.75537" lon="-1.73469">
        <ele>56</ele>
        <time>2018-03-26T19:28:03Z</time>
      </trkpt>
      <trkpt lat="46.7554" lon="-1.73481">
        <ele>56</ele>
        <time>2018-03-26T19:29:03Z</time>
      </trkpt>
      <trkpt lat="46.75541" lon="-1.7349">
        <ele>56</ele>
        <time>2018-03-26T19:30:03Z</time>
      </trkpt>
      <trkpt lat="46.75542" lon="-1.73505">
        <ele>57</ele>
        <time>2018-03-26T19:31:03Z</time>
      </trkpt>
      <trkpt lat="46.75546" lon="-1.73549">
        <ele>57</ele>
        <time>2018-03-26T19:32:03Z</time>
      </trkpt>
      <trkpt lat="46.75548" lon="-1.73562">
        <ele>57</ele>
        <time>2018-03-26T19:33:03Z</time>
      </trkpt>
      <trkpt lat="46.7555" lon="-1.73572">
        <ele>57</ele>
        <time>2018-03-26T19:34:03Z</time>
      </trkpt>
      <trkpt lat="46.75557" lon="-1.73597">
        <ele>57</ele>
        <time>2018-03-26T19:35:03Z</time>
      </trkpt>
      <trkpt lat="46.7556" lon="-1.73603">
        <ele>57</ele>
        <time>2018-03-26T19:36:03Z</time>
      </trkpt>
      <trkpt lat="46.75569" lon="-1.73619">
        <ele>57</ele>
        <time>2018-03-26T19:37:03Z</time>
      </trkpt>
      <trkpt lat="46.75573" lon="-1.7363">
        <ele>56</ele>
        <time>2018-03-26T19:38:03Z</time>
      </trkpt>
      <trkpt lat="46.75576" lon="-1.73638">
        <ele>56</ele>
        <time>2018-03-26T19:39:03Z</time>
      </trkpt>
      <trkpt lat="46.75577" lon="-1.73648">
        <ele>56</ele>
        <time>2018-03-26T19:40:03Z</time>
      </trkpt>
      <trkpt lat="46.75578" lon="-1.7366">
        <ele>56</ele>
        <time>2018-03-26T19:41:03Z</time>
      </trkpt>
      <trkpt lat="46.75579" lon="-1.73669">
        <ele>56</ele>
        <time>2018-03-26T19:42:03Z</time>
      </trkpt>
      <trkpt lat="46.75579" lon="-1.73686">
        <ele>56</ele>
        <time>2018-03-26T19:43:03Z</time>
      </trkpt>
      <trkpt lat="46.75581" lon="-1.73738">
        <ele>55</ele>
        <time>2018-03-26T19:44:03Z</time>
      </trkpt>
      <trkpt lat="46.75582" lon="-1.73763">
        <ele>55</ele>
        <time>2018-03-26T19:45:03Z</time>
      </trkpt>
      <trkpt lat="46.75585" lon="-1.73781">
        <ele>55</ele>
        <time>2018-03-26T19:46:03Z</time>
      </trkpt>
      <trkpt lat="46.75585" lon="-1.73781">
        <ele>55</ele>
        <time>2018-03-26T19:47:03Z</time>
      </trkpt>
      <trkpt lat="46.75565" lon="-1.73794">
        <ele>55</ele>
        <time>2018-03-26T19:48:03Z</time>
      </trkpt>
      <trkpt lat="46.75544" lon="-1.73808">
        <ele>55</ele>
        <time>2018-03-26T19:49:03Z</time>
      </trkpt>
      <trkpt lat="46.75523" lon="-1.73822">
        <ele>54</ele>
        <time>2018-03-26T19:50:03Z</time>
      </trkpt>
      <trkpt lat="46.75496" lon="-1.73835">
        <ele>54</ele>
        <time>2018-03-26T19:51:03Z</time>
      </trkpt>
      <trkpt lat="46.7549" lon="-1.73838">
        <ele>54</ele>
        <time>2018-03-26T19:52:03Z</time>
      </trkpt>
      <trkpt lat="46.75474" lon="-1.73845">
        <ele>53</ele>
        <time>2018-03-26T19:53:03Z</time>
      </trkpt>
      <trkpt lat="46.75474" lon="-1.73845">
        <ele>53</ele>
        <time>2018-03-26T19:54:03Z</time>
      </trkpt>
      <trkpt lat="46.7544" lon="-1.73856">
        <ele>52</ele>
        <time>2018-03-26T19:55:03Z</time>
      </trkpt>
      <trkpt lat="46.75429" lon="-1.73861">
        <ele>52</ele>
        <time>2018-03-26T19:56:03Z</time>
      </trkpt>
      <trkpt lat="46.75426" lon="-1.73863">
        <ele>52</ele>
        <time>2018-03-26T19:57:03Z</time>
      </trkpt>
      <trkpt lat="46.75418" lon="-1.73868">
        <ele>52</ele>
        <time>2018-03-26T19:58:03Z</time>
      </trkpt>
      <trkpt lat="46.75412" lon="-1.73876">
        <ele>51</ele>
        <time>2018-03-26T19:59:03Z</time>
      </trkpt>
      <trkpt lat="46.75412" lon="-1.73876">
        <ele>51</ele>
        <time>2018-03-26T20:00:03Z</time>
      </trkpt>
      <trkpt lat="46.75417" lon="-1.73881">
        <ele>51</ele>
        <time>2018-03-26T20:01:03Z</time>
      </trkpt>
      <trkpt lat="46.75422" lon="-1.73885">
        <ele>51</ele>
        <time>2018-03-26T20:02:03Z</time>
      </trkpt>
      <trkpt lat="46.75427" lon="-1.7389">
        <ele>51</ele>
        <time>2018-03-26T20:03:03Z</time>
      </trkpt>
      <trkpt lat="46.75432" lon="-1.73897">
        <ele>51</ele>
        <time>2018-03-26T20:04:03Z</time>
      </trkpt>
      <trkpt lat="46.75437" lon="-1.73906">
        <ele>51</ele>
        <time>2018-03-26T20:05:03Z</time>
      </trkpt>
      <trkpt lat="46.75441" lon="-1.73914">
        <ele>51</ele>
        <time>2018-03-26T20:06:03Z</time>
      </trkpt>
      <trkpt lat="46.75444" lon="-1.73921">
        <ele>51</ele>
        <time>2018-03-26T20:07:03Z</time>
      </trkpt>
      <trkpt lat="46.75447" lon="-1.7393">
        <ele>51</ele>
        <time>2018-03-26T20:08:03Z</time>
      </trkpt>
      <trkpt lat="46.75449" lon="-1.73937">
        <ele>51</ele>
        <time>2018-03-26T20:09:03Z</time>
      </trkpt>
      <trkpt lat="46.75451" lon="-1.73946">
        <ele>51</ele>
        <time>2018-03-26T20:10:03Z</time>
      </trkpt>
      <trkpt lat="46.75452" lon="-1.73955">
        <ele>51</ele>
        <time>2018-03-26T20:11:03Z</time>
      </trkpt>
      <trkpt lat="46.75453" lon="-1.73966">
        <ele>51</ele>
        <time>2018-03-26T20:12:03Z</time>
      </trkpt>
      <trkpt lat="46.75453" lon="-1.73976">
        <ele>50</ele>
        <time>2018-03-26T20:13:03Z</time>
      </trkpt>
      <trkpt lat="46.75452" lon="-1.73986">
        <ele>50</ele>
        <time>2018-03-26T20:14:03Z</time>
      </trkpt>
      <trkpt lat="46.7545" lon="-1.73997">
        <ele>50</ele>
        <time>2018-03-26T20:15:03Z</time>
      </trkpt>
      <trkpt lat="46.75444" lon="-1.74021">
        <ele>49</ele>
        <time>2018-03-26T20:16:03Z</time>
      </trkpt>
      <trkpt lat="46.75439" lon="-1.74041">
        <ele>49</ele>
        <time>2018-03-26T20:17:03Z</time>
      </trkpt>
      <trkpt lat="46.75429" lon="-1.74078">
        <ele>48</ele>
        <time>2018-03-26T20:18:03Z</time>
      </trkpt>
      <trkpt lat="46.75426" lon="-1.74088">
        <ele>47</ele>
        <time>2018-03-26T20:19:03Z</time>
      </trkpt>
      <trkpt lat="46.75419" lon="-1.74114">
        <ele>47</ele>
        <time>2018-03-26T20:20:03Z</time>
      </trkpt>
      <trkpt lat="46.75416" lon="-1.74127">
        <ele>47</ele>
        <time>2018-03-26T20:21:03Z</time>
      </trkpt>
      <trkpt lat="46.75413" lon="-1.7414">
        <ele>47</ele>
        <time>2018-03-26T20:22:03Z</time>
      </trkpt>
      <trkpt lat="46.75409" lon="-1.74165">
        <ele>47</ele>
        <time>2018-03-26T20:23:03Z</time>
      </trkpt>
      <trkpt lat="46.75406" lon="-1.74183">
        <ele>47</ele>
        <time>2018-03-26T20:24:03Z</time>
      </trkpt>
      <trkpt lat="46.75405" lon="-1.74199">
        <ele>47</ele>
        <time>2018-03-26T20:25:03Z</time>
      </trkpt>
      <trkpt lat="46.75403" lon="-1.74216">
        <ele>47</ele>
        <time>2018-03-26T20:26:03Z</time>
      </trkpt>
      <trkpt lat="46.75402" lon="-1.7423">
        <ele>47</ele>
        <time>2018-03-26T20:27:03Z</time>
      </trkpt>
      <trkpt lat="46.75398" lon="-1.74335">
        <ele>49</ele>
        <time>2018-03-26T20:28:03Z</time>
      </trkpt>
      <trkpt lat="46.75397" lon="-1.74371">
        <ele>49</ele>
        <time>2018-03-26T20:29:03Z</time>
      </trkpt>
      <trkpt lat="46.75396" lon="-1.74398">
        <ele>49</ele>
        <time>2018-03-26T20:30:03Z</time>
      </trkpt>
      <trkpt lat="46.75398" lon="-1.7444">
        <ele>48</ele>
        <time>2018-03-26T20:31:03Z</time>
      </trkpt>
      <trkpt lat="46.754" lon="-1.7448">
        <ele>48</ele>
        <time>2018-03-26T20:32:03Z</time>
      </trkpt>
      <trkpt lat="46.75405" lon="-1.7454">
        <ele>47</ele>
        <time>2018-03-26T20:33:03Z</time>
      </trkpt>
      <trkpt lat="46.75405" lon="-1.7454">
        <ele>47</ele>
        <time>2018-03-26T20:34:03Z</time>
      </trkpt>
      <trkpt lat="46.75392" lon="-1.74546">
        <ele>47</ele>
        <time>2018-03-26T20:35:03Z</time>
      </trkpt>
      <trkpt lat="46.75369" lon="-1.74559">
        <ele>47</ele>
        <time>2018-03-26T20:36:03Z</time>
      </trkpt>
      <trkpt lat="46.75347" lon="-1.74576">
        <ele>47</ele>
        <time>2018-03-26T20:37:03Z</time>
      </trkpt>
      <trkpt lat="46.75323" lon="-1.74594">
        <ele>47</ele>
        <time>2018-03-26T20:38:03Z</time>
      </trkpt>
      <trkpt lat="46.75316" lon="-1.74599">
        <ele>47</ele>
        <time>2018-03-26T20:39:03Z</time>
      </trkpt>
      <trkpt lat="46.75311" lon="-1.74602">
        <ele>46</ele>
        <time>2018-03-26T20:40:03Z</time>
      </trkpt>
      <trkpt lat="46.75305" lon="-1.74604">
        <ele>46</ele>
        <time>2018-03-26T20:41:03Z</time>
      </trkpt>
      <trkpt lat="46.75291" lon="-1.74608">
        <ele>46</ele>
        <time>2018-03-26T20:42:03Z</time>
      </trkpt>
      <trkpt lat="46.75275" lon="-1.74612">
        <ele>46</ele>
        <time>2018-03-26T20:43:03Z</time>
      </trkpt>
      <trkpt lat="46.7526" lon="-1.74615">
        <ele>45</ele>
        <time>2018-03-26T20:44:03Z</time>
      </trkpt>
      <trkpt lat="46.75244" lon="-1.74617">
        <ele>44</ele>
        <time>2018-03-26T20:45:03Z</time>
      </trkpt>
      <trkpt lat="46.75231" lon="-1.7462">
        <ele>43</ele>
        <time>2018-03-26T20:46:03Z</time>
      </trkpt>
      <trkpt lat="46.75216" lon="-1.74624">
        <ele>42</ele>
        <time>2018-03-26T20:47:03Z</time>
      </trkpt>
      <trkpt lat="46.75215" lon="-1.74624">
        <ele>41</ele>
        <time>2018-03-26T20:48:03Z</time>
      </trkpt>
      <trkpt lat="46.75209" lon="-1.7463">
        <ele>41</ele>
        <time>2018-03-26T20:49:03Z</time>
      </trkpt>
      <trkpt lat="46.75202" lon="-1.74637">
        <ele>40</ele>
        <time>2018-03-26T20:50:03Z</time>
      </trkpt>
      <trkpt lat="46.75192" lon="-1.7465">
        <ele>39</ele>
        <time>2018-03-26T20:51:03Z</time>
      </trkpt>
      <trkpt lat="46.75186" lon="-1.74659">
        <ele>38</ele>
        <time>2018-03-26T20:52:03Z</time>
      </trkpt>
      <trkpt lat="46.75176" lon="-1.74673">
        <ele>37</ele>
        <time>2018-03-26T20:53:03Z</time>
      </trkpt>
      <trkpt lat="46.75166" lon="-1.74688">
        <ele>35</ele>
        <time>2018-03-26T20:54:03Z</time>
      </trkpt>
      <trkpt lat="46.75166" lon="-1.74688">
        <ele>35</ele>
        <time>2018-03-26T20:55:03Z</time>
      </trkpt>
      <trkpt lat="46.75177" lon="-1.7471">
        <ele>35</ele>
        <time>2018-03-26T20:56:03Z</time>
      </trkpt>
      <trkpt lat="46.75193" lon="-1.74738">
        <ele>36</ele>
        <time>2018-03-26T20:57:03Z</time>
      </trkpt>
      <trkpt lat="46.75207" lon="-1.74759">
        <ele>36</ele>
        <time>2018-03-26T20:58:03Z</time>
      </trkpt>
      <trkpt lat="46.75216" lon="-1.74772">
        <ele>36</ele>
        <time>2018-03-26T20:59:03Z</time>
      </trkpt>
      <trkpt lat="46.75226" lon="-1.74785">
        <ele>36</ele>
        <time>2018-03-26T21:00:03Z</time>
      </trkpt>
      <trkpt lat="46.75229" lon="-1.74791">
        <ele>36</ele>
        <time>2018-03-26T21:01:03Z</time>
      </trkpt>
      <trkpt lat="46.75232" lon="-1.74798">
        <ele>35</ele>
        <time>2018-03-26T21:02:03Z</time>
      </trkpt>
      <trkpt lat="46.75235" lon="-1.74806">
        <ele>35</ele>
        <time>2018-03-26T21:03:03Z</time>
      </trkpt>
      <trkpt lat="46.75238" lon="-1.74814">
        <ele>35</ele>
        <time>2018-03-26T21:04:03Z</time>
      </trkpt>
      <trkpt lat="46.7524" lon="-1.74831">
        <ele>34</ele>
        <time>2018-03-26T21:05:03Z</time>
      </trkpt>
      <trkpt lat="46.75242" lon="-1.74849">
        <ele>34</ele>
        <time>2018-03-26T21:06:03Z</time>
      </trkpt>
      <trkpt lat="46.75245" lon="-1.74867">
        <ele>34</ele>
        <time>2018-03-26T21:07:03Z</time>
      </trkpt>
      <trkpt lat="46.75248" lon="-1.74886">
        <ele>34</ele>
        <time>2018-03-26T21:08:03Z</time>
      </trkpt>
      <trkpt lat="46.7525" lon="-1.74896">
        <ele>33</ele>
        <time>2018-03-26T21:09:03Z</time>
      </trkpt>
      <trkpt lat="46.75252" lon="-1.74906">
        <ele>33</ele>
        <time>2018-03-26T21:10:03Z</time>
      </trkpt>
      <trkpt lat="46.75254" lon="-1.74915">
        <ele>33</ele>
        <time>2018-03-26T21:11:03Z</time>
      </trkpt>
      <trkpt lat="46.75256" lon="-1.74937">
        <ele>33</ele>
        <time>2018-03-26T21:12:03Z</time>
      </trkpt>
      <trkpt lat="46.75257" lon="-1.74948">
        <ele>33</ele>
        <time>2018-03-26T21:13:03Z</time>
      </trkpt>
      <trkpt lat="46.75258" lon="-1.74982">
        <ele>33</ele>
        <time>2018-03-26T21:14:03Z</time>
      </trkpt>
      <trkpt lat="46.75261" lon="-1.75016">
        <ele>33</ele>
        <time>2018-03-26T21:15:03Z</time>
      </trkpt>
      <trkpt lat="46.75263" lon="-1.75047">
        <ele>32</ele>
        <time>2018-03-26T21:16:03Z</time>
      </trkpt>
      <trkpt lat="46.75266" lon="-1.75076">
        <ele>32</ele>
        <time>2018-03-26T21:17:03Z</time>
      </trkpt>
      <trkpt lat="46.75269" lon="-1.75092">
        <ele>31</ele>
        <time>2018-03-26T21:18:03Z</time>
      </trkpt>
      <trkpt lat="46.75275" lon="-1.75121">
        <ele>31</ele>
        <time>2018-03-26T21:19:03Z</time>
      </trkpt>
      <trkpt lat="46.75279" lon="-1.75149">
        <ele>31</ele>
        <time>2018-03-26T21:20:03Z</time>
      </trkpt>
      <trkpt lat="46.7528" lon="-1.75158">
        <ele>31</ele>
        <time>2018-03-26T21:21:03Z</time>
      </trkpt>
      <trkpt lat="46.7528" lon="-1.75167">
        <ele>31</ele>
        <time>2018-03-26T21:22:03Z</time>
      </trkpt>
      <trkpt lat="46.7528" lon="-1.75176">
        <ele>31</ele>
        <time>2018-03-26T21:23:03Z</time>
      </trkpt>
      <trkpt lat="46.7528" lon="-1.75184">
        <ele>31</ele>
        <time>2018-03-26T21:24:03Z</time>
      </trkpt>
      <trkpt lat="46.75279" lon="-1.75193">
        <ele>31</ele>
        <time>2018-03-26T21:25:03Z</time>
      </trkpt>
      <trkpt lat="46.75277" lon="-1.75204">
        <ele>31</ele>
        <time>2018-03-26T21:26:03Z</time>
      </trkpt>
      <trkpt lat="46.75275" lon="-1.75212">
        <ele>31</ele>
        <time>2018-03-26T21:27:03Z</time>
      </trkpt>
      <trkpt lat="46.7527" lon="-1.7523">
        <ele>31</ele>
        <time>2018-03-26T21:28:03Z</time>
      </trkpt>
      <trkpt lat="46.75266" lon="-1.75244">
        <ele>31</ele>
        <time>2018-03-26T21:29:03Z</time>
      </trkpt>
      <trkpt lat="46.75258" lon="-1.75288">
        <ele>31</ele>
        <time>2018-03-26T21:30:03Z</time>
      </trkpt>
      <trkpt lat="46.75249" lon="-1.75356">
        <ele>30</ele>
        <time>2018-03-26T21:31:03Z</time>
      </trkpt>
      <trkpt lat="46.75238" lon="-1.75418">
        <ele>29</ele>
        <time>2018-03-26T21:32:03Z</time>
      </trkpt>
      <trkpt lat="46.75225" lon="-1.75516">
        <ele>24</ele>
        <time>2018-03-26T21:33:03Z</time>
      </trkpt>
      <trkpt lat="46.75217" lon="-1.75588">
        <ele>22</ele>
        <time>2018-03-26T21:34:03Z</time>
      </trkpt>
      <trkpt lat="46.75211" lon="-1.75626">
        <ele>20</ele>
        <time>2018-03-26T21:35:03Z</time>
      </trkpt>
      <trkpt lat="46.752" lon="-1.75697">
        <ele>17</ele>
        <time>2018-03-26T21:36:03Z</time>
      </trkpt>
      <trkpt lat="46.75199" lon="-1.75718">
        <ele>16</ele>
        <time>2018-03-26T21:37:03Z</time>
      </trkpt>
      <trkpt lat="46.75196" lon="-1.75745">
        <ele>15</ele>
        <time>2018-03-26T21:38:03Z</time>
      </trkpt>
      <trkpt lat="46.75197" lon="-1.75768">
        <ele>14</ele>
        <time>2018-03-26T21:39:03Z</time>
      </trkpt>
      <trkpt lat="46.75198" lon="-1.75796">
        <ele>14</ele>
        <time>2018-03-26T21:40:03Z</time>
      </trkpt>
      <trkpt lat="46.752" lon="-1.75827">
        <ele>13</ele>
        <time>2018-03-26T21:41:03Z</time>
      </trkpt>
      <trkpt lat="46.752" lon="-1.75856">
        <ele>14</ele>
        <time>2018-03-26T21:42:03Z</time>
      </trkpt>
      <trkpt lat="46.75199" lon="-1.75875">
        <ele>15</ele>
        <time>2018-03-26T21:43:03Z</time>
      </trkpt>
      <trkpt lat="46.75198" lon="-1.75894">
        <ele>15</ele>
        <time>2018-03-26T21:44:03Z</time>
      </trkpt>
      <trkpt lat="46.75195" lon="-1.75912">
        <ele>16</ele>
        <time>2018-03-26T21:45:03Z</time>
      </trkpt>
      <trkpt lat="46.75191" lon="-1.75928">
        <ele>16</ele>
        <time>2018-03-26T21:46:03Z</time>
      </trkpt>
      <trkpt lat="46.75185" lon="-1.75944">
        <ele>17</ele>
        <time>2018-03-26T21:47:03Z</time>
      </trkpt>
      <trkpt lat="46.75176" lon="-1.75967">
        <ele>18</ele>
        <time>2018-03-26T21:48:03Z</time>
      </trkpt>
      <trkpt lat="46.75158" lon="-1.76003">
        <ele>19</ele>
        <time>2018-03-26T21:49:03Z</time>
      </trkpt>
      <trkpt lat="46.75144" lon="-1.7603">
        <ele>18</ele>
        <time>2018-03-26T21:50:03Z</time>
      </trkpt>
      <trkpt lat="46.75136" lon="-1.76043">
        <ele>18</ele>
        <time>2018-03-26T21:51:03Z</time>
      </trkpt>
      <trkpt lat="46.75107" lon="-1.761">
        <ele>18</ele>
        <time>2018-03-26T21:52:03Z</time>
      </trkpt>
      <trkpt lat="46.75057" lon="-1.76193">
        <ele>16</ele>
        <time>2018-03-26T21:53:03Z</time>
      </trkpt>
      <trkpt lat="46.75021" lon="-1.76262">
        <ele>16</ele>
        <time>2018-03-26T21:54:03Z</time>
      </trkpt>
      <trkpt lat="46.75016" lon="-1.76273">
        <ele>16</ele>
        <time>2018-03-26T21:55:03Z</time>
      </trkpt>
      <trkpt lat="46.7501" lon="-1.76285">
        <ele>16</ele>
        <time>2018-03-26T21:56:03Z</time>
      </trkpt>
      <trkpt lat="46.74978" lon="-1.76363">
        <ele>16</ele>
        <time>2018-03-26T21:57:03Z</time>
      </trkpt>
      <trkpt lat="46.74971" lon="-1.76384">
        <ele>17</ele>
        <time>2018-03-26T21:58:03Z</time>
      </trkpt>
      <trkpt lat="46.74968" lon="-1.76395">
        <ele>17</ele>
        <time>2018-03-26T21:59:03Z</time>
      </trkpt>
      <trkpt lat="46.74964" lon="-1.76405">
        <ele>17</ele>
        <time>2018-03-26T22:00:03Z</time>
      </trkpt>
      <trkpt lat="46.74962" lon="-1.76416">
        <ele>17</ele>
        <time>2018-03-26T22:01:03Z</time>
      </trkpt>
      <trkpt lat="46.74957" lon="-1.76436">
        <ele>18</ele>
        <time>2018-03-26T22:02:03Z</time>
      </trkpt>
      <trkpt lat="46.74953" lon="-1.76461">
        <ele>18</ele>
        <time>2018-03-26T22:03:03Z</time>
      </trkpt>
      <trkpt lat="46.74936" lon="-1.76546">
        <ele>19</ele>
        <time>2018-03-26T22:04:03Z</time>
      </trkpt>
      <trkpt lat="46.74929" lon="-1.76585">
        <ele>20</ele>
        <time>2018-03-26T22:05:03Z</time>
      </trkpt>
      <trkpt lat="46.74925" lon="-1.76613">
        <ele>20</ele>
        <time>2018-03-26T22:06:03Z</time>
      </trkpt>
      <trkpt lat="46.74923" lon="-1.76647">
        <ele>21</ele>
        <time>2018-03-26T22:07:03Z</time>
      </trkpt>
      <trkpt lat="46.74923" lon="-1.76687">
        <ele>21</ele>
        <time>2018-03-26T22:08:03Z</time>
      </trkpt>
      <trkpt lat="46.74924" lon="-1.76725">
        <ele>22</ele>
        <time>2018-03-26T22:09:03Z</time>
      </trkpt>
      <trkpt lat="46.74924" lon="-1.76821">
        <ele>24</ele>
        <time>2018-03-26T22:10:03Z</time>
      </trkpt>
      <trkpt lat="46.74926" lon="-1.76873">
        <ele>23</ele>
        <time>2018-03-26T22:11:03Z</time>
      </trkpt>
      <trkpt lat="46.74927" lon="-1.76934">
        <ele>23</ele>
        <time>2018-03-26T22:12:03Z</time>
      </trkpt>
      <trkpt lat="46.74928" lon="-1.76988">
        <ele>23</ele>
        <time>2018-03-26T22:13:03Z</time>
      </trkpt>
      <trkpt lat="46.74927" lon="-1.7701">
        <ele>23</ele>
        <time>2018-03-26T22:14:03Z</time>
      </trkpt>
      <trkpt lat="46.74927" lon="-1.77037">
        <ele>24</ele>
        <time>2018-03-26T22:15:03Z</time>
      </trkpt>
      <trkpt lat="46.74925" lon="-1.77082">
        <ele>25</ele>
        <time>2018-03-26T22:16:03Z</time>
      </trkpt>
      <trkpt lat="46.74919" lon="-1.7714">
        <ele>24</ele>
        <time>2018-03-26T22:17:03Z</time>
      </trkpt>
      <trkpt lat="46.74913" lon="-1.77212">
        <ele>23</ele>
        <time>2018-03-26T22:18:03Z</time>
      </trkpt>
      <trkpt lat="46.74907" lon="-1.77273">
        <ele>22</ele>
        <time>2018-03-26T22:19:03Z</time>
      </trkpt>
      <trkpt lat="46.74905" lon="-1.77302">
        <ele>22</ele>
        <time>2018-03-26T22:20:03Z</time>
      </trkpt>
      <trkpt lat="46.74905" lon="-1.77324">
        <ele>22</ele>
        <time>2018-03-26T22:21:03Z</time>
      </trkpt>
      <trkpt lat="46.74906" lon="-1.77348">
        <ele>22</ele>
        <time>2018-03-26T22:22:03Z</time>
      </trkpt>
      <trkpt lat="46.74908" lon="-1.77372">
        <ele>22</ele>
        <time>2018-03-26T22:23:03Z</time>
      </trkpt>
      <trkpt lat="46.74912" lon="-1.77395">
        <ele>23</ele>
        <time>2018-03-26T22:24:03Z</time>
      </trkpt>
      <trkpt lat="46.74916" lon="-1.77421">
        <ele>23</ele>
        <time>2018-03-26T22:25:03Z</time>
      </trkpt>
      <trkpt lat="46.7492" lon="-1.77451">
        <ele>24</ele>
        <time>2018-03-26T22:26:03Z</time>
      </trkpt>
      <trkpt lat="46.74922" lon="-1.77474">
        <ele>24</ele>
        <time>2018-03-26T22:27:03Z</time>
      </trkpt>
      <trkpt lat="46.74922" lon="-1.7748">
        <ele>24</ele>
        <time>2018-03-26T22:28:03Z</time>
      </trkpt>
      <trkpt lat="46.74922" lon="-1.7749">
        <ele>25</ele>
        <time>2018-03-26T22:29:03Z</time>
      </trkpt>
      <trkpt lat="46.74922" lon="-1.775">
        <ele>25</ele>
        <time>2018-03-26T22:30:03Z</time>
      </trkpt>
      <trkpt lat="46.74921" lon="-1.77541">
        <ele>24</ele>
        <time>2018-03-26T22:31:03Z</time>
      </trkpt>
      <trkpt lat="46.74918" lon="-1.77588">
        <ele>24</ele>
        <time>2018-03-26T22:32:03Z</time>
      </trkpt>
      <trkpt lat="46.74916" lon="-1.77646">
        <ele>23</ele>
        <time>2018-03-26T22:33:03Z</time>
      </trkpt>
      <trkpt lat="46.74916" lon="-1.77692">
        <ele>23</ele>
        <time>2018-03-26T22:34:03Z</time>
      </trkpt>
      <trkpt lat="46.74916" lon="-1.77737">
        <ele>24</ele>
        <time>2018-03-26T22:35:03Z</time>
      </trkpt>
      <trkpt lat="46.74917" lon="-1.77766">
        <ele>24</ele>
        <time>2018-03-26T22:36:03Z</time>
      </trkpt>
      <trkpt lat="46.74919" lon="-1.77789">
        <ele>24</ele>
        <time>2018-03-26T22:37:03Z</time>
      </trkpt>
      <trkpt lat="46.74921" lon="-1.77813">
        <ele>24</ele>
        <time>2018-03-26T22:38:03Z</time>
      </trkpt>
      <trkpt lat="46.74929" lon="-1.77876">
        <ele>23</ele>
        <time>2018-03-26T22:39:03Z</time>
      </trkpt>
      <trkpt lat="46.7494" lon="-1.77952">
        <ele>22</ele>
        <time>2018-03-26T22:40:03Z</time>
      </trkpt>
      <trkpt lat="46.74945" lon="-1.77983">
        <ele>21</ele>
        <time>2018-03-26T22:41:03Z</time>
      </trkpt>
      <trkpt lat="46.74949" lon="-1.78004">
        <ele>21</ele>
        <time>2018-03-26T22:42:03Z</time>
      </trkpt>
      <trkpt lat="46.74963" lon="-1.78056">
        <ele>19</ele>
        <time>2018-03-26T22:43:03Z</time>
      </trkpt>
      <trkpt lat="46.74976" lon="-1.781">
        <ele>18</ele>
        <time>2018-03-26T22:44:03Z</time>
      </trkpt>
      <trkpt lat="46.74976" lon="-1.781">
        <ele>18</ele>
        <time>2018-03-26T22:45:03Z</time>
      </trkpt>
      <trkpt lat="46.75005" lon="-1.78197">
        <ele>17</ele>
        <time>2018-03-26T22:46:03Z</time>
      </trkpt>
      <trkpt lat="46.75015" lon="-1.78234">
        <ele>17</ele>
        <time>2018-03-26T22:47:03Z</time>
      </trkpt>
      <trkpt lat="46.75021" lon="-1.78257">
        <ele>17</ele>
        <time>2018-03-26T22:48:03Z</time>
      </trkpt>
      <trkpt lat="46.7503" lon="-1.78289">
        <ele>17</ele>
        <time>2018-03-26T22:49:03Z</time>
      </trkpt>
      <trkpt lat="46.75039" lon="-1.78322">
        <ele>17</ele>
        <time>2018-03-26T22:50:03Z</time>
      </trkpt>
      <trkpt lat="46.75046" lon="-1.78342">
        <ele>16</ele>
        <time>2018-03-26T22:51:03Z</time>
      </trkpt>
      <trkpt lat="46.75055" lon="-1.78369">
        <ele>16</ele>
        <time>2018-03-26T22:52:03Z</time>
      </trkpt>
      <trkpt lat="46.75067" lon="-1.784">
        <ele>16</ele>
        <time>2018-03-26T22:53:03Z</time>
      </trkpt>
      <trkpt lat="46.75074" lon="-1.78419">
        <ele>16</ele>
        <time>2018-03-26T22:54:03Z</time>
      </trkpt>
      <trkpt lat="46.75079" lon="-1.78432">
        <ele>16</ele>
        <time>2018-03-26T22:55:03Z</time>
      </trkpt>
      <trkpt lat="46.75079" lon="-1.78432">
        <ele>16</ele>
        <time>2018-03-26T22:56:03Z</time>
      </trkpt>
      <trkpt lat="46.75094" lon="-1.78467">
        <ele>16</ele>
        <time>2018-03-26T22:57:03Z</time>
      </trkpt>
      <trkpt lat="46.75112" lon="-1.78508">
        <ele>16</ele>
        <time>2018-03-26T22:58:03Z</time>
      </trkpt>
      <trkpt lat="46.75127" lon="-1.78542">
        <ele>16</ele>
        <time>2018-03-26T22:59:03Z</time>
      </trkpt>
      <trkpt lat="46.75132" lon="-1.78553">
        <ele>16</ele>
        <time>2018-03-26T23:00:03Z</time>
      </trkpt>
      <trkpt lat="46.75147" lon="-1.78584">
        <ele>16</ele>
        <time>2018-03-26T23:01:03Z</time>
      </trkpt>
      <trkpt lat="46.75149" lon="-1.78589">
        <ele>16</ele>
        <time>2018-03-26T23:02:03Z</time>
      </trkpt>
      <trkpt lat="46.75158" lon="-1.78607">
        <ele>16</ele>
        <time>2018-03-26T23:03:03Z</time>
      </trkpt>
      <trkpt lat="46.75172" lon="-1.78629">
        <ele>15</ele>
        <time>2018-03-26T23:04:03Z</time>
      </trkpt>
      <trkpt lat="46.75177" lon="-1.78639">
        <ele>15</ele>
        <time>2018-03-26T23:05:03Z</time>
      </trkpt>
      <trkpt lat="46.75184" lon="-1.78651">
        <ele>15</ele>
        <time>2018-03-26T23:06:03Z</time>
      </trkpt>
      <trkpt lat="46.75189" lon="-1.78661">
        <ele>15</ele>
        <time>2018-03-26T23:07:03Z</time>
      </trkpt>
      <trkpt lat="46.75198" lon="-1.78686">
        <ele>15</ele>
        <time>2018-03-26T23:08:03Z</time>
      </trkpt>
      <trkpt lat="46.7521" lon="-1.78716">
        <ele>14</ele>
        <time>2018-03-26T23:09:03Z</time>
      </trkpt>
      <trkpt lat="46.7522" lon="-1.78743">
        <ele>13</ele>
        <time>2018-03-26T23:10:03Z</time>
      </trkpt>
      <trkpt lat="46.75226" lon="-1.78763">
        <ele>14</ele>
        <time>2018-03-26T23:11:03Z</time>
      </trkpt>
      <trkpt lat="46.75235" lon="-1.78787">
        <ele>14</ele>
        <time>2018-03-26T23:12:03Z</time>
      </trkpt>
      <trkpt lat="46.75241" lon="-1.78811">
        <ele>14</ele>
        <time>2018-03-26T23:13:03Z</time>
      </trkpt>
      <trkpt lat="46.75247" lon="-1.78833">
        <ele>15</ele>
        <time>2018-03-26T23:14:03Z</time>
      </trkpt>
      <trkpt lat="46.75253" lon="-1.78857">
        <ele>16</ele>
        <time>2018-03-26T23:15:03Z</time>
      </trkpt>
      <trkpt lat="46.75262" lon="-1.78886">
        <ele>16</ele>
        <time>2018-03-26T23:16:03Z</time>
      </trkpt>
      <trkpt lat="46.75272" lon="-1.78914">
        <ele>16</ele>
        <time>2018-03-26T23:17:03Z</time>
      </trkpt>
      <trkpt lat="46.75286" lon="-1.78949">
        <ele>16</ele>
        <time>2018-03-26T23:18:03Z</time>
      </trkpt>
      <trkpt lat="46.75303" lon="-1.78996">
        <ele>16</ele>
        <time>2018-03-26T23:19:03Z</time>
      </trkpt>
      <trkpt lat="46.75321" lon="-1.79043">
        <ele>15</ele>
        <time>2018-03-26T23:20:03Z</time>
      </trkpt>
      <trkpt lat="46.75339" lon="-1.79089">
        <ele>15</ele>
        <time>2018-03-26T23:21:03Z</time>
      </trkpt>
      <trkpt lat="46.75342" lon="-1.79098">
        <ele>15</ele>
        <time>2018-03-26T23:22:03Z</time>
      </trkpt>
      <trkpt lat="46.75353" lon="-1.79124">
        <ele>15</ele>
        <time>2018-03-26T23:23:03Z</time>
      </trkpt>
      <trkpt lat="46.7536" lon="-1.79143">
        <ele>15</ele>
        <time>2018-03-26T23:24:03Z</time>
      </trkpt>
      <trkpt lat="46.75363" lon="-1.79154">
        <ele>15</ele>
        <time>2018-03-26T23:25:03Z</time>
      </trkpt>
      <trkpt lat="46.75364" lon="-1.79163">
        <ele>15</ele>
        <time>2018-03-26T23:26:03Z</time>
      </trkpt>
      <trkpt lat="46.75365" lon="-1.79171">
        <ele>15</ele>
        <time>2018-03-26T23:27:03Z</time>
      </trkpt>
      <trkpt lat="46.75364" lon="-1.79181">
        <ele>15</ele>
        <time>2018-03-26T23:28:03Z</time>
      </trkpt>
      <trkpt lat="46.7536" lon="-1.79197">
        <ele>14</ele>
        <time>2018-03-26T23:29:03Z</time>
      </trkpt>
      <trkpt lat="46.75349" lon="-1.79239">
        <ele>12</ele>
        <time>2018-03-26T23:30:03Z</time>
      </trkpt>
      <trkpt lat="46.75345" lon="-1.79253">
        <ele>12</ele>
        <time>2018-03-26T23:31:03Z</time>
      </trkpt>
      <trkpt lat="46.7534" lon="-1.79264">
        <ele>12</ele>
        <time>2018-03-26T23:32:03Z</time>
      </trkpt>
      <trkpt lat="46.75335" lon="-1.79274">
        <ele>11</ele>
        <time>2018-03-26T23:33:03Z</time>
      </trkpt>
      <trkpt lat="46.75327" lon="-1.79285">
        <ele>11</ele>
        <time>2018-03-26T23:34:03Z</time>
      </trkpt>
      <trkpt lat="46.7531" lon="-1.79308">
        <ele>11</ele>
        <time>2018-03-26T23:35:03Z</time>
      </trkpt>
      <trkpt lat="46.75303" lon="-1.79321">
        <ele>11</ele>
        <time>2018-03-26T23:36:03Z</time>
      </trkpt>
      <trkpt lat="46.75296" lon="-1.79333">
        <ele>11</ele>
        <time>2018-03-26T23:37:03Z</time>
      </trkpt>
      <trkpt lat="46.75287" lon="-1.79355">
        <ele>12</ele>
        <time>2018-03-26T23:38:03Z</time>
      </trkpt>
      <trkpt lat="46.75275" lon="-1.79388">
        <ele>12</ele>
        <time>2018-03-26T23:39:03Z</time>
      </trkpt>
      <trkpt lat="46.75268" lon="-1.79409">
        <ele>12</ele>
        <time>2018-03-26T23:40:03Z</time>
      </trkpt>
      <trkpt lat="46.75265" lon="-1.79422">
        <ele>12</ele>
        <time>2018-03-26T23:41:03Z</time>
      </trkpt>
      <trkpt lat="46.75261" lon="-1.79439">
        <ele>13</ele>
        <time>2018-03-26T23:42:03Z</time>
      </trkpt>
      <trkpt lat="46.75259" lon="-1.79456">
        <ele>13</ele>
        <time>2018-03-26T23:43:03Z</time>
      </trkpt>
      <trkpt lat="46.75256" lon="-1.79494">
        <ele>13</ele>
        <time>2018-03-26T23:44:03Z</time>
      </trkpt>
      <trkpt lat="46.75254" lon="-1.79519">
        <ele>14</ele>
        <time>2018-03-26T23:45:03Z</time>
      </trkpt>
      <trkpt lat="46.75252" lon="-1.79539">
        <ele>14</ele>
        <time>2018-03-26T23:46:03Z</time>
      </trkpt>
      <trkpt lat="46.75251" lon="-1.79544">
        <ele>14</ele>
        <time>2018-03-26T23:47:03Z</time>
      </trkpt>
      <trkpt lat="46.75248" lon="-1.79559">
        <ele>14</ele>
        <time>2018-03-26T23:48:03Z</time>
      </trkpt>
      <trkpt lat="46.75245" lon="-1.79573">
        <ele>15</ele>
        <time>2018-03-26T23:49:03Z</time>
      </trkpt>
      <trkpt lat="46.75241" lon="-1.79594">
        <ele>15</ele>
        <time>2018-03-26T23:50:03Z</time>
      </trkpt>
      <trkpt lat="46.75232" lon="-1.79628">
        <ele>16</ele>
        <time>2018-03-26T23:51:03Z</time>
      </trkpt>
      <trkpt lat="46.75228" lon="-1.79642">
        <ele>16</ele>
        <time>2018-03-26T23:52:03Z</time>
      </trkpt>
      <trkpt lat="46.75222" lon="-1.79655">
        <ele>17</ele>
        <time>2018-03-26T23:53:03Z</time>
      </trkpt>
      <trkpt lat="46.75216" lon="-1.79667">
        <ele>17</ele>
        <time>2018-03-26T23:54:03Z</time>
      </trkpt>
      <trkpt lat="46.75209" lon="-1.79681">
        <ele>17</ele>
        <time>2018-03-26T23:55:03Z</time>
      </trkpt>
      <trkpt lat="46.752" lon="-1.79697">
        <ele>17</ele>
        <time>2018-03-26T23:56:03Z</time>
      </trkpt>
      <trkpt lat="46.75183" lon="-1.79729">
        <ele>17</ele>
        <time>2018-03-26T23:57:03Z</time>
      </trkpt>
      <trkpt lat="46.75177" lon="-1.79742">
        <ele>17</ele>
        <time>2018-03-26T23:58:03Z</time>
      </trkpt>
      <trkpt lat="46.75174" lon="-1.79754">
        <ele>17</ele>
        <time>2018-03-26T23:59:03Z</time>
      </trkpt>
      <trkpt lat="46.75169" lon="-1.79774">
        <ele>17</ele>
        <time>2018-03-27T00:00:03Z</time>
      </trkpt>
      <trkpt lat="46.75165" lon="-1.79795">
        <ele>16</ele>
        <time>2018-03-27T00:01:03Z</time>
      </trkpt>
      <trkpt lat="46.75159" lon="-1.79816">
        <ele>16</ele>
        <time>2018-03-27T00:02:03Z</time>
      </trkpt>
      <trkpt lat="46.7515" lon="-1.79844">
        <ele>15</ele>
        <time>2018-03-27T00:03:03Z</time>
      </trkpt>
      <trkpt lat="46.75142" lon="-1.79868">
        <ele>15</ele>
        <time>2018-03-27T00:04:03Z</time>
      </trkpt>
      <trkpt lat="46.75131" lon="-1.79902">
        <ele>15</ele>
        <time>2018-03-27T00:05:03Z</time>
      </trkpt>
      <trkpt lat="46.75124" lon="-1.79919">
        <ele>15</ele>
        <time>2018-03-27T00:06:03Z</time>
      </trkpt>
      <trkpt lat="46.7512" lon="-1.79928">
        <ele>15</ele>
        <time>2018-03-27T00:07:03Z</time>
      </trkpt>
      <trkpt lat="46.75115" lon="-1.79936">
        <ele>15</ele>
        <time>2018-03-27T00:08:03Z</time>
      </trkpt>
      <trkpt lat="46.75109" lon="-1.79943">
        <ele>14</ele>
        <time>2018-03-27T00:09:03Z</time>
      </trkpt>
      <trkpt lat="46.75103" lon="-1.79946">
        <ele>14</ele>
        <time>2018-03-27T00:10:03Z</time>
      </trkpt>
      <trkpt lat="46.75099" lon="-1.79949">
        <ele>14</ele>
        <time>2018-03-27T00:11:03Z</time>
      </trkpt>
      <trkpt lat="46.75064" lon="-1.79966">
        <ele>14</ele>
        <time>2018-03-27T00:12:03Z</time>
      </trkpt>
      <trkpt lat="46.75035" lon="-1.79982">
        <ele>13</ele>
        <time>2018-03-27T00:13:03Z</time>
      </trkpt>
      <trkpt lat="46.75017" lon="-1.79991">
        <ele>13</ele>
        <time>2018-03-27T00:14:03Z</time>
      </trkpt>
      <trkpt lat="46.75017" lon="-1.79991">
        <ele>13</ele>
        <time>2018-03-27T00:15:03Z</time>
      </trkpt>
      <trkpt lat="46.75021" lon="-1.80014">
        <ele>13</ele>
        <time>2018-03-27T00:16:03Z</time>
      </trkpt>
      <trkpt lat="46.75026" lon="-1.80044">
        <ele>13</ele>
        <time>2018-03-27T00:17:03Z</time>
      </trkpt>
      <trkpt lat="46.75034" lon="-1.80092">
        <ele>12</ele>
        <time>2018-03-27T00:18:03Z</time>
      </trkpt>
      <trkpt lat="46.75039" lon="-1.80125">
        <ele>12</ele>
        <time>2018-03-27T00:19:03Z</time>
      </trkpt>
      <trkpt lat="46.75039" lon="-1.80127">
        <ele>12</ele>
        <time>2018-03-27T00:20:03Z</time>
      </trkpt>
      <trkpt lat="46.75048" lon="-1.8018">
        <ele>13</ele>
        <time>2018-03-27T00:21:03Z</time>
      </trkpt>
      <trkpt lat="46.75055" lon="-1.80218">
        <ele>15</ele>
        <time>2018-03-27T00:22:03Z</time>
      </trkpt>
      <trkpt lat="46.75059" lon="-1.80247">
        <ele>16</ele>
        <time>2018-03-27T00:23:03Z</time>
      </trkpt>
      <trkpt lat="46.75066" lon="-1.80298">
        <ele>16</ele>
        <time>2018-03-27T00:24:03Z</time>
      </trkpt>
      <trkpt lat="46.75066" lon="-1.803">
        <ele>16</ele>
        <time>2018-03-27T00:25:03Z</time>
      </trkpt>
      <trkpt lat="46.75079" lon="-1.8038">
        <ele>15</ele>
        <time>2018-03-27T00:26:03Z</time>
      </trkpt>
      <trkpt lat="46.75088" lon="-1.80437">
        <ele>14</ele>
        <time>2018-03-27T00:27:03Z</time>
      </trkpt>
      <trkpt lat="46.75097" lon="-1.80489">
        <ele>15</ele>
        <time>2018-03-27T00:28:03Z</time>
      </trkpt>
      <trkpt lat="46.75102" lon="-1.80526">
        <ele>14</ele>
        <time>2018-03-27T00:29:03Z</time>
      </trkpt>
      <trkpt lat="46.75113" lon="-1.80589">
        <ele>14</ele>
        <time>2018-03-27T00:30:03Z</time>
      </trkpt>
      <trkpt lat="46.75115" lon="-1.80604">
        <ele>13</ele>
        <time>2018-03-27T00:31:03Z</time>
      </trkpt>
      <trkpt lat="46.75127" lon="-1.80676">
        <ele>11</ele>
        <time>2018-03-27T00:32:03Z</time>
      </trkpt>
      <trkpt lat="46.7513" lon="-1.80699">
        <ele>11</ele>
        <time>2018-03-27T00:33:03Z</time>
      </trkpt>
      <trkpt lat="46.75135" lon="-1.8073">
        <ele>11</ele>
        <time>2018-03-27T00:34:03Z</time>
      </trkpt>
      <trkpt lat="46.75144" lon="-1.80784">
        <ele>11</ele>
        <time>2018-03-27T00:35:03Z</time>
      </trkpt>
      <trkpt lat="46.75157" lon="-1.80862">
        <ele>11</ele>
        <time>2018-03-27T00:36:03Z</time>
      </trkpt>
      <trkpt lat="46.75169" lon="-1.80939">
        <ele>11</ele>
        <time>2018-03-27T00:37:03Z</time>
      </trkpt>
      <trkpt lat="46.75185" lon="-1.81037">
        <ele>10</ele>
        <time>2018-03-27T00:38:03Z</time>
      </trkpt>
      <trkpt lat="46.75195" lon="-1.81098">
        <ele>10</ele>
        <time>2018-03-27T00:39:03Z</time>
      </trkpt>
      <trkpt lat="46.752" lon="-1.81132">
        <ele>10</ele>
        <time>2018-03-27T00:40:03Z</time>
      </trkpt>
      <trkpt lat="46.75204" lon="-1.81152">
        <ele>10</ele>
        <time>2018-03-27T00:41:03Z</time>
      </trkpt>
      <trkpt lat="46.75207" lon="-1.81169">
        <ele>10</ele>
        <time>2018-03-27T00:42:03Z</time>
      </trkpt>
      <trkpt lat="46.7521" lon="-1.81184">
        <ele>10</ele>
        <time>2018-03-27T00:43:03Z</time>
      </trkpt>
      <trkpt lat="46.75215" lon="-1.81201">
        <ele>10</ele>
        <time>2018-03-27T00:44:03Z</time>
      </trkpt>
      <trkpt lat="46.7522" lon="-1.81224">
        <ele>10</ele>
        <time>2018-03-27T00:45:03Z</time>
      </trkpt>
      <trkpt lat="46.75226" lon="-1.81242">
        <ele>10</ele>
        <time>2018-03-27T00:46:03Z</time>
      </trkpt>
      <trkpt lat="46.75244" lon="-1.81293">
        <ele>10</ele>
        <time>2018-03-27T00:47:03Z</time>
      </trkpt>
      <trkpt lat="46.75256" lon="-1.81322">
        <ele>10</ele>
        <time>2018-03-27T00:48:03Z</time>
      </trkpt>
      <trkpt lat="46.75272" lon="-1.81358">
        <ele>10</ele>
        <time>2018-03-27T00:49:03Z</time>
      </trkpt>
      <trkpt lat="46.75278" lon="-1.81373">
        <ele>10</ele>
        <time>2018-03-27T00:50:03Z</time>
      </trkpt>
      <trkpt lat="46.75311" lon="-1.81446">
        <ele>9</ele>
        <time>2018-03-27T00:51:03Z</time>
      </trkpt>
      <trkpt lat="46.7533" lon="-1.81491">
        <ele>9</ele>
        <time>2018-03-27T00:52:03Z</time>
      </trkpt>
      <trkpt lat="46.75354" lon="-1.81545">
        <ele>8</ele>
        <time>2018-03-27T00:53:03Z</time>
      </trkpt>
      <trkpt lat="46.75378" lon="-1.81599">
        <ele>9</ele>
        <time>2018-03-27T00:54:03Z</time>
      </trkpt>
      <trkpt lat="46.75399" lon="-1.81648">
        <ele>9</ele>
        <time>2018-03-27T00:55:03Z</time>
      </trkpt>
      <trkpt lat="46.75429" lon="-1.81716">
        <ele>9</ele>
        <time>2018-03-27T00:56:03Z</time>
      </trkpt>
      <trkpt lat="46.75447" lon="-1.81754">
        <ele>9</ele>
        <time>2018-03-27T00:57:03Z</time>
      </trkpt>
      <trkpt lat="46.75456" lon="-1.81772">
        <ele>9</ele>
        <time>2018-03-27T00:58:03Z</time>
      </trkpt>
      <trkpt lat="46.7546" lon="-1.81778">
        <ele>9</ele>
        <time>2018-03-27T00:59:03Z</time>
      </trkpt>
      <trkpt lat="46.75467" lon="-1.8179">
        <ele>9</ele>
        <time>2018-03-27T01:00:03Z</time>
      </trkpt>
      <trkpt lat="46.75474" lon="-1.81802">
        <ele>9</ele>
        <time>2018-03-27T01:01:03Z</time>
      </trkpt>
      <trkpt lat="46.75484" lon="-1.81816">
        <ele>9</ele>
        <time>2018-03-27T01:02:03Z</time>
      </trkpt>
      <trkpt lat="46.75493" lon="-1.81829">
        <ele>9</ele>
        <time>2018-03-27T01:03:03Z</time>
      </trkpt>
      <trkpt lat="46.75502" lon="-1.8184">
        <ele>9</ele>
        <time>2018-03-27T01:04:03Z</time>
      </trkpt>
      <trkpt lat="46.75509" lon="-1.8185">
        <ele>9</ele>
        <time>2018-03-27T01:05:03Z</time>
      </trkpt>
      <trkpt lat="46.75516" lon="-1.81858">
        <ele>9</ele>
        <time>2018-03-27T01:06:03Z</time>
      </trkpt>
      <trkpt lat="46.75525" lon="-1.81869">
        <ele>8</ele>
        <time>2018-03-27T01:07:03Z</time>
      </trkpt>
      <trkpt lat="46.75533" lon="-1.81879">
        <ele>8</ele>
        <time>2018-03-27T01:08:03Z</time>
      </trkpt>
      <trkpt lat="46.75541" lon="-1.81887">
        <ele>8</ele>
        <time>2018-03-27T01:09:03Z</time>
      </trkpt>
      <trkpt lat="46.7555" lon="-1.81896">
        <ele>8</ele>
        <time>2018-03-27T01:10:03Z</time>
      </trkpt>
      <trkpt lat="46.75582" lon="-1.81925">
        <ele>7</ele>
        <time>2018-03-27T01:11:03Z</time>
      </trkpt>
      <trkpt lat="46.75614" lon="-1.81951">
        <ele>6</ele>
        <time>2018-03-27T01:12:03Z</time>
      </trkpt>
      <trkpt lat="46.75644" lon="-1.81975">
        <ele>6</ele>
        <time>2018-03-27T01:13:03Z</time>
      </trkpt>
      <trkpt lat="46.75704" lon="-1.82024">
        <ele>6</ele>
        <time>2018-03-27T01:14:03Z</time>
      </trkpt>
      <trkpt lat="46.75739" lon="-1.82054">
        <ele>7</ele>
        <time>2018-03-27T01:15:03Z</time>
      </trkpt>
      <trkpt lat="46.75767" lon="-1.82077">
        <ele>7</ele>
        <time>2018-03-27T01:16:03Z</time>
      </trkpt>
      <trkpt lat="46.75783" lon="-1.8209">
        <ele>7</ele>
        <time>2018-03-27T01:17:03Z</time>
      </trkpt>
      <trkpt lat="46.75796" lon="-1.82103">
        <ele>7</ele>
        <time>2018-03-27T01:18:03Z</time>
      </trkpt>
      <trkpt lat="46.75806" lon="-1.82114">
        <ele>7</ele>
        <time>2018-03-27T01:19:03Z</time>
      </trkpt>
      <trkpt lat="46.75815" lon="-1.82124">
        <ele>7</ele>
        <time>2018-03-27T01:20:03Z</time>
      </trkpt>
      <trkpt lat="46.75824" lon="-1.82136">
        <ele>7</ele>
        <time>2018-03-27T01:21:03Z</time>
      </trkpt>
      <trkpt lat="46.7583" lon="-1.82144">
        <ele>7</ele>
        <time>2018-03-27T01:22:03Z</time>
      </trkpt>
      <trkpt lat="46.7584" lon="-1.82159">
        <ele>7</ele>
        <time>2018-03-27T01:23:03Z</time>
      </trkpt>
      <trkpt lat="46.7585" lon="-1.82177">
        <ele>7</ele>
        <time>2018-03-27T01:24:03Z</time>
      </trkpt>
      <trkpt lat="46.75858" lon="-1.82191">
        <ele>7</ele>
        <time>2018-03-27T01:25:03Z</time>
      </trkpt>
      <trkpt lat="46.75867" lon="-1.82208">
        <ele>7</ele>
        <time>2018-03-27T01:26:03Z</time>
      </trkpt>
      <trkpt lat="46.75877" lon="-1.8223">
        <ele>7</ele>
        <time>2018-03-27T01:27:03Z</time>
      </trkpt>
      <trkpt lat="46.75883" lon="-1.82246">
        <ele>7</ele>
        <time>2018-03-27T01:28:03Z</time>
      </trkpt>
      <trkpt lat="46.75884" lon="-1.82249">
        <ele>7</ele>
        <time>2018-03-27T01:29:03Z</time>
      </trkpt>
      <trkpt lat="46.75886" lon="-1.82253">
        <ele>7</ele>
        <time>2018-03-27T01:30:03Z</time>
      </trkpt>
      <trkpt lat="46.75889" lon="-1.82262">
        <ele>7</ele>
        <time>2018-03-27T01:31:03Z</time>
      </trkpt>
      <trkpt lat="46.75893" lon="-1.82273">
        <ele>7</ele>
        <time>2018-03-27T01:32:03Z</time>
      </trkpt>
      <trkpt lat="46.75897" lon="-1.82285">
        <ele>7</ele>
        <time>2018-03-27T01:33:03Z</time>
      </trkpt>
      <trkpt lat="46.759" lon="-1.82298">
        <ele>7</ele>
        <time>2018-03-27T01:34:03Z</time>
      </trkpt>
      <trkpt lat="46.75905" lon="-1.82318">
        <ele>7</ele>
        <time>2018-03-27T01:35:03Z</time>
      </trkpt>
      <trkpt lat="46.75908" lon="-1.82329">
        <ele>7</ele>
        <time>2018-03-27T01:36:03Z</time>
      </trkpt>
      <trkpt lat="46.75913" lon="-1.82347">
        <ele>7</ele>
        <time>2018-03-27T01:37:03Z</time>
      </trkpt>
      <trkpt lat="46.75923" lon="-1.82387">
        <ele>7</ele>
        <time>2018-03-27T01:38:03Z</time>
      </trkpt>
      <trkpt lat="46.75946" lon="-1.82477">
        <ele>7</ele>
        <time>2018-03-27T01:39:03Z</time>
      </trkpt>
      <trkpt lat="46.75964" lon="-1.82552">
        <ele>8</ele>
        <time>2018-03-27T01:40:03Z</time>
      </trkpt>
      <trkpt lat="46.7598" lon="-1.82616">
        <ele>8</ele>
        <time>2018-03-27T01:41:03Z</time>
      </trkpt>
      <trkpt lat="46.75996" lon="-1.82677">
        <ele>8</ele>
        <time>2018-03-27T01:42:03Z</time>
      </trkpt>
      <trkpt lat="46.76007" lon="-1.8272">
        <ele>8</ele>
        <time>2018-03-27T01:43:03Z</time>
      </trkpt>
      <trkpt lat="46.7601" lon="-1.82731">
        <ele>8</ele>
        <time>2018-03-27T01:44:03Z</time>
      </trkpt>
      <trkpt lat="46.76021" lon="-1.82775">
        <ele>8</ele>
        <time>2018-03-27T01:45:03Z</time>
      </trkpt>
      <trkpt lat="46.76023" lon="-1.82781">
        <ele>8</ele>
        <time>2018-03-27T01:46:03Z</time>
      </trkpt>
      <trkpt lat="46.76032" lon="-1.82816">
        <ele>8</ele>
        <time>2018-03-27T01:47:03Z</time>
      </trkpt>
      <trkpt lat="46.76041" lon="-1.82855">
        <ele>8</ele>
        <time>2018-03-27T01:48:03Z</time>
      </trkpt>
      <trkpt lat="46.76055" lon="-1.82908">
        <ele>7</ele>
        <time>2018-03-27T01:49:03Z</time>
      </trkpt>
      <trkpt lat="46.76062" lon="-1.82937">
        <ele>8</ele>
        <time>2018-03-27T01:50:03Z</time>
      </trkpt>
      <trkpt lat="46.76069" lon="-1.82964">
        <ele>9</ele>
        <time>2018-03-27T01:51:03Z</time>
      </trkpt>
      <trkpt lat="46.76083" lon="-1.8302">
        <ele>11</ele>
        <time>2018-03-27T01:52:03Z</time>
      </trkpt>
      <trkpt lat="46.76093" lon="-1.83059">
        <ele>12</ele>
        <time>2018-03-27T01:53:03Z</time>
      </trkpt>
      <trkpt lat="46.76103" lon="-1.83097">
        <ele>13</ele>
        <time>2018-03-27T01:54:03Z</time>
      </trkpt>
      <trkpt lat="46.76113" lon="-1.83134">
        <ele>13</ele>
        <time>2018-03-27T01:55:03Z</time>
      </trkpt>
      <trkpt lat="46.76126" lon="-1.83183">
        <ele>13</ele>
        <time>2018-03-27T01:56:03Z</time>
      </trkpt>
      <trkpt lat="46.76134" lon="-1.83214">
        <ele>14</ele>
        <time>2018-03-27T01:57:03Z</time>
      </trkpt>
      <trkpt lat="46.76137" lon="-1.83226">
        <ele>14</ele>
        <time>2018-03-27T01:58:03Z</time>
      </trkpt>
      <trkpt lat="46.76147" lon="-1.83267">
        <ele>15</ele>
        <time>2018-03-27T01:59:03Z</time>
      </trkpt>
      <trkpt lat="46.76155" lon="-1.83296">
        <ele>15</ele>
        <time>2018-03-27T02:00:03Z</time>
      </trkpt>
      <trkpt lat="46.76165" lon="-1.83332">
        <ele>16</ele>
        <time>2018-03-27T02:01:03Z</time>
      </trkpt>
      <trkpt lat="46.76182" lon="-1.834">
        <ele>17</ele>
        <time>2018-03-27T02:02:03Z</time>
      </trkpt>
      <trkpt lat="46.76187" lon="-1.83416">
        <ele>17</ele>
        <time>2018-03-27T02:03:03Z</time>
      </trkpt>
      <trkpt lat="46.76199" lon="-1.83463">
        <ele>17</ele>
        <time>2018-03-27T02:04:03Z</time>
      </trkpt>
      <trkpt lat="46.76211" lon="-1.8351">
        <ele>17</ele>
        <time>2018-03-27T02:05:03Z</time>
      </trkpt>
      <trkpt lat="46.76221" lon="-1.83549">
        <ele>17</ele>
        <time>2018-03-27T02:06:03Z</time>
      </trkpt>
      <trkpt lat="46.76223" lon="-1.83558">
        <ele>17</ele>
        <time>2018-03-27T02:07:03Z</time>
      </trkpt>
      <trkpt lat="46.76229" lon="-1.83581">
        <ele>17</ele>
        <time>2018-03-27T02:08:03Z</time>
      </trkpt>
      <trkpt lat="46.76232" lon="-1.83593">
        <ele>17</ele>
        <time>2018-03-27T02:09:03Z</time>
      </trkpt>
      <trkpt lat="46.76235" lon="-1.83602">
        <ele>18</ele>
        <time>2018-03-27T02:10:03Z</time>
      </trkpt>
      <trkpt lat="46.76236" lon="-1.83607">
        <ele>18</ele>
        <time>2018-03-27T02:11:03Z</time>
      </trkpt>
      <trkpt lat="46.76241" lon="-1.83628">
        <ele>18</ele>
        <time>2018-03-27T02:12:03Z</time>
      </trkpt>
      <trkpt lat="46.76242" lon="-1.83635">
        <ele>18</ele>
        <time>2018-03-27T02:13:03Z</time>
      </trkpt>
      <trkpt lat="46.76244" lon="-1.83645">
        <ele>18</ele>
        <time>2018-03-27T02:14:03Z</time>
      </trkpt>
      <trkpt lat="46.76245" lon="-1.83656">
        <ele>19</ele>
        <time>2018-03-27T02:15:03Z</time>
      </trkpt>
      <trkpt lat="46.76247" lon="-1.83667">
        <ele>19</ele>
        <time>2018-03-27T02:16:03Z</time>
      </trkpt>
      <trkpt lat="46.76247" lon="-1.83667">
        <ele>19</ele>
        <time>2018-03-27T02:17:03Z</time>
      </trkpt>
      <trkpt lat="46.7624" lon="-1.83666">
        <ele>19</ele>
        <time>2018-03-27T02:18:03Z</time>
      </trkpt>
      <trkpt lat="46.76234" lon="-1.83668">
        <ele>19</ele>
        <time>2018-03-27T02:19:03Z</time>
      </trkpt>
      <trkpt lat="46.76226" lon="-1.83672">
        <ele>19</ele>
        <time>2018-03-27T02:20:03Z</time>
      </trkpt>
      <trkpt lat="46.76218" lon="-1.83677">
        <ele>19</ele>
        <time>2018-03-27T02:21:03Z</time>
      </trkpt>
      <trkpt lat="46.76212" lon="-1.83682">
        <ele>19</ele>
        <time>2018-03-27T02:22:03Z</time>
      </trkpt>
      <trkpt lat="46.7621" lon="-1.83684">
        <ele>19</ele>
        <time>2018-03-27T02:23:03Z</time>
      </trkpt>
      <trkpt lat="46.76207" lon="-1.83687">
        <ele>19</ele>
        <time>2018-03-27T02:24:03Z</time>
      </trkpt>
      <trkpt lat="46.762" lon="-1.83696">
        <ele>19</ele>
        <time>2018-03-27T02:25:03Z</time>
      </trkpt>
      <trkpt lat="46.76195" lon="-1.83703">
        <ele>19</ele>
        <time>2018-03-27T02:26:03Z</time>
      </trkpt>
      <trkpt lat="46.76191" lon="-1.8371">
        <ele>19</ele>
        <time>2018-03-27T02:27:03Z</time>
      </trkpt>
      <trkpt lat="46.76186" lon="-1.83718">
        <ele>19</ele>
        <time>2018-03-27T02:28:03Z</time>
      </trkpt>
      <trkpt lat="46.76182" lon="-1.83724">
        <ele>20</ele>
        <time>2018-03-27T02:29:03Z</time>
      </trkpt>
      <trkpt lat="46.76182" lon="-1.83724">
        <ele>20</ele>
        <time>2018-03-27T02:30:03Z</time>
      </trkpt>
      <trkpt lat="46.76184" lon="-1.8373">
        <ele>20</ele>
        <time>2018-03-27T02:31:03Z</time>
      </trkpt>
      <trkpt lat="46.76187" lon="-1.83737">
        <ele>20</ele>
        <time>2018-03-27T02:32:03Z</time>
      </trkpt>
      <trkpt lat="46.76191" lon="-1.83745">
        <ele>20</ele>
        <time>2018-03-27T02:33:03Z</time>
      </trkpt>
      <trkpt lat="46.76194" lon="-1.83752">
        <ele>20</ele>
        <time>2018-03-27T02:34:03Z</time>
      </trkpt>
      <trkpt lat="46.76196" lon="-1.8376">
        <ele>20</ele>
        <time>2018-03-27T02:35:03Z</time>
      </trkpt>
      <trkpt lat="46.76198" lon="-1.83765">
        <ele>20</ele>
        <time>2018-03-27T02:36:03Z</time>
      </trkpt>
      <trkpt lat="46.762" lon="-1.8377">
        <ele>20</ele>
        <time>2018-03-27T02:37:03Z</time>
      </trkpt>
      <trkpt lat="46.76202" lon="-1.83774">
        <ele>20</ele>
        <time>2018-03-27T02:38:03Z</time>
      </trkpt>
      <trkpt lat="46.76205" lon="-1.8378">
        <ele>20</ele>
        <time>2018-03-27T02:39:03Z</time>
      </trkpt>
      <trkpt lat="46.76213" lon="-1.83788">
        <ele>20</ele>
        <time>2018-03-27T02:40:03Z</time>
      </trkpt>
      <trkpt lat="46.76219" lon="-1.83793">
        <ele>20</ele>
        <time>2018-03-27T02:41:03Z</time>
      </trkpt>
      <trkpt lat="46.76223" lon="-1.83795">
        <ele>19</ele>
        <time>2018-03-27T02:42:03Z</time>
      </trkpt>
      <trkpt lat="46.76234" lon="-1.83801">
        <ele>19</ele>
        <time>2018-03-27T02:43:03Z</time>
      </trkpt>
      <trkpt lat="46.76246" lon="-1.83807">
        <ele>19</ele>
        <time>2018-03-27T02:44:03Z</time>
      </trkpt>
      <trkpt lat="46.7625" lon="-1.83809">
        <ele>19</ele>
        <time>2018-03-27T02:45:03Z</time>
      </trkpt>
      <trkpt lat="46.7626" lon="-1.83813">
        <ele>19</ele>
        <time>2018-03-27T02:46:03Z</time>
      </trkpt>
      <trkpt lat="46.76284" lon="-1.83821">
        <ele>19</ele>
        <time>2018-03-27T02:47:03Z</time>
      </trkpt>
      <trkpt lat="46.76308" lon="-1.8383">
        <ele>18</ele>
        <time>2018-03-27T02:48:03Z</time>
      </trkpt>
      <trkpt lat="46.76339" lon="-1.83843">
        <ele>18</ele>
        <time>2018-03-27T02:49:03Z</time>
      </trkpt>
      <trkpt lat="46.76352" lon="-1.83849">
        <ele>18</ele>
        <time>2018-03-27T02:50:03Z</time>
      </trkpt>
      <trkpt lat="46.76361" lon="-1.83852">
        <ele>18</ele>
        <time>2018-03-27T02:51:03Z</time>
      </trkpt>
      <trkpt lat="46.76371" lon="-1.83854">
        <ele>18</ele>
        <time>2018-03-27T02:52:03Z</time>
      </trkpt>
      <trkpt lat="46.76376" lon="-1.83855">
        <ele>18</ele>
        <time>2018-03-27T02:53:03Z</time>
      </trkpt>
      <trkpt lat="46.76381" lon="-1.83852">
        <ele>18</ele>
        <time>2018-03-27T02:54:03Z</time>
      </trkpt>
      <trkpt lat="46.76387" lon="-1.83854">
        <ele>18</ele>
        <time>2018-03-27T02:55:03Z</time>
      </trkpt>
      <trkpt lat="46.76399" lon="-1.83855">
        <ele>19</ele>
        <time>2018-03-27T02:56:03Z</time>
      </trkpt>
      <trkpt lat="46.76419" lon="-1.83856">
        <ele>19</ele>
        <time>2018-03-27T02:57:03Z</time>
      </trkpt>
      <trkpt lat="46.76426" lon="-1.83857">
        <ele>19</ele>
        <time>2018-03-27T02:58:03Z</time>
      </trkpt>
      <trkpt lat="46.76429" lon="-1.8386">
        <ele>19</ele>
        <time>2018-03-27T02:59:03Z</time>
      </trkpt>
      <trkpt lat="46.76437" lon="-1.83861">
        <ele>19</ele>
        <time>2018-03-27T03:00:03Z</time>
      </trkpt>
      <trkpt lat="46.76442" lon="-1.83862">
        <ele>19</ele>
        <time>2018-03-27T03:01:03Z</time>
      </trkpt>
      <trkpt lat="46.76446" lon="-1.83862">
        <ele>19</ele>
        <time>2018-03-27T03:02:03Z</time>
      </trkpt>
      <trkpt lat="46.76463" lon="-1.83864">
        <ele>19</ele>
        <time>2018-03-27T03:03:03Z</time>
      </trkpt>
      <trkpt lat="46.76485" lon="-1.83866">
        <ele>19</ele>
        <time>2018-03-27T03:04:03Z</time>
      </trkpt>
      <trkpt lat="46.76503" lon="-1.83869">
        <ele>20</ele>
        <time>2018-03-27T03:05:03Z</time>
      </trkpt>
      <trkpt lat="46.76517" lon="-1.83872">
        <ele>20</ele>
        <time>2018-03-27T03:06:03Z</time>
      </trkpt>
      <trkpt lat="46.76523" lon="-1.83874">
        <ele>20</ele>
        <time>2018-03-27T03:07:03Z</time>
      </trkpt>
      <trkpt lat="46.76529" lon="-1.83876">
        <ele>20</ele>
        <time>2018-03-27T03:08:03Z</time>
      </trkpt>
      <trkpt lat="46.76534" lon="-1.83878">
        <ele>20</ele>
        <time>2018-03-27T03:09:03Z</time>
      </trkpt>
      <trkpt lat="46.76541" lon="-1.8388">
        <ele>20</ele>
        <time>2018-03-27T03:10:03Z</time>
      </trkpt>
      <trkpt lat="46.76545" lon="-1.83882">
        <ele>20</ele>
        <time>2018-03-27T03:11:03Z</time>
      </trkpt>
      <trkpt lat="46.76551" lon="-1.83884">
        <ele>20</ele>
        <time>2018-03-27T03:12:03Z</time>
      </trkpt>
      <trkpt lat="46.76562" lon="-1.83888">
        <ele>20</ele>
        <time>2018-03-27T03:13:03Z</time>
      </trkpt>
      <trkpt lat="46.76566" lon="-1.8389">
        <ele>20</ele>
        <time>2018-03-27T03:14:03Z</time>
      </trkpt>
      <trkpt lat="46.76573" lon="-1.83897">
        <ele>21</ele>
        <time>2018-03-27T03:15:03Z</time>
      </trkpt>
      <trkpt lat="46.76577" lon="-1.83903">
        <ele>21</ele>
        <time>2018-03-27T03:16:03Z</time>
      </trkpt>
      <trkpt lat="46.7658" lon="-1.83907">
        <ele>21</ele>
        <time>2018-03-27T03:17:03Z</time>
      </trkpt>
      <trkpt lat="46.76584" lon="-1.83912">
        <ele>21</ele>
        <time>2018-03-27T03:18:03Z</time>
      </trkpt>
      <trkpt lat="46.76588" lon="-1.8392">
        <ele>21</ele>
        <time>2018-03-27T03:19:03Z</time>
      </trkpt>
      <trkpt lat="46.76591" lon="-1.83927">
        <ele>21</ele>
        <time>2018-03-27T03:20:03Z</time>
      </trkpt>
      <trkpt lat="46.76613" lon="-1.8398">
        <ele>21</ele>
        <time>2018-03-27T03:21:03Z</time>
      </trkpt>
      <trkpt lat="46.76649" lon="-1.84071">
        <ele>20</ele>
        <time>2018-03-27T03:22:03Z</time>
      </trkpt>
      <trkpt lat="46.7665" lon="-1.84074">
        <ele>20</ele>
        <time>2018-03-27T03:23:03Z</time>
      </trkpt>
      <trkpt lat="46.7666" lon="-1.841">
        <ele>20</ele>
        <time>2018-03-27T03:24:03Z</time>
      </trkpt>
      <trkpt lat="46.76682" lon="-1.84155">
        <ele>20</ele>
        <time>2018-03-27T03:25:03Z</time>
      </trkpt>
      <trkpt lat="46.76687" lon="-1.84167">
        <ele>20</ele>
        <time>2018-03-27T03:26:03Z</time>
      </trkpt>
      <trkpt lat="46.76693" lon="-1.84184">
        <ele>20</ele>
        <time>2018-03-27T03:27:03Z</time>
      </trkpt>
      <trkpt lat="46.76698" lon="-1.84199">
        <ele>20</ele>
        <time>2018-03-27T03:28:03Z</time>
      </trkpt>
      <trkpt lat="46.76702" lon="-1.84212">
        <ele>20</ele>
        <time>2018-03-27T03:29:03Z</time>
      </trkpt>
      <trkpt lat="46.76705" lon="-1.84226">
        <ele>20</ele>
        <time>2018-03-27T03:30:03Z</time>
      </trkpt>
      <trkpt lat="46.76707" lon="-1.84237">
        <ele>20</ele>
        <time>2018-03-27T03:31:03Z</time>
      </trkpt>
      <trkpt lat="46.7671" lon="-1.84253">
        <ele>19</ele>
        <time>2018-03-27T03:32:03Z</time>
      </trkpt>
      <trkpt lat="46.76712" lon="-1.84267">
        <ele>19</ele>
        <time>2018-03-27T03:33:03Z</time>
      </trkpt>
      <trkpt lat="46.76713" lon="-1.84291">
        <ele>19</ele>
        <time>2018-03-27T03:34:03Z</time>
      </trkpt>
      <trkpt lat="46.76714" lon="-1.84317">
        <ele>19</ele>
        <time>2018-03-27T03:35:03Z</time>
      </trkpt>
      <trkpt lat="46.76714" lon="-1.84361">
        <ele>19</ele>
        <time>2018-03-27T03:36:03Z</time>
      </trkpt>
      <trkpt lat="46.76714" lon="-1.84368">
        <ele>19</ele>
        <time>2018-03-27T03:37:03Z</time>
      </trkpt>
      <trkpt lat="46.76714" lon="-1.84385">
        <ele>19</ele>
        <time>2018-03-27T03:38:03Z</time>
      </trkpt>
      <trkpt lat="46.76716" lon="-1.84404">
        <ele>18</ele>
        <time>2018-03-27T03:39:03Z</time>
      </trkpt>
      <trkpt lat="46.76718" lon="-1.84424">
        <ele>18</ele>
        <time>2018-03-27T03:40:03Z</time>
      </trkpt>
      <trkpt lat="46.7672" lon="-1.84438">
        <ele>18</ele>
        <time>2018-03-27T03:41:03Z</time>
      </trkpt>
      <trkpt lat="46.76724" lon="-1.84468">
        <ele>18</ele>
        <time>2018-03-27T03:42:03Z</time>
      </trkpt>
      <trkpt lat="46.7673" lon="-1.84503">
        <ele>18</ele>
        <time>2018-03-27T03:43:03Z</time>
      </trkpt>
      <trkpt lat="46.76737" lon="-1.84537">
        <ele>18</ele>
        <time>2018-03-27T03:44:03Z</time>
      </trkpt>
      <trkpt lat="46.7674" lon="-1.84558">
        <ele>18</ele>
        <time>2018-03-27T03:45:03Z</time>
      </trkpt>
      <trkpt lat="46.76749" lon="-1.84613">
        <ele>18</ele>
        <time>2018-03-27T03:46:03Z</time>
      </trkpt>
      <trkpt lat="46.76751" lon="-1.84624">
        <ele>17</ele>
        <time>2018-03-27T03:47:03Z</time>
      </trkpt>
      <trkpt lat="46.76765" lon="-1.84703">
        <ele>17</ele>
        <time>2018-03-27T03:48:03Z</time>
      </trkpt>
      <trkpt lat="46.76777" lon="-1.84769">
        <ele>16</ele>
        <time>2018-03-27T03:49:03Z</time>
      </trkpt>
      <trkpt lat="46.7679" lon="-1.84848">
        <ele>15</ele>
        <time>2018-03-27T03:50:03Z</time>
      </trkpt>
      <trkpt lat="46.76799" lon="-1.84895">
        <ele>15</ele>
        <time>2018-03-27T03:51:03Z</time>
      </trkpt>
      <trkpt lat="46.76802" lon="-1.84914">
        <ele>15</ele>
        <time>2018-03-27T03:52:03Z</time>
      </trkpt>
      <trkpt lat="46.76809" lon="-1.8495">
        <ele>15</ele>
        <time>2018-03-27T03:53:03Z</time>
      </trkpt>
      <trkpt lat="46.76812" lon="-1.84973">
        <ele>15</ele>
        <time>2018-03-27T03:54:03Z</time>
      </trkpt>
      <trkpt lat="46.76814" lon="-1.84994">
        <ele>15</ele>
        <time>2018-03-27T03:55:03Z</time>
      </trkpt>
      <trkpt lat="46.76815" lon="-1.85012">
        <ele>15</ele>
        <time>2018-03-27T03:56:03Z</time>
      </trkpt>
      <trkpt lat="46.76816" lon="-1.85032">
        <ele>15</ele>
        <time>2018-03-27T03:57:03Z</time>
      </trkpt>
      <trkpt lat="46.76817" lon="-1.85053">
        <ele>15</ele>
        <time>2018-03-27T03:58:03Z</time>
      </trkpt>
      <trkpt lat="46.76817" lon="-1.8509">
        <ele>15</ele>
        <time>2018-03-27T03:59:03Z</time>
      </trkpt>
      <trkpt lat="46.76815" lon="-1.85142">
        <ele>14</ele>
        <time>2018-03-27T04:00:03Z</time>
      </trkpt>
      <trkpt lat="46.76815" lon="-1.85176">
        <ele>13</ele>
        <time>2018-03-27T04:01:03Z</time>
      </trkpt>
      <trkpt lat="46.76815" lon="-1.85199">
        <ele>13</ele>
        <time>2018-03-27T04:02:03Z</time>
      </trkpt>
      <trkpt lat="46.76816" lon="-1.85221">
        <ele>13</ele>
        <time>2018-03-27T04:03:03Z</time>
      </trkpt>
      <trkpt lat="46.76818" lon="-1.85241">
        <ele>13</ele>
        <time>2018-03-27T04:04:03Z</time>
      </trkpt>
      <trkpt lat="46.76818" lon="-1.85242">
        <ele>13</ele>
        <time>2018-03-27T04:05:03Z</time>
      </trkpt>
      <trkpt lat="46.76822" lon="-1.85266">
        <ele>13</ele>
        <time>2018-03-27T04:06:03Z</time>
      </trkpt>
      <trkpt lat="46.76828" lon="-1.85291">
        <ele>13</ele>
        <time>2018-03-27T04:07:03Z</time>
      </trkpt>
      <trkpt lat="46.76835" lon="-1.85316">
        <ele>13</ele>
        <time>2018-03-27T04:08:03Z</time>
      </trkpt>
      <trkpt lat="46.76851" lon="-1.85366">
        <ele>13</ele>
        <time>2018-03-27T04:09:03Z</time>
      </trkpt>
      <trkpt lat="46.76857" lon="-1.85383">
        <ele>13</ele>
        <time>2018-03-27T04:10:03Z</time>
      </trkpt>
      <trkpt lat="46.76866" lon="-1.85412">
        <ele>14</ele>
        <time>2018-03-27T04:11:03Z</time>
      </trkpt>
      <trkpt lat="46.76874" lon="-1.85433">
        <ele>14</ele>
        <time>2018-03-27T04:12:03Z</time>
      </trkpt>
      <trkpt lat="46.76894" lon="-1.85495">
        <ele>14</ele>
        <time>2018-03-27T04:13:03Z</time>
      </trkpt>
      <trkpt lat="46.76902" lon="-1.85518">
        <ele>14</ele>
        <time>2018-03-27T04:14:03Z</time>
      </trkpt>
      <trkpt lat="46.76909" lon="-1.85537">
        <ele>14</ele>
        <time>2018-03-27T04:15:03Z</time>
      </trkpt>
      <trkpt lat="46.76915" lon="-1.85553">
        <ele>13</ele>
        <time>2018-03-27T04:16:03Z</time>
      </trkpt>
      <trkpt lat="46.76922" lon="-1.8557">
        <ele>13</ele>
        <time>2018-03-27T04:17:03Z</time>
      </trkpt>
      <trkpt lat="46.76928" lon="-1.85584">
        <ele>13</ele>
        <time>2018-03-27T04:18:03Z</time>
      </trkpt>
      <trkpt lat="46.76932" lon="-1.85591">
        <ele>13</ele>
        <time>2018-03-27T04:19:03Z</time>
      </trkpt>
      <trkpt lat="46.76936" lon="-1.856">
        <ele>12</ele>
        <time>2018-03-27T04:20:03Z</time>
      </trkpt>
      <trkpt lat="46.76961" lon="-1.85652">
        <ele>12</ele>
        <time>2018-03-27T04:21:03Z</time>
      </trkpt>
      <trkpt lat="46.76963" lon="-1.85656">
        <ele>12</ele>
        <time>2018-03-27T04:22:03Z</time>
      </trkpt>
      <trkpt lat="46.76981" lon="-1.8569">
        <ele>12</ele>
        <time>2018-03-27T04:23:03Z</time>
      </trkpt>
      <trkpt lat="46.77" lon="-1.85725">
        <ele>12</ele>
        <time>2018-03-27T04:24:03Z</time>
      </trkpt>
      <trkpt lat="46.7701" lon="-1.85744">
        <ele>13</ele>
        <time>2018-03-27T04:25:03Z</time>
      </trkpt>
      <trkpt lat="46.7702" lon="-1.85765">
        <ele>13</ele>
        <time>2018-03-27T04:26:03Z</time>
      </trkpt>
      <trkpt lat="46.77025" lon="-1.85775">
        <ele>12</ele>
        <time>2018-03-27T04:27:03Z</time>
      </trkpt>
      <trkpt lat="46.77037" lon="-1.85796">
        <ele>12</ele>
        <time>2018-03-27T04:28:03Z</time>
      </trkpt>
      <trkpt lat="46.77069" lon="-1.85859">
        <ele>12</ele>
        <time>2018-03-27T04:29:03Z</time>
      </trkpt>
      <trkpt lat="46.77097" lon="-1.85912">
        <ele>12</ele>
        <time>2018-03-27T04:30:03Z</time>
      </trkpt>
      <trkpt lat="46.77146" lon="-1.86007">
        <ele>9</ele>
        <time>2018-03-27T04:31:03Z</time>
      </trkpt>
      <trkpt lat="46.77179" lon="-1.86071">
        <ele>9</ele>
        <time>2018-03-27T04:32:03Z</time>
      </trkpt>
      <trkpt lat="46.77215" lon="-1.8614">
        <ele>9</ele>
        <time>2018-03-27T04:33:03Z</time>
      </trkpt>
      <trkpt lat="46.77242" lon="-1.86193">
        <ele>9</ele>
        <time>2018-03-27T04:34:03Z</time>
      </trkpt>
      <trkpt lat="46.77248" lon="-1.86204">
        <ele>9</ele>
        <time>2018-03-27T04:35:03Z</time>
      </trkpt>
      <trkpt lat="46.77255" lon="-1.86217">
        <ele>9</ele>
        <time>2018-03-27T04:36:03Z</time>
      </trkpt>
      <trkpt lat="46.77263" lon="-1.86232">
        <ele>9</ele>
        <time>2018-03-27T04:37:03Z</time>
      </trkpt>
      <trkpt lat="46.7727" lon="-1.86244">
        <ele>9</ele>
        <time>2018-03-27T04:38:03Z</time>
      </trkpt>
      <trkpt lat="46.77277" lon="-1.86254">
        <ele>9</ele>
        <time>2018-03-27T04:39:03Z</time>
      </trkpt>
      <trkpt lat="46.77284" lon="-1.86265">
        <ele>9</ele>
        <time>2018-03-27T04:40:03Z</time>
      </trkpt>
      <trkpt lat="46.7729" lon="-1.86274">
        <ele>9</ele>
        <time>2018-03-27T04:41:03Z</time>
      </trkpt>
      <trkpt lat="46.77298" lon="-1.86284">
        <ele>9</ele>
        <time>2018-03-27T04:42:03Z</time>
      </trkpt>
      <trkpt lat="46.77305" lon="-1.86293">
        <ele>8</ele>
        <time>2018-03-27T04:43:03Z</time>
      </trkpt>
      <trkpt lat="46.77314" lon="-1.86303">
        <ele>8</ele>
        <time>2018-03-27T04:44:03Z</time>
      </trkpt>
      <trkpt lat="46.77318" lon="-1.86308">
        <ele>8</ele>
        <time>2018-03-27T04:45:03Z</time>
      </trkpt>
      <trkpt lat="46.77327" lon="-1.86318">
        <ele>8</ele>
        <time>2018-03-27T04:46:03Z</time>
      </trkpt>
      <trkpt lat="46.7742" lon="-1.86419">
        <ele>8</ele>
        <time>2018-03-27T04:47:03Z</time>
      </trkpt>
      <trkpt lat="46.77481" lon="-1.86487">
        <ele>7</ele>
        <time>2018-03-27T04:48:03Z</time>
      </trkpt>
      <trkpt lat="46.77537" lon="-1.86549">
        <ele>7</ele>
        <time>2018-03-27T04:49:03Z</time>
      </trkpt>
      <trkpt lat="46.77568" lon="-1.86583">
        <ele>7</ele>
        <time>2018-03-27T04:50:03Z</time>
      </trkpt>
      <trkpt lat="46.77578" lon="-1.86596">
        <ele>7</ele>
        <time>2018-03-27T04:51:03Z</time>
      </trkpt>
      <trkpt lat="46.77587" lon="-1.86608">
        <ele>7</ele>
        <time>2018-03-27T04:52:03Z</time>
      </trkpt>
      <trkpt lat="46.77594" lon="-1.86622">
        <ele>7</ele>
        <time>2018-03-27T04:53:03Z</time>
      </trkpt>
      <trkpt lat="46.77599" lon="-1.86633">
        <ele>7</ele>
        <time>2018-03-27T04:54:03Z</time>
      </trkpt>
      <trkpt lat="46.77604" lon="-1.86646">
        <ele>7</ele>
        <time>2018-03-27T04:55:03Z</time>
      </trkpt>
      <trkpt lat="46.77609" lon="-1.8666">
        <ele>7</ele>
        <time>2018-03-27T04:56:03Z</time>
      </trkpt>
      <trkpt lat="46.77614" lon="-1.86675">
        <ele>7</ele>
        <time>2018-03-27T04:57:03Z</time>
      </trkpt>
      <trkpt lat="46.77618" lon="-1.86688">
        <ele>7</ele>
        <time>2018-03-27T04:58:03Z</time>
      </trkpt>
      <trkpt lat="46.77622" lon="-1.86702">
        <ele>7</ele>
        <time>2018-03-27T04:59:03Z</time>
      </trkpt>
      <trkpt lat="46.77625" lon="-1.86715">
        <ele>7</ele>
        <time>2018-03-27T05:00:03Z</time>
      </trkpt>
      <trkpt lat="46.77628" lon="-1.86731">
        <ele>7</ele>
        <time>2018-03-27T05:01:03Z</time>
      </trkpt>
      <trkpt lat="46.77632" lon="-1.86756">
        <ele>7</ele>
        <time>2018-03-27T05:02:03Z</time>
      </trkpt>
      <trkpt lat="46.77641" lon="-1.86822">
        <ele>7</ele>
        <time>2018-03-27T05:03:03Z</time>
      </trkpt>
      <trkpt lat="46.7765" lon="-1.86891">
        <ele>7</ele>
        <time>2018-03-27T05:04:03Z</time>
      </trkpt>
      <trkpt lat="46.7766" lon="-1.86961">
        <ele>6</ele>
        <time>2018-03-27T05:05:03Z</time>
      </trkpt>
      <trkpt lat="46.77673" lon="-1.87067">
        <ele>5</ele>
        <time>2018-03-27T05:06:03Z</time>
      </trkpt>
      <trkpt lat="46.77686" lon="-1.87156">
        <ele>5</ele>
        <time>2018-03-27T05:07:03Z</time>
      </trkpt>
      <trkpt lat="46.77691" lon="-1.87204">
        <ele>5</ele>
        <time>2018-03-27T05:08:03Z</time>
      </trkpt>
      <trkpt lat="46.77696" lon="-1.8724">
        <ele>4</ele>
        <time>2018-03-27T05:09:03Z</time>
      </trkpt>
      <trkpt lat="46.77696" lon="-1.87244">
        <ele>4</ele>
        <time>2018-03-27T05:10:03Z</time>
      </trkpt>
      <trkpt lat="46.77705" lon="-1.87303">
        <ele>4</ele>
        <time>2018-03-27T05:11:03Z</time>
      </trkpt>
      <trkpt lat="46.77716" lon="-1.87374">
        <ele>5</ele>
        <time>2018-03-27T05:12:03Z</time>
      </trkpt>
      <trkpt lat="46.77731" lon="-1.87481">
        <ele>5</ele>
        <time>2018-03-27T05:13:03Z</time>
      </trkpt>
      <trkpt lat="46.77739" lon="-1.87534">
        <ele>4</ele>
        <time>2018-03-27T05:14:03Z</time>
      </trkpt>
      <trkpt lat="46.7775" lon="-1.87601">
        <ele>5</ele>
        <time>2018-03-27T05:15:03Z</time>
      </trkpt>
      <trkpt lat="46.77752" lon="-1.87616">
        <ele>5</ele>
        <time>2018-03-27T05:16:03Z</time>
      </trkpt>
      <trkpt lat="46.77758" lon="-1.87653">
        <ele>4</ele>
        <time>2018-03-27T05:17:03Z</time>
      </trkpt>
      <trkpt lat="46.77758" lon="-1.87653">
        <ele>4</ele>
        <time>2018-03-27T05:18:03Z</time>
      </trkpt>
      <trkpt lat="46.77759" lon="-1.87655">
        <ele>4</ele>
        <time>2018-03-27T05:19:03Z</time>
      </trkpt>
      <trkpt lat="46.7776" lon="-1.87656">
        <ele>4</ele>
        <time>2018-03-27T05:20:03Z</time>
      </trkpt>
      <trkpt lat="46.77761" lon="-1.87657">
        <ele>4</ele>
        <time>2018-03-27T05:21:03Z</time>
      </trkpt>
      <trkpt lat="46.77762" lon="-1.87658">
        <ele>4</ele>
        <time>2018-03-27T05:22:03Z</time>
      </trkpt>
      <trkpt lat="46.77763" lon="-1.8766">
        <ele>4</ele>
        <time>2018-03-27T05:23:03Z</time>
      </trkpt>
      <trkpt lat="46.77763" lon="-1.87661">
        <ele>4</ele>
        <time>2018-03-27T05:24:03Z</time>
      </trkpt>
      <trkpt lat="46.77764" lon="-1.87663">
        <ele>4</ele>
        <time>2018-03-27T05:25:03Z</time>
      </trkpt>
      <trkpt lat="46.77765" lon="-1.87665">
        <ele>4</ele>
        <time>2018-03-27T05:26:03Z</time>
      </trkpt>
      <trkpt lat="46.77765" lon="-1.87667">
        <ele>4</ele>
        <time>2018-03-27T05:27:03Z</time>
      </trkpt>
      <trkpt lat="46.77765" lon="-1.87668">
        <ele>4</ele>
        <time>2018-03-27T05:28:03Z</time>
      </trkpt>
      <trkpt lat="46.77766" lon="-1.8767">
        <ele>4</ele>
        <time>2018-03-27T05:29:03Z</time>
      </trkpt>
      <trkpt lat="46.77766" lon="-1.87672">
        <ele>4</ele>
        <time>2018-03-27T05:30:03Z</time>
      </trkpt>
      <trkpt lat="46.77766" lon="-1.87674">
        <ele>4</ele>
        <time>2018-03-27T05:31:03Z</time>
      </trkpt>
      <trkpt lat="46.77766" lon="-1.87676">
        <ele>4</ele>
        <time>2018-03-27T05:32:03Z</time>
      </trkpt>
      <trkpt lat="46.77766" lon="-1.87678">
        <ele>4</ele>
        <time>2018-03-27T05:33:03Z</time>
      </trkpt>
      <trkpt lat="46.77766" lon="-1.8768">
        <ele>4</ele>
        <time>2018-03-27T05:34:03Z</time>
      </trkpt>
      <trkpt lat="46.77765" lon="-1.87682">
        <ele>4</ele>
        <time>2018-03-27T05:35:03Z</time>
      </trkpt>
      <trkpt lat="46.77765" lon="-1.87684">
        <ele>4</ele>
        <time>2018-03-27T05:36:03Z</time>
      </trkpt>
      <trkpt lat="46.77765" lon="-1.87686">
        <ele>4</ele>
        <time>2018-03-27T05:37:03Z</time>
      </trkpt>
      <trkpt lat="46.77764" lon="-1.87687">
        <ele>4</ele>
        <time>2018-03-27T05:38:03Z</time>
      </trkpt>
      <trkpt lat="46.77763" lon="-1.87689">
        <ele>4</ele>
        <time>2018-03-27T05:39:03Z</time>
      </trkpt>
      <trkpt lat="46.77763" lon="-1.8769">
        <ele>4</ele>
        <time>2018-03-27T05:40:03Z</time>
      </trkpt>
      <trkpt lat="46.77761" lon="-1.87693">
        <ele>4</ele>
        <time>2018-03-27T05:41:03Z</time>
      </trkpt>
      <trkpt lat="46.7776" lon="-1.87694">
        <ele>4</ele>
        <time>2018-03-27T05:42:03Z</time>
      </trkpt>
      <trkpt lat="46.77759" lon="-1.87695">
        <ele>4</ele>
        <time>2018-03-27T05:43:03Z</time>
      </trkpt>
      <trkpt lat="46.77758" lon="-1.87697">
        <ele>4</ele>
        <time>2018-03-27T05:44:03Z</time>
      </trkpt>
      <trkpt lat="46.77757" lon="-1.87698">
        <ele>4</ele>
        <time>2018-03-27T05:45:03Z</time>
      </trkpt>
      <trkpt lat="46.77756" lon="-1.87698">
        <ele>4</ele>
        <time>2018-03-27T05:46:03Z</time>
      </trkpt>
      <trkpt lat="46.77754" lon="-1.87699">
        <ele>4</ele>
        <time>2018-03-27T05:47:03Z</time>
      </trkpt>
      <trkpt lat="46.77753" lon="-1.877">
        <ele>4</ele>
        <time>2018-03-27T05:48:03Z</time>
      </trkpt>
      <trkpt lat="46.77746" lon="-1.87722">
        <ele>3</ele>
        <time>2018-03-27T05:49:03Z</time>
      </trkpt>
      <trkpt lat="46.77743" lon="-1.87734">
        <ele>3</ele>
        <time>2018-03-27T05:50:03Z</time>
      </trkpt>
      <trkpt lat="46.7774" lon="-1.87752">
        <ele>3</ele>
        <time>2018-03-27T05:51:03Z</time>
      </trkpt>
      <trkpt lat="46.77734" lon="-1.87771">
        <ele>3</ele>
        <time>2018-03-27T05:52:03Z</time>
      </trkpt>
      <trkpt lat="46.77726" lon="-1.87792">
        <ele>3</ele>
        <time>2018-03-27T05:53:03Z</time>
      </trkpt>
      <trkpt lat="46.77723" lon="-1.87796">
        <ele>3</ele>
        <time>2018-03-27T05:54:03Z</time>
      </trkpt>
      <trkpt lat="46.77713" lon="-1.87819">
        <ele>3</ele>
        <time>2018-03-27T05:55:03Z</time>
      </trkpt>
      <trkpt lat="46.77706" lon="-1.87834">
        <ele>3</ele>
        <time>2018-03-27T05:56:03Z</time>
      </trkpt>
      <trkpt lat="46.77699" lon="-1.87847">
        <ele>3</ele>
        <time>2018-03-27T05:57:03Z</time>
      </trkpt>
      <trkpt lat="46.77692" lon="-1.87858">
        <ele>3</ele>
        <time>2018-03-27T05:58:03Z</time>
      </trkpt>
      <trkpt lat="46.77684" lon="-1.8787">
        <ele>3</ele>
        <time>2018-03-27T05:59:03Z</time>
      </trkpt>
      <trkpt lat="46.77669" lon="-1.87886">
        <ele>3</ele>
        <time>2018-03-27T06:00:03Z</time>
      </trkpt>
      <trkpt lat="46.77662" lon="-1.87893">
        <ele>3</ele>
        <time>2018-03-27T06:01:03Z</time>
      </trkpt>
      <trkpt lat="46.77635" lon="-1.8792">
        <ele>4</ele>
        <time>2018-03-27T06:02:03Z</time>
      </trkpt>
      <trkpt lat="46.7758" lon="-1.87976">
        <ele>5</ele>
        <time>2018-03-27T06:03:03Z</time>
      </trkpt>
      <trkpt lat="46.7754" lon="-1.88017">
        <ele>5</ele>
        <time>2018-03-27T06:04:03Z</time>
      </trkpt>
      <trkpt lat="46.77515" lon="-1.88043">
        <ele>4</ele>
        <time>2018-03-27T06:05:03Z</time>
      </trkpt>
      <trkpt lat="46.77484" lon="-1.88078">
        <ele>4</ele>
        <time>2018-03-27T06:06:03Z</time>
      </trkpt>
      <trkpt lat="46.77461" lon="-1.88105">
        <ele>4</ele>
        <time>2018-03-27T06:07:03Z</time>
      </trkpt>
      <trkpt lat="46.77435" lon="-1.88142">
        <ele>4</ele>
        <time>2018-03-27T06:08:03Z</time>
      </trkpt>
      <trkpt lat="46.7743" lon="-1.8815">
        <ele>4</ele>
        <time>2018-03-27T06:09:03Z</time>
      </trkpt>
      <trkpt lat="46.77407" lon="-1.88186">
        <ele>4</ele>
        <time>2018-03-27T06:10:03Z</time>
      </trkpt>
      <trkpt lat="46.77398" lon="-1.88199">
        <ele>4</ele>
        <time>2018-03-27T06:11:03Z</time>
      </trkpt>
      <trkpt lat="46.77362" lon="-1.88248">
        <ele>3</ele>
        <time>2018-03-27T06:12:03Z</time>
      </trkpt>
      <trkpt lat="46.77331" lon="-1.8829">
        <ele>4</ele>
        <time>2018-03-27T06:13:03Z</time>
      </trkpt>
      <trkpt lat="46.77319" lon="-1.88304">
        <ele>3</ele>
        <time>2018-03-27T06:14:03Z</time>
      </trkpt>
      <trkpt lat="46.7731" lon="-1.88313">
        <ele>3</ele>
        <time>2018-03-27T06:15:03Z</time>
      </trkpt>
      <trkpt lat="46.77302" lon="-1.8832">
        <ele>3</ele>
        <time>2018-03-27T06:16:03Z</time>
      </trkpt>
      <trkpt lat="46.77293" lon="-1.88328">
        <ele>3</ele>
        <time>2018-03-27T06:17:03Z</time>
      </trkpt>
      <trkpt lat="46.77281" lon="-1.88335">
        <ele>3</ele>
        <time>2018-03-27T06:18:03Z</time>
      </trkpt>
      <trkpt lat="46.77259" lon="-1.8835">
        <ele>3</ele>
        <time>2018-03-27T06:19:03Z</time>
      </trkpt>
      <trkpt lat="46.77231" lon="-1.88367">
        <ele>3</ele>
        <time>2018-03-27T06:20:03Z</time>
      </trkpt>
      <trkpt lat="46.77199" lon="-1.88384">
        <ele>4</ele>
        <time>2018-03-27T06:21:03Z</time>
      </trkpt>
      <trkpt lat="46.7715" lon="-1.88413">
        <ele>4</ele>
        <time>2018-03-27T06:22:03Z</time>
      </trkpt>
      <trkpt lat="46.77092" lon="-1.88444">
        <ele>5</ele>
        <time>2018-03-27T06:23:03Z</time>
      </trkpt>
      <trkpt lat="46.77054" lon="-1.88464">
        <ele>5</ele>
        <time>2018-03-27T06:24:03Z</time>
      </trkpt>
      <trkpt lat="46.77045" lon="-1.88467">
        <ele>5</ele>
        <time>2018-03-27T06:25:03Z</time>
      </trkpt>
      <trkpt lat="46.77031" lon="-1.88473">
        <ele>5</ele>
        <time>2018-03-27T06:26:03Z</time>
      </trkpt>
      <trkpt lat="46.77016" lon="-1.88478">
        <ele>4</ele>
        <time>2018-03-27T06:27:03Z</time>
      </trkpt>
      <trkpt lat="46.77003" lon="-1.88481">
        <ele>4</ele>
        <time>2018-03-27T06:28:03Z</time>
      </trkpt>
      <trkpt lat="46.76992" lon="-1.88483">
        <ele>4</ele>
        <time>2018-03-27T06:29:03Z</time>
      </trkpt>
      <trkpt lat="46.76976" lon="-1.88487">
        <ele>4</ele>
        <time>2018-03-27T06:30:03Z</time>
      </trkpt>
      <trkpt lat="46.76956" lon="-1.88491">
        <ele>5</ele>
        <time>2018-03-27T06:31:03Z</time>
      </trkpt>
      <trkpt lat="46.7691" lon="-1.885">
        <ele>5</ele>
        <time>2018-03-27T06:32:03Z</time>
      </trkpt>
      <trkpt lat="46.76877" lon="-1.88506">
        <ele>4</ele>
        <time>2018-03-27T06:33:03Z</time>
      </trkpt>
      <trkpt lat="46.7686" lon="-1.88508">
        <ele>4</ele>
        <time>2018-03-27T06:34:03Z</time>
      </trkpt>
      <trkpt lat="46.76851" lon="-1.88509">
        <ele>4</ele>
        <time>2018-03-27T06:35:03Z</time>
      </trkpt>
      <trkpt lat="46.76843" lon="-1.88509">
        <ele>4</ele>
        <time>2018-03-27T06:36:03Z</time>
      </trkpt>
      <trkpt lat="46.76832" lon="-1.88509">
        <ele>4</ele>
        <time>2018-03-27T06:37:03Z</time>
      </trkpt>
      <trkpt lat="46.76809" lon="-1.88508">
        <ele>4</ele>
        <time>2018-03-27T06:38:03Z</time>
      </trkpt>
      <trkpt lat="46.76782" lon="-1.88506">
        <ele>5</ele>
        <time>2018-03-27T06:39:03Z</time>
      </trkpt>
      <trkpt lat="46.76774" lon="-1.88506">
        <ele>5</ele>
        <time>2018-03-27T06:40:03Z</time>
      </trkpt>
      <trkpt lat="46.76766" lon="-1.88506">
        <ele>5</ele>
        <time>2018-03-27T06:41:03Z</time>
      </trkpt>
      <trkpt lat="46.76759" lon="-1.88507">
        <ele>5</ele>
        <time>2018-03-27T06:42:03Z</time>
      </trkpt>
      <trkpt lat="46.7675" lon="-1.88509">
        <ele>5</ele>
        <time>2018-03-27T06:43:03Z</time>
      </trkpt>
      <trkpt lat="46.76736" lon="-1.88514">
        <ele>5</ele>
        <time>2018-03-27T06:44:03Z</time>
      </trkpt>
      <trkpt lat="46.76718" lon="-1.88522">
        <ele>6</ele>
        <time>2018-03-27T06:45:03Z</time>
      </trkpt>
      <trkpt lat="46.76691" lon="-1.88536">
        <ele>6</ele>
        <time>2018-03-27T06:46:03Z</time>
      </trkpt>
      <trkpt lat="46.76678" lon="-1.88543">
        <ele>6</ele>
        <time>2018-03-27T06:47:03Z</time>
      </trkpt>
      <trkpt lat="46.76643" lon="-1.8856">
        <ele>7</ele>
        <time>2018-03-27T06:48:03Z</time>
      </trkpt>
      <trkpt lat="46.7662" lon="-1.88569">
        <ele>6</ele>
        <time>2018-03-27T06:49:03Z</time>
      </trkpt>
      <trkpt lat="46.76611" lon="-1.88574">
        <ele>6</ele>
        <time>2018-03-27T06:50:03Z</time>
      </trkpt>
      <trkpt lat="46.76604" lon="-1.88578">
        <ele>6</ele>
        <time>2018-03-27T06:51:03Z</time>
      </trkpt>
      <trkpt lat="46.76597" lon="-1.88583">
        <ele>6</ele>
        <time>2018-03-27T06:52:03Z</time>
      </trkpt>
      <trkpt lat="46.7659" lon="-1.88588">
        <ele>6</ele>
        <time>2018-03-27T06:53:03Z</time>
      </trkpt>
      <trkpt lat="46.76581" lon="-1.88595">
        <ele>6</ele>
        <time>2018-03-27T06:54:03Z</time>
      </trkpt>
      <trkpt lat="46.76572" lon="-1.88604">
        <ele>5</ele>
        <time>2018-03-27T06:55:03Z</time>
      </trkpt>
      <trkpt lat="46.76559" lon="-1.88617">
        <ele>5</ele>
        <time>2018-03-27T06:56:03Z</time>
      </trkpt>
      <trkpt lat="46.76544" lon="-1.88634">
        <ele>5</ele>
        <time>2018-03-27T06:57:03Z</time>
      </trkpt>
      <trkpt lat="46.76539" lon="-1.88641">
        <ele>4</ele>
        <time>2018-03-27T06:58:03Z</time>
      </trkpt>
      <trkpt lat="46.76535" lon="-1.88646">
        <ele>4</ele>
        <time>2018-03-27T06:59:03Z</time>
      </trkpt>
      <trkpt lat="46.76533" lon="-1.88647">
        <ele>4</ele>
        <time>2018-03-27T07:00:03Z</time>
      </trkpt>
      <trkpt lat="46.76527" lon="-1.88651">
        <ele>4</ele>
        <time>2018-03-27T07:01:03Z</time>
      </trkpt>
      <trkpt lat="46.76526" lon="-1.88655">
        <ele>4</ele>
        <time>2018-03-27T07:02:03Z</time>
      </trkpt>
      <trkpt lat="46.76526" lon="-1.88656">
        <ele>4</ele>
        <time>2018-03-27T07:03:03Z</time>
      </trkpt>
      <trkpt lat="46.76525" lon="-1.88659">
        <ele>4</ele>
        <time>2018-03-27T07:04:03Z</time>
      </trkpt>
      <trkpt lat="46.76522" lon="-1.88661">
        <ele>4</ele>
        <time>2018-03-27T07:05:03Z</time>
      </trkpt>
      <trkpt lat="46.7652" lon="-1.88661">
        <ele>4</ele>
        <time>2018-03-27T07:06:03Z</time>
      </trkpt>
      <trkpt lat="46.76518" lon="-1.88661">
        <ele>4</ele>
        <time>2018-03-27T07:07:03Z</time>
      </trkpt>
      <trkpt lat="46.76517" lon="-1.8866">
        <ele>4</ele>
        <time>2018-03-27T07:08:03Z</time>
      </trkpt>
      <trkpt lat="46.76515" lon="-1.88663">
        <ele>4</ele>
        <time>2018-03-27T07:09:03Z</time>
      </trkpt>
      <trkpt lat="46.76497" lon="-1.88689">
        <ele>4</ele>
        <time>2018-03-27T07:10:03Z</time>
      </trkpt>
      <trkpt lat="46.76487" lon="-1.887">
        <ele>4</ele>
        <time>2018-03-27T07:11:03Z</time>
      </trkpt>
      <trkpt lat="46.76477" lon="-1.88715">
        <ele>5</ele>
        <time>2018-03-27T07:12:03Z</time>
      </trkpt>
      <trkpt lat="46.76428" lon="-1.88781">
        <ele>5</ele>
        <time>2018-03-27T07:13:03Z</time>
      </trkpt>
      <trkpt lat="46.76385" lon="-1.88837">
        <ele>5</ele>
        <time>2018-03-27T07:14:03Z</time>
      </trkpt>
      <trkpt lat="46.7634" lon="-1.88904">
        <ele>5</ele>
        <time>2018-03-27T07:15:03Z</time>
      </trkpt>
      <trkpt lat="46.76324" lon="-1.88928">
        <ele>5</ele>
        <time>2018-03-27T07:16:03Z</time>
      </trkpt>
      <trkpt lat="46.76309" lon="-1.88949">
        <ele>5</ele>
        <time>2018-03-27T07:17:03Z</time>
      </trkpt>
      <trkpt lat="46.76296" lon="-1.88969">
        <ele>5</ele>
        <time>2018-03-27T07:18:03Z</time>
      </trkpt>
      <trkpt lat="46.76284" lon="-1.88985">
        <ele>5</ele>
        <time>2018-03-27T07:19:03Z</time>
      </trkpt>
      <trkpt lat="46.76272" lon="-1.89001">
        <ele>4</ele>
        <time>2018-03-27T07:20:03Z</time>
      </trkpt>
      <trkpt lat="46.76264" lon="-1.89011">
        <ele>4</ele>
        <time>2018-03-27T07:21:03Z</time>
      </trkpt>
      <trkpt lat="46.76259" lon="-1.89016">
        <ele>4</ele>
        <time>2018-03-27T07:22:03Z</time>
      </trkpt>
      <trkpt lat="46.76238" lon="-1.8904">
        <ele>3</ele>
        <time>2018-03-27T07:23:03Z</time>
      </trkpt>
      <trkpt lat="46.76216" lon="-1.89064">
        <ele>3</ele>
        <time>2018-03-27T07:24:03Z</time>
      </trkpt>
      <trkpt lat="46.76207" lon="-1.89075">
        <ele>3</ele>
        <time>2018-03-27T07:25:03Z</time>
      </trkpt>
      <trkpt lat="46.762" lon="-1.89085">
        <ele>3</ele>
        <time>2018-03-27T07:26:03Z</time>
      </trkpt>
      <trkpt lat="46.76188" lon="-1.89101">
        <ele>3</ele>
        <time>2018-03-27T07:27:03Z</time>
      </trkpt>
      <trkpt lat="46.76158" lon="-1.89147">
        <ele>3</ele>
        <time>2018-03-27T07:28:03Z</time>
      </trkpt>
      <trkpt lat="46.76128" lon="-1.89196">
        <ele>4</ele>
        <time>2018-03-27T07:29:03Z</time>
      </trkpt>
      <trkpt lat="46.76104" lon="-1.89238">
        <ele>4</ele>
        <time>2018-03-27T07:30:03Z</time>
      </trkpt>
      <trkpt lat="46.76072" lon="-1.89289">
        <ele>4</ele>
        <time>2018-03-27T07:31:03Z</time>
      </trkpt>
      <trkpt lat="46.7605" lon="-1.89322">
        <ele>4</ele>
        <time>2018-03-27T07:32:03Z</time>
      </trkpt>
      <trkpt lat="46.76041" lon="-1.89335">
        <ele>4</ele>
        <time>2018-03-27T07:33:03Z</time>
      </trkpt>
      <trkpt lat="46.76031" lon="-1.89349">
        <ele>4</ele>
        <time>2018-03-27T07:34:03Z</time>
      </trkpt>
      <trkpt lat="46.76026" lon="-1.89356">
        <ele>4</ele>
        <time>2018-03-27T07:35:03Z</time>
      </trkpt>
      <trkpt lat="46.76018" lon="-1.89367">
        <ele>4</ele>
        <time>2018-03-27T07:36:03Z</time>
      </trkpt>
      <trkpt lat="46.75989" lon="-1.89403">
        <ele>4</ele>
        <time>2018-03-27T07:37:03Z</time>
      </trkpt>
      <trkpt lat="46.75935" lon="-1.8947">
        <ele>3</ele>
        <time>2018-03-27T07:38:03Z</time>
      </trkpt>
      <trkpt lat="46.75925" lon="-1.89485">
        <ele>3</ele>
        <time>2018-03-27T07:39:03Z</time>
      </trkpt>
      <trkpt lat="46.75911" lon="-1.89505">
        <ele>3</ele>
        <time>2018-03-27T07:40:03Z</time>
      </trkpt>
      <trkpt lat="46.75882" lon="-1.89551">
        <ele>3</ele>
        <time>2018-03-27T07:41:03Z</time>
      </trkpt>
      <trkpt lat="46.75857" lon="-1.89591">
        <ele>4</ele>
        <time>2018-03-27T07:42:03Z</time>
      </trkpt>
      <trkpt lat="46.75837" lon="-1.89622">
        <ele>4</ele>
        <time>2018-03-27T07:43:03Z</time>
      </trkpt>
      <trkpt lat="46.75834" lon="-1.89629">
        <ele>4</ele>
        <time>2018-03-27T07:44:03Z</time>
      </trkpt>
      <trkpt lat="46.75819" lon="-1.89656">
        <ele>4</ele>
        <time>2018-03-27T07:45:03Z</time>
      </trkpt>
      <trkpt lat="46.75805" lon="-1.89682">
        <ele>4</ele>
        <time>2018-03-27T07:46:03Z</time>
      </trkpt>
      <trkpt lat="46.75803" lon="-1.89686">
        <ele>4</ele>
        <time>2018-03-27T07:47:03Z</time>
      </trkpt>
      <trkpt lat="46.75768" lon="-1.89746">
        <ele>4</ele>
        <time>2018-03-27T07:48:03Z</time>
      </trkpt>
      <trkpt lat="46.75744" lon="-1.8978">
        <ele>4</ele>
        <time>2018-03-27T07:49:03Z</time>
      </trkpt>
      <trkpt lat="46.75721" lon="-1.89813">
        <ele>4</ele>
        <time>2018-03-27T07:50:03Z</time>
      </trkpt>
      <trkpt lat="46.75693" lon="-1.89855">
        <ele>3</ele>
        <time>2018-03-27T07:51:03Z</time>
      </trkpt>
      <trkpt lat="46.75657" lon="-1.89906">
        <ele>2</ele>
        <time>2018-03-27T07:52:03Z</time>
      </trkpt>
      <trkpt lat="46.75612" lon="-1.89968">
        <ele>3</ele>
        <time>2018-03-27T07:53:03Z</time>
      </trkpt>
      <trkpt lat="46.75576" lon="-1.90019">
        <ele>3</ele>
        <time>2018-03-27T07:54:03Z</time>
      </trkpt>
      <trkpt lat="46.75546" lon="-1.90063">
        <ele>3</ele>
        <time>2018-03-27T07:55:03Z</time>
      </trkpt>
      <trkpt lat="46.75536" lon="-1.90077">
        <ele>3</ele>
        <time>2018-03-27T07:56:03Z</time>
      </trkpt>
      <trkpt lat="46.75507" lon="-1.90119">
        <ele>3</ele>
        <time>2018-03-27T07:57:03Z</time>
      </trkpt>
      <trkpt lat="46.75474" lon="-1.90165">
        <ele>3</ele>
        <time>2018-03-27T07:58:03Z</time>
      </trkpt>
      <trkpt lat="46.75449" lon="-1.90196">
        <ele>3</ele>
        <time>2018-03-27T07:59:03Z</time>
      </trkpt>
      <trkpt lat="46.75415" lon="-1.9024">
        <ele>2</ele>
        <time>2018-03-27T08:00:03Z</time>
      </trkpt>
      <trkpt lat="46.75399" lon="-1.90259">
        <ele>2</ele>
        <time>2018-03-27T08:01:03Z</time>
      </trkpt>
      <trkpt lat="46.75391" lon="-1.90269">
        <ele>2</ele>
        <time>2018-03-27T08:02:03Z</time>
      </trkpt>
      <trkpt lat="46.75385" lon="-1.90276">
        <ele>2</ele>
        <time>2018-03-27T08:03:03Z</time>
      </trkpt>
      <trkpt lat="46.75381" lon="-1.90281">
        <ele>2</ele>
        <time>2018-03-27T08:04:03Z</time>
      </trkpt>
      <trkpt lat="46.75376" lon="-1.90285">
        <ele>2</ele>
        <time>2018-03-27T08:05:03Z</time>
      </trkpt>
      <trkpt lat="46.7537" lon="-1.90291">
        <ele>2</ele>
        <time>2018-03-27T08:06:03Z</time>
      </trkpt>
      <trkpt lat="46.75364" lon="-1.90296">
        <ele>2</ele>
        <time>2018-03-27T08:07:03Z</time>
      </trkpt>
      <trkpt lat="46.75351" lon="-1.90304">
        <ele>3</ele>
        <time>2018-03-27T08:08:03Z</time>
      </trkpt>
      <trkpt lat="46.75342" lon="-1.90309">
        <ele>3</ele>
        <time>2018-03-27T08:09:03Z</time>
      </trkpt>
      <trkpt lat="46.75324" lon="-1.90317">
        <ele>3</ele>
        <time>2018-03-27T08:10:03Z</time>
      </trkpt>
      <trkpt lat="46.75304" lon="-1.90326">
        <ele>3</ele>
        <time>2018-03-27T08:11:03Z</time>
      </trkpt>
      <trkpt lat="46.75275" lon="-1.90336">
        <ele>3</ele>
        <time>2018-03-27T08:12:03Z</time>
      </trkpt>
      <trkpt lat="46.75253" lon="-1.90344">
        <ele>3</ele>
        <time>2018-03-27T08:13:03Z</time>
      </trkpt>
      <trkpt lat="46.75209" lon="-1.90356">
        <ele>3</ele>
        <time>2018-03-27T08:14:03Z</time>
      </trkpt>
      <trkpt lat="46.75201" lon="-1.90359">
        <ele>3</ele>
        <time>2018-03-27T08:15:03Z</time>
      </trkpt>
      <trkpt lat="46.75201" lon="-1.90359">
        <ele>3</ele>
        <time>2018-03-27T08:16:03Z</time>
      </trkpt>
      <trkpt lat="46.75154" lon="-1.90376">
        <ele>2</ele>
        <time>2018-03-27T08:17:03Z</time>
      </trkpt>
      <trkpt lat="46.7514" lon="-1.90382">
        <ele>2</ele>
        <time>2018-03-27T08:18:03Z</time>
      </trkpt>
      <trkpt lat="46.7512" lon="-1.90389">
        <ele>3</ele>
        <time>2018-03-27T08:19:03Z</time>
      </trkpt>
      <trkpt lat="46.75102" lon="-1.90394">
        <ele>3</ele>
        <time>2018-03-27T08:20:03Z</time>
      </trkpt>
      <trkpt lat="46.75082" lon="-1.90398">
        <ele>3</ele>
        <time>2018-03-27T08:21:03Z</time>
      </trkpt>
      <trkpt lat="46.75056" lon="-1.90401">
        <ele>3</ele>
        <time>2018-03-27T08:22:03Z</time>
      </trkpt>
      <trkpt lat="46.75037" lon="-1.90403">
        <ele>3</ele>
        <time>2018-03-27T08:23:03Z</time>
      </trkpt>
      <trkpt lat="46.75027" lon="-1.90405">
        <ele>4</ele>
        <time>2018-03-27T08:24:03Z</time>
      </trkpt>
      <trkpt lat="46.75012" lon="-1.90407">
        <ele>4</ele>
        <time>2018-03-27T08:25:03Z</time>
      </trkpt>
      <trkpt lat="46.75003" lon="-1.90407">
        <ele>4</ele>
        <time>2018-03-27T08:26:03Z</time>
      </trkpt>
      <trkpt lat="46.7499" lon="-1.90406">
        <ele>4</ele>
        <time>2018-03-27T08:27:03Z</time>
      </trkpt>
      <trkpt lat="46.74986" lon="-1.90406">
        <ele>4</ele>
        <time>2018-03-27T08:28:03Z</time>
      </trkpt>
      <trkpt lat="46.74977" lon="-1.90405">
        <ele>4</ele>
        <time>2018-03-27T08:29:03Z</time>
      </trkpt>
      <trkpt lat="46.74972" lon="-1.90405">
        <ele>4</ele>
        <time>2018-03-27T08:30:03Z</time>
      </trkpt>
      <trkpt lat="46.7493" lon="-1.90404">
        <ele>4</ele>
        <time>2018-03-27T08:31:03Z</time>
      </trkpt>
      <trkpt lat="46.74894" lon="-1.90404">
        <ele>4</ele>
        <time>2018-03-27T08:32:03Z</time>
      </trkpt>
      <trkpt lat="46.7487" lon="-1.90405">
        <ele>4</ele>
        <time>2018-03-27T08:33:03Z</time>
      </trkpt>
      <trkpt lat="46.74857" lon="-1.90405">
        <ele>4</ele>
        <time>2018-03-27T08:34:03Z</time>
      </trkpt>
      <trkpt lat="46.74844" lon="-1.90405">
        <ele>4</ele>
        <time>2018-03-27T08:35:03Z</time>
      </trkpt>
      <trkpt lat="46.74844" lon="-1.90405">
        <ele>4</ele>
        <time>2018-03-27T08:36:03Z</time>
      </trkpt>
      <trkpt lat="46.74821" lon="-1.90411">
        <ele>4</ele>
        <time>2018-03-27T08:37:03Z</time>
      </trkpt>
      <trkpt lat="46.74812" lon="-1.90415">
        <ele>4</ele>
        <time>2018-03-27T08:38:03Z</time>
      </trkpt>
      <trkpt lat="46.74758" lon="-1.90455">
        <ele>4</ele>
        <time>2018-03-27T08:39:03Z</time>
      </trkpt>
      <trkpt lat="46.7473" lon="-1.90477">
        <ele>4</ele>
        <time>2018-03-27T08:40:03Z</time>
      </trkpt>
      <trkpt lat="46.74727" lon="-1.90479">
        <ele>4</ele>
        <time>2018-03-27T08:41:03Z</time>
      </trkpt>
      <trkpt lat="46.74672" lon="-1.90525">
        <ele>3</ele>
        <time>2018-03-27T08:42:03Z</time>
      </trkpt>
      <trkpt lat="46.74618" lon="-1.90573">
        <ele>2</ele>
        <time>2018-03-27T08:43:03Z</time>
      </trkpt>
      <trkpt lat="46.74612" lon="-1.90578">
        <ele>2</ele>
        <time>2018-03-27T08:44:03Z</time>
      </trkpt>
      <trkpt lat="46.74603" lon="-1.90586">
        <ele>2</ele>
        <time>2018-03-27T08:45:03Z</time>
      </trkpt>
      <trkpt lat="46.74591" lon="-1.90595">
        <ele>2</ele>
        <time>2018-03-27T08:46:03Z</time>
      </trkpt>
      <trkpt lat="46.74573" lon="-1.9061">
        <ele>3</ele>
        <time>2018-03-27T08:47:03Z</time>
      </trkpt>
      <trkpt lat="46.74567" lon="-1.90615">
        <ele>3</ele>
        <time>2018-03-27T08:48:03Z</time>
      </trkpt>
      <trkpt lat="46.74552" lon="-1.90625">
        <ele>3</ele>
        <time>2018-03-27T08:49:03Z</time>
      </trkpt>
      <trkpt lat="46.74549" lon="-1.90627">
        <ele>3</ele>
        <time>2018-03-27T08:50:03Z</time>
      </trkpt>
      <trkpt lat="46.7454" lon="-1.90638">
        <ele>4</ele>
        <time>2018-03-27T08:51:03Z</time>
      </trkpt>
      <trkpt lat="46.74534" lon="-1.90643">
        <ele>4</ele>
        <time>2018-03-27T08:52:03Z</time>
      </trkpt>
      <trkpt lat="46.7453" lon="-1.90647">
        <ele>4</ele>
        <time>2018-03-27T08:53:03Z</time>
      </trkpt>
      <trkpt lat="46.74529" lon="-1.90651">
        <ele>4</ele>
        <time>2018-03-27T08:54:03Z</time>
      </trkpt>
      <trkpt lat="46.74529" lon="-1.90653">
        <ele>4</ele>
        <time>2018-03-27T08:55:03Z</time>
      </trkpt>
      <trkpt lat="46.74528" lon="-1.90656">
        <ele>4</ele>
        <time>2018-03-27T08:56:03Z</time>
      </trkpt>
      <trkpt lat="46.74534" lon="-1.90664">
        <ele>4</ele>
        <time>2018-03-27T08:57:03Z</time>
      </trkpt>
      <trkpt lat="46.74545" lon="-1.90687">
        <ele>4</ele>
        <time>2018-03-27T08:58:03Z</time>
      </trkpt>
      <trkpt lat="46.74551" lon="-1.907">
        <ele>4</ele>
        <time>2018-03-27T08:59:03Z</time>
      </trkpt>
      <trkpt lat="46.74557" lon="-1.90713">
        <ele>4</ele>
        <time>2018-03-27T09:00:03Z</time>
      </trkpt>
      <trkpt lat="46.74562" lon="-1.90725">
        <ele>4</ele>
        <time>2018-03-27T09:01:03Z</time>
      </trkpt>
      <trkpt lat="46.74564" lon="-1.90734">
        <ele>4</ele>
        <time>2018-03-27T09:02:03Z</time>
      </trkpt>
      <trkpt lat="46.74565" lon="-1.90746">
        <ele>4</ele>
        <time>2018-03-27T09:03:03Z</time>
      </trkpt>
      <trkpt lat="46.74566" lon="-1.90756">
        <ele>4</ele>
        <time>2018-03-27T09:04:03Z</time>
      </trkpt>
      <trkpt lat="46.74569" lon="-1.9079">
        <ele>4</ele>
        <time>2018-03-27T09:05:03Z</time>
      </trkpt>
      <trkpt lat="46.74572" lon="-1.90814">
        <ele>4</ele>
        <time>2018-03-27T09:06:03Z</time>
      </trkpt>
      <trkpt lat="46.74573" lon="-1.90827">
        <ele>4</ele>
        <time>2018-03-27T09:07:03Z</time>
      </trkpt>
      <trkpt lat="46.74573" lon="-1.90854">
        <ele>4</ele>
        <time>2018-03-27T09:08:03Z</time>
      </trkpt>
      <trkpt lat="46.74573" lon="-1.90866">
        <ele>4</ele>
        <time>2018-03-27T09:09:03Z</time>
      </trkpt>
      <trkpt lat="46.74573" lon="-1.90872">
        <ele>4</ele>
        <time>2018-03-27T09:10:03Z</time>
      </trkpt>
      <trkpt lat="46.74581" lon="-1.90912">
        <ele>3</ele>
        <time>2018-03-27T09:11:03Z</time>
      </trkpt>
      <trkpt lat="46.74591" lon="-1.9094">
        <ele>3</ele>
        <time>2018-03-27T09:12:03Z</time>
      </trkpt>
      <trkpt lat="46.74594" lon="-1.90947">
        <ele>3</ele>
        <time>2018-03-27T09:13:03Z</time>
      </trkpt>
      <trkpt lat="46.74599" lon="-1.9096">
        <ele>3</ele>
        <time>2018-03-27T09:14:03Z</time>
      </trkpt>
      <trkpt lat="46.74602" lon="-1.9097">
        <ele>3</ele>
        <time>2018-03-27T09:15:03Z</time>
      </trkpt>
      <trkpt lat="46.74603" lon="-1.9098">
        <ele>3</ele>
        <time>2018-03-27T09:16:03Z</time>
      </trkpt>
      <trkpt lat="46.74603" lon="-1.9099">
        <ele>3</ele>
        <time>2018-03-27T09:17:03Z</time>
      </trkpt>
      <trkpt lat="46.74602" lon="-1.91001">
        <ele>3</ele>
        <time>2018-03-27T09:18:03Z</time>
      </trkpt>
      <trkpt lat="46.746" lon="-1.91009">
        <ele>3</ele>
        <time>2018-03-27T09:19:03Z</time>
      </trkpt>
      <trkpt lat="46.74598" lon="-1.91015">
        <ele>3</ele>
        <time>2018-03-27T09:20:03Z</time>
      </trkpt>
      <trkpt lat="46.74597" lon="-1.91017">
        <ele>3</ele>
        <time>2018-03-27T09:21:03Z</time>
      </trkpt>
      <trkpt lat="46.74596" lon="-1.91019">
        <ele>3</ele>
        <time>2018-03-27T09:22:03Z</time>
      </trkpt>
      <trkpt lat="46.74591" lon="-1.91026">
        <ele>3</ele>
        <time>2018-03-27T09:23:03Z</time>
      </trkpt>
      <trkpt lat="46.74593" lon="-1.91029">
        <ele>3</ele>
        <time>2018-03-27T09:24:03Z</time>
      </trkpt>
      <trkpt lat="46.74594" lon="-1.91033">
        <ele>3</ele>
        <time>2018-03-27T09:25:03Z</time>
      </trkpt>
      <trkpt lat="46.74594" lon="-1.91036">
        <ele>2</ele>
        <time>2018-03-27T09:26:03Z</time>
      </trkpt>
      <trkpt lat="46.74593" lon="-1.91039">
        <ele>2</ele>
        <time>2018-03-27T09:27:03Z</time>
      </trkpt>
      <trkpt lat="46.74592" lon="-1.91043">
        <ele>2</ele>
        <time>2018-03-27T09:28:03Z</time>
      </trkpt>
      <trkpt lat="46.74589" lon="-1.91044">
        <ele>2</ele>
        <time>2018-03-27T09:29:03Z</time>
      </trkpt>
      <trkpt lat="46.74586" lon="-1.91045">
        <ele>2</ele>
        <time>2018-03-27T09:30:03Z</time>
      </trkpt>
      <trkpt lat="46.74584" lon="-1.91045">
        <ele>2</ele>
        <time>2018-03-27T09:31:03Z</time>
      </trkpt>
      <trkpt lat="46.74576" lon="-1.9106">
        <ele>2</ele>
        <time>2018-03-27T09:32:03Z</time>
      </trkpt>
      <trkpt lat="46.74573" lon="-1.91066">
        <ele>2</ele>
        <time>2018-03-27T09:33:03Z</time>
      </trkpt>
      <trkpt lat="46.74569" lon="-1.91072">
        <ele>2</ele>
        <time>2018-03-27T09:34:03Z</time>
      </trkpt>
      <trkpt lat="46.74563" lon="-1.91079">
        <ele>3</ele>
        <time>2018-03-27T09:35:03Z</time>
      </trkpt>
      <trkpt lat="46.74534" lon="-1.91117">
        <ele>3</ele>
        <time>2018-03-27T09:36:03Z</time>
      </trkpt>
      <trkpt lat="46.74477" lon="-1.91184">
        <ele>4</ele>
        <time>2018-03-27T09:37:03Z</time>
      </trkpt>
      <trkpt lat="46.74469" lon="-1.91194">
        <ele>4</ele>
        <time>2018-03-27T09:38:03Z</time>
      </trkpt>
      <trkpt lat="46.74418" lon="-1.91257">
        <ele>3</ele>
        <time>2018-03-27T09:39:03Z</time>
      </trkpt>
      <trkpt lat="46.74388" lon="-1.91293">
        <ele>3</ele>
        <time>2018-03-27T09:40:03Z</time>
      </trkpt>
      <trkpt lat="46.74385" lon="-1.91297">
        <ele>3</ele>
        <time>2018-03-27T09:41:03Z</time>
      </trkpt>
      <trkpt lat="46.74375" lon="-1.91309">
        <ele>3</ele>
        <time>2018-03-27T09:42:03Z</time>
      </trkpt>
      <trkpt lat="46.74367" lon="-1.91321">
        <ele>4</ele>
        <time>2018-03-27T09:43:03Z</time>
      </trkpt>
      <trkpt lat="46.74358" lon="-1.91334">
        <ele>4</ele>
        <time>2018-03-27T09:44:03Z</time>
      </trkpt>
      <trkpt lat="46.74351" lon="-1.91346">
        <ele>4</ele>
        <time>2018-03-27T09:45:03Z</time>
      </trkpt>
      <trkpt lat="46.74344" lon="-1.9136">
        <ele>4</ele>
        <time>2018-03-27T09:46:03Z</time>
      </trkpt>
      <trkpt lat="46.74333" lon="-1.91384">
        <ele>4</ele>
        <time>2018-03-27T09:47:03Z</time>
      </trkpt>
      <trkpt lat="46.74324" lon="-1.91402">
        <ele>4</ele>
        <time>2018-03-27T09:48:03Z</time>
      </trkpt>
      <trkpt lat="46.74317" lon="-1.91418">
        <ele>4</ele>
        <time>2018-03-27T09:49:03Z</time>
      </trkpt>
      <trkpt lat="46.74311" lon="-1.91431">
        <ele>4</ele>
        <time>2018-03-27T09:50:03Z</time>
      </trkpt>
      <trkpt lat="46.74311" lon="-1.91431">
        <ele>4</ele>
        <time>2018-03-27T09:51:03Z</time>
      </trkpt>
      <trkpt lat="46.74297" lon="-1.91431">
        <ele>4</ele>
        <time>2018-03-27T09:52:03Z</time>
      </trkpt>
      <trkpt lat="46.74294" lon="-1.91432">
        <ele>4</ele>
        <time>2018-03-27T09:53:03Z</time>
      </trkpt>
      <trkpt lat="46.74292" lon="-1.91432">
        <ele>4</ele>
        <time>2018-03-27T09:54:03Z</time>
      </trkpt>
      <trkpt lat="46.74283" lon="-1.91443">
        <ele>4</ele>
        <time>2018-03-27T09:55:03Z</time>
      </trkpt>
      <trkpt lat="46.74245" lon="-1.91482">
        <ele>5</ele>
        <time>2018-03-27T09:56:03Z</time>
      </trkpt>
      <trkpt lat="46.74235" lon="-1.91492">
        <ele>5</ele>
        <time>2018-03-27T09:57:03Z</time>
      </trkpt>
      <trkpt lat="46.74192" lon="-1.91535">
        <ele>5</ele>
        <time>2018-03-27T09:58:03Z</time>
      </trkpt>
      <trkpt lat="46.74174" lon="-1.91553">
        <ele>5</ele>
        <time>2018-03-27T09:59:03Z</time>
      </trkpt>
      <trkpt lat="46.74172" lon="-1.91555">
        <ele>5</ele>
        <time>2018-03-27T10:00:03Z</time>
      </trkpt>
      <trkpt lat="46.74156" lon="-1.9157">
        <ele>5</ele>
        <time>2018-03-27T10:01:03Z</time>
      </trkpt>
      <trkpt lat="46.74143" lon="-1.91582">
        <ele>5</ele>
        <time>2018-03-27T10:02:03Z</time>
      </trkpt>
      <trkpt lat="46.74117" lon="-1.91604">
        <ele>5</ele>
        <time>2018-03-27T10:03:03Z</time>
      </trkpt>
      <trkpt lat="46.74089" lon="-1.91626">
        <ele>5</ele>
        <time>2018-03-27T10:04:03Z</time>
      </trkpt>
      <trkpt lat="46.74036" lon="-1.91667">
        <ele>6</ele>
        <time>2018-03-27T10:05:03Z</time>
      </trkpt>
      <trkpt lat="46.73994" lon="-1.91701">
        <ele>5</ele>
        <time>2018-03-27T10:06:03Z</time>
      </trkpt>
      <trkpt lat="46.73966" lon="-1.91725">
        <ele>5</ele>
        <time>2018-03-27T10:07:03Z</time>
      </trkpt>
      <trkpt lat="46.73966" lon="-1.91725">
        <ele>5</ele>
        <time>2018-03-27T10:08:03Z</time>
      </trkpt>
      <trkpt lat="46.73954" lon="-1.91736">
        <ele>5</ele>
        <time>2018-03-27T10:09:03Z</time>
      </trkpt>
      <trkpt lat="46.73946" lon="-1.91744">
        <ele>4</ele>
        <time>2018-03-27T10:10:03Z</time>
      </trkpt>
      <trkpt lat="46.73929" lon="-1.91762">
        <ele>4</ele>
        <time>2018-03-27T10:11:03Z</time>
      </trkpt>
      <trkpt lat="46.73918" lon="-1.91773">
        <ele>4</ele>
        <time>2018-03-27T10:12:03Z</time>
      </trkpt>
      <trkpt lat="46.73863" lon="-1.91828">
        <ele>4</ele>
        <time>2018-03-27T10:13:03Z</time>
      </trkpt>
      <trkpt lat="46.73813" lon="-1.91873">
        <ele>5</ele>
        <time>2018-03-27T10:14:03Z</time>
      </trkpt>
      <trkpt lat="46.738" lon="-1.91886">
        <ele>5</ele>
        <time>2018-03-27T10:15:03Z</time>
      </trkpt>
      <trkpt lat="46.73793" lon="-1.91895">
        <ele>5</ele>
        <time>2018-03-27T10:16:03Z</time>
      </trkpt>
      <trkpt lat="46.73787" lon="-1.91904">
        <ele>5</ele>
        <time>2018-03-27T10:17:03Z</time>
      </trkpt>
      <trkpt lat="46.73787" lon="-1.91904">
        <ele>5</ele>
        <time>2018-03-27T10:18:03Z</time>
      </trkpt>
      <trkpt lat="46.73784" lon="-1.91895">
        <ele>5</ele>
        <time>2018-03-27T10:19:03Z</time>
      </trkpt>
      <trkpt lat="46.73782" lon="-1.91884">
        <ele>5</ele>
        <time>2018-03-27T10:20:03Z</time>
      </trkpt>
      <trkpt lat="46.73781" lon="-1.91872">
        <ele>5</ele>
        <time>2018-03-27T10:21:03Z</time>
      </trkpt>
      <trkpt lat="46.73781" lon="-1.91858">
        <ele>5</ele>
        <time>2018-03-27T10:22:03Z</time>
      </trkpt>
      <trkpt lat="46.73781" lon="-1.91846">
        <ele>5</ele>
        <time>2018-03-27T10:23:03Z</time>
      </trkpt>
      <trkpt lat="46.73781" lon="-1.91794">
        <ele>5</ele>
        <time>2018-03-27T10:24:03Z</time>
      </trkpt>
      <trkpt lat="46.7378" lon="-1.91777">
        <ele>5</ele>
        <time>2018-03-27T10:25:03Z</time>
      </trkpt>
      <trkpt lat="46.73779" lon="-1.91762">
        <ele>5</ele>
        <time>2018-03-27T10:26:03Z</time>
      </trkpt>
      <trkpt lat="46.73777" lon="-1.9175">
        <ele>5</ele>
        <time>2018-03-27T10:27:03Z</time>
      </trkpt>
      <trkpt lat="46.73775" lon="-1.9174">
        <ele>5</ele>
        <time>2018-03-27T10:28:03Z</time>
      </trkpt>
      <trkpt lat="46.73771" lon="-1.91727">
        <ele>5</ele>
        <time>2018-03-27T10:29:03Z</time>
      </trkpt>
      <trkpt lat="46.73767" lon="-1.91714">
        <ele>5</ele>
        <time>2018-03-27T10:30:03Z</time>
      </trkpt>
      <trkpt lat="46.73761" lon="-1.91698">
        <ele>5</ele>
        <time>2018-03-27T10:31:03Z</time>
      </trkpt>
      <trkpt lat="46.73752" lon="-1.91678">
        <ele>5</ele>
        <time>2018-03-27T10:32:03Z</time>
      </trkpt>
      <trkpt lat="46.73728" lon="-1.91632">
        <ele>7</ele>
        <time>2018-03-27T10:33:03Z</time>
      </trkpt>
      <trkpt lat="46.73685" lon="-1.91548">
        <ele>6</ele>
        <time>2018-03-27T10:34:03Z</time>
      </trkpt>
      <trkpt lat="46.73651" lon="-1.91488">
        <ele>5</ele>
        <time>2018-03-27T10:35:03Z</time>
      </trkpt>
      <trkpt lat="46.73615" lon="-1.91424">
        <ele>6</ele>
        <time>2018-03-27T10:36:03Z</time>
      </trkpt>
      <trkpt lat="46.73578" lon="-1.91364">
        <ele>7</ele>
        <time>2018-03-27T10:37:03Z</time>
      </trkpt>
      <trkpt lat="46.73569" lon="-1.91351">
        <ele>7</ele>
        <time>2018-03-27T10:38:03Z</time>
      </trkpt>
      <trkpt lat="46.73558" lon="-1.91337">
        <ele>8</ele>
        <time>2018-03-27T10:39:03Z</time>
      </trkpt>
      <trkpt lat="46.73546" lon="-1.91323">
        <ele>8</ele>
        <time>2018-03-27T10:40:03Z</time>
      </trkpt>
      <trkpt lat="46.73522" lon="-1.91298">
        <ele>8</ele>
        <time>2018-03-27T10:41:03Z</time>
      </trkpt>
      <trkpt lat="46.73481" lon="-1.91256">
        <ele>9</ele>
        <time>2018-03-27T10:42:03Z</time>
      </trkpt>
      <trkpt lat="46.73456" lon="-1.91235">
        <ele>10</ele>
        <time>2018-03-27T10:43:03Z</time>
      </trkpt>
      <trkpt lat="46.73456" lon="-1.91235">
        <ele>10</ele>
        <time>2018-03-27T10:44:03Z</time>
      </trkpt>
      <trkpt lat="46.73442" lon="-1.91257">
        <ele>11</ele>
        <time>2018-03-27T10:45:03Z</time>
      </trkpt>
      <trkpt lat="46.73421" lon="-1.91295">
        <ele>11</ele>
        <time>2018-03-27T10:46:03Z</time>
      </trkpt>
      <trkpt lat="46.73392" lon="-1.91347">
        <ele>11</ele>
        <time>2018-03-27T10:47:03Z</time>
      </trkpt>
      <trkpt lat="46.73368" lon="-1.91384">
        <ele>12</ele>
        <time>2018-03-27T10:48:03Z</time>
      </trkpt>
      <trkpt lat="46.7336" lon="-1.91399">
        <ele>12</ele>
        <time>2018-03-27T10:49:03Z</time>
      </trkpt>
      <trkpt lat="46.73357" lon="-1.91405">
        <ele>13</ele>
        <time>2018-03-27T10:50:03Z</time>
      </trkpt>
      <trkpt lat="46.73355" lon="-1.91413">
        <ele>13</ele>
        <time>2018-03-27T10:51:03Z</time>
      </trkpt>
      <trkpt lat="46.73349" lon="-1.91432">
        <ele>13</ele>
        <time>2018-03-27T10:52:03Z</time>
      </trkpt>
      <trkpt lat="46.73344" lon="-1.91455">
        <ele>13</ele>
        <time>2018-03-27T10:53:03Z</time>
      </trkpt>
      <trkpt lat="46.7334" lon="-1.91469">
        <ele>13</ele>
        <time>2018-03-27T10:54:03Z</time>
      </trkpt>
      <trkpt lat="46.73339" lon="-1.91474">
        <ele>14</ele>
        <time>2018-03-27T10:55:03Z</time>
      </trkpt>
      <trkpt lat="46.73337" lon="-1.9148">
        <ele>14</ele>
        <time>2018-03-27T10:56:03Z</time>
      </trkpt>
      <trkpt lat="46.73335" lon="-1.91484">
        <ele>14</ele>
        <time>2018-03-27T10:57:03Z</time>
      </trkpt>
      <trkpt lat="46.73331" lon="-1.9149">
        <ele>14</ele>
        <time>2018-03-27T10:58:03Z</time>
      </trkpt>
      <trkpt lat="46.73331" lon="-1.9149">
        <ele>14</ele>
        <time>2018-03-27T10:59:03Z</time>
      </trkpt>
      <trkpt lat="46.73327" lon="-1.91472">
        <ele>14</ele>
        <time>2018-03-27T11:00:03Z</time>
      </trkpt>
      <trkpt lat="46.73321" lon="-1.91454">
        <ele>14</ele>
        <time>2018-03-27T11:01:03Z</time>
      </trkpt>
      <trkpt lat="46.73312" lon="-1.91432">
        <ele>13</ele>
        <time>2018-03-27T11:02:03Z</time>
      </trkpt>
      <trkpt lat="46.73304" lon="-1.91414">
        <ele>13</ele>
        <time>2018-03-27T11:03:03Z</time>
      </trkpt>
      <trkpt lat="46.73298" lon="-1.91401">
        <ele>13</ele>
        <time>2018-03-27T11:04:03Z</time>
      </trkpt>
      <trkpt lat="46.7328" lon="-1.91361">
        <ele>13</ele>
        <time>2018-03-27T11:05:03Z</time>
      </trkpt>
      <trkpt lat="46.73264" lon="-1.91328">
        <ele>13</ele>
        <time>2018-03-27T11:06:03Z</time>
      </trkpt>
      <trkpt lat="46.7325" lon="-1.91296">
        <ele>12</ele>
        <time>2018-03-27T11:07:03Z</time>
      </trkpt>
      <trkpt lat="46.73239" lon="-1.91274">
        <ele>10</ele>
        <time>2018-03-27T11:08:03Z</time>
      </trkpt>
      <trkpt lat="46.73227" lon="-1.91249">
        <ele>9</ele>
        <time>2018-03-27T11:09:03Z</time>
      </trkpt>
      <trkpt lat="46.73223" lon="-1.91238">
        <ele>9</ele>
        <time>2018-03-27T11:10:03Z</time>
      </trkpt>
      <trkpt lat="46.73208" lon="-1.91204">
        <ele>8</ele>
        <time>2018-03-27T11:11:03Z</time>
      </trkpt>
      <trkpt lat="46.73197" lon="-1.91182">
        <ele>8</ele>
        <time>2018-03-27T11:12:03Z</time>
      </trkpt>
      <trkpt lat="46.73184" lon="-1.91155">
        <ele>7</ele>
        <time>2018-03-27T11:13:03Z</time>
      </trkpt>
      <trkpt lat="46.73174" lon="-1.91134">
        <ele>6</ele>
        <time>2018-03-27T11:14:03Z</time>
      </trkpt>
      <trkpt lat="46.73169" lon="-1.91126">
        <ele>5</ele>
        <time>2018-03-27T11:15:03Z</time>
      </trkpt>
      <trkpt lat="46.73163" lon="-1.91117">
        <ele>5</ele>
        <time>2018-03-27T11:16:03Z</time>
      </trkpt>
      <trkpt lat="46.73151" lon="-1.91102">
        <ele>4</ele>
        <time>2018-03-27T11:17:03Z</time>
      </trkpt>
      <trkpt lat="46.73148" lon="-1.91095">
        <ele>4</ele>
        <time>2018-03-27T11:18:03Z</time>
      </trkpt>
      <trkpt lat="46.73137" lon="-1.91077">
        <ele>4</ele>
        <time>2018-03-27T11:19:03Z</time>
      </trkpt>
      <trkpt lat="46.7313" lon="-1.91067">
        <ele>4</ele>
        <time>2018-03-27T11:20:03Z</time>
      </trkpt>
      <trkpt lat="46.73098" lon="-1.91017">
        <ele>2</ele>
        <time>2018-03-27T11:21:03Z</time>
      </trkpt>
      <trkpt lat="46.73057" lon="-1.90954">
        <ele>1</ele>
        <time>2018-03-27T11:22:03Z</time>
      </trkpt>
      <trkpt lat="46.73019" lon="-1.90898">
        <ele>2.8</ele>
        <time>2018-03-27T11:23:03Z</time>
      </trkpt>
      <trkpt lat="46.72986" lon="-1.90845">
        <ele>1</ele>
        <time>2018-03-27T11:24:03Z</time>
      </trkpt>
      <trkpt lat="46.72951" lon="-1.90792">
        <ele>3.2</ele>
        <time>2018-03-27T11:25:03Z</time>
      </trkpt>
      <trkpt lat="46.72909" lon="-1.90728">
        <ele>2.6</ele>
        <time>2018-03-27T11:26:03Z</time>
      </trkpt>
      <trkpt lat="46.7288" lon="-1.90681">
        <ele>1</ele>
        <time>2018-03-27T11:27:03Z</time>
      </trkpt>
      <trkpt lat="46.72851" lon="-1.9064">
        <ele>3</ele>
        <time>2018-03-27T11:28:03Z</time>
      </trkpt>
      <trkpt lat="46.72831" lon="-1.90608">
        <ele>2.9</ele>
        <time>2018-03-27T11:29:03Z</time>
      </trkpt>
      <trkpt lat="46.72812" lon="-1.9058">
        <ele>3.4</ele>
        <time>2018-03-27T11:30:03Z</time>
      </trkpt>
      <trkpt lat="46.72794" lon="-1.90558">
        <ele>2.5</ele>
        <time>2018-03-27T11:31:03Z</time>
      </trkpt>
      <trkpt lat="46.72781" lon="-1.90543">
        <ele>1</ele>
        <time>2018-03-27T11:32:03Z</time>
      </trkpt>
      <trkpt lat="46.7276" lon="-1.90525">
        <ele>3.2</ele>
        <time>2018-03-27T11:33:03Z</time>
      </trkpt>
      <trkpt lat="46.72749" lon="-1.90513">
        <ele>3</ele>
        <time>2018-03-27T11:34:03Z</time>
      </trkpt>
      <trkpt lat="46.72728" lon="-1.90494">
        <ele>3.2</ele>
        <time>2018-03-27T11:35:03Z</time>
      </trkpt>
      <trkpt lat="46.72728" lon="-1.90494">
        <ele>3.2</ele>
        <time>2018-03-27T11:36:03Z</time>
      </trkpt>
      <trkpt lat="46.7272" lon="-1.90488">
        <ele>3.1</ele>
        <time>2018-03-27T11:37:03Z</time>
      </trkpt>
      <trkpt lat="46.72712" lon="-1.9048">
        <ele>2.3</ele>
        <time>2018-03-27T11:38:03Z</time>
      </trkpt>
      <trkpt lat="46.72704" lon="-1.90472">
        <ele>1.4</ele>
        <time>2018-03-27T11:39:03Z</time>
      </trkpt>
      <trkpt lat="46.72699" lon="-1.90466">
        <ele>1.7</ele>
        <time>2018-03-27T11:40:03Z</time>
      </trkpt>
      <trkpt lat="46.72693" lon="-1.90461">
        <ele>2.3</ele>
        <time>2018-03-27T11:41:03Z</time>
      </trkpt>
      <trkpt lat="46.72682" lon="-1.90451">
        <ele>3.5</ele>
        <time>2018-03-27T11:42:03Z</time>
      </trkpt>
      <trkpt lat="46.72671" lon="-1.9044">
        <ele>3.8</ele>
        <time>2018-03-27T11:43:03Z</time>
      </trkpt>
      <trkpt lat="46.72643" lon="-1.90413">
        <ele>3.7</ele>
        <time>2018-03-27T11:44:03Z</time>
      </trkpt>
      <trkpt lat="46.72603" lon="-1.90372">
        <ele>3.5</ele>
        <time>2018-03-27T11:45:03Z</time>
      </trkpt>
      <trkpt lat="46.72573" lon="-1.90343">
        <ele>1</ele>
        <time>2018-03-27T11:46:03Z</time>
      </trkpt>
      <trkpt lat="46.7254" lon="-1.90311">
        <ele>1</ele>
        <time>2018-03-27T11:47:03Z</time>
      </trkpt>
      <trkpt lat="46.72506" lon="-1.90278">
        <ele>2</ele>
        <time>2018-03-27T11:48:03Z</time>
      </trkpt>
      <trkpt lat="46.72485" lon="-1.90257">
        <ele>2</ele>
        <time>2018-03-27T11:49:03Z</time>
      </trkpt>
      <trkpt lat="46.72468" lon="-1.90239">
        <ele>2</ele>
        <time>2018-03-27T11:50:03Z</time>
      </trkpt>
      <trkpt lat="46.72458" lon="-1.90226">
        <ele>2</ele>
        <time>2018-03-27T11:51:03Z</time>
      </trkpt>
      <trkpt lat="46.7245" lon="-1.90213">
        <ele>2</ele>
        <time>2018-03-27T11:52:03Z</time>
      </trkpt>
      <trkpt lat="46.7244" lon="-1.9019">
        <ele>2</ele>
        <time>2018-03-27T11:53:03Z</time>
      </trkpt>
      <trkpt lat="46.7243" lon="-1.90169">
        <ele>2</ele>
        <time>2018-03-27T11:54:03Z</time>
      </trkpt>
      <trkpt lat="46.72412" lon="-1.90128">
        <ele>2</ele>
        <time>2018-03-27T11:55:03Z</time>
      </trkpt>
      <trkpt lat="46.72403" lon="-1.90108">
        <ele>3</ele>
        <time>2018-03-27T11:56:03Z</time>
      </trkpt>
      <trkpt lat="46.72388" lon="-1.90076">
        <ele>3</ele>
        <time>2018-03-27T11:57:03Z</time>
      </trkpt>
      <trkpt lat="46.72372" lon="-1.90041">
        <ele>4</ele>
        <time>2018-03-27T11:58:03Z</time>
      </trkpt>
      <trkpt lat="46.72358" lon="-1.90013">
        <ele>5</ele>
        <time>2018-03-27T11:59:03Z</time>
      </trkpt>
      <trkpt lat="46.72348" lon="-1.89995">
        <ele>5</ele>
        <time>2018-03-27T12:00:03Z</time>
      </trkpt>
      <trkpt lat="46.72336" lon="-1.89977">
        <ele>6</ele>
        <time>2018-03-27T12:01:03Z</time>
      </trkpt>
      <trkpt lat="46.72329" lon="-1.89969">
        <ele>6</ele>
        <time>2018-03-27T12:02:03Z</time>
      </trkpt>
      <trkpt lat="46.72323" lon="-1.8996">
        <ele>6</ele>
        <time>2018-03-27T12:03:03Z</time>
      </trkpt>
      <trkpt lat="46.72315" lon="-1.89944">
        <ele>6</ele>
        <time>2018-03-27T12:04:03Z</time>
      </trkpt>
      <trkpt lat="46.72307" lon="-1.89925">
        <ele>6</ele>
        <time>2018-03-27T12:05:03Z</time>
      </trkpt>
      <trkpt lat="46.723" lon="-1.89904">
        <ele>6</ele>
        <time>2018-03-27T12:06:03Z</time>
      </trkpt>
      <trkpt lat="46.72292" lon="-1.8988">
        <ele>6</ele>
        <time>2018-03-27T12:07:03Z</time>
      </trkpt>
      <trkpt lat="46.72283" lon="-1.89855">
        <ele>6</ele>
        <time>2018-03-27T12:08:03Z</time>
      </trkpt>
      <trkpt lat="46.72271" lon="-1.89821">
        <ele>6</ele>
        <time>2018-03-27T12:09:03Z</time>
      </trkpt>
      <trkpt lat="46.72261" lon="-1.89791">
        <ele>7</ele>
        <time>2018-03-27T12:10:03Z</time>
      </trkpt>
      <trkpt lat="46.72253" lon="-1.8977">
        <ele>7</ele>
        <time>2018-03-27T12:11:03Z</time>
      </trkpt>
      <trkpt lat="46.72253" lon="-1.8977">
        <ele>7</ele>
        <time>2018-03-27T12:12:03Z</time>
      </trkpt>
      <trkpt lat="46.72225" lon="-1.89792">
        <ele>7</ele>
        <time>2018-03-27T12:13:03Z</time>
      </trkpt>
      <trkpt lat="46.72203" lon="-1.89809">
        <ele>8</ele>
        <time>2018-03-27T12:14:03Z</time>
      </trkpt>
      <trkpt lat="46.72178" lon="-1.8983">
        <ele>9</ele>
        <time>2018-03-27T12:15:03Z</time>
      </trkpt>
      <trkpt lat="46.72143" lon="-1.89859">
        <ele>9</ele>
        <time>2018-03-27T12:16:03Z</time>
      </trkpt>
      <trkpt lat="46.72119" lon="-1.89878">
        <ele>8</ele>
        <time>2018-03-27T12:17:03Z</time>
      </trkpt>
      <trkpt lat="46.72084" lon="-1.89908">
        <ele>7</ele>
        <time>2018-03-27T12:18:03Z</time>
      </trkpt>
      <trkpt lat="46.72056" lon="-1.8993">
        <ele>7</ele>
        <time>2018-03-27T12:19:03Z</time>
      </trkpt>
      <trkpt lat="46.72042" lon="-1.89942">
        <ele>7</ele>
        <time>2018-03-27T12:20:03Z</time>
      </trkpt>
      <trkpt lat="46.72037" lon="-1.89948">
        <ele>7</ele>
        <time>2018-03-27T12:21:03Z</time>
      </trkpt>
      <trkpt lat="46.72029" lon="-1.8996">
        <ele>7</ele>
        <time>2018-03-27T12:22:03Z</time>
      </trkpt>
      <trkpt lat="46.7202" lon="-1.89975">
        <ele>7</ele>
        <time>2018-03-27T12:23:03Z</time>
      </trkpt>
      <trkpt lat="46.72013" lon="-1.89987">
        <ele>6</ele>
        <time>2018-03-27T12:24:03Z</time>
      </trkpt>
      <trkpt lat="46.72002" lon="-1.90007">
        <ele>6</ele>
        <time>2018-03-27T12:25:03Z</time>
      </trkpt>
      <trkpt lat="46.7199" lon="-1.90031">
        <ele>6</ele>
        <time>2018-03-27T12:26:03Z</time>
      </trkpt>
      <trkpt lat="46.71979" lon="-1.9005">
        <ele>6</ele>
        <time>2018-03-27T12:27:03Z</time>
      </trkpt>
      <trkpt lat="46.71973" lon="-1.90062">
        <ele>6</ele>
        <time>2018-03-27T12:28:03Z</time>
      </trkpt>
      <trkpt lat="46.71968" lon="-1.9008">
        <ele>6</ele>
        <time>2018-03-27T12:29:03Z</time>
      </trkpt>
      <trkpt lat="46.71965" lon="-1.90106">
        <ele>6</ele>
        <time>2018-03-27T12:30:03Z</time>
      </trkpt>
      <trkpt lat="46.71962" lon="-1.90125">
        <ele>6</ele>
        <time>2018-03-27T12:31:03Z</time>
      </trkpt>
      <trkpt lat="46.71959" lon="-1.90153">
        <ele>6</ele>
        <time>2018-03-27T12:32:03Z</time>
      </trkpt>
      <trkpt lat="46.71958" lon="-1.90176">
        <ele>6</ele>
        <time>2018-03-27T12:33:03Z</time>
      </trkpt>
      <trkpt lat="46.71956" lon="-1.90191">
        <ele>6</ele>
        <time>2018-03-27T12:34:03Z</time>
      </trkpt>
      <trkpt lat="46.71953" lon="-1.90201">
        <ele>6</ele>
        <time>2018-03-27T12:35:03Z</time>
      </trkpt>
      <trkpt lat="46.71953" lon="-1.90203">
        <ele>6</ele>
        <time>2018-03-27T12:36:03Z</time>
      </trkpt>
      <trkpt lat="46.71949" lon="-1.90211">
        <ele>6</ele>
        <time>2018-03-27T12:37:03Z</time>
      </trkpt>
      <trkpt lat="46.71946" lon="-1.90218">
        <ele>6</ele>
        <time>2018-03-27T12:38:03Z</time>
      </trkpt>
      <trkpt lat="46.71941" lon="-1.90227">
        <ele>6</ele>
        <time>2018-03-27T12:39:03Z</time>
      </trkpt>
      <trkpt lat="46.71934" lon="-1.90235">
        <ele>6</ele>
        <time>2018-03-27T12:40:03Z</time>
      </trkpt>
      <trkpt lat="46.71927" lon="-1.9024">
        <ele>6</ele>
        <time>2018-03-27T12:41:03Z</time>
      </trkpt>
      <trkpt lat="46.71914" lon="-1.90248">
        <ele>6</ele>
        <time>2018-03-27T12:42:03Z</time>
      </trkpt>
      <trkpt lat="46.719" lon="-1.90254">
        <ele>7</ele>
        <time>2018-03-27T12:43:03Z</time>
      </trkpt>
      <trkpt lat="46.71896" lon="-1.90256">
        <ele>7</ele>
        <time>2018-03-27T12:44:03Z</time>
      </trkpt>
      <trkpt lat="46.7189" lon="-1.9026">
        <ele>7</ele>
        <time>2018-03-27T12:45:03Z</time>
      </trkpt>
      <trkpt lat="46.71886" lon="-1.90263">
        <ele>7</ele>
        <time>2018-03-27T12:46:03Z</time>
      </trkpt>
      <trkpt lat="46.71883" lon="-1.90267">
        <ele>7</ele>
        <time>2018-03-27T12:47:03Z</time>
      </trkpt>
      <trkpt lat="46.71879" lon="-1.90274">
        <ele>7</ele>
        <time>2018-03-27T12:48:03Z</time>
      </trkpt>
      <trkpt lat="46.71876" lon="-1.90283">
        <ele>7</ele>
        <time>2018-03-27T12:49:03Z</time>
      </trkpt>
      <trkpt lat="46.71872" lon="-1.90301">
        <ele>6</ele>
        <time>2018-03-27T12:50:03Z</time>
      </trkpt>
      <trkpt lat="46.71869" lon="-1.90308">
        <ele>6</ele>
        <time>2018-03-27T12:51:03Z</time>
      </trkpt>
      <trkpt lat="46.71865" lon="-1.90316">
        <ele>6</ele>
        <time>2018-03-27T12:52:03Z</time>
      </trkpt>
      <trkpt lat="46.71839" lon="-1.90349">
        <ele>6</ele>
        <time>2018-03-27T12:53:03Z</time>
      </trkpt>
      <trkpt lat="46.7179" lon="-1.90406">
        <ele>6</ele>
        <time>2018-03-27T12:54:03Z</time>
      </trkpt>
      <trkpt lat="46.71783" lon="-1.90415">
        <ele>6</ele>
        <time>2018-03-27T12:55:03Z</time>
      </trkpt>
      <trkpt lat="46.71764" lon="-1.90437">
        <ele>7</ele>
        <time>2018-03-27T12:56:03Z</time>
      </trkpt>
      <trkpt lat="46.71729" lon="-1.90479">
        <ele>7</ele>
        <time>2018-03-27T12:57:03Z</time>
      </trkpt>
      <trkpt lat="46.71702" lon="-1.90512">
        <ele>8</ele>
        <time>2018-03-27T12:58:03Z</time>
      </trkpt>
      <trkpt lat="46.71687" lon="-1.9053">
        <ele>8</ele>
        <time>2018-03-27T12:59:03Z</time>
      </trkpt>
      <trkpt lat="46.71673" lon="-1.90547">
        <ele>8</ele>
        <time>2018-03-27T13:00:03Z</time>
      </trkpt>
      <trkpt lat="46.71651" lon="-1.90574">
        <ele>9</ele>
        <time>2018-03-27T13:01:03Z</time>
      </trkpt>
      <trkpt lat="46.71615" lon="-1.90615">
        <ele>9</ele>
        <time>2018-03-27T13:02:03Z</time>
      </trkpt>
      <trkpt lat="46.71615" lon="-1.90616">
        <ele>9</ele>
        <time>2018-03-27T13:03:03Z</time>
      </trkpt>
      <trkpt lat="46.7161" lon="-1.90622">
        <ele>9</ele>
        <time>2018-03-27T13:04:03Z</time>
      </trkpt>
      <trkpt lat="46.71589" lon="-1.90649">
        <ele>9</ele>
        <time>2018-03-27T13:05:03Z</time>
      </trkpt>
      <trkpt lat="46.71557" lon="-1.90688">
        <ele>10</ele>
        <time>2018-03-27T13:06:03Z</time>
      </trkpt>
      <trkpt lat="46.71554" lon="-1.90691">
        <ele>10</ele>
        <time>2018-03-27T13:07:03Z</time>
      </trkpt>
      <trkpt lat="46.71544" lon="-1.90706">
        <ele>10</ele>
        <time>2018-03-27T13:08:03Z</time>
      </trkpt>
      <trkpt lat="46.71545" lon="-1.90706">
        <ele>10</ele>
        <time>2018-03-27T13:09:03Z</time>
      </trkpt>
      <trkpt lat="46.71545" lon="-1.90707">
        <ele>10</ele>
        <time>2018-03-27T13:10:03Z</time>
      </trkpt>
      <trkpt lat="46.71545" lon="-1.90708">
        <ele>10</ele>
        <time>2018-03-27T13:11:03Z</time>
      </trkpt>
      <trkpt lat="46.71546" lon="-1.90708">
        <ele>10</ele>
        <time>2018-03-27T13:12:03Z</time>
      </trkpt>
      <trkpt lat="46.71546" lon="-1.90709">
        <ele>10</ele>
        <time>2018-03-27T13:13:03Z</time>
      </trkpt>
      <trkpt lat="46.71546" lon="-1.9071">
        <ele>10</ele>
        <time>2018-03-27T13:14:03Z</time>
      </trkpt>
      <trkpt lat="46.71546" lon="-1.90711">
        <ele>10</ele>
        <time>2018-03-27T13:15:03Z</time>
      </trkpt>
      <trkpt lat="46.71546" lon="-1.90712">
        <ele>10</ele>
        <time>2018-03-27T13:16:03Z</time>
      </trkpt>
      <trkpt lat="46.71546" lon="-1.90713">
        <ele>10</ele>
        <time>2018-03-27T13:17:03Z</time>
      </trkpt>
      <trkpt lat="46.71546" lon="-1.90714">
        <ele>10</ele>
        <time>2018-03-27T13:18:03Z</time>
      </trkpt>
      <trkpt lat="46.71546" lon="-1.90715">
        <ele>10</ele>
        <time>2018-03-27T13:19:03Z</time>
      </trkpt>
      <trkpt lat="46.71546" lon="-1.90716">
        <ele>10</ele>
        <time>2018-03-27T13:20:03Z</time>
      </trkpt>
      <trkpt lat="46.71546" lon="-1.90717">
        <ele>10</ele>
        <time>2018-03-27T13:21:03Z</time>
      </trkpt>
      <trkpt lat="46.71545" lon="-1.90717">
        <ele>10</ele>
        <time>2018-03-27T13:22:03Z</time>
      </trkpt>
      <trkpt lat="46.71545" lon="-1.90718">
        <ele>10</ele>
        <time>2018-03-27T13:23:03Z</time>
      </trkpt>
      <trkpt lat="46.71545" lon="-1.90719">
        <ele>10</ele>
        <time>2018-03-27T13:24:03Z</time>
      </trkpt>
      <trkpt lat="46.71544" lon="-1.90719">
        <ele>10</ele>
        <time>2018-03-27T13:25:03Z</time>
      </trkpt>
      <trkpt lat="46.71544" lon="-1.9072">
        <ele>10</ele>
        <time>2018-03-27T13:26:03Z</time>
      </trkpt>
      <trkpt lat="46.71543" lon="-1.9072">
        <ele>10</ele>
        <time>2018-03-27T13:27:03Z</time>
      </trkpt>
      <trkpt lat="46.71542" lon="-1.9072">
        <ele>10</ele>
        <time>2018-03-27T13:28:03Z</time>
      </trkpt>
      <trkpt lat="46.71541" lon="-1.9072">
        <ele>10</ele>
        <time>2018-03-27T13:29:03Z</time>
      </trkpt>
      <trkpt lat="46.71541" lon="-1.90721">
        <ele>10</ele>
        <time>2018-03-27T13:30:03Z</time>
      </trkpt>
      <trkpt lat="46.71541" lon="-1.9072">
        <ele>10</ele>
        <time>2018-03-27T13:31:03Z</time>
      </trkpt>
      <trkpt lat="46.7154" lon="-1.9072">
        <ele>10</ele>
        <time>2018-03-27T13:32:03Z</time>
      </trkpt>
      <trkpt lat="46.71539" lon="-1.9072">
        <ele>10</ele>
        <time>2018-03-27T13:33:03Z</time>
      </trkpt>
      <trkpt lat="46.71538" lon="-1.9072">
        <ele>10</ele>
        <time>2018-03-27T13:34:03Z</time>
      </trkpt>
      <trkpt lat="46.71538" lon="-1.90719">
        <ele>10</ele>
        <time>2018-03-27T13:35:03Z</time>
      </trkpt>
      <trkpt lat="46.71537" lon="-1.90719">
        <ele>10</ele>
        <time>2018-03-27T13:36:03Z</time>
      </trkpt>
      <trkpt lat="46.71537" lon="-1.90718">
        <ele>10</ele>
        <time>2018-03-27T13:37:03Z</time>
      </trkpt>
      <trkpt lat="46.71537" lon="-1.90717">
        <ele>10</ele>
        <time>2018-03-27T13:38:03Z</time>
      </trkpt>
      <trkpt lat="46.71504" lon="-1.90753">
        <ele>11</ele>
        <time>2018-03-27T13:39:03Z</time>
      </trkpt>
      <trkpt lat="46.71468" lon="-1.90796">
        <ele>11</ele>
        <time>2018-03-27T13:40:03Z</time>
      </trkpt>
      <trkpt lat="46.71449" lon="-1.90818">
        <ele>12</ele>
        <time>2018-03-27T13:41:03Z</time>
      </trkpt>
      <trkpt lat="46.71439" lon="-1.9083">
        <ele>12</ele>
        <time>2018-03-27T13:42:03Z</time>
      </trkpt>
      <trkpt lat="46.71414" lon="-1.90862">
        <ele>13</ele>
        <time>2018-03-27T13:43:03Z</time>
      </trkpt>
      <trkpt lat="46.71394" lon="-1.90886">
        <ele>13</ele>
        <time>2018-03-27T13:44:03Z</time>
      </trkpt>
      <trkpt lat="46.71377" lon="-1.90906">
        <ele>13</ele>
        <time>2018-03-27T13:45:03Z</time>
      </trkpt>
      <trkpt lat="46.71372" lon="-1.90912">
        <ele>13</ele>
        <time>2018-03-27T13:46:03Z</time>
      </trkpt>
      <trkpt lat="46.71354" lon="-1.90933">
        <ele>12</ele>
        <time>2018-03-27T13:47:03Z</time>
      </trkpt>
      <trkpt lat="46.71332" lon="-1.90962">
        <ele>12</ele>
        <time>2018-03-27T13:48:03Z</time>
      </trkpt>
      <trkpt lat="46.7131" lon="-1.90988">
        <ele>12</ele>
        <time>2018-03-27T13:49:03Z</time>
      </trkpt>
      <trkpt lat="46.713" lon="-1.91004">
        <ele>12</ele>
        <time>2018-03-27T13:50:03Z</time>
      </trkpt>
      <trkpt lat="46.71289" lon="-1.9102">
        <ele>12</ele>
        <time>2018-03-27T13:51:03Z</time>
      </trkpt>
      <trkpt lat="46.71277" lon="-1.9104">
        <ele>12</ele>
        <time>2018-03-27T13:52:03Z</time>
      </trkpt>
      <trkpt lat="46.71264" lon="-1.91064">
        <ele>12</ele>
        <time>2018-03-27T13:53:03Z</time>
      </trkpt>
      <trkpt lat="46.71255" lon="-1.91084">
        <ele>12</ele>
        <time>2018-03-27T13:54:03Z</time>
      </trkpt>
      <trkpt lat="46.71244" lon="-1.91108">
        <ele>12</ele>
        <time>2018-03-27T13:55:03Z</time>
      </trkpt>
      <trkpt lat="46.71231" lon="-1.91139">
        <ele>11</ele>
        <time>2018-03-27T13:56:03Z</time>
      </trkpt>
      <trkpt lat="46.71227" lon="-1.91147">
        <ele>11</ele>
        <time>2018-03-27T13:57:03Z</time>
      </trkpt>
      <trkpt lat="46.71216" lon="-1.91174">
        <ele>11</ele>
        <time>2018-03-27T13:58:03Z</time>
      </trkpt>
      <trkpt lat="46.712" lon="-1.9121">
        <ele>11</ele>
        <time>2018-03-27T13:59:03Z</time>
      </trkpt>
      <trkpt lat="46.71185" lon="-1.91246">
        <ele>11</ele>
        <time>2018-03-27T14:00:03Z</time>
      </trkpt>
      <trkpt lat="46.71175" lon="-1.91271">
        <ele>11</ele>
        <time>2018-03-27T14:01:03Z</time>
      </trkpt>
      <trkpt lat="46.71164" lon="-1.91298">
        <ele>11</ele>
        <time>2018-03-27T14:02:03Z</time>
      </trkpt>
      <trkpt lat="46.71152" lon="-1.91328">
        <ele>12</ele>
        <time>2018-03-27T14:03:03Z</time>
      </trkpt>
      <trkpt lat="46.7115" lon="-1.91334">
        <ele>12</ele>
        <time>2018-03-27T14:04:03Z</time>
      </trkpt>
      <trkpt lat="46.71148" lon="-1.91339">
        <ele>12</ele>
        <time>2018-03-27T14:05:03Z</time>
      </trkpt>
      <trkpt lat="46.71136" lon="-1.91372">
        <ele>12</ele>
        <time>2018-03-27T14:06:03Z</time>
      </trkpt>
      <trkpt lat="46.71122" lon="-1.91407">
        <ele>13</ele>
        <time>2018-03-27T14:07:03Z</time>
      </trkpt>
      <trkpt lat="46.71113" lon="-1.91429">
        <ele>14</ele>
        <time>2018-03-27T14:08:03Z</time>
      </trkpt>
      <trkpt lat="46.71106" lon="-1.91442">
        <ele>14</ele>
        <time>2018-03-27T14:09:03Z</time>
      </trkpt>
      <trkpt lat="46.71103" lon="-1.91449">
        <ele>14</ele>
        <time>2018-03-27T14:10:03Z</time>
      </trkpt>
      <trkpt lat="46.71102" lon="-1.91452">
        <ele>14</ele>
        <time>2018-03-27T14:11:03Z</time>
      </trkpt>
      <trkpt lat="46.71099" lon="-1.91459">
        <ele>14</ele>
        <time>2018-03-27T14:12:03Z</time>
      </trkpt>
      <trkpt lat="46.71097" lon="-1.91462">
        <ele>15</ele>
        <time>2018-03-27T14:13:03Z</time>
      </trkpt>
      <trkpt lat="46.71096" lon="-1.91463">
        <ele>15</ele>
        <time>2018-03-27T14:14:03Z</time>
      </trkpt>
      <trkpt lat="46.71095" lon="-1.91465">
        <ele>15</ele>
        <time>2018-03-27T14:15:03Z</time>
      </trkpt>
      <trkpt lat="46.71085" lon="-1.91481">
        <ele>15</ele>
        <time>2018-03-27T14:16:03Z</time>
      </trkpt>
      <trkpt lat="46.7107" lon="-1.91503">
        <ele>15</ele>
        <time>2018-03-27T14:17:03Z</time>
      </trkpt>
      <trkpt lat="46.71064" lon="-1.91509">
        <ele>15</ele>
        <time>2018-03-27T14:18:03Z</time>
      </trkpt>
      <trkpt lat="46.71054" lon="-1.91523">
        <ele>16</ele>
        <time>2018-03-27T14:19:03Z</time>
      </trkpt>
      <trkpt lat="46.71042" lon="-1.91539">
        <ele>16</ele>
        <time>2018-03-27T14:20:03Z</time>
      </trkpt>
      <trkpt lat="46.71022" lon="-1.91567">
        <ele>16</ele>
        <time>2018-03-27T14:21:03Z</time>
      </trkpt>
      <trkpt lat="46.7102" lon="-1.9157">
        <ele>17</ele>
        <time>2018-03-27T14:22:03Z</time>
      </trkpt>
      <trkpt lat="46.71018" lon="-1.91572">
        <ele>17</ele>
        <time>2018-03-27T14:23:03Z</time>
      </trkpt>
      <trkpt lat="46.70999" lon="-1.91598">
        <ele>17</ele>
        <time>2018-03-27T14:24:03Z</time>
      </trkpt>
      <trkpt lat="46.70971" lon="-1.91634">
        <ele>17</ele>
        <time>2018-03-27T14:25:03Z</time>
      </trkpt>
      <trkpt lat="46.70954" lon="-1.91659">
        <ele>18</ele>
        <time>2018-03-27T14:26:03Z</time>
      </trkpt>
      <trkpt lat="46.70951" lon="-1.91664">
        <ele>18</ele>
        <time>2018-03-27T14:27:03Z</time>
      </trkpt>
      <trkpt lat="46.70946" lon="-1.91669">
        <ele>18</ele>
        <time>2018-03-27T14:28:03Z</time>
      </trkpt>
      <trkpt lat="46.70932" lon="-1.91688">
        <ele>18</ele>
        <time>2018-03-27T14:29:03Z</time>
      </trkpt>
      <trkpt lat="46.70913" lon="-1.91714">
        <ele>18</ele>
        <time>2018-03-27T14:30:03Z</time>
      </trkpt>
      <trkpt lat="46.70894" lon="-1.91739">
        <ele>18</ele>
        <time>2018-03-27T14:31:03Z</time>
      </trkpt>
      <trkpt lat="46.70883" lon="-1.91753">
        <ele>18</ele>
        <time>2018-03-27T14:32:03Z</time>
      </trkpt>
      <trkpt lat="46.7087" lon="-1.91769">
        <ele>19</ele>
        <time>2018-03-27T14:33:03Z</time>
      </trkpt>
      <trkpt lat="46.7087" lon="-1.9177">
        <ele>19</ele>
        <time>2018-03-27T14:34:03Z</time>
      </trkpt>
      <trkpt lat="46.7087" lon="-1.91771">
        <ele>19</ele>
        <time>2018-03-27T14:35:03Z</time>
      </trkpt>
      <trkpt lat="46.70871" lon="-1.91771">
        <ele>19</ele>
        <time>2018-03-27T14:36:03Z</time>
      </trkpt>
      <trkpt lat="46.70871" lon="-1.91772">
        <ele>19</ele>
        <time>2018-03-27T14:37:03Z</time>
      </trkpt>
      <trkpt lat="46.70871" lon="-1.91773">
        <ele>19</ele>
        <time>2018-03-27T14:38:03Z</time>
      </trkpt>
      <trkpt lat="46.70871" lon="-1.91774">
        <ele>19</ele>
        <time>2018-03-27T14:39:03Z</time>
      </trkpt>
      <trkpt lat="46.70871" lon="-1.91775">
        <ele>19</ele>
        <time>2018-03-27T14:40:03Z</time>
      </trkpt>
      <trkpt lat="46.70871" lon="-1.91776">
        <ele>19</ele>
        <time>2018-03-27T14:41:03Z</time>
      </trkpt>
      <trkpt lat="46.70871" lon="-1.91777">
        <ele>19</ele>
        <time>2018-03-27T14:42:03Z</time>
      </trkpt>
      <trkpt lat="46.70871" lon="-1.91778">
        <ele>19</ele>
        <time>2018-03-27T14:43:03Z</time>
      </trkpt>
      <trkpt lat="46.70871" lon="-1.91779">
        <ele>19</ele>
        <time>2018-03-27T14:44:03Z</time>
      </trkpt>
      <trkpt lat="46.7087" lon="-1.91779">
        <ele>19</ele>
        <time>2018-03-27T14:45:03Z</time>
      </trkpt>
      <trkpt lat="46.7087" lon="-1.9178">
        <ele>19</ele>
        <time>2018-03-27T14:46:03Z</time>
      </trkpt>
      <trkpt lat="46.7087" lon="-1.91781">
        <ele>19</ele>
        <time>2018-03-27T14:47:03Z</time>
      </trkpt>
      <trkpt lat="46.7087" lon="-1.91782">
        <ele>19</ele>
        <time>2018-03-27T14:48:03Z</time>
      </trkpt>
      <trkpt lat="46.70869" lon="-1.91782">
        <ele>19</ele>
        <time>2018-03-27T14:49:03Z</time>
      </trkpt>
      <trkpt lat="46.70869" lon="-1.91783">
        <ele>19</ele>
        <time>2018-03-27T14:50:03Z</time>
      </trkpt>
      <trkpt lat="46.70868" lon="-1.91784">
        <ele>19</ele>
        <time>2018-03-27T14:51:03Z</time>
      </trkpt>
      <trkpt lat="46.70868" lon="-1.91785">
        <ele>19</ele>
        <time>2018-03-27T14:52:03Z</time>
      </trkpt>
      <trkpt lat="46.70867" lon="-1.91785">
        <ele>19</ele>
        <time>2018-03-27T14:53:03Z</time>
      </trkpt>
      <trkpt lat="46.70866" lon="-1.91786">
        <ele>19</ele>
        <time>2018-03-27T14:54:03Z</time>
      </trkpt>
      <trkpt lat="46.70865" lon="-1.91786">
        <ele>19</ele>
        <time>2018-03-27T14:55:03Z</time>
      </trkpt>
      <trkpt lat="46.70864" lon="-1.91786">
        <ele>19</ele>
        <time>2018-03-27T14:56:03Z</time>
      </trkpt>
      <trkpt lat="46.70864" lon="-1.91787">
        <ele>19</ele>
        <time>2018-03-27T14:57:03Z</time>
      </trkpt>
      <trkpt lat="46.70863" lon="-1.91787">
        <ele>19</ele>
        <time>2018-03-27T14:58:03Z</time>
      </trkpt>
      <trkpt lat="46.70862" lon="-1.91787">
        <ele>19</ele>
        <time>2018-03-27T14:59:03Z</time>
      </trkpt>
      <trkpt lat="46.70861" lon="-1.91787">
        <ele>19</ele>
        <time>2018-03-27T15:00:03Z</time>
      </trkpt>
      <trkpt lat="46.70861" lon="-1.91786">
        <ele>19</ele>
        <time>2018-03-27T15:01:03Z</time>
      </trkpt>
      <trkpt lat="46.7086" lon="-1.91786">
        <ele>19</ele>
        <time>2018-03-27T15:02:03Z</time>
      </trkpt>
      <trkpt lat="46.70859" lon="-1.91786">
        <ele>19</ele>
        <time>2018-03-27T15:03:03Z</time>
      </trkpt>
      <trkpt lat="46.70859" lon="-1.91785">
        <ele>19</ele>
        <time>2018-03-27T15:04:03Z</time>
      </trkpt>
      <trkpt lat="46.70858" lon="-1.91785">
        <ele>19</ele>
        <time>2018-03-27T15:05:03Z</time>
      </trkpt>
      <trkpt lat="46.70858" lon="-1.91784">
        <ele>19</ele>
        <time>2018-03-27T15:06:03Z</time>
      </trkpt>
      <trkpt lat="46.70836" lon="-1.9181">
        <ele>20</ele>
        <time>2018-03-27T15:07:03Z</time>
      </trkpt>
      <trkpt lat="46.70799" lon="-1.91849">
        <ele>20</ele>
        <time>2018-03-27T15:08:03Z</time>
      </trkpt>
      <trkpt lat="46.70793" lon="-1.91854">
        <ele>20</ele>
        <time>2018-03-27T15:09:03Z</time>
      </trkpt>
      <trkpt lat="46.70789" lon="-1.91861">
        <ele>19</ele>
        <time>2018-03-27T15:10:03Z</time>
      </trkpt>
      <trkpt lat="46.70758" lon="-1.91893">
        <ele>19</ele>
        <time>2018-03-27T15:11:03Z</time>
      </trkpt>
      <trkpt lat="46.7073" lon="-1.91923">
        <ele>18</ele>
        <time>2018-03-27T15:12:03Z</time>
      </trkpt>
      <trkpt lat="46.70726" lon="-1.91928">
        <ele>19</ele>
        <time>2018-03-27T15:13:03Z</time>
      </trkpt>
      <trkpt lat="46.70721" lon="-1.9193">
        <ele>19</ele>
        <time>2018-03-27T15:14:03Z</time>
      </trkpt>
      <trkpt lat="46.70684" lon="-1.91967">
        <ele>19</ele>
        <time>2018-03-27T15:15:03Z</time>
      </trkpt>
      <trkpt lat="46.70677" lon="-1.91974">
        <ele>19</ele>
        <time>2018-03-27T15:16:03Z</time>
      </trkpt>
      <trkpt lat="46.70671" lon="-1.91985">
        <ele>19</ele>
        <time>2018-03-27T15:17:03Z</time>
      </trkpt>
      <trkpt lat="46.70655" lon="-1.92006">
        <ele>19</ele>
        <time>2018-03-27T15:18:03Z</time>
      </trkpt>
      <trkpt lat="46.70655" lon="-1.92006">
        <ele>19</ele>
        <time>2018-03-27T15:19:03Z</time>
      </trkpt>
      <trkpt lat="46.70655" lon="-1.92007">
        <ele>19</ele>
        <time>2018-03-27T15:20:03Z</time>
      </trkpt>
      <trkpt lat="46.70655" lon="-1.92008">
        <ele>19</ele>
        <time>2018-03-27T15:21:03Z</time>
      </trkpt>
      <trkpt lat="46.70655" lon="-1.92009">
        <ele>19</ele>
        <time>2018-03-27T15:22:03Z</time>
      </trkpt>
      <trkpt lat="46.70655" lon="-1.9201">
        <ele>19</ele>
        <time>2018-03-27T15:23:03Z</time>
      </trkpt>
      <trkpt lat="46.70655" lon="-1.92011">
        <ele>19</ele>
        <time>2018-03-27T15:24:03Z</time>
      </trkpt>
      <trkpt lat="46.70655" lon="-1.92012">
        <ele>19</ele>
        <time>2018-03-27T15:25:03Z</time>
      </trkpt>
      <trkpt lat="46.70655" lon="-1.92013">
        <ele>19</ele>
        <time>2018-03-27T15:26:03Z</time>
      </trkpt>
      <trkpt lat="46.70655" lon="-1.92014">
        <ele>19</ele>
        <time>2018-03-27T15:27:03Z</time>
      </trkpt>
      <trkpt lat="46.70655" lon="-1.92015">
        <ele>19</ele>
        <time>2018-03-27T15:28:03Z</time>
      </trkpt>
      <trkpt lat="46.70654" lon="-1.92015">
        <ele>19</ele>
        <time>2018-03-27T15:29:03Z</time>
      </trkpt>
      <trkpt lat="46.70654" lon="-1.92016">
        <ele>19</ele>
        <time>2018-03-27T15:30:03Z</time>
      </trkpt>
      <trkpt lat="46.70654" lon="-1.92017">
        <ele>19</ele>
        <time>2018-03-27T15:31:03Z</time>
      </trkpt>
      <trkpt lat="46.70654" lon="-1.92018">
        <ele>19</ele>
        <time>2018-03-27T15:32:03Z</time>
      </trkpt>
      <trkpt lat="46.70653" lon="-1.92019">
        <ele>19</ele>
        <time>2018-03-27T15:33:03Z</time>
      </trkpt>
      <trkpt lat="46.70653" lon="-1.9202">
        <ele>19</ele>
        <time>2018-03-27T15:34:03Z</time>
      </trkpt>
      <trkpt lat="46.70652" lon="-1.92021">
        <ele>19</ele>
        <time>2018-03-27T15:35:03Z</time>
      </trkpt>
      <trkpt lat="46.70652" lon="-1.92022">
        <ele>19</ele>
        <time>2018-03-27T15:36:03Z</time>
      </trkpt>
      <trkpt lat="46.70651" lon="-1.92022">
        <ele>19</ele>
        <time>2018-03-27T15:37:03Z</time>
      </trkpt>
      <trkpt lat="46.70651" lon="-1.92023">
        <ele>19</ele>
        <time>2018-03-27T15:38:03Z</time>
      </trkpt>
      <trkpt lat="46.7065" lon="-1.92023">
        <ele>19</ele>
        <time>2018-03-27T15:39:03Z</time>
      </trkpt>
      <trkpt lat="46.70649" lon="-1.92024">
        <ele>19</ele>
        <time>2018-03-27T15:40:03Z</time>
      </trkpt>
      <trkpt lat="46.70644" lon="-1.92039">
        <ele>19</ele>
        <time>2018-03-27T15:41:03Z</time>
      </trkpt>
      <trkpt lat="46.70642" lon="-1.9205">
        <ele>19</ele>
        <time>2018-03-27T15:42:03Z</time>
      </trkpt>
      <trkpt lat="46.70642" lon="-1.92056">
        <ele>19</ele>
        <time>2018-03-27T15:43:03Z</time>
      </trkpt>
      <trkpt lat="46.7064" lon="-1.92095">
        <ele>20</ele>
        <time>2018-03-27T15:44:03Z</time>
      </trkpt>
      <trkpt lat="46.7064" lon="-1.92109">
        <ele>20</ele>
        <time>2018-03-27T15:45:03Z</time>
      </trkpt>
      <trkpt lat="46.70639" lon="-1.92134">
        <ele>19</ele>
        <time>2018-03-27T15:46:03Z</time>
      </trkpt>
      <trkpt lat="46.70637" lon="-1.92186">
        <ele>19</ele>
        <time>2018-03-27T15:47:03Z</time>
      </trkpt>
      <trkpt lat="46.70634" lon="-1.92221">
        <ele>19</ele>
        <time>2018-03-27T15:48:03Z</time>
      </trkpt>
      <trkpt lat="46.70628" lon="-1.92248">
        <ele>20</ele>
        <time>2018-03-27T15:49:03Z</time>
      </trkpt>
      <trkpt lat="46.70619" lon="-1.92271">
        <ele>19</ele>
        <time>2018-03-27T15:50:03Z</time>
      </trkpt>
      <trkpt lat="46.7061" lon="-1.92289">
        <ele>19</ele>
        <time>2018-03-27T15:51:03Z</time>
      </trkpt>
      <trkpt lat="46.70602" lon="-1.92304">
        <ele>18</ele>
        <time>2018-03-27T15:52:03Z</time>
      </trkpt>
      <trkpt lat="46.70586" lon="-1.92327">
        <ele>18</ele>
        <time>2018-03-27T15:53:03Z</time>
      </trkpt>
      <trkpt lat="46.70582" lon="-1.92333">
        <ele>18</ele>
        <time>2018-03-27T15:54:03Z</time>
      </trkpt>
      <trkpt lat="46.70571" lon="-1.92356">
        <ele>17</ele>
        <time>2018-03-27T15:55:03Z</time>
      </trkpt>
      <trkpt lat="46.70562" lon="-1.92377">
        <ele>17</ele>
        <time>2018-03-27T15:56:03Z</time>
      </trkpt>
      <trkpt lat="46.70559" lon="-1.92387">
        <ele>16</ele>
        <time>2018-03-27T15:57:03Z</time>
      </trkpt>
      <trkpt lat="46.70555" lon="-1.92398">
        <ele>16</ele>
        <time>2018-03-27T15:58:03Z</time>
      </trkpt>
      <trkpt lat="46.70552" lon="-1.92414">
        <ele>16</ele>
        <time>2018-03-27T15:59:03Z</time>
      </trkpt>
      <trkpt lat="46.70546" lon="-1.92441">
        <ele>15</ele>
        <time>2018-03-27T16:00:03Z</time>
      </trkpt>
      <trkpt lat="46.70541" lon="-1.92464">
        <ele>15</ele>
        <time>2018-03-27T16:01:03Z</time>
      </trkpt>
      <trkpt lat="46.7054" lon="-1.92472">
        <ele>15</ele>
        <time>2018-03-27T16:02:03Z</time>
      </trkpt>
      <trkpt lat="46.70535" lon="-1.92496">
        <ele>14</ele>
        <time>2018-03-27T16:03:03Z</time>
      </trkpt>
      <trkpt lat="46.70534" lon="-1.925">
        <ele>14</ele>
        <time>2018-03-27T16:04:03Z</time>
      </trkpt>
      <trkpt lat="46.70533" lon="-1.92502">
        <ele>14</ele>
        <time>2018-03-27T16:05:03Z</time>
      </trkpt>
      <trkpt lat="46.70527" lon="-1.92538">
        <ele>13</ele>
        <time>2018-03-27T16:06:03Z</time>
      </trkpt>
      <trkpt lat="46.70523" lon="-1.92561">
        <ele>12</ele>
        <time>2018-03-27T16:07:03Z</time>
      </trkpt>
      <trkpt lat="46.70524" lon="-1.92565">
        <ele>12</ele>
        <time>2018-03-27T16:08:03Z</time>
      </trkpt>
      <trkpt lat="46.70525" lon="-1.92575">
        <ele>12</ele>
        <time>2018-03-27T16:09:03Z</time>
      </trkpt>
      <trkpt lat="46.70525" lon="-1.92582">
        <ele>12</ele>
        <time>2018-03-27T16:10:03Z</time>
      </trkpt>
      <trkpt lat="46.70525" lon="-1.92582">
        <ele>12</ele>
        <time>2018-03-27T16:11:03Z</time>
      </trkpt>
      <trkpt lat="46.70529" lon="-1.92587">
        <ele>12</ele>
        <time>2018-03-27T16:12:03Z</time>
      </trkpt>
      <trkpt lat="46.7053" lon="-1.92592">
        <ele>12</ele>
        <time>2018-03-27T16:13:03Z</time>
      </trkpt>
      <trkpt lat="46.70531" lon="-1.92598">
        <ele>12</ele>
        <time>2018-03-27T16:14:03Z</time>
      </trkpt>
      <trkpt lat="46.7053" lon="-1.92602">
        <ele>12</ele>
        <time>2018-03-27T16:15:03Z</time>
      </trkpt>
      <trkpt lat="46.70528" lon="-1.92606">
        <ele>12</ele>
        <time>2018-03-27T16:16:03Z</time>
      </trkpt>
      <trkpt lat="46.70527" lon="-1.92607">
        <ele>12</ele>
        <time>2018-03-27T16:17:03Z</time>
      </trkpt>
      <trkpt lat="46.70525" lon="-1.92609">
        <ele>12</ele>
        <time>2018-03-27T16:18:03Z</time>
      </trkpt>
      <trkpt lat="46.70523" lon="-1.92609">
        <ele>11</ele>
        <time>2018-03-27T16:19:03Z</time>
      </trkpt>
      <trkpt lat="46.70512" lon="-1.92624">
        <ele>11</ele>
        <time>2018-03-27T16:20:03Z</time>
      </trkpt>
      <trkpt lat="46.70507" lon="-1.92632">
        <ele>11</ele>
        <time>2018-03-27T16:21:03Z</time>
      </trkpt>
      <trkpt lat="46.70504" lon="-1.92634">
        <ele>11</ele>
        <time>2018-03-27T16:22:03Z</time>
      </trkpt>
      <trkpt lat="46.70499" lon="-1.9265">
        <ele>11</ele>
        <time>2018-03-27T16:23:03Z</time>
      </trkpt>
      <trkpt lat="46.70496" lon="-1.9267">
        <ele>11</ele>
        <time>2018-03-27T16:24:03Z</time>
      </trkpt>
      <trkpt lat="46.70489" lon="-1.92701">
        <ele>10</ele>
        <time>2018-03-27T16:25:03Z</time>
      </trkpt>
      <trkpt lat="46.70484" lon="-1.9273">
        <ele>9</ele>
        <time>2018-03-27T16:26:03Z</time>
      </trkpt>
      <trkpt lat="46.70482" lon="-1.92747">
        <ele>8</ele>
        <time>2018-03-27T16:27:03Z</time>
      </trkpt>
      <trkpt lat="46.70478" lon="-1.92796">
        <ele>8</ele>
        <time>2018-03-27T16:28:03Z</time>
      </trkpt>
      <trkpt lat="46.70475" lon="-1.92841">
        <ele>8</ele>
        <time>2018-03-27T16:29:03Z</time>
      </trkpt>
      <trkpt lat="46.70472" lon="-1.92898">
        <ele>8</ele>
        <time>2018-03-27T16:30:03Z</time>
      </trkpt>
      <trkpt lat="46.70468" lon="-1.92952">
        <ele>7</ele>
        <time>2018-03-27T16:31:03Z</time>
      </trkpt>
      <trkpt lat="46.70465" lon="-1.93009">
        <ele>6</ele>
        <time>2018-03-27T16:32:03Z</time>
      </trkpt>
      <trkpt lat="46.70462" lon="-1.93045">
        <ele>6</ele>
        <time>2018-03-27T16:33:03Z</time>
      </trkpt>
      <trkpt lat="46.70458" lon="-1.93108">
        <ele>5</ele>
        <time>2018-03-27T16:34:03Z</time>
      </trkpt>
      <trkpt lat="46.70455" lon="-1.93156">
        <ele>5</ele>
        <time>2018-03-27T16:35:03Z</time>
      </trkpt>
      <trkpt lat="46.70452" lon="-1.93209">
        <ele>4</ele>
        <time>2018-03-27T16:36:03Z</time>
      </trkpt>
      <trkpt lat="46.70449" lon="-1.93254">
        <ele>3</ele>
        <time>2018-03-27T16:37:03Z</time>
      </trkpt>
      <trkpt lat="46.70449" lon="-1.93267">
        <ele>3</ele>
        <time>2018-03-27T16:38:03Z</time>
      </trkpt>
      <trkpt lat="46.70449" lon="-1.93267">
        <ele>3</ele>
        <time>2018-03-27T16:39:03Z</time>
      </trkpt>
      <trkpt lat="46.70439" lon="-1.93265">
        <ele>3</ele>
        <time>2018-03-27T16:40:03Z</time>
      </trkpt>
      <trkpt lat="46.70429" lon="-1.93262">
        <ele>3</ele>
        <time>2018-03-27T16:41:03Z</time>
      </trkpt>
      <trkpt lat="46.70419" lon="-1.93258">
        <ele>3</ele>
        <time>2018-03-27T16:42:03Z</time>
      </trkpt>
      <trkpt lat="46.70398" lon="-1.93249">
        <ele>3</ele>
        <time>2018-03-27T16:43:03Z</time>
      </trkpt>
      <trkpt lat="46.70362" lon="-1.9324">
        <ele>2</ele>
        <time>2018-03-27T16:44:03Z</time>
      </trkpt>
      <trkpt lat="46.70328" lon="-1.93232">
        <ele>2</ele>
        <time>2018-03-27T16:45:03Z</time>
      </trkpt>
      <trkpt lat="46.70304" lon="-1.9323">
        <ele>2</ele>
        <time>2018-03-27T16:46:03Z</time>
      </trkpt>
      <trkpt lat="46.70304" lon="-1.9323">
        <ele>2</ele>
        <time>2018-03-27T16:47:03Z</time>
      </trkpt>
      <trkpt lat="46.70295" lon="-1.93245">
        <ele>2</ele>
        <time>2018-03-27T16:48:03Z</time>
      </trkpt>
      <trkpt lat="46.70288" lon="-1.93253">
        <ele>2</ele>
        <time>2018-03-27T16:49:03Z</time>
      </trkpt>
      <trkpt lat="46.7028" lon="-1.9326">
        <ele>2</ele>
        <time>2018-03-27T16:50:03Z</time>
      </trkpt>
      <trkpt lat="46.70276" lon="-1.93263">
        <ele>2</ele>
        <time>2018-03-27T16:51:03Z</time>
      </trkpt>
      <trkpt lat="46.70263" lon="-1.93271">
        <ele>2</ele>
        <time>2018-03-27T16:52:03Z</time>
      </trkpt>
      <trkpt lat="46.70251" lon="-1.9328">
        <ele>2</ele>
        <time>2018-03-27T16:53:03Z</time>
      </trkpt>
      <trkpt lat="46.70239" lon="-1.93295">
        <ele>2</ele>
        <time>2018-03-27T16:54:03Z</time>
      </trkpt>
      <trkpt lat="46.70224" lon="-1.9332">
        <ele>1</ele>
        <time>2018-03-27T16:55:03Z</time>
      </trkpt>
      <trkpt lat="46.70216" lon="-1.93332">
        <ele>1</ele>
        <time>2018-03-27T16:56:03Z</time>
      </trkpt>
      <trkpt lat="46.70211" lon="-1.9334">
        <ele>1</ele>
        <time>2018-03-27T16:57:03Z</time>
      </trkpt>
      <trkpt lat="46.70205" lon="-1.93347">
        <ele>1</ele>
        <time>2018-03-27T16:58:03Z</time>
      </trkpt>
      <trkpt lat="46.70194" lon="-1.93356">
        <ele>1</ele>
        <time>2018-03-27T16:59:03Z</time>
      </trkpt>
      <trkpt lat="46.70181" lon="-1.93366">
        <ele>2</ele>
        <time>2018-03-27T17:00:03Z</time>
      </trkpt>
      <trkpt lat="46.70173" lon="-1.93372">
        <ele>1</ele>
        <time>2018-03-27T17:01:03Z</time>
      </trkpt>
      <trkpt lat="46.7017" lon="-1.93374">
        <ele>1</ele>
        <time>2018-03-27T17:02:03Z</time>
      </trkpt>
      <trkpt lat="46.70166" lon="-1.9338">
        <ele>1</ele>
        <time>2018-03-27T17:03:03Z</time>
      </trkpt>
      <trkpt lat="46.70161" lon="-1.93382">
        <ele>1</ele>
        <time>2018-03-27T17:04:03Z</time>
      </trkpt>
      <trkpt lat="46.70152" lon="-1.93386">
        <ele>1</ele>
        <time>2018-03-27T17:05:03Z</time>
      </trkpt>
      <trkpt lat="46.70141" lon="-1.93391">
        <ele>1</ele>
        <time>2018-03-27T17:06:03Z</time>
      </trkpt>
      <trkpt lat="46.70141" lon="-1.93391">
        <ele>1</ele>
        <time>2018-03-27T17:07:03Z</time>
      </trkpt>
      <trkpt lat="46.70141" lon="-1.93393">
        <ele>1</ele>
        <time>2018-03-27T17:08:03Z</time>
      </trkpt>
      <trkpt lat="46.70141" lon="-1.93394">
        <ele>1</ele>
        <time>2018-03-27T17:09:03Z</time>
      </trkpt>
      <trkpt lat="46.70141" lon="-1.93395">
        <ele>1</ele>
        <time>2018-03-27T17:10:03Z</time>
      </trkpt>
      <trkpt lat="46.7014" lon="-1.93396">
        <ele>1</ele>
        <time>2018-03-27T17:11:03Z</time>
      </trkpt>
      <trkpt lat="46.7014" lon="-1.93397">
        <ele>1</ele>
        <time>2018-03-27T17:12:03Z</time>
      </trkpt>
      <trkpt lat="46.7014" lon="-1.93398">
        <ele>1</ele>
        <time>2018-03-27T17:13:03Z</time>
      </trkpt>
      <trkpt lat="46.70139" lon="-1.93399">
        <ele>1</ele>
        <time>2018-03-27T17:14:03Z</time>
      </trkpt>
      <trkpt lat="46.70139" lon="-1.93401">
        <ele>1</ele>
        <time>2018-03-27T17:15:03Z</time>
      </trkpt>
      <trkpt lat="46.70138" lon="-1.93402">
        <ele>1</ele>
        <time>2018-03-27T17:16:03Z</time>
      </trkpt>
      <trkpt lat="46.70138" lon="-1.93403">
        <ele>1</ele>
        <time>2018-03-27T17:17:03Z</time>
      </trkpt>
      <trkpt lat="46.70137" lon="-1.93403">
        <ele>1</ele>
        <time>2018-03-27T17:18:03Z</time>
      </trkpt>
      <trkpt lat="46.70136" lon="-1.93404">
        <ele>1</ele>
        <time>2018-03-27T17:19:03Z</time>
      </trkpt>
      <trkpt lat="46.70136" lon="-1.93405">
        <ele>1</ele>
        <time>2018-03-27T17:20:03Z</time>
      </trkpt>
      <trkpt lat="46.70135" lon="-1.93406">
        <ele>1</ele>
        <time>2018-03-27T17:21:03Z</time>
      </trkpt>
      <trkpt lat="46.70134" lon="-1.93406">
        <ele>1</ele>
        <time>2018-03-27T17:22:03Z</time>
      </trkpt>
      <trkpt lat="46.70133" lon="-1.93407">
        <ele>1</ele>
        <time>2018-03-27T17:23:03Z</time>
      </trkpt>
      <trkpt lat="46.70132" lon="-1.93408">
        <ele>1</ele>
        <time>2018-03-27T17:24:03Z</time>
      </trkpt>
      <trkpt lat="46.70131" lon="-1.93408">
        <ele>1</ele>
        <time>2018-03-27T17:25:03Z</time>
      </trkpt>
      <trkpt lat="46.7013" lon="-1.93409">
        <ele>1</ele>
        <time>2018-03-27T17:26:03Z</time>
      </trkpt>
      <trkpt lat="46.70129" lon="-1.93409">
        <ele>1</ele>
        <time>2018-03-27T17:27:03Z</time>
      </trkpt>
      <trkpt lat="46.70128" lon="-1.93409">
        <ele>1</ele>
        <time>2018-03-27T17:28:03Z</time>
      </trkpt>
      <trkpt lat="46.70127" lon="-1.93409">
        <ele>1</ele>
        <time>2018-03-27T17:29:03Z</time>
      </trkpt>
      <trkpt lat="46.70126" lon="-1.93409">
        <ele>1</ele>
        <time>2018-03-27T17:30:03Z</time>
      </trkpt>
      <trkpt lat="46.70125" lon="-1.93409">
        <ele>1</ele>
        <time>2018-03-27T17:31:03Z</time>
      </trkpt>
      <trkpt lat="46.70124" lon="-1.93408">
        <ele>2</ele>
        <time>2018-03-27T17:32:03Z</time>
      </trkpt>
      <trkpt lat="46.70123" lon="-1.93408">
        <ele>2</ele>
        <time>2018-03-27T17:33:03Z</time>
      </trkpt>
      <trkpt lat="46.70122" lon="-1.93407">
        <ele>2</ele>
        <time>2018-03-27T17:34:03Z</time>
      </trkpt>
      <trkpt lat="46.70121" lon="-1.93407">
        <ele>2</ele>
        <time>2018-03-27T17:35:03Z</time>
      </trkpt>
      <trkpt lat="46.7012" lon="-1.93406">
        <ele>2</ele>
        <time>2018-03-27T17:36:03Z</time>
      </trkpt>
      <trkpt lat="46.7012" lon="-1.93405">
        <ele>2</ele>
        <time>2018-03-27T17:37:03Z</time>
      </trkpt>
      <trkpt lat="46.70119" lon="-1.93405">
        <ele>2</ele>
        <time>2018-03-27T17:38:03Z</time>
      </trkpt>
      <trkpt lat="46.70107" lon="-1.93404">
        <ele>2</ele>
        <time>2018-03-27T17:39:03Z</time>
      </trkpt>
      <trkpt lat="46.701" lon="-1.93405">
        <ele>2</ele>
        <time>2018-03-27T17:40:03Z</time>
      </trkpt>
      <trkpt lat="46.70092" lon="-1.93406">
        <ele>2</ele>
        <time>2018-03-27T17:41:03Z</time>
      </trkpt>
      <trkpt lat="46.70088" lon="-1.93406">
        <ele>2</ele>
        <time>2018-03-27T17:42:03Z</time>
      </trkpt>
      <trkpt lat="46.70085" lon="-1.93405">
        <ele>2</ele>
        <time>2018-03-27T17:43:03Z</time>
      </trkpt>
      <trkpt lat="46.70083" lon="-1.93405">
        <ele>2</ele>
        <time>2018-03-27T17:44:03Z</time>
      </trkpt>
      <trkpt lat="46.70062" lon="-1.93405">
        <ele>2</ele>
        <time>2018-03-27T17:45:03Z</time>
      </trkpt>
      <trkpt lat="46.70062" lon="-1.93406">
        <ele>2</ele>
        <time>2018-03-27T17:46:03Z</time>
      </trkpt>
      <trkpt lat="46.70062" lon="-1.93407">
        <ele>2</ele>
        <time>2018-03-27T17:47:03Z</time>
      </trkpt>
      <trkpt lat="46.70062" lon="-1.93408">
        <ele>2</ele>
        <time>2018-03-27T17:48:03Z</time>
      </trkpt>
      <trkpt lat="46.70062" lon="-1.93409">
        <ele>2</ele>
        <time>2018-03-27T17:49:03Z</time>
      </trkpt>
      <trkpt lat="46.70062" lon="-1.9341">
        <ele>2</ele>
        <time>2018-03-27T17:50:03Z</time>
      </trkpt>
      <trkpt lat="46.70061" lon="-1.9341">
        <ele>2</ele>
        <time>2018-03-27T17:51:03Z</time>
      </trkpt>
      <trkpt lat="46.70061" lon="-1.93411">
        <ele>2</ele>
        <time>2018-03-27T17:52:03Z</time>
      </trkpt>
      <trkpt lat="46.7006" lon="-1.93411">
        <ele>2</ele>
        <time>2018-03-27T17:53:03Z</time>
      </trkpt>
      <trkpt lat="46.7006" lon="-1.93412">
        <ele>2</ele>
        <time>2018-03-27T17:54:03Z</time>
      </trkpt>
      <trkpt lat="46.70059" lon="-1.93412">
        <ele>2</ele>
        <time>2018-03-27T17:55:03Z</time>
      </trkpt>
      <trkpt lat="46.70059" lon="-1.93413">
        <ele>2</ele>
        <time>2018-03-27T17:56:03Z</time>
      </trkpt>
      <trkpt lat="46.70058" lon="-1.93413">
        <ele>2</ele>
        <time>2018-03-27T17:57:03Z</time>
      </trkpt>
      <trkpt lat="46.70057" lon="-1.93413">
        <ele>2</ele>
        <time>2018-03-27T17:58:03Z</time>
      </trkpt>
      <trkpt lat="46.70056" lon="-1.93413">
        <ele>2</ele>
        <time>2018-03-27T17:59:03Z</time>
      </trkpt>
      <trkpt lat="46.70055" lon="-1.93413">
        <ele>2</ele>
        <time>2018-03-27T18:00:03Z</time>
      </trkpt>
      <trkpt lat="46.70055" lon="-1.93412">
        <ele>2</ele>
        <time>2018-03-27T18:01:03Z</time>
      </trkpt>
      <trkpt lat="46.70054" lon="-1.93412">
        <ele>2</ele>
        <time>2018-03-27T18:02:03Z</time>
      </trkpt>
      <trkpt lat="46.70054" lon="-1.93411">
        <ele>2</ele>
        <time>2018-03-27T18:03:03Z</time>
      </trkpt>
      <trkpt lat="46.70053" lon="-1.93411">
        <ele>2</ele>
        <time>2018-03-27T18:04:03Z</time>
      </trkpt>
      <trkpt lat="46.70053" lon="-1.9341">
        <ele>2</ele>
        <time>2018-03-27T18:05:03Z</time>
      </trkpt>
      <trkpt lat="46.70053" lon="-1.93409">
        <ele>2</ele>
        <time>2018-03-27T18:06:03Z</time>
      </trkpt>
      <trkpt lat="46.70052" lon="-1.93409">
        <ele>2</ele>
        <time>2018-03-27T18:07:03Z</time>
      </trkpt>
      <trkpt lat="46.70052" lon="-1.93408">
        <ele>2</ele>
        <time>2018-03-27T18:08:03Z</time>
      </trkpt>
      <trkpt lat="46.70052" lon="-1.93407">
        <ele>2</ele>
        <time>2018-03-27T18:09:03Z</time>
      </trkpt>
      <trkpt lat="46.70052" lon="-1.93406">
        <ele>2</ele>
        <time>2018-03-27T18:10:03Z</time>
      </trkpt>
      <trkpt lat="46.70052" lon="-1.93405">
        <ele>2</ele>
        <time>2018-03-27T18:11:03Z</time>
      </trkpt>
      <trkpt lat="46.70046" lon="-1.93402">
        <ele>2</ele>
        <time>2018-03-27T18:12:03Z</time>
      </trkpt>
      <trkpt lat="46.70043" lon="-1.93401">
        <ele>2</ele>
        <time>2018-03-27T18:13:03Z</time>
      </trkpt>
      <trkpt lat="46.70041" lon="-1.934">
        <ele>2</ele>
        <time>2018-03-27T18:14:03Z</time>
      </trkpt>
      <trkpt lat="46.70038" lon="-1.93398">
        <ele>2</ele>
        <time>2018-03-27T18:15:03Z</time>
      </trkpt>
      <trkpt lat="46.70036" lon="-1.93397">
        <ele>2</ele>
        <time>2018-03-27T18:16:03Z</time>
      </trkpt>
      <trkpt lat="46.70033" lon="-1.93394">
        <ele>2</ele>
        <time>2018-03-27T18:17:03Z</time>
      </trkpt>
      <trkpt lat="46.7003" lon="-1.93391">
        <ele>3</ele>
        <time>2018-03-27T18:18:03Z</time>
      </trkpt>
      <trkpt lat="46.70028" lon="-1.93388">
        <ele>3</ele>
        <time>2018-03-27T18:19:03Z</time>
      </trkpt>
      <trkpt lat="46.70025" lon="-1.93386">
        <ele>3</ele>
        <time>2018-03-27T18:20:03Z</time>
      </trkpt>
      <trkpt lat="46.70023" lon="-1.93384">
        <ele>3</ele>
        <time>2018-03-27T18:21:03Z</time>
      </trkpt>
      <trkpt lat="46.7002" lon="-1.93382">
        <ele>3</ele>
        <time>2018-03-27T18:22:03Z</time>
      </trkpt>
      <trkpt lat="46.70015" lon="-1.9338">
        <ele>3</ele>
        <time>2018-03-27T18:23:03Z</time>
      </trkpt>
      <trkpt lat="46.70002" lon="-1.93375">
        <ele>3</ele>
        <time>2018-03-27T18:24:03Z</time>
      </trkpt>
      <trkpt lat="46.69987" lon="-1.93369">
        <ele>3</ele>
        <time>2018-03-27T18:25:03Z</time>
      </trkpt>
      <trkpt lat="46.69982" lon="-1.93367">
        <ele>3</ele>
        <time>2018-03-27T18:26:03Z</time>
      </trkpt>
      <trkpt lat="46.69979" lon="-1.93366">
        <ele>3</ele>
        <time>2018-03-27T18:27:03Z</time>
      </trkpt>
      <trkpt lat="46.69978" lon="-1.93366">
        <ele>3</ele>
        <time>2018-03-27T18:28:03Z</time>
      </trkpt>
      <trkpt lat="46.69976" lon="-1.93367">
        <ele>4</ele>
        <time>2018-03-27T18:29:03Z</time>
      </trkpt>
      <trkpt lat="46.69973" lon="-1.93367">
        <ele>4</ele>
        <time>2018-03-27T18:30:03Z</time>
      </trkpt>
      <trkpt lat="46.69969" lon="-1.9337">
        <ele>4</ele>
        <time>2018-03-27T18:31:03Z</time>
      </trkpt>
      <trkpt lat="46.69963" lon="-1.93373">
        <ele>4</ele>
        <time>2018-03-27T18:32:03Z</time>
      </trkpt>
      <trkpt lat="46.69958" lon="-1.93375">
        <ele>4</ele>
        <time>2018-03-27T18:33:03Z</time>
      </trkpt>
      <trkpt lat="46.69953" lon="-1.93377">
        <ele>4</ele>
        <time>2018-03-27T18:34:03Z</time>
      </trkpt>
      <trkpt lat="46.69949" lon="-1.93379">
        <ele>4</ele>
        <time>2018-03-27T18:35:03Z</time>
      </trkpt>
      <trkpt lat="46.69944" lon="-1.93381">
        <ele>4</ele>
        <time>2018-03-27T18:36:03Z</time>
      </trkpt>
      <trkpt lat="46.69935" lon="-1.93382">
        <ele>4</ele>
        <time>2018-03-27T18:37:03Z</time>
      </trkpt>
      <trkpt lat="46.69925" lon="-1.93383">
        <ele>4</ele>
        <time>2018-03-27T18:38:03Z</time>
      </trkpt>
      <trkpt lat="46.69922" lon="-1.93383">
        <ele>4</ele>
        <time>2018-03-27T18:39:03Z</time>
      </trkpt>
      <trkpt lat="46.69915" lon="-1.93383">
        <ele>4</ele>
        <time>2018-03-27T18:40:03Z</time>
      </trkpt>
      <trkpt lat="46.69915" lon="-1.93384">
        <ele>4</ele>
        <time>2018-03-27T18:41:03Z</time>
      </trkpt>
      <trkpt lat="46.69913" lon="-1.93385">
        <ele>4</ele>
        <time>2018-03-27T18:42:03Z</time>
      </trkpt>
      <trkpt lat="46.69912" lon="-1.93386">
        <ele>4</ele>
        <time>2018-03-27T18:43:03Z</time>
      </trkpt>
      <trkpt lat="46.69911" lon="-1.93386">
        <ele>4</ele>
        <time>2018-03-27T18:44:03Z</time>
      </trkpt>
      <trkpt lat="46.69909" lon="-1.93385">
        <ele>4</ele>
        <time>2018-03-27T18:45:03Z</time>
      </trkpt>
      <trkpt lat="46.69908" lon="-1.93383">
        <ele>4</ele>
        <time>2018-03-27T18:46:03Z</time>
      </trkpt>
      <trkpt lat="46.69901" lon="-1.93383">
        <ele>5</ele>
        <time>2018-03-27T18:47:03Z</time>
      </trkpt>
      <trkpt lat="46.69898" lon="-1.93383">
        <ele>5</ele>
        <time>2018-03-27T18:48:03Z</time>
      </trkpt>
      <trkpt lat="46.69892" lon="-1.93385">
        <ele>5</ele>
        <time>2018-03-27T18:49:03Z</time>
      </trkpt>
      <trkpt lat="46.69824" lon="-1.93411">
        <ele>5</ele>
        <time>2018-03-27T18:50:03Z</time>
      </trkpt>
      <trkpt lat="46.69806" lon="-1.93419">
        <ele>5</ele>
        <time>2018-03-27T18:51:03Z</time>
      </trkpt>
      <trkpt lat="46.69805" lon="-1.93419">
        <ele>5</ele>
        <time>2018-03-27T18:52:03Z</time>
      </trkpt>
    </trkseg>
  </trk>
</gpx>